<?xml version='1.0' encoding='UTF-8'?><gpx version="1.1" creator="JPX - https://github.com/jenetics/jpx" xmlns="http://www.topografix.com/GPX/1/1"><trk><trkseg><trkpt lat="46.0568761759111" lon="12.074340819552033"><ele>307.0</ele><time>2026-03-22T12:19:56.986Z</time></trkpt><trkpt lat="46.05678837903878" lon="12.074369598258608"><ele>307.0</ele><time>2026-03-22T12:19:58.986Z</time></trkpt><trkpt lat="46.05667426652159" lon="12.074435266478567"><ele>307.0</ele><time>2026-03-22T12:20:00.986Z</time></trkpt><trkpt lat="46.056603356952394" lon="12.074598973930842"><ele>307.0</ele><time>2026-03-22T12:20:02.986Z</time></trkpt><trkpt lat="46.05660106157731" lon="12.074700027503576"><ele>307.0</ele><time>2026-03-22T12:20:03.986Z</time></trkpt><trkpt lat="46.05658397969567" lon="12.074817633886036"><ele>309.0</ele><time>2026-03-22T12:20:04.986Z</time></trkpt><trkpt lat="46.05655629063909" lon="12.074945550108694"><ele>311.0</ele><time>2026-03-22T12:20:05.986Z</time></trkpt><trkpt lat="46.05652334020249" lon="12.075081896075037"><ele>313.0</ele><time>2026-03-22T12:20:06.986Z</time></trkpt><trkpt lat="46.056352364064615" lon="12.075634971760854"><ele>314.5</ele><time>2026-03-22T12:20:10.986Z</time></trkpt><trkpt lat="46.05629753632219" lon="12.075842918810057"><ele>316.0</ele><time>2026-03-22T12:20:11.986Z</time></trkpt><trkpt lat="46.05617021658105" lon="12.076250570915827"><ele>316.0</ele><time>2026-03-22T12:20:14.986Z</time></trkpt><trkpt lat="46.05611123188372" lon="12.076423062584283"><ele>316.0</ele><time>2026-03-22T12:20:15.986Z</time></trkpt><trkpt lat="46.05606614454258" lon="12.07659160567603"><ele>316.0</ele><time>2026-03-22T12:20:16.986Z</time></trkpt><trkpt lat="46.05601826076679" lon="12.07675486129979"><ele>316.0</ele><time>2026-03-22T12:20:17.986Z</time></trkpt><trkpt lat="46.055965099523725" lon="12.07692260689464"><ele>317.0</ele><time>2026-03-22T12:20:18.985Z</time></trkpt><trkpt lat="46.05591851191429" lon="12.077079289995241"><ele>318.0</ele><time>2026-03-22T12:20:19.985Z</time></trkpt><trkpt lat="46.0558699681474" lon="12.077239749498078"><ele>319.0</ele><time>2026-03-22T12:20:20.985Z</time></trkpt><trkpt lat="46.055820435880854" lon="12.077403931474317"><ele>320.0</ele><time>2026-03-22T12:20:21.985Z</time></trkpt><trkpt lat="46.05577338914779" lon="12.077560567141436"><ele>322.5</ele><time>2026-03-22T12:20:22.985Z</time></trkpt><trkpt lat="46.05572774919158" lon="12.077717901354072"><ele>325.0</ele><time>2026-03-22T12:20:23.985Z</time></trkpt><trkpt lat="46.055666877715446" lon="12.077862018344694"><ele>327.5</ele><time>2026-03-22T12:20:24.985Z</time></trkpt><trkpt lat="46.05561701023385" lon="12.078020591376303"><ele>330.0</ele><time>2026-03-22T12:20:25.985Z</time></trkpt><trkpt lat="46.05557084107149" lon="12.078176615974938"><ele>331.5</ele><time>2026-03-22T12:20:26.985Z</time></trkpt><trkpt lat="46.0554960840982" lon="12.078310705914808"><ele>333.0</ele><time>2026-03-22T12:20:27.985Z</time></trkpt><trkpt lat="46.055417882175966" lon="12.07842977506749"><ele>334.5</ele><time>2026-03-22T12:20:28.985Z</time></trkpt><trkpt lat="46.05532933082319" lon="12.078533752149264"><ele>336.0</ele><time>2026-03-22T12:20:29.985Z</time></trkpt><trkpt lat="46.055231951276525" lon="12.0786132573253"><ele>336.0</ele><time>2026-03-22T12:20:30.985Z</time></trkpt><trkpt lat="46.05512617936728" lon="12.078676425899427"><ele>336.0</ele><time>2026-03-22T12:20:31.985Z</time></trkpt><trkpt lat="46.05501426270551" lon="12.078724951785432"><ele>336.0</ele><time>2026-03-22T12:20:32.985Z</time></trkpt><trkpt lat="46.054908058475746" lon="12.078745432252585"><ele>336.0</ele><time>2026-03-22T12:20:33.985Z</time></trkpt><trkpt lat="46.0547862739276" lon="12.078771887509442"><ele>339.25</ele><time>2026-03-22T12:20:34.985Z</time></trkpt><trkpt lat="46.054653793312525" lon="12.078743376644312"><ele>342.5</ele><time>2026-03-22T12:20:35.985Z</time></trkpt><trkpt lat="46.054545781476214" lon="12.078714422121843"><ele>345.75</ele><time>2026-03-22T12:20:36.985Z</time></trkpt><trkpt lat="46.05443731100071" lon="12.078645707875358"><ele>349.0</ele><time>2026-03-22T12:20:37.985Z</time></trkpt><trkpt lat="46.05433367071272" lon="12.078589609327913"><ele>349.0</ele><time>2026-03-22T12:20:38.985Z</time></trkpt><trkpt lat="46.0542371109269" lon="12.078527172977225"><ele>349.0</ele><time>2026-03-22T12:20:39.985Z</time></trkpt><trkpt lat="46.05412295253774" lon="12.078454016400402"><ele>349.0</ele><time>2026-03-22T12:20:40.985Z</time></trkpt><trkpt lat="46.05401443076213" lon="12.078430130688282"><ele>349.0</ele><time>2026-03-22T12:20:41.985Z</time></trkpt><trkpt lat="46.0539059795598" lon="12.078412914850945"><ele>350.0</ele><time>2026-03-22T12:20:42.985Z</time></trkpt><trkpt lat="46.05378736195942" lon="12.07839402833926"><ele>351.0</ele><time>2026-03-22T12:20:43.985Z</time></trkpt><trkpt lat="46.05367985793374" lon="12.078374450349248"><ele>352.0</ele><time>2026-03-22T12:20:44.985Z</time></trkpt><trkpt lat="46.053576841797714" lon="12.078301158988195"><ele>353.0</ele><time>2026-03-22T12:20:45.985Z</time></trkpt><trkpt lat="46.05347890786526" lon="12.078204459485057"><ele>353.0</ele><time>2026-03-22T12:20:46.985Z</time></trkpt><trkpt lat="46.05338086160417" lon="12.078126888223993"><ele>353.0</ele><time>2026-03-22T12:20:47.985Z</time></trkpt><trkpt lat="46.053275275421974" lon="12.078082881076991"><ele>353.0</ele><time>2026-03-22T12:20:48.985Z</time></trkpt><trkpt lat="46.05317442943066" lon="12.078071058063824"><ele>353.0</ele><time>2026-03-22T12:20:49.985Z</time></trkpt><trkpt lat="46.05306362368749" lon="12.078113477073067"><ele>353.0</ele><time>2026-03-22T12:20:50.985Z</time></trkpt><trkpt lat="46.052959309199494" lon="12.078169372724217"><ele>355.59999999999997</ele><time>2026-03-22T12:20:51.985Z</time></trkpt><trkpt lat="46.05285045191621" lon="12.078200280917772"><ele>358.2</ele><time>2026-03-22T12:20:52.985Z</time></trkpt><trkpt lat="46.052735176231884" lon="12.0782266760709"><ele>360.8</ele><time>2026-03-22T12:20:53.985Z</time></trkpt><trkpt lat="46.05263116661843" lon="12.07824710970758"><ele>363.4</ele><time>2026-03-22T12:20:54.985Z</time></trkpt><trkpt lat="46.05252682229362" lon="12.078251445964687"><ele>366.0</ele><time>2026-03-22T12:20:55.985Z</time></trkpt><trkpt lat="46.05243370419267" lon="12.078206287056618"><ele>368.4</ele><time>2026-03-22T12:20:56.985Z</time></trkpt><trkpt lat="46.05235160742916" lon="12.07813541425012"><ele>370.8</ele><time>2026-03-22T12:20:57.985Z</time></trkpt><trkpt lat="46.05224786090753" lon="12.078068502023205"><ele>373.2</ele><time>2026-03-22T12:20:58.985Z</time></trkpt><trkpt lat="46.05213867151428" lon="12.078019421155707"><ele>375.59999999999997</ele><time>2026-03-22T12:20:59.985Z</time></trkpt><trkpt lat="46.05203491200198" lon="12.077994282208932"><ele>378.0</ele><time>2026-03-22T12:21:00.985Z</time></trkpt><trkpt lat="46.05193302369307" lon="12.077956078633491"><ele>378.0</ele><time>2026-03-22T12:21:01.984Z</time></trkpt><trkpt lat="46.05183362611065" lon="12.077945180364805"><ele>378.0</ele><time>2026-03-22T12:21:02.984Z</time></trkpt><trkpt lat="46.05173482117714" lon="12.077961414987806"><ele>378.0</ele><time>2026-03-22T12:21:03.984Z</time></trkpt><trkpt lat="46.051635289767425" lon="12.07800767874738"><ele>378.0</ele><time>2026-03-22T12:21:04.984Z</time></trkpt><trkpt lat="46.051535927214154" lon="12.078078893648037"><ele>378.0</ele><time>2026-03-22T12:21:05.984Z</time></trkpt><trkpt lat="46.051429780746304" lon="12.07815209655735"><ele>379.2</ele><time>2026-03-22T12:21:06.984Z</time></trkpt><trkpt lat="46.05133288453529" lon="12.078228266655682"><ele>380.4</ele><time>2026-03-22T12:21:07.984Z</time></trkpt><trkpt lat="46.05123130996054" lon="12.07829782245885"><ele>381.59999999999997</ele><time>2026-03-22T12:21:08.984Z</time></trkpt><trkpt lat="46.05113826109837" lon="12.078386507212151"><ele>382.79999999999995</ele><time>2026-03-22T12:21:09.984Z</time></trkpt><trkpt lat="46.051057016884904" lon="12.07848658162339"><ele>384.0</ele><time>2026-03-22T12:21:10.984Z</time></trkpt><trkpt lat="46.05098694983373" lon="12.078579893478516"><ele>384.6</ele><time>2026-03-22T12:21:11.984Z</time></trkpt><trkpt lat="46.05097102301513" lon="12.07873244803077"><ele>385.2</ele><time>2026-03-22T12:21:12.985Z</time></trkpt><trkpt lat="46.05096758965789" lon="12.078869265842943"><ele>385.8</ele><time>2026-03-22T12:21:13.985Z</time></trkpt><trkpt lat="46.050991628043825" lon="12.0790155623175"><ele>386.40000000000003</ele><time>2026-03-22T12:21:14.985Z</time></trkpt><trkpt lat="46.0510133938681" lon="12.079167714898883"><ele>387.0</ele><time>2026-03-22T12:21:15.985Z</time></trkpt><trkpt lat="46.05101910165543" lon="12.079311213733877"><ele>387.8</ele><time>2026-03-22T12:21:16.985Z</time></trkpt><trkpt lat="46.05101982282327" lon="12.079464601050944"><ele>388.6</ele><time>2026-03-22T12:21:17.985Z</time></trkpt><trkpt lat="46.05098796463557" lon="12.07958538472862"><ele>389.40000000000003</ele><time>2026-03-22T12:21:18.986Z</time></trkpt><trkpt lat="46.050943738627154" lon="12.079679042495943"><ele>390.20000000000005</ele><time>2026-03-22T12:21:19.986Z</time></trkpt><trkpt lat="46.05083780098132" lon="12.079664194347208"><ele>391.0</ele><time>2026-03-22T12:21:20.986Z</time></trkpt><trkpt lat="46.05077053844406" lon="12.07971052853857"><ele>391.33333333333337</ele><time>2026-03-22T12:21:21.986Z</time></trkpt><trkpt lat="46.05070107586214" lon="12.079739824892878"><ele>391.6666666666667</ele><time>2026-03-22T12:21:22.985Z</time></trkpt><trkpt lat="46.05062548503075" lon="12.079785652412852"><ele>392.0</ele><time>2026-03-22T12:21:23.985Z</time></trkpt><trkpt lat="46.05055927503598" lon="12.079860509500026"><ele>392.33333333333337</ele><time>2026-03-22T12:21:24.985Z</time></trkpt><trkpt lat="46.05050946178985" lon="12.079973983662383"><ele>392.6666666666667</ele><time>2026-03-22T12:21:25.985Z</time></trkpt><trkpt lat="46.05047353322109" lon="12.080098814910876"><ele>393.0</ele><time>2026-03-22T12:21:26.985Z</time></trkpt><trkpt lat="46.05043031982602" lon="12.080229731387911"><ele>393.79999999999995</ele><time>2026-03-22T12:21:27.985Z</time></trkpt><trkpt lat="46.050385278888925" lon="12.080361774191667"><ele>394.6</ele><time>2026-03-22T12:21:28.985Z</time></trkpt><trkpt lat="46.05033115211671" lon="12.080487167117198"><ele>395.4</ele><time>2026-03-22T12:21:29.985Z</time></trkpt><trkpt lat="46.05025770774792" lon="12.08059684311991"><ele>396.20000000000005</ele><time>2026-03-22T12:21:30.985Z</time></trkpt><trkpt lat="46.05017385079581" lon="12.080698586865815"><ele>397.0</ele><time>2026-03-22T12:21:31.985Z</time></trkpt><trkpt lat="46.050115775664274" lon="12.080813067429053"><ele>397.20000000000005</ele><time>2026-03-22T12:21:32.985Z</time></trkpt><trkpt lat="46.050072644712536" lon="12.08092631886168"><ele>397.4</ele><time>2026-03-22T12:21:33.985Z</time></trkpt><trkpt lat="46.05003674325237" lon="12.081053785873094"><ele>397.6</ele><time>2026-03-22T12:21:34.985Z</time></trkpt><trkpt lat="46.05002226775151" lon="12.081214258897576"><ele>397.79999999999995</ele><time>2026-03-22T12:21:35.985Z</time></trkpt><trkpt lat="46.0500143555795" lon="12.08138740594674"><ele>398.0</ele><time>2026-03-22T12:21:36.985Z</time></trkpt><trkpt lat="46.05000416457874" lon="12.081560328944708"><ele>398.5</ele><time>2026-03-22T12:21:37.985Z</time></trkpt><trkpt lat="46.04998024053481" lon="12.081736458924976"><ele>399.0</ele><time>2026-03-22T12:21:38.984Z</time></trkpt><trkpt lat="46.04997293425685" lon="12.081922529718234"><ele>399.5</ele><time>2026-03-22T12:21:39.984Z</time></trkpt><trkpt lat="46.04996798889777" lon="12.082105648592535"><ele>400.0</ele><time>2026-03-22T12:21:40.984Z</time></trkpt><trkpt lat="46.04995976242869" lon="12.08229573796112"><ele>403.0</ele><time>2026-03-22T12:21:41.984Z</time></trkpt><trkpt lat="46.04994760404948" lon="12.082484787257988"><ele>406.0</ele><time>2026-03-22T12:21:42.984Z</time></trkpt><trkpt lat="46.04994243491643" lon="12.082666152597618"><ele>409.0</ele><time>2026-03-22T12:21:43.984Z</time></trkpt><trkpt lat="46.04992173831587" lon="12.082846708616687"><ele>412.0</ele><time>2026-03-22T12:21:44.984Z</time></trkpt><trkpt lat="46.04989147621915" lon="12.083018129200687"><ele>412.0</ele><time>2026-03-22T12:21:45.984Z</time></trkpt><trkpt lat="46.04986963627064" lon="12.083197208249143"><ele>412.0</ele><time>2026-03-22T12:21:46.984Z</time></trkpt><trkpt lat="46.0498508331137" lon="12.08336718492829"><ele>412.0</ele><time>2026-03-22T12:21:47.984Z</time></trkpt><trkpt lat="46.04983909700542" lon="12.083533889306864"><ele>412.0</ele><time>2026-03-22T12:21:48.984Z</time></trkpt><trkpt lat="46.04983414224469" lon="12.083700430665257"><ele>413.0</ele><time>2026-03-22T12:21:49.984Z</time></trkpt><trkpt lat="46.04983822656598" lon="12.083873809681302"><ele>414.0</ele><time>2026-03-22T12:21:50.984Z</time></trkpt><trkpt lat="46.04984865143871" lon="12.084046005242984"><ele>415.0</ele><time>2026-03-22T12:21:51.984Z</time></trkpt><trkpt lat="46.049853833846875" lon="12.084226324094395"><ele>416.0</ele><time>2026-03-22T12:21:52.984Z</time></trkpt><trkpt lat="46.04986934637253" lon="12.08439517407774"><ele>416.0</ele><time>2026-03-22T12:21:53.984Z</time></trkpt><trkpt lat="46.049876881876024" lon="12.084563428670757"><ele>416.0</ele><time>2026-03-22T12:21:54.984Z</time></trkpt><trkpt lat="46.049878113508605" lon="12.084727362593274"><ele>416.0</ele><time>2026-03-22T12:21:55.984Z</time></trkpt><trkpt lat="46.04986984883651" lon="12.084883112906079"><ele>416.0</ele><time>2026-03-22T12:21:56.984Z</time></trkpt><trkpt lat="46.04984812434848" lon="12.08505003999382"><ele>417.25</ele><time>2026-03-22T12:21:57.984Z</time></trkpt><trkpt lat="46.0498173613035" lon="12.085222435763258"><ele>418.5</ele><time>2026-03-22T12:21:58.984Z</time></trkpt><trkpt lat="46.049798928863936" lon="12.085388660099676"><ele>419.75</ele><time>2026-03-22T12:21:59.984Z</time></trkpt><trkpt lat="46.04977537373166" lon="12.085558543001664"><ele>421.0</ele><time>2026-03-22T12:22:00.984Z</time></trkpt><trkpt lat="46.049752382216255" lon="12.08573758258072"><ele>421.75</ele><time>2026-03-22T12:22:01.984Z</time></trkpt><trkpt lat="46.04972712113254" lon="12.085903657919244"><ele>422.5</ele><time>2026-03-22T12:22:02.984Z</time></trkpt><trkpt lat="46.049697935049" lon="12.086058988017513"><ele>423.25</ele><time>2026-03-22T12:22:03.984Z</time></trkpt><trkpt lat="46.04964349140748" lon="12.086199082122453"><ele>424.0</ele><time>2026-03-22T12:22:04.984Z</time></trkpt><trkpt lat="46.04959502925979" lon="12.086347479428387"><ele>424.0</ele><time>2026-03-22T12:22:05.984Z</time></trkpt><trkpt lat="46.04957373418044" lon="12.086503611367256"><ele>424.0</ele><time>2026-03-22T12:22:06.984Z</time></trkpt><trkpt lat="46.04955334799584" lon="12.086651393690646"><ele>424.0</ele><time>2026-03-22T12:22:07.984Z</time></trkpt><trkpt lat="46.04951328367531" lon="12.08678268819415"><ele>424.0</ele><time>2026-03-22T12:22:08.984Z</time></trkpt><trkpt lat="46.04947837072179" lon="12.086914158507165"><ele>424.0</ele><time>2026-03-22T12:22:09.984Z</time></trkpt><trkpt lat="46.0494342561413" lon="12.08702997783164"><ele>424.4</ele><time>2026-03-22T12:22:10.984Z</time></trkpt><trkpt lat="46.04938419421009" lon="12.08713809049059"><ele>424.79999999999995</ele><time>2026-03-22T12:22:11.984Z</time></trkpt><trkpt lat="46.04931867584941" lon="12.087216940443213"><ele>425.20000000000005</ele><time>2026-03-22T12:22:12.984Z</time></trkpt><trkpt lat="46.04923610797743" lon="12.08724256290814"><ele>425.6</ele><time>2026-03-22T12:22:13.984Z</time></trkpt><trkpt lat="46.04913878640267" lon="12.087273254055043"><ele>426.0</ele><time>2026-03-22T12:22:14.984Z</time></trkpt><trkpt lat="46.049044321396394" lon="12.087300714165211"><ele>427.8</ele><time>2026-03-22T12:22:15.984Z</time></trkpt><trkpt lat="46.048948951884306" lon="12.087335513175198"><ele>429.6</ele><time>2026-03-22T12:22:16.984Z</time></trkpt><trkpt lat="46.04885499095394" lon="12.08740453824789"><ele>431.4</ele><time>2026-03-22T12:22:17.984Z</time></trkpt><trkpt lat="46.048769850322614" lon="12.087501920992228"><ele>433.2</ele><time>2026-03-22T12:22:18.984Z</time></trkpt><trkpt lat="46.04870407640649" lon="12.08762534983733"><ele>435.0</ele><time>2026-03-22T12:22:19.984Z</time></trkpt><trkpt lat="46.04866292021905" lon="12.08776352038832"><ele>435.4</ele><time>2026-03-22T12:22:20.983Z</time></trkpt><trkpt lat="46.04860039972841" lon="12.087879294592202"><ele>435.8</ele><time>2026-03-22T12:22:21.983Z</time></trkpt><trkpt lat="46.04855192310888" lon="12.088006126287711"><ele>436.20000000000005</ele><time>2026-03-22T12:22:22.983Z</time></trkpt><trkpt lat="46.04850187896738" lon="12.088140899897894"><ele>436.6</ele><time>2026-03-22T12:22:23.983Z</time></trkpt><trkpt lat="46.04844900502038" lon="12.088289233321456"><ele>437.0</ele><time>2026-03-22T12:22:24.983Z</time></trkpt><trkpt lat="46.04839712206941" lon="12.088436877452747"><ele>437.25</ele><time>2026-03-22T12:22:25.983Z</time></trkpt><trkpt lat="46.04834844409799" lon="12.088584515689357"><ele>437.5</ele><time>2026-03-22T12:22:26.983Z</time></trkpt><trkpt lat="46.04829543028669" lon="12.08874828868757"><ele>437.75</ele><time>2026-03-22T12:22:27.983Z</time></trkpt><trkpt lat="46.04824610261728" lon="12.088894897365043"><ele>438.0</ele><time>2026-03-22T12:22:28.983Z</time></trkpt><trkpt lat="46.04820350194037" lon="12.089047730992046"><ele>441.79999999999995</ele><time>2026-03-22T12:22:29.983Z</time></trkpt><trkpt lat="46.0481394016664" lon="12.089172906085759"><ele>445.59999999999997</ele><time>2026-03-22T12:22:30.983Z</time></trkpt><trkpt lat="46.048076493145686" lon="12.089306928912462"><ele>449.40000000000003</ele><time>2026-03-22T12:22:31.983Z</time></trkpt><trkpt lat="46.04802348957355" lon="12.089449838045786"><ele>453.20000000000005</ele><time>2026-03-22T12:22:32.983Z</time></trkpt><trkpt lat="46.04795493933933" lon="12.08958238555206"><ele>457.0</ele><time>2026-03-22T12:22:33.983Z</time></trkpt><trkpt lat="46.04788720021842" lon="12.089713181300088"><ele>457.0</ele><time>2026-03-22T12:22:34.983Z</time></trkpt><trkpt lat="46.0478118150924" lon="12.089836604120904"><ele>457.0</ele><time>2026-03-22T12:22:35.983Z</time></trkpt><trkpt lat="46.04773482056711" lon="12.089965839506744"><ele>457.0</ele><time>2026-03-22T12:22:36.983Z</time></trkpt><trkpt lat="46.047667159916735" lon="12.09010321005327"><ele>457.0</ele><time>2026-03-22T12:22:37.983Z</time></trkpt><trkpt lat="46.04760295663881" lon="12.090243607980259"><ele>457.75</ele><time>2026-03-22T12:22:38.983Z</time></trkpt><trkpt lat="46.047542276533946" lon="12.09039297390649"><ele>458.5</ele><time>2026-03-22T12:22:39.983Z</time></trkpt><trkpt lat="46.04749846798651" lon="12.09055167207134"><ele>459.25</ele><time>2026-03-22T12:22:40.983Z</time></trkpt><trkpt lat="46.04745373182256" lon="12.090716083172754"><ele>460.0</ele><time>2026-03-22T12:22:41.983Z</time></trkpt><trkpt lat="46.047410236876395" lon="12.090867407611663"><ele>461.4</ele><time>2026-03-22T12:22:42.983Z</time></trkpt><trkpt lat="46.04736433191637" lon="12.091024201468459"><ele>462.8</ele><time>2026-03-22T12:22:43.983Z</time></trkpt><trkpt lat="46.04732702240456" lon="12.091173341292091"><ele>464.20000000000005</ele><time>2026-03-22T12:22:44.983Z</time></trkpt><trkpt lat="46.04728353964395" lon="12.091314936942057"><ele>465.6</ele><time>2026-03-22T12:22:45.983Z</time></trkpt><trkpt lat="46.04723120452773" lon="12.091447778321946"><ele>467.0</ele><time>2026-03-22T12:22:46.983Z</time></trkpt><trkpt lat="46.047176820369295" lon="12.09157714846792"><ele>468.0</ele><time>2026-03-22T12:22:47.983Z</time></trkpt><trkpt lat="46.047113002647585" lon="12.091693920732705"><ele>469.00000000000006</ele><time>2026-03-22T12:22:48.983Z</time></trkpt><trkpt lat="46.047035228947415" lon="12.091792803015872"><ele>470.00000000000006</ele><time>2026-03-22T12:22:49.983Z</time></trkpt><trkpt lat="46.04696828705925" lon="12.091880437616949"><ele>471.0</ele><time>2026-03-22T12:22:50.983Z</time></trkpt><trkpt lat="46.04687240798197" lon="12.091941159535644"><ele>472.0</ele><time>2026-03-22T12:22:51.983Z</time></trkpt><trkpt lat="46.046786244833626" lon="12.09201758311193"><ele>472.0</ele><time>2026-03-22T12:22:52.983Z</time></trkpt><trkpt lat="46.04669921576344" lon="12.092094843084423"><ele>472.00000000000006</ele><time>2026-03-22T12:22:53.983Z</time></trkpt><trkpt lat="46.04661486113411" lon="12.09219686319413"><ele>472.00000000000006</ele><time>2026-03-22T12:22:54.983Z</time></trkpt><trkpt lat="46.046521917749786" lon="12.092264264539153"><ele>472.0</ele><time>2026-03-22T12:22:55.983Z</time></trkpt><trkpt lat="46.04643680873224" lon="12.092341702891137"><ele>472.0</ele><time>2026-03-22T12:22:56.983Z</time></trkpt><trkpt lat="46.04634751035624" lon="12.092423032386158"><ele>473.8</ele><time>2026-03-22T12:22:57.983Z</time></trkpt><trkpt lat="46.04625797514837" lon="12.09250595608993"><ele>475.6</ele><time>2026-03-22T12:22:58.983Z</time></trkpt><trkpt lat="46.04616310728168" lon="12.092572589567421"><ele>477.40000000000003</ele><time>2026-03-22T12:22:59.983Z</time></trkpt><trkpt lat="46.046075430739215" lon="12.092650987504259"><ele>479.20000000000005</ele><time>2026-03-22T12:23:00.983Z</time></trkpt><trkpt lat="46.04599125579034" lon="12.092732396706477"><ele>481.0</ele><time>2026-03-22T12:23:01.983Z</time></trkpt><trkpt lat="46.04590731693472" lon="12.09280826699706"><ele>481.0</ele><time>2026-03-22T12:23:02.982Z</time></trkpt><trkpt lat="46.04582273072328" lon="12.09288750846645"><ele>481.0</ele><time>2026-03-22T12:23:03.982Z</time></trkpt><trkpt lat="46.04572776092756" lon="12.092962408877085"><ele>481.0</ele><time>2026-03-22T12:23:04.982Z</time></trkpt><trkpt lat="46.04563813314079" lon="12.093051586689308"><ele>481.0</ele><time>2026-03-22T12:23:05.982Z</time></trkpt><trkpt lat="46.04554227427343" lon="12.09315006849883"><ele>481.0</ele><time>2026-03-22T12:23:06.982Z</time></trkpt><trkpt lat="46.0454465454014" lon="12.093259606325475"><ele>482.25</ele><time>2026-03-22T12:23:07.982Z</time></trkpt><trkpt lat="46.04534254317226" lon="12.093366117686372"><ele>483.5</ele><time>2026-03-22T12:23:08.982Z</time></trkpt><trkpt lat="46.04523901446666" lon="12.093478644810258"><ele>484.75</ele><time>2026-03-22T12:23:09.982Z</time></trkpt><trkpt lat="46.04513882460521" lon="12.093588837771138"><ele>486.0</ele><time>2026-03-22T12:23:10.982Z</time></trkpt><trkpt lat="46.045042293156015" lon="12.093694258134377"><ele>486.0</ele><time>2026-03-22T12:23:11.982Z</time></trkpt><trkpt lat="46.04495054950676" lon="12.093795924758275"><ele>486.0</ele><time>2026-03-22T12:23:12.982Z</time></trkpt><trkpt lat="46.04485891762683" lon="12.093896887315077"><ele>486.0</ele><time>2026-03-22T12:23:13.982Z</time></trkpt><trkpt lat="46.04477579665879" lon="12.094010992758761"><ele>486.0</ele><time>2026-03-22T12:23:14.982Z</time></trkpt><trkpt lat="46.04469870264047" lon="12.094131064197033"><ele>487.75</ele><time>2026-03-22T12:23:15.982Z</time></trkpt><trkpt lat="46.044631393187125" lon="12.094265552754965"><ele>489.5</ele><time>2026-03-22T12:23:16.982Z</time></trkpt><trkpt lat="46.04457614085965" lon="12.09441737559268"><ele>491.25</ele><time>2026-03-22T12:23:17.982Z</time></trkpt><trkpt lat="46.04454080825537" lon="12.094578166793529"><ele>493.0</ele><time>2026-03-22T12:23:18.984Z</time></trkpt><trkpt lat="46.04452257482293" lon="12.09474977275036"><ele>493.5</ele><time>2026-03-22T12:23:19.984Z</time></trkpt><trkpt lat="46.04452285570452" lon="12.09493066751949"><ele>494.0</ele><time>2026-03-22T12:23:20.984Z</time></trkpt><trkpt lat="46.044511957110835" lon="12.095108032164175"><ele>494.5</ele><time>2026-03-22T12:23:21.983Z</time></trkpt><trkpt lat="46.04454023366948" lon="12.09527578101991"><ele>495.0</ele><time>2026-03-22T12:23:22.983Z</time></trkpt><trkpt lat="46.044548945669526" lon="12.095448041184982"><ele>495.0</ele><time>2026-03-22T12:23:23.983Z</time></trkpt><trkpt lat="46.04456769275345" lon="12.095614970932013"><ele>495.0</ele><time>2026-03-22T12:23:24.984Z</time></trkpt><trkpt lat="46.044586303741205" lon="12.095787310912032"><ele>495.0</ele><time>2026-03-22T12:23:25.983Z</time></trkpt><trkpt lat="46.04460432930764" lon="12.09595276752422"><ele>495.0</ele><time>2026-03-22T12:23:26.983Z</time></trkpt><trkpt lat="46.044621425493624" lon="12.096111671500267"><ele>496.75</ele><time>2026-03-22T12:23:27.984Z</time></trkpt><trkpt lat="46.0446348727748" lon="12.09627194755634"><ele>498.5</ele><time>2026-03-22T12:23:28.984Z</time></trkpt><trkpt lat="46.04464411307727" lon="12.09643561212485"><ele>500.25</ele><time>2026-03-22T12:23:29.984Z</time></trkpt><trkpt lat="46.04463779093599" lon="12.096605554709413"><ele>502.0</ele><time>2026-03-22T12:23:30.983Z</time></trkpt><trkpt lat="46.044621488147946" lon="12.096783400873825"><ele>504.25</ele><time>2026-03-22T12:23:31.983Z</time></trkpt><trkpt lat="46.04458000292028" lon="12.096946070334974"><ele>506.5</ele><time>2026-03-22T12:23:32.983Z</time></trkpt><trkpt lat="46.04453611220528" lon="12.09712066591973"><ele>508.75</ele><time>2026-03-22T12:23:33.983Z</time></trkpt><trkpt lat="46.04449410669637" lon="12.097295815411924"><ele>511.0</ele><time>2026-03-22T12:23:34.983Z</time></trkpt><trkpt lat="46.044443592660315" lon="12.097436167756234"><ele>512.3333333333334</ele><time>2026-03-22T12:23:35.983Z</time></trkpt><trkpt lat="46.04436637965996" lon="12.097543596132722"><ele>513.6666666666667</ele><time>2026-03-22T12:23:36.983Z</time></trkpt><trkpt lat="46.044294143969516" lon="12.097610325379788"><ele>515.0</ele><time>2026-03-22T12:23:37.983Z</time></trkpt><trkpt lat="46.04422214621667" lon="12.097620002928505"><ele>516.3333333333334</ele><time>2026-03-22T12:23:38.983Z</time></trkpt><trkpt lat="46.0441395545731" lon="12.09762667082832"><ele>517.6666666666666</ele><time>2026-03-22T12:23:39.983Z</time></trkpt><trkpt lat="46.04405024515284" lon="12.097624691573456"><ele>519.0</ele><time>2026-03-22T12:23:40.983Z</time></trkpt><trkpt lat="46.04395518095238" lon="12.097622328100911"><ele>520.0</ele><time>2026-03-22T12:23:41.983Z</time></trkpt><trkpt lat="46.043854957104976" lon="12.097619836350079"><ele>521.0</ele><time>2026-03-22T12:23:42.983Z</time></trkpt><trkpt lat="46.04375136342648" lon="12.097618699839673"><ele>522.0</ele><time>2026-03-22T12:23:43.983Z</time></trkpt><trkpt lat="46.04365061957931" lon="12.097621124558472"><ele>523.0</ele><time>2026-03-22T12:23:44.983Z</time></trkpt><trkpt lat="46.04355350927774" lon="12.097652754321892"><ele>524.0</ele><time>2026-03-22T12:23:45.983Z</time></trkpt><trkpt lat="46.043459148916966" lon="12.097679414113257"><ele>524.0</ele><time>2026-03-22T12:23:46.983Z</time></trkpt><trkpt lat="46.04336607371035" lon="12.097709131284738"><ele>524.0</ele><time>2026-03-22T12:23:47.983Z</time></trkpt><trkpt lat="46.04328799768257" lon="12.09780608777649"><ele>524.0</ele><time>2026-03-22T12:23:48.983Z</time></trkpt><trkpt lat="46.043238448018684" lon="12.09793364496214"><ele>524.0</ele><time>2026-03-22T12:23:49.983Z</time></trkpt><trkpt lat="46.043181617854" lon="12.098055392894112"><ele>524.0</ele><time>2026-03-22T12:23:50.983Z</time></trkpt><trkpt lat="46.043139885669376" lon="12.098189640554931"><ele>525.5</ele><time>2026-03-22T12:23:51.983Z</time></trkpt><trkpt lat="46.043103605686554" lon="12.098340763457822"><ele>527.0</ele><time>2026-03-22T12:23:52.983Z</time></trkpt><trkpt lat="46.04307476138654" lon="12.098501384684223"><ele>528.5</ele><time>2026-03-22T12:23:53.983Z</time></trkpt><trkpt lat="46.04305504383784" lon="12.098667320253567"><ele>530.0</ele><time>2026-03-22T12:23:54.983Z</time></trkpt><trkpt lat="46.04304511300337" lon="12.098832883175872"><ele>530.0</ele><time>2026-03-22T12:23:55.983Z</time></trkpt><trkpt lat="46.04304227279538" lon="12.098993146196388"><ele>530.0</ele><time>2026-03-22T12:23:56.983Z</time></trkpt><trkpt lat="46.04303176834299" lon="12.0991516424896"><ele>530.0</ele><time>2026-03-22T12:23:57.983Z</time></trkpt><trkpt lat="46.04300939852261" lon="12.099304622301483"><ele>530.0</ele><time>2026-03-22T12:23:58.983Z</time></trkpt><trkpt lat="46.04300416605084" lon="12.099454186965874"><ele>530.0</ele><time>2026-03-22T12:23:59.983Z</time></trkpt><trkpt lat="46.043005300458844" lon="12.099602964719532"><ele>531.0</ele><time>2026-03-22T12:24:00.983Z</time></trkpt><trkpt lat="46.04300782175881" lon="12.099750234445075"><ele>532.0</ele><time>2026-03-22T12:24:01.983Z</time></trkpt><trkpt lat="46.0430103422341" lon="12.099899693381202"><ele>533.0</ele><time>2026-03-22T12:24:02.983Z</time></trkpt><trkpt lat="46.04301319083436" lon="12.10004132233572"><ele>534.0</ele><time>2026-03-22T12:24:03.983Z</time></trkpt><trkpt lat="46.04301222184588" lon="12.100155543692985"><ele>535.0</ele><time>2026-03-22T12:24:04.983Z</time></trkpt><trkpt lat="46.04301151848234" lon="12.10026165458178"><ele>536.4</ele><time>2026-03-22T12:24:05.983Z</time></trkpt><trkpt lat="46.04300136515622" lon="12.1003730216374"><ele>537.8</ele><time>2026-03-22T12:24:06.983Z</time></trkpt><trkpt lat="46.04294537863002" lon="12.100443184303654"><ele>539.2</ele><time>2026-03-22T12:24:07.983Z</time></trkpt><trkpt lat="46.042905485036854" lon="12.100533302779764"><ele>540.6</ele><time>2026-03-22T12:24:08.983Z</time></trkpt><trkpt lat="46.042849922401736" lon="12.100596036362537"><ele>542.0</ele><time>2026-03-22T12:24:09.983Z</time></trkpt><trkpt lat="46.042713860012114" lon="12.100380055025319"><ele>542.0</ele><time>2026-03-22T12:24:25.982Z</time></trkpt><trkpt lat="46.04265375337146" lon="12.100340429879711"><ele>542.0</ele><time>2026-03-22T12:24:26.982Z</time></trkpt><trkpt lat="46.0425830937201" lon="12.100295174130705"><ele>542.0</ele><time>2026-03-22T12:24:27.982Z</time></trkpt><trkpt lat="46.042513317759386" lon="12.100258908846893"><ele>542.0</ele><time>2026-03-22T12:24:28.982Z</time></trkpt><trkpt lat="46.04243109603011" lon="12.100220262833833"><ele>542.0</ele><time>2026-03-22T12:24:29.982Z</time></trkpt><trkpt lat="46.04234022645563" lon="12.10019594907717"><ele>542.0</ele><time>2026-03-22T12:24:30.982Z</time></trkpt><trkpt lat="46.04224461439273" lon="12.10019497376084"><ele>542.0</ele><time>2026-03-22T12:24:31.982Z</time></trkpt><trkpt lat="46.042152843176986" lon="12.10015841336489"><ele>542.0</ele><time>2026-03-22T12:24:32.982Z</time></trkpt><trkpt lat="46.042043488947776" lon="12.100130473783025"><ele>542.0</ele><time>2026-03-22T12:24:33.982Z</time></trkpt><trkpt lat="46.04194353595204" lon="12.100117342411385"><ele>542.0</ele><time>2026-03-22T12:24:34.982Z</time></trkpt><trkpt lat="46.041835300977645" lon="12.100101734663676"><ele>542.0</ele><time>2026-03-22T12:24:35.982Z</time></trkpt><trkpt lat="46.041731341811555" lon="12.10010078195434"><ele>542.0</ele><time>2026-03-22T12:24:36.982Z</time></trkpt><trkpt lat="46.04163277262063" lon="12.100103244272123"><ele>542.0</ele><time>2026-03-22T12:24:37.982Z</time></trkpt><trkpt lat="46.04153943156426" lon="12.100103807600286"><ele>542.0</ele><time>2026-03-22T12:24:38.982Z</time></trkpt><trkpt lat="46.041451186319065" lon="12.100103574857515"><ele>542.0</ele><time>2026-03-22T12:24:39.982Z</time></trkpt><trkpt lat="46.041358366529785" lon="12.100120613400351"><ele>542.0</ele><time>2026-03-22T12:24:40.982Z</time></trkpt><trkpt lat="46.04126449012411" lon="12.100148216643422"><ele>541.4</ele><time>2026-03-22T12:24:41.982Z</time></trkpt><trkpt lat="46.041182773313636" lon="12.100196872174841"><ele>540.8000000000001</ele><time>2026-03-22T12:24:42.982Z</time></trkpt><trkpt lat="46.04109900426664" lon="12.10024799808687"><ele>540.2</ele><time>2026-03-22T12:24:43.982Z</time></trkpt><trkpt lat="46.041027568852094" lon="12.100323138590536"><ele>539.6</ele><time>2026-03-22T12:24:44.982Z</time></trkpt><trkpt lat="46.04095955080656" lon="12.100415023019643"><ele>539.0</ele><time>2026-03-22T12:24:45.982Z</time></trkpt><trkpt lat="46.04089336032822" lon="12.100514287740035"><ele>539.0</ele><time>2026-03-22T12:24:46.982Z</time></trkpt><trkpt lat="46.0408214629079" lon="12.100620652097462"><ele>539.0</ele><time>2026-03-22T12:24:47.982Z</time></trkpt><trkpt lat="46.04075074715645" lon="12.100719793508818"><ele>539.0</ele><time>2026-03-22T12:24:48.982Z</time></trkpt><trkpt lat="46.040674784033506" lon="12.10082886448672"><ele>539.0</ele><time>2026-03-22T12:24:49.982Z</time></trkpt><trkpt lat="46.04059617698499" lon="12.100937105146853"><ele>539.0</ele><time>2026-03-22T12:24:50.982Z</time></trkpt><trkpt lat="46.04051410527112" lon="12.101032055907062"><ele>538.0</ele><time>2026-03-22T12:24:51.982Z</time></trkpt><trkpt lat="46.0404187771165" lon="12.10110244256871"><ele>537.0</ele><time>2026-03-22T12:24:52.982Z</time></trkpt><trkpt lat="46.04031507330748" lon="12.101140944545872"><ele>536.0</ele><time>2026-03-22T12:24:53.982Z</time></trkpt><trkpt lat="46.04020046032041" lon="12.101131819121687"><ele>535.0</ele><time>2026-03-22T12:24:54.981Z</time></trkpt><trkpt lat="46.04010670119356" lon="12.101085292582262"><ele>534.0</ele><time>2026-03-22T12:24:55.981Z</time></trkpt><trkpt lat="46.03999713796965" lon="12.101021726484934"><ele>534.2</ele><time>2026-03-22T12:24:56.981Z</time></trkpt><trkpt lat="46.039912289894986" lon="12.100941781518637"><ele>534.4</ele><time>2026-03-22T12:24:57.981Z</time></trkpt><trkpt lat="46.03983371150769" lon="12.100862430791219"><ele>534.6</ele><time>2026-03-22T12:24:58.981Z</time></trkpt><trkpt lat="46.03976419414423" lon="12.100767568808557"><ele>534.8</ele><time>2026-03-22T12:24:59.981Z</time></trkpt><trkpt lat="46.03969523057346" lon="12.100669643732473"><ele>535.0</ele><time>2026-03-22T12:25:00.981Z</time></trkpt><trkpt lat="46.039625327233736" lon="12.100569739221703"><ele>535.0</ele><time>2026-03-22T12:25:01.981Z</time></trkpt><trkpt lat="46.03954595421274" lon="12.100463215444766"><ele>535.0</ele><time>2026-03-22T12:25:02.981Z</time></trkpt><trkpt lat="46.039473131821104" lon="12.100355864167824"><ele>535.0</ele><time>2026-03-22T12:25:03.981Z</time></trkpt><trkpt lat="46.03939177580147" lon="12.100243173615793"><ele>535.0</ele><time>2026-03-22T12:25:04.981Z</time></trkpt><trkpt lat="46.03930141797957" lon="12.100136826565702"><ele>535.0</ele><time>2026-03-22T12:25:05.981Z</time></trkpt><trkpt lat="46.03920630683418" lon="12.100052112293806"><ele>535.4</ele><time>2026-03-22T12:25:06.981Z</time></trkpt><trkpt lat="46.039111470429184" lon="12.099976014488485"><ele>535.8</ele><time>2026-03-22T12:25:07.981Z</time></trkpt><trkpt lat="46.03902484522184" lon="12.099881236341329"><ele>536.2</ele><time>2026-03-22T12:25:08.981Z</time></trkpt><trkpt lat="46.03896196369772" lon="12.09977263295828"><ele>536.6</ele><time>2026-03-22T12:25:09.981Z</time></trkpt><trkpt lat="46.03890468832392" lon="12.099643594611123"><ele>537.0</ele><time>2026-03-22T12:25:10.981Z</time></trkpt><trkpt lat="46.03886671095299" lon="12.099497110269603"><ele>535.25</ele><time>2026-03-22T12:25:11.981Z</time></trkpt><trkpt lat="46.038834192024545" lon="12.099341948928636"><ele>533.5</ele><time>2026-03-22T12:25:12.981Z</time></trkpt><trkpt lat="46.038799663448074" lon="12.099185867101394"><ele>531.75</ele><time>2026-03-22T12:25:13.981Z</time></trkpt><trkpt lat="46.038764968478574" lon="12.099032296370194"><ele>530.0</ele><time>2026-03-22T12:25:14.981Z</time></trkpt><trkpt lat="46.03872456040514" lon="12.098877450369352"><ele>530.0</ele><time>2026-03-22T12:25:15.981Z</time></trkpt><trkpt lat="46.03867437065453" lon="12.098736691432704"><ele>530.0</ele><time>2026-03-22T12:25:16.981Z</time></trkpt><trkpt lat="46.03859917447759" lon="12.098621112701313"><ele>530.0</ele><time>2026-03-22T12:25:17.981Z</time></trkpt><trkpt lat="46.03850414016911" lon="12.098529483731499"><ele>530.0</ele><time>2026-03-22T12:25:18.981Z</time></trkpt><trkpt lat="46.038398981728065" lon="12.0984667541979"><ele>530.0</ele><time>2026-03-22T12:25:19.981Z</time></trkpt><trkpt lat="46.038288241410726" lon="12.098429541012328"><ele>529.0</ele><time>2026-03-22T12:25:20.981Z</time></trkpt><trkpt lat="46.038174230538665" lon="12.098396097774891"><ele>528.0</ele><time>2026-03-22T12:25:21.981Z</time></trkpt><trkpt lat="46.03807204004982" lon="12.098386146558978"><ele>527.0</ele><time>2026-03-22T12:25:22.981Z</time></trkpt><trkpt lat="46.03796847417863" lon="12.098395201384205"><ele>526.0</ele><time>2026-03-22T12:25:23.981Z</time></trkpt><trkpt lat="46.03786929110441" lon="12.098420011820105"><ele>525.0</ele><time>2026-03-22T12:25:24.982Z</time></trkpt><trkpt lat="46.037783728691785" lon="12.098457837238922"><ele>525.0</ele><time>2026-03-22T12:25:25.982Z</time></trkpt><trkpt lat="46.03771444525466" lon="12.098491362715466"><ele>525.0</ele><time>2026-03-22T12:25:26.982Z</time></trkpt><trkpt lat="46.0376110231438" lon="12.098548776742122"><ele>525.0</ele><time>2026-03-22T12:25:28.982Z</time></trkpt><trkpt lat="46.03755103988755" lon="12.098580136137175"><ele>525.0</ele><time>2026-03-22T12:25:31.981Z</time></trkpt><trkpt lat="46.03748089620514" lon="12.09859453500828"><ele>525.0</ele><time>2026-03-22T12:25:37.981Z</time></trkpt><trkpt lat="46.0374061677579" lon="12.098648148125468"><ele>525.0</ele><time>2026-03-22T12:25:39.981Z</time></trkpt><trkpt lat="46.037356660819" lon="12.098729795725056"><ele>520.3333333333334</ele><time>2026-03-22T12:25:41.981Z</time></trkpt><trkpt lat="46.03729339900072" lon="12.098792259490656"><ele>515.6666666666666</ele><time>2026-03-22T12:25:43.981Z</time></trkpt><trkpt lat="46.03723423313733" lon="12.098938604593341"><ele>511.0</ele><time>2026-03-22T12:25:45.981Z</time></trkpt><trkpt lat="46.037212805240756" lon="12.099044884824265"><ele>506.3333333333333</ele><time>2026-03-22T12:25:46.981Z</time></trkpt><trkpt lat="46.03719591889945" lon="12.099159728036884"><ele>501.66666666666663</ele><time>2026-03-22T12:25:47.981Z</time></trkpt><trkpt lat="46.03717989309744" lon="12.099282777614567"><ele>497.0</ele><time>2026-03-22T12:25:48.981Z</time></trkpt><trkpt lat="46.03718048971107" lon="12.099409920270631"><ele>496.8</ele><time>2026-03-22T12:25:49.981Z</time></trkpt><trkpt lat="46.03715457063707" lon="12.09953440399412"><ele>496.6</ele><time>2026-03-22T12:25:50.981Z</time></trkpt><trkpt lat="46.037140348732386" lon="12.09966120654782"><ele>496.40000000000003</ele><time>2026-03-22T12:25:51.981Z</time></trkpt><trkpt lat="46.03713387470073" lon="12.099801343222788"><ele>496.20000000000005</ele><time>2026-03-22T12:25:52.981Z</time></trkpt><trkpt lat="46.03713110745609" lon="12.099950082404053"><ele>496.0</ele><time>2026-03-22T12:25:53.981Z</time></trkpt><trkpt lat="46.037130584727194" lon="12.100106307070194"><ele>495.75</ele><time>2026-03-22T12:25:54.981Z</time></trkpt><trkpt lat="46.0371327342384" lon="12.10026653138544"><ele>495.5</ele><time>2026-03-22T12:25:55.981Z</time></trkpt><trkpt lat="46.03712341492441" lon="12.100426730244518"><ele>495.25</ele><time>2026-03-22T12:25:56.981Z</time></trkpt><trkpt lat="46.03712272786069" lon="12.100585711583747"><ele>495.0</ele><time>2026-03-22T12:25:57.981Z</time></trkpt><trkpt lat="46.03712772771538" lon="12.100758899500303"><ele>495.4</ele><time>2026-03-22T12:25:58.981Z</time></trkpt><trkpt lat="46.03715104928327" lon="12.10091008616133"><ele>495.8</ele><time>2026-03-22T12:25:59.981Z</time></trkpt><trkpt lat="46.03718916350665" lon="12.101042620483476"><ele>496.20000000000005</ele><time>2026-03-22T12:26:00.981Z</time></trkpt><trkpt lat="46.03723089335986" lon="12.101161064022891"><ele>496.6</ele><time>2026-03-22T12:26:01.981Z</time></trkpt><trkpt lat="46.037269643370955" lon="12.101273029954115"><ele>497.0</ele><time>2026-03-22T12:26:02.981Z</time></trkpt><trkpt lat="46.03729000392727" lon="12.101392828803677"><ele>497.0</ele><time>2026-03-22T12:26:03.981Z</time></trkpt><trkpt lat="46.03728985093009" lon="12.101521995090183"><ele>497.00000000000006</ele><time>2026-03-22T12:26:04.981Z</time></trkpt><trkpt lat="46.03726469235389" lon="12.101646837671964"><ele>497.00000000000006</ele><time>2026-03-22T12:26:05.981Z</time></trkpt><trkpt lat="46.03721415423309" lon="12.101754690403002"><ele>497.0</ele><time>2026-03-22T12:26:06.981Z</time></trkpt><trkpt lat="46.037143419291525" lon="12.10184935305023"><ele>497.0</ele><time>2026-03-22T12:26:07.981Z</time></trkpt><trkpt lat="46.037063862319044" lon="12.10194878178109"><ele>498.0</ele><time>2026-03-22T12:26:08.981Z</time></trkpt><trkpt lat="46.036973181246545" lon="12.102050983184645"><ele>499.0</ele><time>2026-03-22T12:26:09.981Z</time></trkpt><trkpt lat="46.036881230670225" lon="12.102154409690867"><ele>500.0</ele><time>2026-03-22T12:26:10.981Z</time></trkpt><trkpt lat="46.036781353916034" lon="12.102238685872893"><ele>501.0</ele><time>2026-03-22T12:26:11.981Z</time></trkpt><trkpt lat="46.036674441101695" lon="12.102303943189785"><ele>500.4</ele><time>2026-03-22T12:26:12.98Z</time></trkpt><trkpt lat="46.03657183705546" lon="12.102343296803303"><ele>499.8</ele><time>2026-03-22T12:26:13.98Z</time></trkpt><trkpt lat="46.03645807517484" lon="12.102353435960207"><ele>499.19999999999993</ele><time>2026-03-22T12:26:14.98Z</time></trkpt><trkpt lat="46.03634832767206" lon="12.102333667682148"><ele>498.59999999999997</ele><time>2026-03-22T12:26:15.98Z</time></trkpt><trkpt lat="46.036239484313576" lon="12.10230592566586"><ele>498.0</ele><time>2026-03-22T12:26:16.98Z</time></trkpt><trkpt lat="46.03612727348967" lon="12.102269397607134"><ele>498.0</ele><time>2026-03-22T12:26:17.98Z</time></trkpt><trkpt lat="46.036020755873935" lon="12.102237262856088"><ele>497.99999999999994</ele><time>2026-03-22T12:26:18.98Z</time></trkpt><trkpt lat="46.03591672877074" lon="12.102188408724519"><ele>497.99999999999994</ele><time>2026-03-22T12:26:19.98Z</time></trkpt><trkpt lat="46.035814593547464" lon="12.102118465173117"><ele>498.0</ele><time>2026-03-22T12:26:20.98Z</time></trkpt><trkpt lat="46.03571364179731" lon="12.102033027964755"><ele>498.0</ele><time>2026-03-22T12:26:21.98Z</time></trkpt><trkpt lat="46.035610258101855" lon="12.101941840621642"><ele>501.25</ele><time>2026-03-22T12:26:22.98Z</time></trkpt><trkpt lat="46.03550520056404" lon="12.101859787972757"><ele>504.5</ele><time>2026-03-22T12:26:23.98Z</time></trkpt><trkpt lat="46.03540126670596" lon="12.101767965465239"><ele>507.75</ele><time>2026-03-22T12:26:24.98Z</time></trkpt><trkpt lat="46.03529898926678" lon="12.101668888788481"><ele>511.0</ele><time>2026-03-22T12:26:25.98Z</time></trkpt><trkpt lat="46.03520517672685" lon="12.101552761662658"><ele>505.0</ele><time>2026-03-22T12:26:26.98Z</time></trkpt><trkpt lat="46.03511732222597" lon="12.10141908216875"><ele>499.0</ele><time>2026-03-22T12:26:27.98Z</time></trkpt><trkpt lat="46.03504121781837" lon="12.101300907958448"><ele>493.0</ele><time>2026-03-22T12:26:28.98Z</time></trkpt><trkpt lat="46.03497690370048" lon="12.101213893102777"><ele>487.0</ele><time>2026-03-22T12:26:29.98Z</time></trkpt><trkpt lat="46.03491720535334" lon="12.101158918613189"><ele>481.0</ele><time>2026-03-22T12:26:30.98Z</time></trkpt><trkpt lat="46.03485224032886" lon="12.101136209562267"><ele>477.6666666666667</ele><time>2026-03-22T12:26:31.98Z</time></trkpt><trkpt lat="46.03478010232223" lon="12.101137781683311"><ele>474.33333333333337</ele><time>2026-03-22T12:26:32.98Z</time></trkpt><trkpt lat="46.03470133630745" lon="12.101153178739237"><ele>471.0</ele><time>2026-03-22T12:26:33.98Z</time></trkpt><trkpt lat="46.03462133097433" lon="12.10118310524465"><ele>467.66666666666663</ele><time>2026-03-22T12:26:34.98Z</time></trkpt><trkpt lat="46.034534393011945" lon="12.101236753026335"><ele>464.3333333333333</ele><time>2026-03-22T12:26:35.98Z</time></trkpt><trkpt lat="46.03443856195198" lon="12.101286247500301"><ele>461.0</ele><time>2026-03-22T12:26:36.98Z</time></trkpt><trkpt lat="46.03434950981699" lon="12.101365251627183"><ele>461.0</ele><time>2026-03-22T12:26:37.98Z</time></trkpt><trkpt lat="46.034264705252966" lon="12.101472899843218"><ele>461.0</ele><time>2026-03-22T12:26:38.98Z</time></trkpt><trkpt lat="46.034194011262294" lon="12.101589305042605"><ele>461.0</ele><time>2026-03-22T12:26:39.98Z</time></trkpt><trkpt lat="46.034120577952315" lon="12.101705096678636"><ele>461.0</ele><time>2026-03-22T12:26:40.98Z</time></trkpt><trkpt lat="46.034046493804695" lon="12.101823465431679"><ele>461.0</ele><time>2026-03-22T12:26:41.98Z</time></trkpt><trkpt lat="46.033972909473285" lon="12.101941035491915"><ele>462.20000000000005</ele><time>2026-03-22T12:26:42.98Z</time></trkpt><trkpt lat="46.03389964884629" lon="12.102060958535777"><ele>463.40000000000003</ele><time>2026-03-22T12:26:43.98Z</time></trkpt><trkpt lat="46.03382511412386" lon="12.102183595662105"><ele>464.6</ele><time>2026-03-22T12:26:44.98Z</time></trkpt><trkpt lat="46.0337487468411" lon="12.102308245282186"><ele>465.8</ele><time>2026-03-22T12:26:45.98Z</time></trkpt><trkpt lat="46.03367641320013" lon="12.102421335193693"><ele>467.0</ele><time>2026-03-22T12:26:46.98Z</time></trkpt><trkpt lat="46.03361126903057" lon="12.102514755444313"><ele>468.8333333333333</ele><time>2026-03-22T12:26:47.98Z</time></trkpt><trkpt lat="46.03355324815749" lon="12.102587154246901"><ele>470.66666666666663</ele><time>2026-03-22T12:26:48.98Z</time></trkpt><trkpt lat="46.03349904363136" lon="12.102653452316467"><ele>472.5</ele><time>2026-03-22T12:26:49.98Z</time></trkpt><trkpt lat="46.03342368207302" lon="12.102668751350294"><ele>474.33333333333337</ele><time>2026-03-22T12:26:50.98Z</time></trkpt><trkpt lat="46.0333403710243" lon="12.102648294762876"><ele>476.1666666666667</ele><time>2026-03-22T12:26:51.98Z</time></trkpt><trkpt lat="46.03325953853376" lon="12.102587922972193"><ele>478.0</ele><time>2026-03-22T12:26:52.98Z</time></trkpt><trkpt lat="46.03318210042657" lon="12.102504005918247"><ele>477.4</ele><time>2026-03-22T12:26:53.98Z</time></trkpt><trkpt lat="46.033098970854354" lon="12.10240844808579"><ele>476.79999999999995</ele><time>2026-03-22T12:26:54.98Z</time></trkpt><trkpt lat="46.03301175767271" lon="12.102307534570274"><ele>476.2</ele><time>2026-03-22T12:26:55.979Z</time></trkpt><trkpt lat="46.03292715469751" lon="12.102215473841365"><ele>475.6</ele><time>2026-03-22T12:26:56.979Z</time></trkpt><trkpt lat="46.032844765037055" lon="12.102127755100096"><ele>475.0</ele><time>2026-03-22T12:26:57.979Z</time></trkpt><trkpt lat="46.03278379647896" lon="12.102018230360585"><ele>475.0</ele><time>2026-03-22T12:26:58.979Z</time></trkpt><trkpt lat="46.03271841259982" lon="12.101923374983182"><ele>475.0</ele><time>2026-03-22T12:26:59.979Z</time></trkpt><trkpt lat="46.0326841569224" lon="12.101788837286609"><ele>475.0</ele><time>2026-03-22T12:27:00.979Z</time></trkpt><trkpt lat="46.03265280088458" lon="12.10164378574395"><ele>475.0</ele><time>2026-03-22T12:27:01.979Z</time></trkpt><trkpt lat="46.03262998748494" lon="12.101506335708427"><ele>475.0</ele><time>2026-03-22T12:27:02.979Z</time></trkpt><trkpt lat="46.03260501406775" lon="12.101362013041593"><ele>475.0</ele><time>2026-03-22T12:27:03.979Z</time></trkpt><trkpt lat="46.03258859163947" lon="12.10121067446901"><ele>475.0</ele><time>2026-03-22T12:27:04.979Z</time></trkpt><trkpt lat="46.032575124875066" lon="12.101062707084028"><ele>475.0</ele><time>2026-03-22T12:27:05.979Z</time></trkpt><trkpt lat="46.03255146673243" lon="12.100911960956722"><ele>475.0</ele><time>2026-03-22T12:27:06.979Z</time></trkpt><trkpt lat="46.032526304219" lon="12.100769507803513"><ele>475.0</ele><time>2026-03-22T12:27:07.979Z</time></trkpt><trkpt lat="46.03250280683919" lon="12.100627732932395"><ele>474.6</ele><time>2026-03-22T12:27:08.979Z</time></trkpt><trkpt lat="46.03247888245126" lon="12.100490941908875"><ele>474.2</ele><time>2026-03-22T12:27:09.979Z</time></trkpt><trkpt lat="46.03244285772016" lon="12.100363014826847"><ele>473.79999999999995</ele><time>2026-03-22T12:27:10.979Z</time></trkpt><trkpt lat="46.03238879059304" lon="12.100248838784493"><ele>473.4</ele><time>2026-03-22T12:27:11.979Z</time></trkpt><trkpt lat="46.03231668500106" lon="12.100162714841685"><ele>473.0</ele><time>2026-03-22T12:27:12.979Z</time></trkpt><trkpt lat="46.03223238062923" lon="12.100095468753308"><ele>474.59999999999997</ele><time>2026-03-22T12:27:13.979Z</time></trkpt><trkpt lat="46.03214160686705" lon="12.10006096723606"><ele>476.19999999999993</ele><time>2026-03-22T12:27:14.979Z</time></trkpt><trkpt lat="46.03204133049753" lon="12.100043921523978"><ele>477.8</ele><time>2026-03-22T12:27:15.979Z</time></trkpt><trkpt lat="46.03194700679346" lon="12.100004136451668"><ele>479.4</ele><time>2026-03-22T12:27:16.979Z</time></trkpt><trkpt lat="46.03185396966751" lon="12.099985380595477"><ele>481.0</ele><time>2026-03-22T12:27:17.979Z</time></trkpt><trkpt lat="46.03175948825404" lon="12.099975415728304"><ele>481.0</ele><time>2026-03-22T12:27:18.979Z</time></trkpt><trkpt lat="46.031668533372326" lon="12.099978387688509"><ele>481.0</ele><time>2026-03-22T12:27:19.979Z</time></trkpt><trkpt lat="46.03158069007384" lon="12.09999454463603"><ele>481.0</ele><time>2026-03-22T12:27:20.979Z</time></trkpt><trkpt lat="46.031496676791534" lon="12.09995673644416"><ele>481.0</ele><time>2026-03-22T12:27:21.979Z</time></trkpt><trkpt lat="46.031421052911" lon="12.099886992089713"><ele>481.0</ele><time>2026-03-22T12:27:22.979Z</time></trkpt><trkpt lat="46.03134925185518" lon="12.099790268373393"><ele>483.20000000000005</ele><time>2026-03-22T12:27:23.979Z</time></trkpt><trkpt lat="46.0312728363499" lon="12.099691897060627"><ele>485.40000000000003</ele><time>2026-03-22T12:27:24.979Z</time></trkpt><trkpt lat="46.03119422317753" lon="12.099590565001693"><ele>487.6</ele><time>2026-03-22T12:27:25.979Z</time></trkpt><trkpt lat="46.03111593079619" lon="12.09948362540083"><ele>489.8</ele><time>2026-03-22T12:27:26.979Z</time></trkpt><trkpt lat="46.03103607203552" lon="12.099374050368965"><ele>492.0</ele><time>2026-03-22T12:27:27.979Z</time></trkpt><trkpt lat="46.03096493307429" lon="12.099261516604532"><ele>492.0</ele><time>2026-03-22T12:27:28.979Z</time></trkpt><trkpt lat="46.03090303213359" lon="12.099142830369514"><ele>492.00000000000006</ele><time>2026-03-22T12:27:29.979Z</time></trkpt><trkpt lat="46.03086846016114" lon="12.099014490920878"><ele>492.00000000000006</ele><time>2026-03-22T12:27:30.979Z</time></trkpt><trkpt lat="46.03085502325878" lon="12.09888099845469"><ele>492.0</ele><time>2026-03-22T12:27:31.98Z</time></trkpt><trkpt lat="46.03087105621046" lon="12.098756322196143"><ele>492.0</ele><time>2026-03-22T12:27:32.98Z</time></trkpt><trkpt lat="46.03089138279824" lon="12.09862595629769"><ele>494.1666666666667</ele><time>2026-03-22T12:27:33.98Z</time></trkpt><trkpt lat="46.03091019816841" lon="12.098500906262716"><ele>496.33333333333337</ele><time>2026-03-22T12:27:34.979Z</time></trkpt><trkpt lat="46.030913811736795" lon="12.098394427432"><ele>498.5</ele><time>2026-03-22T12:27:35.979Z</time></trkpt><trkpt lat="46.0309214547914" lon="12.098294242001568"><ele>500.6666666666667</ele><time>2026-03-22T12:27:36.979Z</time></trkpt><trkpt lat="46.030909998669635" lon="12.098190902507968"><ele>502.83333333333337</ele><time>2026-03-22T12:27:37.979Z</time></trkpt><trkpt lat="46.03088660299824" lon="12.098084673687826"><ele>505.0</ele><time>2026-03-22T12:27:38.979Z</time></trkpt><trkpt lat="46.03085064199862" lon="12.09798510409605"><ele>507.00000000000006</ele><time>2026-03-22T12:27:39.98Z</time></trkpt><trkpt lat="46.030830773536785" lon="12.097891163455953"><ele>509.0</ele><time>2026-03-22T12:27:40.979Z</time></trkpt><trkpt lat="46.03080047001012" lon="12.097783003060497"><ele>511.0</ele><time>2026-03-22T12:27:41.979Z</time></trkpt><trkpt lat="46.03078120897215" lon="12.097666263472592"><ele>513.0</ele><time>2026-03-22T12:27:42.979Z</time></trkpt><trkpt lat="46.03079885300513" lon="12.097543402178331"><ele>515.0</ele><time>2026-03-22T12:27:43.979Z</time></trkpt><trkpt lat="46.030849677175716" lon="12.097436043920958"><ele>517.0</ele><time>2026-03-22T12:27:44.979Z</time></trkpt><trkpt lat="46.03091382125341" lon="12.097338597100965"><ele>520.6</ele><time>2026-03-22T12:27:45.979Z</time></trkpt><trkpt lat="46.030979634905194" lon="12.097230508558297"><ele>524.2</ele><time>2026-03-22T12:27:46.979Z</time></trkpt><trkpt lat="46.03102453143704" lon="12.097113220532862"><ele>527.8</ele><time>2026-03-22T12:27:47.979Z</time></trkpt><trkpt lat="46.031048938055626" lon="12.09700356358369"><ele>531.4</ele><time>2026-03-22T12:27:48.979Z</time></trkpt><trkpt lat="46.03107703787738" lon="12.096889293967656"><ele>535.0</ele><time>2026-03-22T12:27:49.979Z</time></trkpt><trkpt lat="46.03112466562241" lon="12.096759517687289"><ele>535.0</ele><time>2026-03-22T12:27:50.979Z</time></trkpt><trkpt lat="46.03117230273835" lon="12.096622736993455"><ele>535.0</ele><time>2026-03-22T12:27:51.979Z</time></trkpt><trkpt lat="46.031224344445235" lon="12.09648433704128"><ele>535.0</ele><time>2026-03-22T12:27:52.979Z</time></trkpt><trkpt lat="46.031269762230444" lon="12.096357530127396"><ele>535.0</ele><time>2026-03-22T12:27:53.979Z</time></trkpt><trkpt lat="46.031321775916076" lon="12.096224681257763"><ele>535.0</ele><time>2026-03-22T12:27:54.979Z</time></trkpt><trkpt lat="46.03136868204045" lon="12.09610006737647"><ele>533.2</ele><time>2026-03-22T12:27:55.979Z</time></trkpt><trkpt lat="46.03143195943681" lon="12.095996310422038"><ele>531.4</ele><time>2026-03-22T12:27:56.979Z</time></trkpt><trkpt lat="46.03150600540151" lon="12.095933504702444"><ele>529.6</ele><time>2026-03-22T12:27:57.979Z</time></trkpt><trkpt lat="46.03159177876881" lon="12.095894106244074"><ele>527.8</ele><time>2026-03-22T12:27:58.979Z</time></trkpt><trkpt lat="46.031675944315616" lon="12.095852362887166"><ele>526.0</ele><time>2026-03-22T12:27:59.979Z</time></trkpt><trkpt lat="46.03176385728057" lon="12.095808841032705"><ele>526.0</ele><time>2026-03-22T12:28:00.979Z</time></trkpt><trkpt lat="46.03184382097598" lon="12.095765946754808"><ele>526.0</ele><time>2026-03-22T12:28:01.979Z</time></trkpt><trkpt lat="46.031909936006016" lon="12.095711164461243"><ele>526.0</ele><time>2026-03-22T12:28:02.978Z</time></trkpt><trkpt lat="46.03196159361043" lon="12.095627673473802"><ele>526.0</ele><time>2026-03-22T12:28:03.978Z</time></trkpt><trkpt lat="46.03198619097098" lon="12.095538451436887"><ele>526.0</ele><time>2026-03-22T12:28:04.978Z</time></trkpt><trkpt lat="46.03200563211427" lon="12.095443655635355"><ele>526.0</ele><time>2026-03-22T12:28:05.978Z</time></trkpt><trkpt lat="46.03200795722479" lon="12.095340337267993"><ele>526.0</ele><time>2026-03-22T12:28:06.978Z</time></trkpt><trkpt lat="46.03198580518792" lon="12.0952411627352"><ele>527.8333333333334</ele><time>2026-03-22T12:28:07.978Z</time></trkpt><trkpt lat="46.031945163328096" lon="12.095164218273746"><ele>529.6666666666667</ele><time>2026-03-22T12:28:08.978Z</time></trkpt><trkpt lat="46.03189717739482" lon="12.095102032692319"><ele>531.5</ele><time>2026-03-22T12:28:09.978Z</time></trkpt><trkpt lat="46.03186184117192" lon="12.095021413628116"><ele>533.3333333333334</ele><time>2026-03-22T12:28:10.978Z</time></trkpt><trkpt lat="46.03176470905491" lon="12.09491956542948"><ele>535.1666666666666</ele><time>2026-03-22T12:28:12.978Z</time></trkpt><trkpt lat="46.03168517722438" lon="12.0948973030774"><ele>537.0</ele><time>2026-03-22T12:28:13.978Z</time></trkpt><trkpt lat="46.03160628424116" lon="12.094904696623265"><ele>540.3333333333334</ele><time>2026-03-22T12:28:14.978Z</time></trkpt><trkpt lat="46.03152968784575" lon="12.094918482723335"><ele>543.6666666666666</ele><time>2026-03-22T12:28:15.978Z</time></trkpt><trkpt lat="46.03145230890885" lon="12.094930444418006"><ele>547.0</ele><time>2026-03-22T12:28:16.978Z</time></trkpt><trkpt lat="46.03137680797112" lon="12.094942592387078"><ele>550.3333333333333</ele><time>2026-03-22T12:28:17.978Z</time></trkpt><trkpt lat="46.03129574865104" lon="12.094960097007961"><ele>553.6666666666666</ele><time>2026-03-22T12:28:18.978Z</time></trkpt><trkpt lat="46.0312120369968" lon="12.094996170864317"><ele>557.0</ele><time>2026-03-22T12:28:19.978Z</time></trkpt><trkpt lat="46.03113860053082" lon="12.095034734989133"><ele>557.0</ele><time>2026-03-22T12:28:20.978Z</time></trkpt><trkpt lat="46.03105785720678" lon="12.095078689864655"><ele>557.0</ele><time>2026-03-22T12:28:21.978Z</time></trkpt><trkpt lat="46.03098092211045" lon="12.095122361922648"><ele>557.0</ele><time>2026-03-22T12:28:22.978Z</time></trkpt><trkpt lat="46.030903976983325" lon="12.095163846269731"><ele>557.0</ele><time>2026-03-22T12:28:23.978Z</time></trkpt><trkpt lat="46.03082153165818" lon="12.095208629437124"><ele>557.0</ele><time>2026-03-22T12:28:24.978Z</time></trkpt><trkpt lat="46.03074526371739" lon="12.095263495088275"><ele>557.0</ele><time>2026-03-22T12:28:25.978Z</time></trkpt><trkpt lat="46.030672904816534" lon="12.095325804286913"><ele>559.0</ele><time>2026-03-22T12:28:26.978Z</time></trkpt><trkpt lat="46.03060792974087" lon="12.095389703386092"><ele>561.0</ele><time>2026-03-22T12:28:27.978Z</time></trkpt><trkpt lat="46.030540407153055" lon="12.095470011288166"><ele>563.0</ele><time>2026-03-22T12:28:28.978Z</time></trkpt><trkpt lat="46.0304790595003" lon="12.095553709014338"><ele>565.0</ele><time>2026-03-22T12:28:29.978Z</time></trkpt><trkpt lat="46.030425802565546" lon="12.09563541087274"><ele>567.0</ele><time>2026-03-22T12:28:30.978Z</time></trkpt><trkpt lat="46.03038153422751" lon="12.0957128080727"><ele>569.0</ele><time>2026-03-22T12:28:31.978Z</time></trkpt><trkpt lat="46.030312170248095" lon="12.095826831462837"><ele>569.3333333333333</ele><time>2026-03-22T12:28:33.978Z</time></trkpt><trkpt lat="46.03020835526165" lon="12.09574862683482"><ele>569.6666666666666</ele><time>2026-03-22T12:28:35.978Z</time></trkpt><trkpt lat="46.03016108951175" lon="12.09567873703095"><ele>570.0</ele><time>2026-03-22T12:28:36.978Z</time></trkpt><trkpt lat="46.03010524572506" lon="12.095626426921884"><ele>570.3333333333334</ele><time>2026-03-22T12:28:37.978Z</time></trkpt><trkpt lat="46.030044171974126" lon="12.095567343419809"><ele>570.6666666666667</ele><time>2026-03-22T12:28:38.978Z</time></trkpt><trkpt lat="46.029975563289064" lon="12.095507666659564"><ele>571.0</ele><time>2026-03-22T12:28:39.978Z</time></trkpt><trkpt lat="46.029906582428744" lon="12.095451735739893"><ele>574.0</ele><time>2026-03-22T12:28:40.978Z</time></trkpt><trkpt lat="46.02983605998177" lon="12.095397772686102"><ele>577.0</ele><time>2026-03-22T12:28:41.978Z</time></trkpt><trkpt lat="46.02976590378923" lon="12.095352303629564"><ele>580.0</ele><time>2026-03-22T12:28:42.978Z</time></trkpt><trkpt lat="46.029685687031964" lon="12.095302624332755"><ele>583.0</ele><time>2026-03-22T12:28:43.978Z</time></trkpt><trkpt lat="46.029616137940096" lon="12.095266717875097"><ele>586.0</ele><time>2026-03-22T12:28:44.978Z</time></trkpt><trkpt lat="46.02954161030336" lon="12.09524469869697"><ele>589.0</ele><time>2026-03-22T12:28:45.977Z</time></trkpt><trkpt lat="46.0294675933144" lon="12.095257668892124"><ele>589.0</ele><time>2026-03-22T12:28:46.977Z</time></trkpt><trkpt lat="46.029398127840345" lon="12.095278305898105"><ele>589.0</ele><time>2026-03-22T12:28:47.977Z</time></trkpt><trkpt lat="46.029339032829576" lon="12.095312995016277"><ele>589.0</ele><time>2026-03-22T12:28:48.977Z</time></trkpt><trkpt lat="46.029237533574566" lon="12.0954434306607"><ele>589.0</ele><time>2026-03-22T12:28:50.977Z</time></trkpt><trkpt lat="46.02919648893571" lon="12.095527114788634"><ele>589.0</ele><time>2026-03-22T12:28:51.977Z</time></trkpt><trkpt lat="46.02911136688587" lon="12.095677200658285"><ele>592.7142857142857</ele><time>2026-03-22T12:28:53.977Z</time></trkpt><trkpt lat="46.02906037367784" lon="12.095750522308185"><ele>596.4285714285713</ele><time>2026-03-22T12:28:54.977Z</time></trkpt><trkpt lat="46.029007113060835" lon="12.095819141470889"><ele>600.1428571428571</ele><time>2026-03-22T12:28:55.977Z</time></trkpt><trkpt lat="46.02894612876001" lon="12.095869582267548"><ele>603.8571428571429</ele><time>2026-03-22T12:28:56.977Z</time></trkpt><trkpt lat="46.02888506691456" lon="12.095897080805791"><ele>607.5714285714287</ele><time>2026-03-22T12:28:57.977Z</time></trkpt><trkpt lat="46.02882313476286" lon="12.095924562379102"><ele>611.2857142857142</ele><time>2026-03-22T12:28:58.977Z</time></trkpt><trkpt lat="46.02875680307635" lon="12.095942741296524"><ele>615.0</ele><time>2026-03-22T12:28:59.977Z</time></trkpt><trkpt lat="46.028691837032824" lon="12.095935651476488"><ele>615.0</ele><time>2026-03-22T12:29:00.977Z</time></trkpt><trkpt lat="46.02861645921975" lon="12.09592215522429"><ele>615.0</ele><time>2026-03-22T12:29:01.977Z</time></trkpt><trkpt lat="46.028548167739444" lon="12.09586095465737"><ele>615.0</ele><time>2026-03-22T12:29:02.977Z</time></trkpt><trkpt lat="46.028494834439215" lon="12.095790517657193"><ele>615.0</ele><time>2026-03-22T12:29:03.977Z</time></trkpt><trkpt lat="46.02843023062257" lon="12.095616304713863"><ele>615.0</ele><time>2026-03-22T12:29:05.977Z</time></trkpt><trkpt lat="46.02841423449622" lon="12.095521581218481"><ele>615.0</ele><time>2026-03-22T12:29:06.977Z</time></trkpt><trkpt lat="46.028391797534915" lon="12.095424829458148"><ele>615.1666666666666</ele><time>2026-03-22T12:29:07.977Z</time></trkpt><trkpt lat="46.02838375961747" lon="12.095320773926785"><ele>615.3333333333334</ele><time>2026-03-22T12:29:08.977Z</time></trkpt><trkpt lat="46.02837915619152" lon="12.095210595520824"><ele>615.5</ele><time>2026-03-22T12:29:09.977Z</time></trkpt><trkpt lat="46.02837473420575" lon="12.095109405562368"><ele>615.6666666666667</ele><time>2026-03-22T12:29:10.977Z</time></trkpt><trkpt lat="46.02835629157505" lon="12.094997575521807"><ele>615.8333333333334</ele><time>2026-03-22T12:29:11.977Z</time></trkpt><trkpt lat="46.02832594257701" lon="12.09489219248904"><ele>616.0</ele><time>2026-03-22T12:29:12.977Z</time></trkpt><trkpt lat="46.02828447439367" lon="12.09479706389609"><ele>619.6666666666667</ele><time>2026-03-22T12:29:13.977Z</time></trkpt><trkpt lat="46.02825934962853" lon="12.094696784495076"><ele>623.3333333333334</ele><time>2026-03-22T12:29:14.977Z</time></trkpt><trkpt lat="46.02821902357678" lon="12.094604551037547"><ele>627.0</ele><time>2026-03-22T12:29:15.977Z</time></trkpt><trkpt lat="46.02817779639813" lon="12.094507838460427"><ele>630.6666666666666</ele><time>2026-03-22T12:29:16.977Z</time></trkpt><trkpt lat="46.02813173103887" lon="12.094419800023857"><ele>634.3333333333333</ele><time>2026-03-22T12:29:17.977Z</time></trkpt><trkpt lat="46.028069126964056" lon="12.094338805418388"><ele>638.0</ele><time>2026-03-22T12:29:18.977Z</time></trkpt><trkpt lat="46.02798983411361" lon="12.094278116414687"><ele>638.0</ele><time>2026-03-22T12:29:19.977Z</time></trkpt><trkpt lat="46.027900192300386" lon="12.094255381072406"><ele>638.0</ele><time>2026-03-22T12:29:20.977Z</time></trkpt><trkpt lat="46.02780546544069" lon="12.094276328857932"><ele>638.0</ele><time>2026-03-22T12:29:21.977Z</time></trkpt><trkpt lat="46.027735843335066" lon="12.094318523949099"><ele>638.0</ele><time>2026-03-22T12:29:22.977Z</time></trkpt><trkpt lat="46.027665368827776" lon="12.094394974985205"><ele>638.0</ele><time>2026-03-22T12:29:23.977Z</time></trkpt><trkpt lat="46.0276124969603" lon="12.0945075351809"><ele>638.0</ele><time>2026-03-22T12:29:24.977Z</time></trkpt><trkpt lat="46.02758258538107" lon="12.094592315990326"><ele>638.0</ele><time>2026-03-22T12:29:25.977Z</time></trkpt><trkpt lat="46.02752624425056" lon="12.094715923130654"><ele>638.0</ele><time>2026-03-22T12:29:27.977Z</time></trkpt><trkpt lat="46.027470345911276" lon="12.094771676123292"><ele>638.0</ele><time>2026-03-22T12:29:28.976Z</time></trkpt><trkpt lat="46.02740292858075" lon="12.094812950311605"><ele>638.0</ele><time>2026-03-22T12:29:29.976Z</time></trkpt><trkpt lat="46.02732372872793" lon="12.094847932718114"><ele>638.0</ele><time>2026-03-22T12:29:30.976Z</time></trkpt><trkpt lat="46.02724241372763" lon="12.094860548712246"><ele>638.0</ele><time>2026-03-22T12:29:31.976Z</time></trkpt><trkpt lat="46.02716317127783" lon="12.094851906373385"><ele>641.1666666666666</ele><time>2026-03-22T12:29:32.976Z</time></trkpt><trkpt lat="46.02708353797086" lon="12.094838156499758"><ele>644.3333333333333</ele><time>2026-03-22T12:29:33.976Z</time></trkpt><trkpt lat="46.027003939957886" lon="12.094832376956248"><ele>647.5</ele><time>2026-03-22T12:29:34.976Z</time></trkpt><trkpt lat="46.02692570102924" lon="12.094854242646498"><ele>650.6666666666666</ele><time>2026-03-22T12:29:35.976Z</time></trkpt><trkpt lat="46.026854254129944" lon="12.09490541135941"><ele>653.8333333333334</ele><time>2026-03-22T12:29:36.977Z</time></trkpt><trkpt lat="46.026783820593415" lon="12.094964760340696"><ele>657.0</ele><time>2026-03-22T12:29:37.976Z</time></trkpt><trkpt lat="46.026720341034824" lon="12.095024628340015"><ele>657.0</ele><time>2026-03-22T12:29:38.976Z</time></trkpt><trkpt lat="46.02665288617048" lon="12.095087745986106"><ele>657.0</ele><time>2026-03-22T12:29:39.977Z</time></trkpt><trkpt lat="46.02659590469678" lon="12.095137668483797"><ele>657.0</ele><time>2026-03-22T12:29:40.977Z</time></trkpt><trkpt lat="46.02653591501683" lon="12.09519769569794"><ele>657.0</ele><time>2026-03-22T12:29:41.977Z</time></trkpt><trkpt lat="46.02642714781238" lon="12.095168363964827"><ele>657.0</ele><time>2026-03-22T12:29:43.976Z</time></trkpt><trkpt lat="46.02636559582764" lon="12.09500036424955"><ele>658.0</ele><time>2026-03-22T12:29:45.977Z</time></trkpt><trkpt lat="46.026349602955946" lon="12.094904235071786"><ele>659.0</ele><time>2026-03-22T12:29:46.977Z</time></trkpt><trkpt lat="46.0263248181336" lon="12.094767758815399"><ele>660.0</ele><time>2026-03-22T12:29:48.976Z</time></trkpt><trkpt lat="46.02624853620244" lon="12.094687405946832"><ele>661.0</ele><time>2026-03-22T12:29:50.977Z</time></trkpt><trkpt lat="46.0261121230098" lon="12.094677894437098"><ele>662.0</ele><time>2026-03-22T12:29:52.977Z</time></trkpt><trkpt lat="46.026039632811774" lon="12.094699717799303"><ele>662.0</ele><time>2026-03-22T12:29:53.977Z</time></trkpt><trkpt lat="46.025966610822096" lon="12.094720602881397"><ele>662.0</ele><time>2026-03-22T12:29:54.977Z</time></trkpt><trkpt lat="46.02589033151551" lon="12.09473960709594"><ele>662.0</ele><time>2026-03-22T12:29:55.977Z</time></trkpt><trkpt lat="46.025812166538174" lon="12.09476044924913"><ele>662.0</ele><time>2026-03-22T12:29:56.977Z</time></trkpt><trkpt lat="46.02572125527841" lon="12.094797435174225"><ele>662.0</ele><time>2026-03-22T12:29:57.977Z</time></trkpt><trkpt lat="46.025615772627674" lon="12.094856586392453"><ele>662.0</ele><time>2026-03-22T12:29:58.977Z</time></trkpt><trkpt lat="46.025527323852025" lon="12.094901782311798"><ele>664.6</ele><time>2026-03-22T12:29:59.977Z</time></trkpt><trkpt lat="46.02543562949863" lon="12.094938854696865"><ele>667.2</ele><time>2026-03-22T12:30:00.976Z</time></trkpt><trkpt lat="46.025344754974114" lon="12.094969505001309"><ele>669.8</ele><time>2026-03-22T12:30:01.976Z</time></trkpt><trkpt lat="46.02525174308796" lon="12.094993391837459"><ele>672.4</ele><time>2026-03-22T12:30:02.976Z</time></trkpt><trkpt lat="46.025161975466084" lon="12.095011147352515"><ele>675.0</ele><time>2026-03-22T12:30:03.976Z</time></trkpt><trkpt lat="46.02507027370748" lon="12.09503704986271"><ele>675.0</ele><time>2026-03-22T12:30:04.976Z</time></trkpt><trkpt lat="46.0249815727722" lon="12.09507892515978"><ele>675.0</ele><time>2026-03-22T12:30:05.976Z</time></trkpt><trkpt lat="46.02489196487128" lon="12.095136370703832"><ele>675.0</ele><time>2026-03-22T12:30:06.976Z</time></trkpt><trkpt lat="46.02480307642155" lon="12.095196843461208"><ele>675.0</ele><time>2026-03-22T12:30:07.976Z</time></trkpt><trkpt lat="46.024724671678946" lon="12.09527133927142"><ele>675.0</ele><time>2026-03-22T12:30:08.976Z</time></trkpt><trkpt lat="46.02463561307467" lon="12.095317212039914"><ele>675.5</ele><time>2026-03-22T12:30:09.976Z</time></trkpt><trkpt lat="46.024558537795144" lon="12.095361581621816"><ele>676.0</ele><time>2026-03-22T12:30:10.976Z</time></trkpt><trkpt lat="46.02448886502864" lon="12.09544225846203"><ele>676.5</ele><time>2026-03-22T12:30:11.976Z</time></trkpt><trkpt lat="46.02442605086586" lon="12.09554229431343"><ele>677.0</ele><time>2026-03-22T12:30:12.976Z</time></trkpt><trkpt lat="46.024373909035575" lon="12.095632203696079"><ele>677.5</ele><time>2026-03-22T12:30:13.976Z</time></trkpt><trkpt lat="46.02431954209885" lon="12.095725949632005"><ele>678.0</ele><time>2026-03-22T12:30:14.976Z</time></trkpt><trkpt lat="46.02426827616304" lon="12.095807281543177"><ele>680.3333333333334</ele><time>2026-03-22T12:30:15.976Z</time></trkpt><trkpt lat="46.02421467264577" lon="12.095904850655224"><ele>682.6666666666666</ele><time>2026-03-22T12:30:16.976Z</time></trkpt><trkpt lat="46.024134160905135" lon="12.09597760922783"><ele>685.0</ele><time>2026-03-22T12:30:17.976Z</time></trkpt><trkpt lat="46.02406673016273" lon="12.096054254359725"><ele>687.3333333333333</ele><time>2026-03-22T12:30:18.976Z</time></trkpt><trkpt lat="46.0239958178283" lon="12.096130316574488"><ele>689.6666666666666</ele><time>2026-03-22T12:30:19.976Z</time></trkpt><trkpt lat="46.02392558585426" lon="12.096204616744155"><ele>692.0</ele><time>2026-03-22T12:30:20.976Z</time></trkpt><trkpt lat="46.02385977832243" lon="12.096272544733388"><ele>692.0</ele><time>2026-03-22T12:30:21.976Z</time></trkpt><trkpt lat="46.02379121064958" lon="12.09634332142673"><ele>692.0</ele><time>2026-03-22T12:30:22.976Z</time></trkpt><trkpt lat="46.02372123772712" lon="12.096421008778377"><ele>692.0</ele><time>2026-03-22T12:30:23.976Z</time></trkpt><trkpt lat="46.0236533437891" lon="12.096501917331706"><ele>692.0</ele><time>2026-03-22T12:30:24.976Z</time></trkpt><trkpt lat="46.02358320742998" lon="12.09658287097105"><ele>692.0</ele><time>2026-03-22T12:30:25.976Z</time></trkpt><trkpt lat="46.02351405478698" lon="12.096662301352113"><ele>692.0</ele><time>2026-03-22T12:30:26.976Z</time></trkpt><trkpt lat="46.023455326885276" lon="12.09675265152217"><ele>692.6</ele><time>2026-03-22T12:30:27.976Z</time></trkpt><trkpt lat="46.023371823994275" lon="12.096789771061013"><ele>693.2</ele><time>2026-03-22T12:30:28.976Z</time></trkpt><trkpt lat="46.02329324069352" lon="12.096807269251544"><ele>693.8</ele><time>2026-03-22T12:30:29.976Z</time></trkpt><trkpt lat="46.02320222514641" lon="12.096809463612816"><ele>694.4</ele><time>2026-03-22T12:30:30.976Z</time></trkpt><trkpt lat="46.02310508378278" lon="12.096850514804697"><ele>695.0</ele><time>2026-03-22T12:30:31.976Z</time></trkpt><trkpt lat="46.023008278414615" lon="12.096906982125184"><ele>695.0</ele><time>2026-03-22T12:30:32.976Z</time></trkpt><trkpt lat="46.022917554729325" lon="12.096974673229077"><ele>695.0</ele><time>2026-03-22T12:30:33.976Z</time></trkpt><trkpt lat="46.02283468254108" lon="12.097050020066645"><ele>695.0</ele><time>2026-03-22T12:30:34.976Z</time></trkpt><trkpt lat="46.0227636419253" lon="12.097134605839377"><ele>695.0</ele><time>2026-03-22T12:30:35.976Z</time></trkpt><trkpt lat="46.022706299787046" lon="12.097228931505796"><ele>695.0</ele><time>2026-03-22T12:30:36.976Z</time></trkpt><trkpt lat="46.02265571360704" lon="12.097341691775982"><ele>695.5</ele><time>2026-03-22T12:30:37.976Z</time></trkpt><trkpt lat="46.02260500723824" lon="12.097453798733019"><ele>696.0</ele><time>2026-03-22T12:30:38.976Z</time></trkpt><trkpt lat="46.02255308185351" lon="12.097562734571637"><ele>696.5</ele><time>2026-03-22T12:30:39.976Z</time></trkpt><trkpt lat="46.022493393655225" lon="12.097658997122272"><ele>697.0</ele><time>2026-03-22T12:30:40.976Z</time></trkpt><trkpt lat="46.0224357625107" lon="12.097738216635172"><ele>697.5</ele><time>2026-03-22T12:30:41.976Z</time></trkpt><trkpt lat="46.02237113384858" lon="12.097826938735965"><ele>698.0</ele><time>2026-03-22T12:30:42.976Z</time></trkpt><trkpt lat="46.022317072221526" lon="12.097929248506102"><ele>698.0</ele><time>2026-03-22T12:30:43.975Z</time></trkpt><trkpt lat="46.02226828068189" lon="12.098051687632323"><ele>698.0</ele><time>2026-03-22T12:30:44.975Z</time></trkpt><trkpt lat="46.0222176455021" lon="12.098169467478625"><ele>698.0</ele><time>2026-03-22T12:30:45.975Z</time></trkpt><trkpt lat="46.02216173359018" lon="12.0982814580054"><ele>698.0</ele><time>2026-03-22T12:30:46.975Z</time></trkpt><trkpt lat="46.02211132089858" lon="12.098399906021449"><ele>698.0</ele><time>2026-03-22T12:30:47.975Z</time></trkpt><trkpt lat="46.022055621017145" lon="12.098500798931152"><ele>699.6666666666666</ele><time>2026-03-22T12:30:48.975Z</time></trkpt><trkpt lat="46.02200083998719" lon="12.098592446146034"><ele>701.3333333333333</ele><time>2026-03-22T12:30:49.975Z</time></trkpt><trkpt lat="46.021948873774086" lon="12.09868166049926"><ele>703.0</ele><time>2026-03-22T12:30:50.975Z</time></trkpt><trkpt lat="46.02190516475996" lon="12.098773781295995"><ele>704.6666666666666</ele><time>2026-03-22T12:30:51.975Z</time></trkpt><trkpt lat="46.021867150706946" lon="12.098870316034105"><ele>706.3333333333334</ele><time>2026-03-22T12:30:52.975Z</time></trkpt><trkpt lat="46.021802746953306" lon="12.09895703871862"><ele>708.0</ele><time>2026-03-22T12:30:53.975Z</time></trkpt><trkpt lat="46.02174490185408" lon="12.099060461711623"><ele>708.8</ele><time>2026-03-22T12:30:54.975Z</time></trkpt><trkpt lat="46.021684489630545" lon="12.099164841548738"><ele>709.5999999999999</ele><time>2026-03-22T12:30:55.975Z</time></trkpt><trkpt lat="46.02162410946525" lon="12.09925674535505"><ele>710.4000000000001</ele><time>2026-03-22T12:30:56.975Z</time></trkpt><trkpt lat="46.02156010305272" lon="12.099349757677368"><ele>711.2</ele><time>2026-03-22T12:30:57.975Z</time></trkpt><trkpt lat="46.021487081070546" lon="12.099450758523787"><ele>712.0</ele><time>2026-03-22T12:30:58.975Z</time></trkpt><trkpt lat="46.02142360563081" lon="12.099571582301477"><ele>712.0</ele><time>2026-03-22T12:30:59.975Z</time></trkpt><trkpt lat="46.021340638806215" lon="12.099668342089258"><ele>712.0</ele><time>2026-03-22T12:31:00.975Z</time></trkpt><trkpt lat="46.02126129899814" lon="12.099774062876781"><ele>712.0</ele><time>2026-03-22T12:31:01.975Z</time></trkpt><trkpt lat="46.02118164959258" lon="12.099875720086514"><ele>712.0</ele><time>2026-03-22T12:31:02.975Z</time></trkpt><trkpt lat="46.02110261635117" lon="12.099988967558891"><ele>712.0</ele><time>2026-03-22T12:31:03.975Z</time></trkpt><trkpt lat="46.021014365417045" lon="12.100097110762823"><ele>715.25</ele><time>2026-03-22T12:31:04.975Z</time></trkpt><trkpt lat="46.020919596584676" lon="12.100187885978398"><ele>718.5</ele><time>2026-03-22T12:31:05.975Z</time></trkpt><trkpt lat="46.02082137465123" lon="12.100277448544587"><ele>721.75</ele><time>2026-03-22T12:31:06.975Z</time></trkpt><trkpt lat="46.02072541981196" lon="12.100369036220387"><ele>725.0</ele><time>2026-03-22T12:31:07.975Z</time></trkpt><trkpt lat="46.02063002574135" lon="12.100452614906159"><ele>725.0</ele><time>2026-03-22T12:31:08.975Z</time></trkpt><trkpt lat="46.02053785966965" lon="12.100554007863078"><ele>725.0</ele><time>2026-03-22T12:31:09.975Z</time></trkpt><trkpt lat="46.020443798114854" lon="12.100659165682602"><ele>725.0</ele><time>2026-03-22T12:31:10.975Z</time></trkpt><trkpt lat="46.02034450199411" lon="12.100755256183058"><ele>725.0</ele><time>2026-03-22T12:31:11.975Z</time></trkpt><trkpt lat="46.020245431499895" lon="12.100829441766034"><ele>728.0</ele><time>2026-03-22T12:31:12.975Z</time></trkpt><trkpt lat="46.020148291508484" lon="12.10088889545543"><ele>731.0</ele><time>2026-03-22T12:31:13.975Z</time></trkpt><trkpt lat="46.02006365907205" lon="12.100944717624236"><ele>734.0</ele><time>2026-03-22T12:31:14.975Z</time></trkpt><trkpt lat="46.01998635325256" lon="12.101008712991913"><ele>737.0</ele><time>2026-03-22T12:31:15.975Z</time></trkpt><trkpt lat="46.0199088465933" lon="12.101083951062005"><ele>740.0</ele><time>2026-03-22T12:31:16.975Z</time></trkpt><trkpt lat="46.01982616349849" lon="12.101176526918993"><ele>740.0</ele><time>2026-03-22T12:31:17.975Z</time></trkpt><trkpt lat="46.01974726441152" lon="12.101267007097283"><ele>740.0</ele><time>2026-03-22T12:31:18.975Z</time></trkpt><trkpt lat="46.01965491405148" lon="12.101345564821413"><ele>740.0</ele><time>2026-03-22T12:31:19.975Z</time></trkpt><trkpt lat="46.0195574416817" lon="12.101396669411509"><ele>740.0</ele><time>2026-03-22T12:31:20.975Z</time></trkpt><trkpt lat="46.01944614330948" lon="12.10143407237631"><ele>740.0</ele><time>2026-03-22T12:31:21.975Z</time></trkpt><trkpt lat="46.0193276327792" lon="12.101454323420134"><ele>740.0</ele><time>2026-03-22T12:31:22.975Z</time></trkpt><trkpt lat="46.01921564047335" lon="12.10149407276655"><ele>740.0</ele><time>2026-03-22T12:31:23.975Z</time></trkpt><trkpt lat="46.01909968965171" lon="12.101544278790744"><ele>740.0</ele><time>2026-03-22T12:31:24.975Z</time></trkpt><trkpt lat="46.018986449177014" lon="12.101596511846925"><ele>740.0</ele><time>2026-03-22T12:31:25.975Z</time></trkpt><trkpt lat="46.01888564693488" lon="12.101678355619127"><ele>744.1666666666666</ele><time>2026-03-22T12:31:26.974Z</time></trkpt><trkpt lat="46.01878891667452" lon="12.101726953614321"><ele>748.3333333333333</ele><time>2026-03-22T12:31:27.974Z</time></trkpt><trkpt lat="46.01870105208093" lon="12.10175958552989"><ele>752.5</ele><time>2026-03-22T12:31:28.974Z</time></trkpt><trkpt lat="46.01860739295769" lon="12.101776808414515"><ele>756.6666666666666</ele><time>2026-03-22T12:31:29.974Z</time></trkpt><trkpt lat="46.01852839321751" lon="12.101809464632739"><ele>760.8333333333334</ele><time>2026-03-22T12:31:30.974Z</time></trkpt><trkpt lat="46.01846395971977" lon="12.101841010976566"><ele>765.0</ele><time>2026-03-22T12:31:31.974Z</time></trkpt><trkpt lat="46.01840227299076" lon="12.101883180696468"><ele>765.0</ele><time>2026-03-22T12:31:32.974Z</time></trkpt><trkpt lat="46.018341852281544" lon="12.101913994682823"><ele>765.0</ele><time>2026-03-22T12:31:33.974Z</time></trkpt><trkpt lat="46.018229341561096" lon="12.101956206032146"><ele>765.0</ele><time>2026-03-22T12:31:35.974Z</time></trkpt><trkpt lat="46.01815887849728" lon="12.101999254970657"><ele>765.0</ele><time>2026-03-22T12:31:37.974Z</time></trkpt><trkpt lat="46.01810607714553" lon="12.102061786215875"><ele>765.0</ele><time>2026-03-22T12:31:45.974Z</time></trkpt><trkpt lat="46.01802814813762" lon="12.102106599195032"><ele>765.0</ele><time>2026-03-22T12:31:48.974Z</time></trkpt><trkpt lat="46.01794299548725" lon="12.102177897745179"><ele>764.6666666666666</ele><time>2026-03-22T12:31:50.974Z</time></trkpt><trkpt lat="46.017852128498724" lon="12.102255860608102"><ele>764.3333333333334</ele><time>2026-03-22T12:31:52.973Z</time></trkpt><trkpt lat="46.01773386859421" lon="12.102287378623634"><ele>764.0</ele><time>2026-03-22T12:31:54.974Z</time></trkpt><trkpt lat="46.017666590546995" lon="12.102287831909912"><ele>763.6666666666667</ele><time>2026-03-22T12:31:55.973Z</time></trkpt><trkpt lat="46.01759161014998" lon="12.102280215213602"><ele>763.3333333333334</ele><time>2026-03-22T12:31:56.973Z</time></trkpt><trkpt lat="46.0175122781703" lon="12.102265281376093"><ele>763.0</ele><time>2026-03-22T12:31:57.973Z</time></trkpt><trkpt lat="46.01743748283528" lon="12.10224544072857"><ele>764.3333333333334</ele><time>2026-03-22T12:31:58.973Z</time></trkpt><trkpt lat="46.01736264157514" lon="12.102234457541606"><ele>765.6666666666667</ele><time>2026-03-22T12:31:59.973Z</time></trkpt><trkpt lat="46.017289099651826" lon="12.102230335329919"><ele>767.0</ele><time>2026-03-22T12:32:00.973Z</time></trkpt><trkpt lat="46.017222224423335" lon="12.10223082660052"><ele>768.3333333333334</ele><time>2026-03-22T12:32:01.973Z</time></trkpt><trkpt lat="46.01713104310568" lon="12.102244065010048"><ele>769.6666666666666</ele><time>2026-03-22T12:32:03.973Z</time></trkpt><trkpt lat="46.01706167702525" lon="12.102250655524607"><ele>771.0</ele><time>2026-03-22T12:32:07.973Z</time></trkpt><trkpt lat="46.01698216683444" lon="12.102263103186102"><ele>771.0</ele><time>2026-03-22T12:32:32.973Z</time></trkpt><trkpt lat="46.01690047725323" lon="12.102270998677449"><ele>771.0</ele><time>2026-03-22T12:32:34.973Z</time></trkpt><trkpt lat="46.01678058313578" lon="12.102289413477816"><ele>771.0</ele><time>2026-03-22T12:32:36.973Z</time></trkpt><trkpt lat="46.01670707442637" lon="12.102307630469483"><ele>771.0</ele><time>2026-03-22T12:32:37.973Z</time></trkpt><trkpt lat="46.01663601376337" lon="12.102328806984286"><ele>771.0</ele><time>2026-03-22T12:32:38.972Z</time></trkpt><trkpt lat="46.01657067141321" lon="12.102356307709345"><ele>771.0</ele><time>2026-03-22T12:32:39.972Z</time></trkpt><trkpt lat="46.01650898720035" lon="12.102391638796037"><ele>775.6666666666666</ele><time>2026-03-22T12:32:40.972Z</time></trkpt><trkpt lat="46.016446975457" lon="12.10241486070087"><ele>780.3333333333333</ele><time>2026-03-22T12:32:41.972Z</time></trkpt><trkpt lat="46.01638376310174" lon="12.102466225029548"><ele>785.0</ele><time>2026-03-22T12:32:42.972Z</time></trkpt><trkpt lat="46.01633271951218" lon="12.102539841896013"><ele>789.6666666666666</ele><time>2026-03-22T12:32:43.972Z</time></trkpt><trkpt lat="46.01627568464266" lon="12.102598125028813"><ele>794.3333333333333</ele><time>2026-03-22T12:32:44.972Z</time></trkpt><trkpt lat="46.016160449203475" lon="12.102680206857228"><ele>799.0</ele><time>2026-03-22T12:32:46.972Z</time></trkpt><trkpt lat="46.01608875035476" lon="12.102698433555757"><ele>798.9999999999999</ele><time>2026-03-22T12:32:47.972Z</time></trkpt><trkpt lat="46.01601551719401" lon="12.10272071830989"><ele>799.0</ele><time>2026-03-22T12:32:48.972Z</time></trkpt><trkpt lat="46.015947401088034" lon="12.102746854092855"><ele>799.0</ele><time>2026-03-22T12:32:49.972Z</time></trkpt><trkpt lat="46.015862455698965" lon="12.102761815566454"><ele>799.0</ele><time>2026-03-22T12:32:50.972Z</time></trkpt><trkpt lat="46.015779574841815" lon="12.102824331630151"><ele>798.9999999999999</ele><time>2026-03-22T12:32:51.972Z</time></trkpt><trkpt lat="46.01569219784135" lon="12.102839635418398"><ele>799.0</ele><time>2026-03-22T12:32:52.972Z</time></trkpt><trkpt lat="46.01560803269276" lon="12.102878177728735"><ele>799.6666666666666</ele><time>2026-03-22T12:32:53.972Z</time></trkpt><trkpt lat="46.01552662420309" lon="12.102914127415014"><ele>800.3333333333333</ele><time>2026-03-22T12:32:54.972Z</time></trkpt><trkpt lat="46.01544890593373" lon="12.102947543558654"><ele>801.0</ele><time>2026-03-22T12:32:55.972Z</time></trkpt><trkpt lat="46.015376545136796" lon="12.102976910755835"><ele>801.6666666666667</ele><time>2026-03-22T12:32:56.972Z</time></trkpt><trkpt lat="46.01529657362458" lon="12.10300812689792"><ele>802.3333333333334</ele><time>2026-03-22T12:32:57.972Z</time></trkpt><trkpt lat="46.0152183057074" lon="12.10303691847013"><ele>803.0</ele><time>2026-03-22T12:32:58.972Z</time></trkpt><trkpt lat="46.01512409303663" lon="12.10307145553512"><ele>803.0</ele><time>2026-03-22T12:32:59.972Z</time></trkpt><trkpt lat="46.01502653898157" lon="12.103107151496204"><ele>803.0</ele><time>2026-03-22T12:33:00.972Z</time></trkpt><trkpt lat="46.01492155975994" lon="12.103153299242464"><ele>803.0</ele><time>2026-03-22T12:33:01.972Z</time></trkpt><trkpt lat="46.014816755194246" lon="12.103207950875055"><ele>803.0</ele><time>2026-03-22T12:33:02.972Z</time></trkpt><trkpt lat="46.0147196332914" lon="12.103262724526934"><ele>803.0</ele><time>2026-03-22T12:33:03.972Z</time></trkpt><trkpt lat="46.0146308425127" lon="12.10333950599145"><ele>807.4</ele><time>2026-03-22T12:33:04.972Z</time></trkpt><trkpt lat="46.01453678867365" lon="12.103367778170435"><ele>811.8</ele><time>2026-03-22T12:33:05.972Z</time></trkpt><trkpt lat="46.01445535621883" lon="12.10336303739416"><ele>816.2</ele><time>2026-03-22T12:33:06.972Z</time></trkpt><trkpt lat="46.01438306673485" lon="12.10334036429361"><ele>820.6</ele><time>2026-03-22T12:33:07.972Z</time></trkpt><trkpt lat="46.014277352045056" lon="12.103312399583821"><ele>825.0</ele><time>2026-03-22T12:33:09.972Z</time></trkpt><trkpt lat="46.014160827638" lon="12.103329330436098"><ele>822.3333333333334</ele><time>2026-03-22T12:33:11.972Z</time></trkpt><trkpt lat="46.014084668032496" lon="12.10333797460374"><ele>819.6666666666667</ele><time>2026-03-22T12:33:12.972Z</time></trkpt><trkpt lat="46.01400535243605" lon="12.103348465576996"><ele>817.0</ele><time>2026-03-22T12:33:13.972Z</time></trkpt><trkpt lat="46.01392755194839" lon="12.103347539276797"><ele>814.3333333333334</ele><time>2026-03-22T12:33:14.971Z</time></trkpt><trkpt lat="46.01383967586309" lon="12.103379204736695"><ele>811.6666666666667</ele><time>2026-03-22T12:33:15.971Z</time></trkpt><trkpt lat="46.01376010931736" lon="12.103423785603145"><ele>809.0</ele><time>2026-03-22T12:33:16.971Z</time></trkpt><trkpt lat="46.01367741843752" lon="12.103487604084748"><ele>809.0000000000001</ele><time>2026-03-22T12:33:17.971Z</time></trkpt><trkpt lat="46.013608260453815" lon="12.103550397303048"><ele>809.0</ele><time>2026-03-22T12:33:18.971Z</time></trkpt><trkpt lat="46.013545090730005" lon="12.103608990908903"><ele>809.0</ele><time>2026-03-22T12:33:19.971Z</time></trkpt><trkpt lat="46.01349052740021" lon="12.103659767157856"><ele>809.0</ele><time>2026-03-22T12:33:20.971Z</time></trkpt><trkpt lat="46.0133982088158" lon="12.10375724316728"><ele>809.0000000000001</ele><time>2026-03-22T12:33:22.97Z</time></trkpt><trkpt lat="46.013358186911574" lon="12.103840267280885"><ele>809.0</ele><time>2026-03-22T12:33:23.97Z</time></trkpt><trkpt lat="46.01333414810978" lon="12.103940777438398"><ele>808.5714285714286</ele><time>2026-03-22T12:33:24.97Z</time></trkpt><trkpt lat="46.01331654196856" lon="12.104042478128724"><ele>808.1428571428571</ele><time>2026-03-22T12:33:25.97Z</time></trkpt><trkpt lat="46.0132988386993" lon="12.104153177273266"><ele>807.7142857142858</ele><time>2026-03-22T12:33:26.97Z</time></trkpt><trkpt lat="46.01328146831279" lon="12.104257798454526"><ele>807.2857142857142</ele><time>2026-03-22T12:33:27.97Z</time></trkpt><trkpt lat="46.01326570726105" lon="12.104352726455177"><ele>806.8571428571428</ele><time>2026-03-22T12:33:28.97Z</time></trkpt><trkpt lat="46.01324861891405" lon="12.10445565517624"><ele>806.4285714285714</ele><time>2026-03-22T12:33:29.97Z</time></trkpt><trkpt lat="46.01322936828766" lon="12.10456166231322"><ele>806.0</ele><time>2026-03-22T12:33:30.97Z</time></trkpt><trkpt lat="46.0132085892804" lon="12.104668868362758"><ele>806.0</ele><time>2026-03-22T12:33:31.97Z</time></trkpt><trkpt lat="46.01318278427681" lon="12.104766800397183"><ele>806.0</ele><time>2026-03-22T12:33:32.97Z</time></trkpt><trkpt lat="46.01314931233181" lon="12.104859259352157"><ele>806.0</ele><time>2026-03-22T12:33:33.969Z</time></trkpt><trkpt lat="46.01310456409888" lon="12.10494461039282"><ele>806.0</ele><time>2026-03-22T12:33:34.969Z</time></trkpt><trkpt lat="46.0130549670976" lon="12.10503327812083"><ele>806.0</ele><time>2026-03-22T12:33:35.969Z</time></trkpt><trkpt lat="46.01301139133313" lon="12.105101770335436"><ele>806.0</ele><time>2026-03-22T12:33:36.969Z</time></trkpt><trkpt lat="46.01294624499684" lon="12.105148663559971"><ele>806.0</ele><time>2026-03-22T12:33:37.969Z</time></trkpt><trkpt lat="46.01283668734092" lon="12.105151721366708"><ele>811.4</ele><time>2026-03-22T12:33:39.969Z</time></trkpt><trkpt lat="46.012743293734154" lon="12.105109089290513"><ele>816.8</ele><time>2026-03-22T12:33:41.969Z</time></trkpt><trkpt lat="46.01262147775312" lon="12.105226202732302"><ele>822.1999999999999</ele><time>2026-03-22T12:33:43.969Z</time></trkpt><trkpt lat="46.01257831439446" lon="12.105293662170629"><ele>827.5999999999999</ele><time>2026-03-22T12:33:44.969Z</time></trkpt><trkpt lat="46.01249046285871" lon="12.105350270056993"><ele>833.0</ele><time>2026-03-22T12:33:46.969Z</time></trkpt><trkpt lat="46.0124208939712" lon="12.105338969842796"><ele>834.1666666666667</ele><time>2026-03-22T12:33:47.969Z</time></trkpt><trkpt lat="46.01234323263411" lon="12.105287538771512"><ele>835.3333333333334</ele><time>2026-03-22T12:33:48.969Z</time></trkpt><trkpt lat="46.01228761105864" lon="12.105236688950944"><ele>836.5</ele><time>2026-03-22T12:33:49.968Z</time></trkpt><trkpt lat="46.01222259405434" lon="12.105193754427765"><ele>837.6666666666667</ele><time>2026-03-22T12:33:50.968Z</time></trkpt><trkpt lat="46.01211740339545" lon="12.105150010666135"><ele>838.8333333333334</ele><time>2026-03-22T12:33:52.969Z</time></trkpt><trkpt lat="46.01205582840195" lon="12.105096808629012"><ele>840.0</ele><time>2026-03-22T12:33:53.969Z</time></trkpt><trkpt lat="46.01199161536923" lon="12.105095013532043"><ele>840.0</ele><time>2026-03-22T12:33:54.968Z</time></trkpt><trkpt lat="46.01188780531912" lon="12.105096190902541"><ele>840.0</ele><time>2026-03-22T12:33:56.968Z</time></trkpt><trkpt lat="46.01181110488579" lon="12.105095746462899"><ele>840.0</ele><time>2026-03-22T12:33:57.968Z</time></trkpt><trkpt lat="46.01172586363793" lon="12.105102300277052"><ele>840.0</ele><time>2026-03-22T12:33:58.968Z</time></trkpt><trkpt lat="46.0116167525022" lon="12.1051182040546"><ele>840.0</ele><time>2026-03-22T12:33:59.968Z</time></trkpt><trkpt lat="46.01151535107327" lon="12.105130106132597"><ele>839.2</ele><time>2026-03-22T12:34:00.968Z</time></trkpt><trkpt lat="46.011412971479125" lon="12.105152879271936"><ele>838.4</ele><time>2026-03-22T12:34:01.968Z</time></trkpt><trkpt lat="46.01131081876267" lon="12.10515917666859"><ele>837.5999999999999</ele><time>2026-03-22T12:34:02.968Z</time></trkpt><trkpt lat="46.01122880923275" lon="12.105159987381816"><ele>836.8</ele><time>2026-03-22T12:34:03.968Z</time></trkpt><trkpt lat="46.01116536743" lon="12.105153506386443"><ele>836.0</ele><time>2026-03-22T12:34:04.968Z</time></trkpt><trkpt lat="46.01104817316851" lon="12.105142211884429"><ele>836.0</ele><time>2026-03-22T12:34:06.968Z</time></trkpt><trkpt lat="46.010923943451445" lon="12.105163567872781"><ele>836.0</ele><time>2026-03-22T12:34:08.968Z</time></trkpt><trkpt lat="46.01085761040777" lon="12.105206859283737"><ele>836.0</ele><time>2026-03-22T12:34:09.968Z</time></trkpt><trkpt lat="46.01073937212323" lon="12.105288548455139"><ele>836.0</ele><time>2026-03-22T12:34:11.968Z</time></trkpt><trkpt lat="46.0106755567239" lon="12.105301442310106"><ele>836.0</ele><time>2026-03-22T12:34:12.968Z</time></trkpt><trkpt lat="46.01054371995522" lon="12.105338499056401"><ele>833.0</ele><time>2026-03-22T12:34:14.968Z</time></trkpt><trkpt lat="46.01049327384863" lon="12.105395857080502"><ele>830.0</ele><time>2026-03-22T12:34:15.968Z</time></trkpt><trkpt lat="46.01039212128319" lon="12.105468612264843"><ele>827.0</ele><time>2026-03-22T12:34:17.968Z</time></trkpt><trkpt lat="46.01027961546958" lon="12.105537635388929"><ele>824.0</ele><time>2026-03-22T12:34:19.967Z</time></trkpt><trkpt lat="46.01022266269158" lon="12.105624937461581"><ele>821.0</ele><time>2026-03-22T12:34:20.967Z</time></trkpt><trkpt lat="46.01016570743674" lon="12.105714693341334"><ele>825.8</ele><time>2026-03-22T12:34:21.967Z</time></trkpt><trkpt lat="46.01009978996612" lon="12.105809366957917"><ele>830.5999999999999</ele><time>2026-03-22T12:34:22.967Z</time></trkpt><trkpt lat="46.01001549622088" lon="12.105890234981866"><ele>835.4</ele><time>2026-03-22T12:34:23.967Z</time></trkpt><trkpt lat="46.009914120289736" lon="12.105965450754216"><ele>840.2</ele><time>2026-03-22T12:34:24.967Z</time></trkpt><trkpt lat="46.009801376757174" lon="12.106042276632522"><ele>845.0</ele><time>2026-03-22T12:34:25.967Z</time></trkpt><trkpt lat="46.0096820691637" lon="12.106118025990256"><ele>845.0</ele><time>2026-03-22T12:34:26.967Z</time></trkpt><trkpt lat="46.00956222572717" lon="12.1061817099657"><ele>845.0</ele><time>2026-03-22T12:34:27.967Z</time></trkpt><trkpt lat="46.009443227677146" lon="12.106226503839613"><ele>845.0</ele><time>2026-03-22T12:34:28.967Z</time></trkpt><trkpt lat="46.0093321271419" lon="12.106261489769832"><ele>845.0</ele><time>2026-03-22T12:34:29.967Z</time></trkpt><trkpt lat="46.00923666697455" lon="12.106279838427998"><ele>844.5000000000001</ele><time>2026-03-22T12:34:30.967Z</time></trkpt><trkpt lat="46.009153716950756" lon="12.106278690542354"><ele>844.0</ele><time>2026-03-22T12:34:31.967Z</time></trkpt><trkpt lat="46.00907662740118" lon="12.106278267760773"><ele>843.5</ele><time>2026-03-22T12:34:32.967Z</time></trkpt><trkpt lat="46.00900433454514" lon="12.106262400278176"><ele>843.0</ele><time>2026-03-22T12:34:33.967Z</time></trkpt><trkpt lat="46.00893955032732" lon="12.106263305269207"><ele>842.5000000000001</ele><time>2026-03-22T12:34:34.967Z</time></trkpt><trkpt lat="46.008819567467114" lon="12.1062991547522"><ele>842.0</ele><time>2026-03-22T12:34:36.967Z</time></trkpt><trkpt lat="46.00875344149463" lon="12.106350023404998"><ele>842.0000000000001</ele><time>2026-03-22T12:34:37.967Z</time></trkpt><trkpt lat="46.00869843022632" lon="12.106415947785878"><ele>842.0</ele><time>2026-03-22T12:34:38.967Z</time></trkpt><trkpt lat="46.00864324090402" lon="12.106489361593612"><ele>842.0</ele><time>2026-03-22T12:34:39.967Z</time></trkpt><trkpt lat="46.00858673195142" lon="12.106553901170296"><ele>842.0</ele><time>2026-03-22T12:34:40.967Z</time></trkpt><trkpt lat="46.00851510641642" lon="12.106606354910758"><ele>842.0000000000001</ele><time>2026-03-22T12:34:41.967Z</time></trkpt><trkpt lat="46.00843367943113" lon="12.10664116700364"><ele>842.0</ele><time>2026-03-22T12:34:42.967Z</time></trkpt><trkpt lat="46.00834646720279" lon="12.106689026826826"><ele>848.8</ele><time>2026-03-22T12:34:43.967Z</time></trkpt><trkpt lat="46.008248526369734" lon="12.106711801658157"><ele>855.6</ele><time>2026-03-22T12:34:44.967Z</time></trkpt><trkpt lat="46.00813862555814" lon="12.106710770977324"><ele>862.3999999999999</ele><time>2026-03-22T12:34:45.967Z</time></trkpt><trkpt lat="46.00803333130559" lon="12.106732675267732"><ele>869.1999999999999</ele><time>2026-03-22T12:34:46.967Z</time></trkpt><trkpt lat="46.007925577156456" lon="12.106756591304881"><ele>876.0</ele><time>2026-03-22T12:34:47.967Z</time></trkpt><trkpt lat="46.0078240813404" lon="12.106806980300982"><ele>876.0</ele><time>2026-03-22T12:34:48.967Z</time></trkpt><trkpt lat="46.00771954267208" lon="12.106824241878929"><ele>875.9999999999999</ele><time>2026-03-22T12:34:49.967Z</time></trkpt><trkpt lat="46.00762451551434" lon="12.106849852422823"><ele>875.9999999999999</ele><time>2026-03-22T12:34:50.967Z</time></trkpt><trkpt lat="46.00753083861659" lon="12.106877976225482"><ele>876.0</ele><time>2026-03-22T12:34:51.967Z</time></trkpt><trkpt lat="46.007444600472006" lon="12.10690690271073"><ele>876.0</ele><time>2026-03-22T12:34:52.967Z</time></trkpt><trkpt lat="46.00736845516279" lon="12.106920437223325"><ele>876.8333333333334</ele><time>2026-03-22T12:34:53.967Z</time></trkpt><trkpt lat="46.00729496342779" lon="12.106918753568037"><ele>877.6666666666667</ele><time>2026-03-22T12:34:54.967Z</time></trkpt><trkpt lat="46.00721509910131" lon="12.106919767831434"><ele>878.5</ele><time>2026-03-22T12:34:55.967Z</time></trkpt><trkpt lat="46.007131856201106" lon="12.106925861639795"><ele>879.3333333333334</ele><time>2026-03-22T12:34:56.967Z</time></trkpt><trkpt lat="46.00703241274706" lon="12.106932161104409"><ele>880.1666666666667</ele><time>2026-03-22T12:34:57.967Z</time></trkpt><trkpt lat="46.00693785268469" lon="12.106937116871281"><ele>881.0</ele><time>2026-03-22T12:34:58.967Z</time></trkpt><trkpt lat="46.00683939564998" lon="12.106926601151097"><ele>881.0</ele><time>2026-03-22T12:34:59.966Z</time></trkpt><trkpt lat="46.00673420272753" lon="12.106936784923452"><ele>880.9999999999999</ele><time>2026-03-22T12:35:00.966Z</time></trkpt><trkpt lat="46.00663353207312" lon="12.106934733395459"><ele>880.9999999999999</ele><time>2026-03-22T12:35:01.966Z</time></trkpt><trkpt lat="46.00653888173627" lon="12.10692758068463"><ele>881.0</ele><time>2026-03-22T12:35:02.966Z</time></trkpt><trkpt lat="46.00644301289742" lon="12.106926526724823"><ele>881.0</ele><time>2026-03-22T12:35:03.966Z</time></trkpt><trkpt lat="46.006335372208255" lon="12.106942860304546"><ele>882.5999999999999</ele><time>2026-03-22T12:35:04.966Z</time></trkpt><trkpt lat="46.006217365477944" lon="12.106929406978333"><ele>884.1999999999999</ele><time>2026-03-22T12:35:05.966Z</time></trkpt><trkpt lat="46.00609743282985" lon="12.1069783702748"><ele>885.8000000000001</ele><time>2026-03-22T12:35:06.966Z</time></trkpt><trkpt lat="46.00600728544811" lon="12.107026663604426"><ele>887.4000000000001</ele><time>2026-03-22T12:35:07.966Z</time></trkpt><trkpt lat="46.005914180922645" lon="12.1070542464488"><ele>889.0</ele><time>2026-03-22T12:35:08.966Z</time></trkpt><trkpt lat="46.005819584287096" lon="12.107081080771508"><ele>891.6</ele><time>2026-03-22T12:35:09.966Z</time></trkpt><trkpt lat="46.00571728097732" lon="12.107074160620215"><ele>894.2</ele><time>2026-03-22T12:35:10.966Z</time></trkpt><trkpt lat="46.00561479932016" lon="12.107098175183589"><ele>896.8000000000001</ele><time>2026-03-22T12:35:11.966Z</time></trkpt><trkpt lat="46.005506386620205" lon="12.107133842516516"><ele>899.4000000000001</ele><time>2026-03-22T12:35:12.966Z</time></trkpt><trkpt lat="46.00539848170037" lon="12.107174041130843"><ele>902.0</ele><time>2026-03-22T12:35:13.966Z</time></trkpt><trkpt lat="46.0052974976059" lon="12.107215610055338"><ele>902.0</ele><time>2026-03-22T12:35:14.966Z</time></trkpt><trkpt lat="46.005200254960506" lon="12.107283502064755"><ele>902.0</ele><time>2026-03-22T12:35:15.966Z</time></trkpt><trkpt lat="46.00509815755813" lon="12.107326278065333"><ele>902.0</ele><time>2026-03-22T12:35:16.966Z</time></trkpt><trkpt lat="46.004998666226435" lon="12.10736250737901"><ele>902.0</ele><time>2026-03-22T12:35:17.966Z</time></trkpt><trkpt lat="46.00490669040482" lon="12.107400016816221"><ele>902.0</ele><time>2026-03-22T12:35:18.966Z</time></trkpt><trkpt lat="46.00482182214227" lon="12.107432874623077"><ele>903.6666666666667</ele><time>2026-03-22T12:35:19.966Z</time></trkpt><trkpt lat="46.004736025975326" lon="12.107474758543136"><ele>905.3333333333334</ele><time>2026-03-22T12:35:20.966Z</time></trkpt><trkpt lat="46.00465015509984" lon="12.107515096978489"><ele>907.0</ele><time>2026-03-22T12:35:21.966Z</time></trkpt><trkpt lat="46.004563269094085" lon="12.10754977601463"><ele>908.6666666666667</ele><time>2026-03-22T12:35:22.966Z</time></trkpt><trkpt lat="46.00447937125604" lon="12.10756495033454"><ele>910.3333333333334</ele><time>2026-03-22T12:35:23.966Z</time></trkpt><trkpt lat="46.004400293054296" lon="12.107574779523183"><ele>912.0</ele><time>2026-03-22T12:35:24.966Z</time></trkpt><trkpt lat="46.004324799288426" lon="12.107610191935208"><ele>912.0</ele><time>2026-03-22T12:35:25.966Z</time></trkpt><trkpt lat="46.00425100262108" lon="12.107655299097775"><ele>911.9999999999999</ele><time>2026-03-22T12:35:26.966Z</time></trkpt><trkpt lat="46.0041859997167" lon="12.10770016523237"><ele>912.0</ele><time>2026-03-22T12:35:27.966Z</time></trkpt><trkpt lat="46.00412176526618" lon="12.107734796316906"><ele>912.0</ele><time>2026-03-22T12:35:28.966Z</time></trkpt><trkpt lat="46.004056762854475" lon="12.107755913226342"><ele>911.9999999999999</ele><time>2026-03-22T12:35:29.966Z</time></trkpt><trkpt lat="46.00399155984853" lon="12.107760814930481"><ele>912.0</ele><time>2026-03-22T12:35:30.966Z</time></trkpt><trkpt lat="46.0039181815996" lon="12.107747336008165"><ele>912.0</ele><time>2026-03-22T12:35:31.966Z</time></trkpt><trkpt lat="46.00384634450535" lon="12.107731843161725"><ele>912.3333333333334</ele><time>2026-03-22T12:35:32.966Z</time></trkpt><trkpt lat="46.00378120753389" lon="12.107734293455472"><ele>912.6666666666667</ele><time>2026-03-22T12:35:33.966Z</time></trkpt><trkpt lat="46.00366767411666" lon="12.10778195119001"><ele>913.0</ele><time>2026-03-22T12:35:35.966Z</time></trkpt><trkpt lat="46.003620491548006" lon="12.107844161144724"><ele>913.3333333333334</ele><time>2026-03-22T12:35:36.966Z</time></trkpt><trkpt lat="46.00358372252806" lon="12.107923640340394"><ele>913.6666666666667</ele><time>2026-03-22T12:35:37.966Z</time></trkpt><trkpt lat="46.00349029755898" lon="12.108026201556745"><ele>914.0</ele><time>2026-03-22T12:35:39.966Z</time></trkpt><trkpt lat="46.00339294527304" lon="12.108088037958169"><ele>919.0</ele><time>2026-03-22T12:35:41.966Z</time></trkpt><trkpt lat="46.003319286542165" lon="12.108098814376618"><ele>924.0</ele><time>2026-03-22T12:35:51.965Z</time></trkpt><trkpt lat="46.003061677260376" lon="12.108121529750667"><ele>929.0</ele><time>2026-03-22T12:35:53.966Z</time></trkpt><trkpt lat="46.003251129406635" lon="12.108061753514635"><ele>929.0000000000001</ele><time>2026-03-22T12:36:24.966Z</time></trkpt><trkpt lat="46.00317822452854" lon="12.108067179817596"><ele>929.0</ele><time>2026-03-22T12:36:27.966Z</time></trkpt><trkpt lat="46.00310383439144" lon="12.108096058552638"><ele>929.0</ele><time>2026-03-22T12:36:29.966Z</time></trkpt><trkpt lat="46.003044805541904" lon="12.108056469936662"><ele>929.0</ele><time>2026-03-22T12:36:31.966Z</time></trkpt><trkpt lat="46.00301953878432" lon="12.107970217382734"><ele>929.0000000000001</ele><time>2026-03-22T12:36:33.966Z</time></trkpt><trkpt lat="46.00299765428152" lon="12.10783794284673"><ele>929.0</ele><time>2026-03-22T12:36:35.966Z</time></trkpt><trkpt lat="46.00297090340846" lon="12.10769826628087"><ele>929.0</ele><time>2026-03-22T12:36:37.966Z</time></trkpt><trkpt lat="46.0029542346022" lon="12.107548776004705"><ele>929.0000000000001</ele><time>2026-03-22T12:36:39.965Z</time></trkpt><trkpt lat="46.0030000863678" lon="12.107390126709472"><ele>929.0000000000001</ele><time>2026-03-22T12:36:41.965Z</time></trkpt><trkpt lat="46.00303421387329" lon="12.107303999740834"><ele>929.0</ele><time>2026-03-22T12:36:42.965Z</time></trkpt><trkpt lat="46.00306577595299" lon="12.10722410503429"><ele>929.0</ele><time>2026-03-22T12:36:43.965Z</time></trkpt><trkpt lat="46.003147006495134" lon="12.107096828540525"><ele>928.6666666666667</ele><time>2026-03-22T12:36:45.965Z</time></trkpt><trkpt lat="46.00326174701701" lon="12.107017904104127"><ele>928.3333333333334</ele><time>2026-03-22T12:36:47.965Z</time></trkpt><trkpt lat="46.00332622680612" lon="12.106996845201568"><ele>928.0</ele><time>2026-03-22T12:36:48.965Z</time></trkpt><trkpt lat="46.003397504433345" lon="12.106967738291775"><ele>927.6666666666667</ele><time>2026-03-22T12:36:49.965Z</time></trkpt><trkpt lat="46.00346416696897" lon="12.106941743959132"><ele>927.3333333333334</ele><time>2026-03-22T12:36:50.965Z</time></trkpt><trkpt lat="46.00353010165017" lon="12.106921053332329"><ele>927.0</ele><time>2026-03-22T12:36:51.965Z</time></trkpt><trkpt lat="46.0036006923044" lon="12.106891052990997"><ele>926.9999999999999</ele><time>2026-03-22T12:36:52.965Z</time></trkpt><trkpt lat="46.00366638406403" lon="12.106856689896903"><ele>927.0</ele><time>2026-03-22T12:36:53.965Z</time></trkpt><trkpt lat="46.0037274334033" lon="12.106811823613599"><ele>926.9999999999999</ele><time>2026-03-22T12:36:54.965Z</time></trkpt><trkpt lat="46.003802166462805" lon="12.106732087218406"><ele>926.9999999999999</ele><time>2026-03-22T12:36:56.965Z</time></trkpt><trkpt lat="46.00386107013102" lon="12.106684199648685"><ele>927.0</ele><time>2026-03-22T12:37:02.965Z</time></trkpt><trkpt lat="46.0039048720597" lon="12.10660590637618"><ele>926.9999999999999</ele><time>2026-03-22T12:37:13.965Z</time></trkpt><trkpt lat="46.00395065661316" lon="12.106516823649724"><ele>926.9999999999999</ele><time>2026-03-22T12:37:17.965Z</time></trkpt><trkpt lat="46.004001359801" lon="12.106452383369634"><ele>928.6666666666666</ele><time>2026-03-22T12:37:20.964Z</time></trkpt><trkpt lat="46.00405141322131" lon="12.106394985910443"><ele>930.3333333333333</ele><time>2026-03-22T12:37:22.964Z</time></trkpt><trkpt lat="46.00410970614881" lon="12.106347230614727"><ele>932.0</ele><time>2026-03-22T12:37:24.964Z</time></trkpt><trkpt lat="46.00417863940243" lon="12.106328437085665"><ele>933.6666666666666</ele><time>2026-03-22T12:37:27.964Z</time></trkpt><trkpt lat="46.00427967578285" lon="12.10637004745588"><ele>935.3333333333333</ele><time>2026-03-22T12:37:54.964Z</time></trkpt><trkpt lat="46.004376107247" lon="12.106383050691075"><ele>937.0</ele><time>2026-03-22T12:37:57.964Z</time></trkpt><trkpt lat="46.00449691917808" lon="12.106387327433936"><ele>937.0</ele><time>2026-03-22T12:37:59.964Z</time></trkpt><trkpt lat="46.00460767790725" lon="12.106376092259266"><ele>937.0</ele><time>2026-03-22T12:38:01.963Z</time></trkpt><trkpt lat="46.0047056660636" lon="12.10631168112712"><ele>937.0</ele><time>2026-03-22T12:38:03.963Z</time></trkpt><trkpt lat="46.00478274846848" lon="12.106211301695861"><ele>937.0</ele><time>2026-03-22T12:38:05.963Z</time></trkpt><trkpt lat="46.00483023643462" lon="12.106124811876487"><ele>937.0</ele><time>2026-03-22T12:38:08.963Z</time></trkpt><trkpt lat="46.00487085149481" lon="12.10603135884071"><ele>936.9999999999999</ele><time>2026-03-22T12:38:16.963Z</time></trkpt><trkpt lat="46.00491002929804" lon="12.105931315934953"><ele>937.0</ele><time>2026-03-22T12:38:19.963Z</time></trkpt><trkpt lat="46.00498270245846" lon="12.105821112083795"><ele>937.0</ele><time>2026-03-22T12:38:21.963Z</time></trkpt><trkpt lat="46.005034804803046" lon="12.105766885344057"><ele>937.0</ele><time>2026-03-22T12:38:22.963Z</time></trkpt><trkpt lat="46.00511293607337" lon="12.105677458608673"><ele>936.9999999999999</ele><time>2026-03-22T12:38:24.963Z</time></trkpt><trkpt lat="46.00514843267214" lon="12.10559651847261"><ele>937.0</ele><time>2026-03-22T12:38:26.963Z</time></trkpt><trkpt lat="46.00520870548257" lon="12.105542145743925"><ele>938.6666666666666</ele><time>2026-03-22T12:38:28.963Z</time></trkpt><trkpt lat="46.00527523246111" lon="12.1054727924632"><ele>940.3333333333333</ele><time>2026-03-22T12:38:30.963Z</time></trkpt><trkpt lat="46.005382835177656" lon="12.105419967571331"><ele>942.0</ele><time>2026-03-22T12:38:32.963Z</time></trkpt><trkpt lat="46.00544010790639" lon="12.10536034134995"><ele>943.6666666666667</ele><time>2026-03-22T12:38:33.963Z</time></trkpt><trkpt lat="46.00551254650555" lon="12.105321950062628"><ele>945.3333333333334</ele><time>2026-03-22T12:38:34.963Z</time></trkpt><trkpt lat="46.005593558511386" lon="12.105281668102645"><ele>947.0</ele><time>2026-03-22T12:38:35.963Z</time></trkpt><trkpt lat="46.00568568182949" lon="12.105235281371177"><ele>947.0000000000001</ele><time>2026-03-22T12:38:36.963Z</time></trkpt><trkpt lat="46.0057767818731" lon="12.105183790047084"><ele>947.0</ele><time>2026-03-22T12:38:37.963Z</time></trkpt><trkpt lat="46.00586337863576" lon="12.105134270425367"><ele>947.0</ele><time>2026-03-22T12:38:38.963Z</time></trkpt><trkpt lat="46.00596027515345" lon="12.105095474000441"><ele>947.0</ele><time>2026-03-22T12:38:39.963Z</time></trkpt><trkpt lat="46.00603520168377" lon="12.105043277488647"><ele>947.0000000000001</ele><time>2026-03-22T12:38:40.963Z</time></trkpt><trkpt lat="46.00609392429625" lon="12.104995035685754"><ele>947.0</ele><time>2026-03-22T12:38:41.963Z</time></trkpt><trkpt lat="46.00618234707189" lon="12.10488930857113"><ele>946.4000000000001</ele><time>2026-03-22T12:38:43.963Z</time></trkpt><trkpt lat="46.00627992914157" lon="12.104813527990002"><ele>945.8000000000001</ele><time>2026-03-22T12:38:45.962Z</time></trkpt><trkpt lat="46.00634242377765" lon="12.104742378371805"><ele>945.2</ele><time>2026-03-22T12:38:47.962Z</time></trkpt><trkpt lat="46.00641122066405" lon="12.104650646329127"><ele>944.6</ele><time>2026-03-22T12:38:49.962Z</time></trkpt><trkpt lat="46.006452948230866" lon="12.104579013934615"><ele>944.0</ele><time>2026-03-22T12:38:50.962Z</time></trkpt><trkpt lat="46.0065207599204" lon="12.104442630621783"><ele>944.0</ele><time>2026-03-22T12:38:52.962Z</time></trkpt><trkpt lat="46.00656651261331" lon="12.104347049295956"><ele>944.0000000000001</ele><time>2026-03-22T12:38:53.962Z</time></trkpt><trkpt lat="46.00661447718487" lon="12.104246847213588"><ele>944.0000000000001</ele><time>2026-03-22T12:38:54.962Z</time></trkpt><trkpt lat="46.00666229136893" lon="12.104146633213473"><ele>944.0</ele><time>2026-03-22T12:38:55.962Z</time></trkpt><trkpt lat="46.00671291035832" lon="12.104005209905656"><ele>944.0</ele><time>2026-03-22T12:38:56.962Z</time></trkpt><trkpt lat="46.00679606364733" lon="12.10389201568599"><ele>941.5000000000001</ele><time>2026-03-22T12:38:57.962Z</time></trkpt><trkpt lat="46.00686150342978" lon="12.103779531328668"><ele>939.0</ele><time>2026-03-22T12:38:58.962Z</time></trkpt><trkpt lat="46.006919314194064" lon="12.103675335047917"><ele>936.5</ele><time>2026-03-22T12:38:59.962Z</time></trkpt><trkpt lat="46.00697272459185" lon="12.103568130925224"><ele>934.0</ele><time>2026-03-22T12:39:00.962Z</time></trkpt><trkpt lat="46.00701128877161" lon="12.103471648255368"><ele>931.5000000000001</ele><time>2026-03-22T12:39:01.962Z</time></trkpt><trkpt lat="46.00704346060235" lon="12.103380358978029"><ele>929.0</ele><time>2026-03-22T12:39:02.962Z</time></trkpt><trkpt lat="46.00706919657073" lon="12.103290278687993"><ele>931.5000000000001</ele><time>2026-03-22T12:39:03.962Z</time></trkpt><trkpt lat="46.00709339881359" lon="12.103191645812093"><ele>934.0</ele><time>2026-03-22T12:39:04.962Z</time></trkpt><trkpt lat="46.00711431022944" lon="12.103087253677105"><ele>936.5</ele><time>2026-03-22T12:39:05.962Z</time></trkpt><trkpt lat="46.00712813160397" lon="12.10297488346352"><ele>939.0</ele><time>2026-03-22T12:39:06.962Z</time></trkpt><trkpt lat="46.0071408020618" lon="12.102843844606781"><ele>941.5000000000001</ele><time>2026-03-22T12:39:07.962Z</time></trkpt><trkpt lat="46.00714925310041" lon="12.102709531202228"><ele>944.0</ele><time>2026-03-22T12:39:08.962Z</time></trkpt><trkpt lat="46.00715347030919" lon="12.10257668900484"><ele>944.0000000000001</ele><time>2026-03-22T12:39:09.962Z</time></trkpt><trkpt lat="46.00714754773039" lon="12.102458126351548"><ele>944.0</ele><time>2026-03-22T12:39:10.962Z</time></trkpt><trkpt lat="46.00716141645056" lon="12.102346361511819"><ele>944.0</ele><time>2026-03-22T12:39:11.962Z</time></trkpt><trkpt lat="46.00718545370164" lon="12.102234602337738"><ele>944.0</ele><time>2026-03-22T12:39:12.962Z</time></trkpt><trkpt lat="46.00721611672787" lon="12.102126004612467"><ele>944.0000000000001</ele><time>2026-03-22T12:39:13.962Z</time></trkpt><trkpt lat="46.00725715758223" lon="12.102046592351398"><ele>944.0</ele><time>2026-03-22T12:39:14.962Z</time></trkpt><trkpt lat="46.0073105151559" lon="12.10196280975528"><ele>945.5000000000001</ele><time>2026-03-22T12:39:15.962Z</time></trkpt><trkpt lat="46.00736063457592" lon="12.101882342618064"><ele>947.0</ele><time>2026-03-22T12:39:16.962Z</time></trkpt><trkpt lat="46.00740372874537" lon="12.101788977192383"><ele>948.5</ele><time>2026-03-22T12:39:17.962Z</time></trkpt><trkpt lat="46.00749076292413" lon="12.101701813305494"><ele>950.0</ele><time>2026-03-22T12:39:19.962Z</time></trkpt><trkpt lat="46.00754687607338" lon="12.101605185701299"><ele>951.5000000000001</ele><time>2026-03-22T12:39:22.962Z</time></trkpt><trkpt lat="46.00759514780936" lon="12.101522230595863"><ele>953.0</ele><time>2026-03-22T12:39:24.962Z</time></trkpt><trkpt lat="46.00767775601593" lon="12.101415911544832"><ele>948.6666666666667</ele><time>2026-03-22T12:39:26.961Z</time></trkpt><trkpt lat="46.00772435078833" lon="12.101348631538272"><ele>944.3333333333334</ele><time>2026-03-22T12:39:27.961Z</time></trkpt><trkpt lat="46.00775615446038" lon="12.101233272398812"><ele>940.0</ele><time>2026-03-22T12:39:28.961Z</time></trkpt><trkpt lat="46.00778689472805" lon="12.101134221519606"><ele>935.6666666666667</ele><time>2026-03-22T12:39:29.961Z</time></trkpt><trkpt lat="46.007811082245006" lon="12.101041048668472"><ele>931.3333333333334</ele><time>2026-03-22T12:39:30.961Z</time></trkpt><trkpt lat="46.007836266636076" lon="12.10093530955221"><ele>927.0</ele><time>2026-03-22T12:39:31.961Z</time></trkpt><trkpt lat="46.007839049798925" lon="12.100812173030985"><ele>927.5</ele><time>2026-03-22T12:39:32.961Z</time></trkpt><trkpt lat="46.007804741052" lon="12.10069389260041"><ele>928.0</ele><time>2026-03-22T12:39:33.961Z</time></trkpt><trkpt lat="46.00776201580164" lon="12.100611234654274"><ele>928.5</ele><time>2026-03-22T12:39:34.961Z</time></trkpt><trkpt lat="46.00772402457973" lon="12.100530300677923"><ele>929.0</ele><time>2026-03-22T12:39:35.961Z</time></trkpt><trkpt lat="46.00768609089112" lon="12.10045711650824"><ele>929.5</ele><time>2026-03-22T12:39:36.961Z</time></trkpt><trkpt lat="46.00765299417985" lon="12.100331672453956"><ele>930.0</ele><time>2026-03-22T12:39:38.961Z</time></trkpt><trkpt lat="46.00767361545498" lon="12.100165037974389"><ele>930.0</ele><time>2026-03-22T12:39:40.961Z</time></trkpt><trkpt lat="46.007693405657854" lon="12.100076188858228"><ele>930.0</ele><time>2026-03-22T12:39:41.961Z</time></trkpt><trkpt lat="46.00770807168563" lon="12.099986734004323"><ele>930.0</ele><time>2026-03-22T12:39:42.961Z</time></trkpt><trkpt lat="46.00773769543994" lon="12.0999044390767"><ele>930.0</ele><time>2026-03-22T12:39:43.961Z</time></trkpt><trkpt lat="46.00776035219897" lon="12.099801593949893"><ele>930.0</ele><time>2026-03-22T12:39:44.961Z</time></trkpt><trkpt lat="46.00778652178315" lon="12.099694068391235"><ele>930.0</ele><time>2026-03-22T12:39:45.961Z</time></trkpt><trkpt lat="46.00779865648924" lon="12.099604086515097"><ele>930.0</ele><time>2026-03-22T12:39:46.961Z</time></trkpt><trkpt lat="46.0077910276661" lon="12.099512651894885"><ele>930.8333333333334</ele><time>2026-03-22T12:39:47.961Z</time></trkpt><trkpt lat="46.007779160640034" lon="12.099405964221072"><ele>931.6666666666667</ele><time>2026-03-22T12:39:48.961Z</time></trkpt><trkpt lat="46.007735302937185" lon="12.099230293698033"><ele>932.5</ele><time>2026-03-22T12:39:50.961Z</time></trkpt><trkpt lat="46.007716858493815" lon="12.099126304996908"><ele>933.3333333333334</ele><time>2026-03-22T12:39:51.961Z</time></trkpt><trkpt lat="46.00770657878734" lon="12.099027705247092"><ele>934.1666666666667</ele><time>2026-03-22T12:39:52.961Z</time></trkpt><trkpt lat="46.00770828706547" lon="12.098932467994366"><ele>935.0</ele><time>2026-03-22T12:39:53.961Z</time></trkpt><trkpt lat="46.0077219455605" lon="12.098837632431879"><ele>937.4285714285716</ele><time>2026-03-22T12:39:54.961Z</time></trkpt><trkpt lat="46.007737436115235" lon="12.09874774708421"><ele>939.8571428571429</ele><time>2026-03-22T12:39:55.961Z</time></trkpt><trkpt lat="46.00776317721882" lon="12.098655072483817"><ele>942.2857142857143</ele><time>2026-03-22T12:39:56.961Z</time></trkpt><trkpt lat="46.00778249897178" lon="12.09856126779805"><ele>944.7142857142858</ele><time>2026-03-22T12:39:57.961Z</time></trkpt><trkpt lat="46.00782421934606" lon="12.09848067215977"><ele>947.1428571428571</ele><time>2026-03-22T12:39:58.961Z</time></trkpt><trkpt lat="46.00787326221091" lon="12.098408265554976"><ele>949.5714285714286</ele><time>2026-03-22T12:39:59.961Z</time></trkpt><trkpt lat="46.00793402934073" lon="12.098337890705679"><ele>952.0</ele><time>2026-03-22T12:40:00.961Z</time></trkpt><trkpt lat="46.00798838756114" lon="12.09828888480177"><ele>949.6</ele><time>2026-03-22T12:40:01.961Z</time></trkpt><trkpt lat="46.00805094055414" lon="12.098240697540945"><ele>947.2</ele><time>2026-03-22T12:40:02.961Z</time></trkpt><trkpt lat="46.00812562130417" lon="12.098205987991324"><ele>944.8</ele><time>2026-03-22T12:40:03.961Z</time></trkpt><trkpt lat="46.00823955381495" lon="12.098141891376095"><ele>942.4</ele><time>2026-03-22T12:40:05.96Z</time></trkpt><trkpt lat="46.00832986891496" lon="12.09803207255462"><ele>940.0</ele><time>2026-03-22T12:40:07.96Z</time></trkpt><trkpt lat="46.008371552502275" lon="12.097949697862362"><ele>939.9999999999999</ele><time>2026-03-22T12:40:08.96Z</time></trkpt><trkpt lat="46.008425016188056" lon="12.097888345754589"><ele>940.0</ele><time>2026-03-22T12:40:09.96Z</time></trkpt><trkpt lat="46.00847080357285" lon="12.097786221117007"><ele>940.0</ele><time>2026-03-22T12:40:10.96Z</time></trkpt><trkpt lat="46.00851068530652" lon="12.097682328475285"><ele>940.0</ele><time>2026-03-22T12:40:11.96Z</time></trkpt><trkpt lat="46.00854284188361" lon="12.09755150106956"><ele>939.9999999999999</ele><time>2026-03-22T12:40:12.96Z</time></trkpt><trkpt lat="46.00855079187239" lon="12.09741525026481"><ele>940.0</ele><time>2026-03-22T12:40:13.96Z</time></trkpt><trkpt lat="46.00854562199005" lon="12.097290683136073"><ele>941.3333333333333</ele><time>2026-03-22T12:40:14.96Z</time></trkpt><trkpt lat="46.00853527505537" lon="12.097174390290519"><ele>942.6666666666666</ele><time>2026-03-22T12:40:15.96Z</time></trkpt><trkpt lat="46.008520235840145" lon="12.097058816458752"><ele>944.0</ele><time>2026-03-22T12:40:16.96Z</time></trkpt><trkpt lat="46.00850497354959" lon="12.09695731020706"><ele>945.3333333333333</ele><time>2026-03-22T12:40:17.96Z</time></trkpt><trkpt lat="46.00847451292038" lon="12.096857881964443"><ele>946.6666666666666</ele><time>2026-03-22T12:40:18.96Z</time></trkpt><trkpt lat="46.00846545743009" lon="12.09675804989246"><ele>948.0</ele><time>2026-03-22T12:40:19.96Z</time></trkpt><trkpt lat="46.00843762602175" lon="12.096654618744166"><ele>947.8571428571427</ele><time>2026-03-22T12:40:20.96Z</time></trkpt><trkpt lat="46.00842649312172" lon="12.09655671654343"><ele>947.7142857142857</ele><time>2026-03-22T12:40:21.96Z</time></trkpt><trkpt lat="46.00840398967047" lon="12.096455649807455"><ele>947.5714285714284</ele><time>2026-03-22T12:40:22.96Z</time></trkpt><trkpt lat="46.008381861678764" lon="12.096354516725027"><ele>947.4285714285713</ele><time>2026-03-22T12:40:23.96Z</time></trkpt><trkpt lat="46.00835337357966" lon="12.096257387518445"><ele>947.2857142857142</ele><time>2026-03-22T12:40:24.96Z</time></trkpt><trkpt lat="46.008342564673015" lon="12.096152042997854"><ele>947.1428571428571</ele><time>2026-03-22T12:40:25.96Z</time></trkpt><trkpt lat="46.00832912769456" lon="12.096034093132767"><ele>947.0</ele><time>2026-03-22T12:40:26.96Z</time></trkpt><trkpt lat="46.00830499366843" lon="12.095917831691303"><ele>951.5000000000001</ele><time>2026-03-22T12:40:27.96Z</time></trkpt><trkpt lat="46.00827613197793" lon="12.095804399933632"><ele>956.0</ele><time>2026-03-22T12:40:28.96Z</time></trkpt><trkpt lat="46.00825881141184" lon="12.095684712588348"><ele>960.5</ele><time>2026-03-22T12:40:29.96Z</time></trkpt><trkpt lat="46.008225518322675" lon="12.095576546804761"><ele>965.0</ele><time>2026-03-22T12:40:30.96Z</time></trkpt><trkpt lat="46.008190059035115" lon="12.095469903817081"><ele>969.5000000000001</ele><time>2026-03-22T12:40:31.96Z</time></trkpt><trkpt lat="46.00815574013934" lon="12.09536785767284"><ele>974.0</ele><time>2026-03-22T12:40:32.96Z</time></trkpt><trkpt lat="46.00812271762102" lon="12.095266307332796"><ele>974.0000000000001</ele><time>2026-03-22T12:40:33.96Z</time></trkpt><trkpt lat="46.00808940125593" lon="12.095173352326945"><ele>974.0</ele><time>2026-03-22T12:40:34.96Z</time></trkpt><trkpt lat="46.008050648301406" lon="12.095094651481169"><ele>974.0</ele><time>2026-03-22T12:40:35.96Z</time></trkpt><trkpt lat="46.007999722475795" lon="12.095017578200832"><ele>974.0</ele><time>2026-03-22T12:40:36.96Z</time></trkpt><trkpt lat="46.00794400552806" lon="12.094941030790006"><ele>974.0000000000001</ele><time>2026-03-22T12:40:37.96Z</time></trkpt><trkpt lat="46.00789220151839" lon="12.094857631343972"><ele>974.0</ele><time>2026-03-22T12:40:38.96Z</time></trkpt><trkpt lat="46.0078317450359" lon="12.094769499971388"><ele>976.3333333333334</ele><time>2026-03-22T12:40:39.96Z</time></trkpt><trkpt lat="46.00776437312715" lon="12.094681006362332"><ele>978.6666666666667</ele><time>2026-03-22T12:40:40.96Z</time></trkpt><trkpt lat="46.0076972160918" lon="12.094599635975795"><ele>981.0</ele><time>2026-03-22T12:40:41.96Z</time></trkpt><trkpt lat="46.00763707327966" lon="12.094511664958132"><ele>983.3333333333333</ele><time>2026-03-22T12:40:42.96Z</time></trkpt><trkpt lat="46.00756596427457" lon="12.094442247814344"><ele>985.6666666666666</ele><time>2026-03-22T12:40:43.96Z</time></trkpt><trkpt lat="46.00749646463978" lon="12.094380118801308"><ele>988.0</ele><time>2026-03-22T12:40:44.96Z</time></trkpt><trkpt lat="46.007423091627075" lon="12.094321171696688"><ele>987.9999999999999</ele><time>2026-03-22T12:40:45.96Z</time></trkpt><trkpt lat="46.007351697503815" lon="12.09427096126946"><ele>988.0</ele><time>2026-03-22T12:40:46.959Z</time></trkpt><trkpt lat="46.00727429438985" lon="12.094225084849407"><ele>988.0</ele><time>2026-03-22T12:40:47.959Z</time></trkpt><trkpt lat="46.00719978744778" lon="12.094182018560192"><ele>988.0</ele><time>2026-03-22T12:40:48.959Z</time></trkpt><trkpt lat="46.00711512996664" lon="12.09415548603445"><ele>987.9999999999999</ele><time>2026-03-22T12:40:49.959Z</time></trkpt><trkpt lat="46.007047052481894" lon="12.094102275046987"><ele>988.0</ele><time>2026-03-22T12:40:50.959Z</time></trkpt><trkpt lat="46.00698401482405" lon="12.094042846108662"><ele>984.8333333333333</ele><time>2026-03-22T12:40:51.959Z</time></trkpt><trkpt lat="46.006932861454885" lon="12.093987079679323"><ele>981.6666666666666</ele><time>2026-03-22T12:40:52.959Z</time></trkpt><trkpt lat="46.00682511834091" lon="12.093894419658705"><ele>978.5</ele><time>2026-03-22T12:40:54.959Z</time></trkpt><trkpt lat="46.00676088472298" lon="12.093860431248329"><ele>975.3333333333333</ele><time>2026-03-22T12:40:55.959Z</time></trkpt><trkpt lat="46.00670007988671" lon="12.093828119690361"><ele>972.1666666666666</ele><time>2026-03-22T12:40:56.959Z</time></trkpt><trkpt lat="46.00664104252344" lon="12.09378904494728"><ele>969.0</ele><time>2026-03-22T12:40:57.959Z</time></trkpt><trkpt lat="46.006580971193095" lon="12.093746478319993"><ele>968.8000000000001</ele><time>2026-03-22T12:40:58.959Z</time></trkpt><trkpt lat="46.00652188357894" lon="12.093694328907633"><ele>968.6000000000001</ele><time>2026-03-22T12:40:59.959Z</time></trkpt><trkpt lat="46.00641571253146" lon="12.09370140008219"><ele>968.4</ele><time>2026-03-22T12:41:01.959Z</time></trkpt><trkpt lat="46.006342645445585" lon="12.093757172081363"><ele>968.2</ele><time>2026-03-22T12:41:03.959Z</time></trkpt><trkpt lat="46.00626600975997" lon="12.093880234070362"><ele>968.0</ele><time>2026-03-22T12:41:05.959Z</time></trkpt><trkpt lat="46.00619934018701" lon="12.094013329181994"><ele>973.2</ele><time>2026-03-22T12:41:07.959Z</time></trkpt><trkpt lat="46.006138122866126" lon="12.094120936409068"><ele>978.4</ele><time>2026-03-22T12:41:09.959Z</time></trkpt><trkpt lat="46.0060783995732" lon="12.094247801619096"><ele>983.6000000000001</ele><time>2026-03-22T12:41:11.959Z</time></trkpt><trkpt lat="46.00603311568608" lon="12.09431727145814"><ele>988.8000000000001</ele><time>2026-03-22T12:41:12.959Z</time></trkpt><trkpt lat="46.00595480627686" lon="12.094462075465525"><ele>994.0</ele><time>2026-03-22T12:41:14.959Z</time></trkpt><trkpt lat="46.00589800428454" lon="12.094510312279482"><ele>994.0</ele><time>2026-03-22T12:41:15.959Z</time></trkpt><trkpt lat="46.00584944634219" lon="12.094578107807939"><ele>994.0</ele><time>2026-03-22T12:41:16.959Z</time></trkpt><trkpt lat="46.00578172091395" lon="12.094604211564512"><ele>994.0</ele><time>2026-03-22T12:41:17.959Z</time></trkpt><trkpt lat="46.00570546428776" lon="12.094616275338721"><ele>994.0</ele><time>2026-03-22T12:41:18.959Z</time></trkpt><trkpt lat="46.00563422426351" lon="12.094621982697136"><ele>994.0</ele><time>2026-03-22T12:41:19.959Z</time></trkpt><trkpt lat="46.005561682313775" lon="12.094629887796872"><ele>994.0</ele><time>2026-03-22T12:41:20.959Z</time></trkpt><trkpt lat="46.00548700767042" lon="12.094639312852768"><ele>994.0</ele><time>2026-03-22T12:41:21.959Z</time></trkpt><trkpt lat="46.00540914125475" lon="12.09464757402956"><ele>993.8333333333333</ele><time>2026-03-22T12:41:22.959Z</time></trkpt><trkpt lat="46.005332902931364" lon="12.094662179440345"><ele>993.6666666666666</ele><time>2026-03-22T12:41:23.959Z</time></trkpt><trkpt lat="46.005252146085475" lon="12.09466642449335"><ele>993.5</ele><time>2026-03-22T12:41:24.959Z</time></trkpt><trkpt lat="46.005179365752134" lon="12.094691437266247"><ele>993.3333333333333</ele><time>2026-03-22T12:41:25.959Z</time></trkpt><trkpt lat="46.00511645204044" lon="12.094719128099468"><ele>993.1666666666666</ele><time>2026-03-22T12:41:26.959Z</time></trkpt><trkpt lat="46.00500758382964" lon="12.094782449706392"><ele>993.0</ele><time>2026-03-22T12:41:28.959Z</time></trkpt><trkpt lat="46.00494282711117" lon="12.094785880689981"><ele>993.0</ele><time>2026-03-22T12:41:29.959Z</time></trkpt><trkpt lat="46.00481626115207" lon="12.09479330309515"><ele>993.0</ele><time>2026-03-22T12:41:31.958Z</time></trkpt><trkpt lat="46.004742975633896" lon="12.094803869465645"><ele>993.0</ele><time>2026-03-22T12:41:32.958Z</time></trkpt><trkpt lat="46.00465573979327" lon="12.094800290730811"><ele>993.0</ele><time>2026-03-22T12:41:33.958Z</time></trkpt><trkpt lat="46.00458016750936" lon="12.094818906229662"><ele>993.0</ele><time>2026-03-22T12:41:34.958Z</time></trkpt><trkpt lat="46.00450838406957" lon="12.09484805109008"><ele>993.0</ele><time>2026-03-22T12:41:35.958Z</time></trkpt><trkpt lat="46.00444593972024" lon="12.094876868290042"><ele>993.0</ele><time>2026-03-22T12:41:36.958Z</time></trkpt><trkpt lat="46.004383818057384" lon="12.0949055365222"><ele>993.0</ele><time>2026-03-22T12:41:37.958Z</time></trkpt><trkpt lat="46.004268811992794" lon="12.09493410543"><ele>993.0</ele><time>2026-03-22T12:41:39.958Z</time></trkpt><trkpt lat="46.00416297189946" lon="12.094876721123379"><ele>993.0</ele><time>2026-03-22T12:41:41.958Z</time></trkpt><trkpt lat="46.00405569736043" lon="12.094870314661899"><ele>993.0</ele><time>2026-03-22T12:41:43.958Z</time></trkpt><trkpt lat="46.003983365901725" lon="12.094933120761834"><ele>995.8333333333334</ele><time>2026-03-22T12:41:44.958Z</time></trkpt><trkpt lat="46.00394249222382" lon="12.095029140963202"><ele>998.6666666666667</ele><time>2026-03-22T12:41:45.958Z</time></trkpt><trkpt lat="46.003913280699784" lon="12.095117265485808"><ele>1001.5</ele><time>2026-03-22T12:41:46.958Z</time></trkpt><trkpt lat="46.003885127434465" lon="12.095203479019787"><ele>1004.3333333333334</ele><time>2026-03-22T12:41:47.958Z</time></trkpt><trkpt lat="46.003855669443276" lon="12.095283628989376"><ele>1007.1666666666667</ele><time>2026-03-22T12:41:48.958Z</time></trkpt><trkpt lat="46.00382111992336" lon="12.095361129342804"><ele>1010.0</ele><time>2026-03-22T12:41:49.958Z</time></trkpt><trkpt lat="46.003741669682604" lon="12.09550022645319"><ele>1010.0000000000001</ele><time>2026-03-22T12:41:51.958Z</time></trkpt><trkpt lat="46.00369688567162" lon="12.095570048623927"><ele>1010.0</ele><time>2026-03-22T12:41:52.958Z</time></trkpt><trkpt lat="46.00365257183642" lon="12.095638151653727"><ele>1010.0</ele><time>2026-03-22T12:41:53.958Z</time></trkpt><trkpt lat="46.00356686430511" lon="12.095772568674787"><ele>1010.0</ele><time>2026-03-22T12:41:55.958Z</time></trkpt><trkpt lat="46.00351899533429" lon="12.09583976439775"><ele>1010.0000000000001</ele><time>2026-03-22T12:41:56.958Z</time></trkpt><trkpt lat="46.00347195204065" lon="12.095912297302778"><ele>1010.0</ele><time>2026-03-22T12:41:57.958Z</time></trkpt><trkpt lat="46.00342085021715" lon="12.095989023255159"><ele>1014.8333333333334</ele><time>2026-03-22T12:41:58.958Z</time></trkpt><trkpt lat="46.00336315461065" lon="12.096067252114366"><ele>1019.6666666666667</ele><time>2026-03-22T12:41:59.958Z</time></trkpt><trkpt lat="46.0033048291284" lon="12.096140190881245"><ele>1024.5</ele><time>2026-03-22T12:42:00.958Z</time></trkpt><trkpt lat="46.0032418720298" lon="12.096209940870645"><ele>1029.3333333333333</ele><time>2026-03-22T12:42:01.958Z</time></trkpt><trkpt lat="46.0031778669042" lon="12.096270103870463"><ele>1034.1666666666665</ele><time>2026-03-22T12:42:02.958Z</time></trkpt><trkpt lat="46.00312895985557" lon="12.096338576596418"><ele>1039.0</ele><time>2026-03-22T12:42:03.958Z</time></trkpt><trkpt lat="46.00307479362315" lon="12.096402286484842"><ele>1039.0</ele><time>2026-03-22T12:42:04.958Z</time></trkpt><trkpt lat="46.00302302489144" lon="12.096458041761307"><ele>1039.0</ele><time>2026-03-22T12:42:05.958Z</time></trkpt><trkpt lat="46.0029667699638" lon="12.096511497843728"><ele>1039.0</ele><time>2026-03-22T12:42:06.958Z</time></trkpt><trkpt lat="46.002888617233154" lon="12.096636337889693"><ele>1039.0</ele><time>2026-03-22T12:42:08.958Z</time></trkpt><trkpt lat="46.00283015344038" lon="12.09667579960692"><ele>1039.0</ele><time>2026-03-22T12:42:09.958Z</time></trkpt><trkpt lat="46.00276239020386" lon="12.096698376082674"><ele>1039.0</ele><time>2026-03-22T12:42:10.957Z</time></trkpt><trkpt lat="46.00268784639595" lon="12.096736432879721"><ele>1040.5714285714284</ele><time>2026-03-22T12:42:11.957Z</time></trkpt><trkpt lat="46.00262267271918" lon="12.096716145790934"><ele>1042.142857142857</ele><time>2026-03-22T12:42:12.957Z</time></trkpt><trkpt lat="46.00256214068195" lon="12.096688305307342"><ele>1043.7142857142858</ele><time>2026-03-22T12:42:13.958Z</time></trkpt><trkpt lat="46.00247389945011" lon="12.096717602524288"><ele>1045.2857142857142</ele><time>2026-03-22T12:42:15.958Z</time></trkpt><trkpt lat="46.002407454243865" lon="12.096745195165495"><ele>1046.857142857143</ele><time>2026-03-22T12:42:16.957Z</time></trkpt><trkpt lat="46.0023573436911" lon="12.096836265590685"><ele>1048.4285714285713</ele><time>2026-03-22T12:42:17.957Z</time></trkpt><trkpt lat="46.00232806229438" lon="12.096926252270741"><ele>1050.0</ele><time>2026-03-22T12:42:18.957Z</time></trkpt><trkpt lat="46.00230447865666" lon="12.097019934338004"><ele>1050.0</ele><time>2026-03-22T12:42:19.957Z</time></trkpt><trkpt lat="46.002279177100135" lon="12.097115248004338"><ele>1050.0</ele><time>2026-03-22T12:42:20.957Z</time></trkpt><trkpt lat="46.00225119780307" lon="12.09720937735763"><ele>1050.0</ele><time>2026-03-22T12:42:21.957Z</time></trkpt><trkpt lat="46.00221872932484" lon="12.097288137878587"><ele>1050.0</ele><time>2026-03-22T12:42:22.956Z</time></trkpt><trkpt lat="46.00218099993572" lon="12.097380771531578"><ele>1050.0</ele><time>2026-03-22T12:42:23.956Z</time></trkpt><trkpt lat="46.00213948433318" lon="12.097466520145746"><ele>1050.0</ele><time>2026-03-22T12:42:24.956Z</time></trkpt><trkpt lat="46.002092488683" lon="12.09754185942891"><ele>1050.0</ele><time>2026-03-22T12:42:25.956Z</time></trkpt><trkpt lat="46.00203345097476" lon="12.097619479934897"><ele>1055.0</ele><time>2026-03-22T12:42:26.956Z</time></trkpt><trkpt lat="46.00196505375169" lon="12.097696757421238"><ele>1060.0</ele><time>2026-03-22T12:42:27.956Z</time></trkpt><trkpt lat="46.00189014306207" lon="12.097763112344722"><ele>1065.0</ele><time>2026-03-22T12:42:28.956Z</time></trkpt><trkpt lat="46.00180794201376" lon="12.097822535009"><ele>1070.0</ele><time>2026-03-22T12:42:29.956Z</time></trkpt><trkpt lat="46.001724293828076" lon="12.097858065711055"><ele>1075.0</ele><time>2026-03-22T12:42:30.956Z</time></trkpt><trkpt lat="46.00164608922213" lon="12.097891855420324"><ele>1080.0</ele><time>2026-03-22T12:42:31.956Z</time></trkpt><trkpt lat="46.00157054186595" lon="12.09791200103383"><ele>1080.3333333333333</ele><time>2026-03-22T12:42:32.956Z</time></trkpt><trkpt lat="46.00148234969724" lon="12.097926787127589"><ele>1080.6666666666667</ele><time>2026-03-22T12:42:33.956Z</time></trkpt><trkpt lat="46.001393910586835" lon="12.097933635982734"><ele>1081.0</ele><time>2026-03-22T12:42:34.956Z</time></trkpt><trkpt lat="46.00130392719246" lon="12.097937873514311"><ele>1081.3333333333335</ele><time>2026-03-22T12:42:35.956Z</time></trkpt><trkpt lat="46.00121632725921" lon="12.09794555399046"><ele>1081.6666666666667</ele><time>2026-03-22T12:42:36.956Z</time></trkpt><trkpt lat="46.00113456776871" lon="12.097945226849767"><ele>1082.0</ele><time>2026-03-22T12:42:37.956Z</time></trkpt><trkpt lat="46.001050782791324" lon="12.097927722807473"><ele>1082.0</ele><time>2026-03-22T12:42:38.956Z</time></trkpt><trkpt lat="46.000951998002066" lon="12.097908059012674"><ele>1082.0</ele><time>2026-03-22T12:42:39.956Z</time></trkpt><trkpt lat="46.000861857069715" lon="12.09790777561691"><ele>1082.0</ele><time>2026-03-22T12:42:40.956Z</time></trkpt><trkpt lat="46.00077503276811" lon="12.097877838786175"><ele>1082.0</ele><time>2026-03-22T12:42:41.956Z</time></trkpt><trkpt lat="46.00069458982859" lon="12.097862354056295"><ele>1082.0</ele><time>2026-03-22T12:42:42.956Z</time></trkpt><trkpt lat="46.00060229769019" lon="12.09785025178188"><ele>1083.0</ele><time>2026-03-22T12:42:43.956Z</time></trkpt><trkpt lat="46.00051955150723" lon="12.097845422942578"><ele>1084.0</ele><time>2026-03-22T12:42:44.956Z</time></trkpt><trkpt lat="46.00043545525751" lon="12.097866149643913"><ele>1085.0</ele><time>2026-03-22T12:42:45.956Z</time></trkpt><trkpt lat="46.000365555682656" lon="12.097908565509814"><ele>1086.0</ele><time>2026-03-22T12:42:46.956Z</time></trkpt><trkpt lat="46.00029844086935" lon="12.097972684442096"><ele>1087.0</ele><time>2026-03-22T12:42:47.956Z</time></trkpt><trkpt lat="46.00023885129988" lon="12.098043096421911"><ele>1088.0</ele><time>2026-03-22T12:42:48.956Z</time></trkpt><trkpt lat="46.00018142784779" lon="12.098104834365362"><ele>1088.0</ele><time>2026-03-22T12:42:49.956Z</time></trkpt><trkpt lat="46.0001157591583" lon="12.09816139331979"><ele>1088.0</ele><time>2026-03-22T12:42:50.956Z</time></trkpt><trkpt lat="46.00004514506163" lon="12.098199386055143"><ele>1088.0</ele><time>2026-03-22T12:42:51.956Z</time></trkpt><trkpt lat="45.99995925061247" lon="12.098222671456721"><ele>1088.0</ele><time>2026-03-22T12:42:52.956Z</time></trkpt><trkpt lat="45.999865854644575" lon="12.098236381263886"><ele>1088.0</ele><time>2026-03-22T12:42:53.956Z</time></trkpt><trkpt lat="45.999765919201685" lon="12.098245008559102"><ele>1088.0</ele><time>2026-03-22T12:42:54.956Z</time></trkpt><trkpt lat="45.999662427577256" lon="12.09826451877547"><ele>1088.0</ele><time>2026-03-22T12:42:55.956Z</time></trkpt><trkpt lat="45.999549956743294" lon="12.098256674165357"><ele>1088.0</ele><time>2026-03-22T12:42:56.956Z</time></trkpt><trkpt lat="45.99944924962592" lon="12.09824390852459"><ele>1088.0</ele><time>2026-03-22T12:42:57.956Z</time></trkpt><trkpt lat="45.999351703933065" lon="12.098238714418034"><ele>1088.0</ele><time>2026-03-22T12:42:58.956Z</time></trkpt><trkpt lat="45.999272548557265" lon="12.09824915368579"><ele>1088.0</ele><time>2026-03-22T12:42:59.956Z</time></trkpt><trkpt lat="45.99918904340442" lon="12.098281411658302"><ele>1094.3333333333335</ele><time>2026-03-22T12:43:00.956Z</time></trkpt><trkpt lat="45.999109377757414" lon="12.098322692743169"><ele>1100.6666666666667</ele><time>2026-03-22T12:43:01.955Z</time></trkpt><trkpt lat="45.9990351727529" lon="12.098389549218815"><ele>1107.0</ele><time>2026-03-22T12:43:02.955Z</time></trkpt><trkpt lat="45.998966616770744" lon="12.098470424103965"><ele>1113.3333333333333</ele><time>2026-03-22T12:43:03.955Z</time></trkpt><trkpt lat="45.99888839176565" lon="12.098534170384761"><ele>1119.6666666666665</ele><time>2026-03-22T12:43:04.955Z</time></trkpt><trkpt lat="45.99880364270512" lon="12.098572217749473"><ele>1126.0</ele><time>2026-03-22T12:43:05.955Z</time></trkpt><trkpt lat="45.99871647506325" lon="12.098585868029607"><ele>1126.0</ele><time>2026-03-22T12:43:06.955Z</time></trkpt><trkpt lat="45.998628552772445" lon="12.098561273057127"><ele>1126.0</ele><time>2026-03-22T12:43:07.955Z</time></trkpt><trkpt lat="45.998544307679815" lon="12.098520250162714"><ele>1126.0</ele><time>2026-03-22T12:43:08.955Z</time></trkpt><trkpt lat="45.99846450434781" lon="12.098487743010077"><ele>1126.0</ele><time>2026-03-22T12:43:09.955Z</time></trkpt><trkpt lat="45.99838643225604" lon="12.098458487810609"><ele>1126.0</ele><time>2026-03-22T12:43:10.955Z</time></trkpt><trkpt lat="45.998291520007335" lon="12.09844500085189"><ele>1126.0</ele><time>2026-03-22T12:43:11.955Z</time></trkpt><trkpt lat="45.99821183291537" lon="12.098415639114657"><ele>1125.8333333333333</ele><time>2026-03-22T12:43:12.955Z</time></trkpt><trkpt lat="45.998131033361496" lon="12.098399544700836"><ele>1125.6666666666665</ele><time>2026-03-22T12:43:13.955Z</time></trkpt><trkpt lat="45.998052840192926" lon="12.098391209262152"><ele>1125.5</ele><time>2026-03-22T12:43:14.955Z</time></trkpt><trkpt lat="45.997973248410034" lon="12.098412441629144"><ele>1125.3333333333333</ele><time>2026-03-22T12:43:15.955Z</time></trkpt><trkpt lat="45.99789979416334" lon="12.09846322725392"><ele>1125.1666666666667</ele><time>2026-03-22T12:43:16.955Z</time></trkpt><trkpt lat="45.997829984513686" lon="12.098534043206827"><ele>1125.0</ele><time>2026-03-22T12:43:17.955Z</time></trkpt><trkpt lat="45.99777214281292" lon="12.098610145026102"><ele>1125.0</ele><time>2026-03-22T12:43:18.955Z</time></trkpt><trkpt lat="45.997724088964446" lon="12.098674785302256"><ele>1125.0</ele><time>2026-03-22T12:43:19.955Z</time></trkpt><trkpt lat="45.99766981852258" lon="12.098748540874919"><ele>1125.0</ele><time>2026-03-22T12:43:20.955Z</time></trkpt><trkpt lat="45.99761130620871" lon="12.098833235809801"><ele>1125.0</ele><time>2026-03-22T12:43:21.955Z</time></trkpt><trkpt lat="45.99755165173477" lon="12.098925043222865"><ele>1125.0</ele><time>2026-03-22T12:43:22.955Z</time></trkpt><trkpt lat="45.99749676676932" lon="12.09901354697404"><ele>1125.0</ele><time>2026-03-22T12:43:23.955Z</time></trkpt><trkpt lat="45.997442804352964" lon="12.099103959367014"><ele>1127.1666666666667</ele><time>2026-03-22T12:43:24.955Z</time></trkpt><trkpt lat="45.997403189248274" lon="12.099205624488956"><ele>1129.3333333333333</ele><time>2026-03-22T12:43:25.955Z</time></trkpt><trkpt lat="45.997348837573846" lon="12.09927749026236"><ele>1131.5</ele><time>2026-03-22T12:43:26.955Z</time></trkpt><trkpt lat="45.99729697835175" lon="12.099364559468793"><ele>1133.6666666666665</ele><time>2026-03-22T12:43:27.955Z</time></trkpt><trkpt lat="45.99725206991646" lon="12.099444218770312"><ele>1135.8333333333333</ele><time>2026-03-22T12:43:28.955Z</time></trkpt><trkpt lat="45.997206092875636" lon="12.099530920047528"><ele>1138.0</ele><time>2026-03-22T12:43:29.955Z</time></trkpt><trkpt lat="45.997164964502105" lon="12.099617103269317"><ele>1138.0</ele><time>2026-03-22T12:43:30.955Z</time></trkpt><trkpt lat="45.99712105846276" lon="12.099690501482554"><ele>1138.0</ele><time>2026-03-22T12:43:31.955Z</time></trkpt><trkpt lat="45.997075237580574" lon="12.099759942285269"><ele>1138.0</ele><time>2026-03-22T12:43:32.955Z</time></trkpt><trkpt lat="45.996992314024666" lon="12.099919695205202"><ele>1138.0</ele><time>2026-03-22T12:43:34.955Z</time></trkpt><trkpt lat="45.996954055382496" lon="12.100011146787544"><ele>1138.0</ele><time>2026-03-22T12:43:35.955Z</time></trkpt><trkpt lat="45.99691527982266" lon="12.10010386005404"><ele>1138.0</ele><time>2026-03-22T12:43:36.955Z</time></trkpt><trkpt lat="45.996867015466634" lon="12.100186303606648"><ele>1138.6666666666665</ele><time>2026-03-22T12:43:37.955Z</time></trkpt><trkpt lat="45.99681956529767" lon="12.100258823101143"><ele>1139.3333333333333</ele><time>2026-03-22T12:43:38.955Z</time></trkpt><trkpt lat="45.99678269885945" lon="12.10035900460003"><ele>1140.0</ele><time>2026-03-22T12:43:39.955Z</time></trkpt><trkpt lat="45.99673154833361" lon="12.100456884246325"><ele>1140.6666666666667</ele><time>2026-03-22T12:43:40.955Z</time></trkpt><trkpt lat="45.99667261570263" lon="12.100555450347604"><ele>1141.3333333333335</ele><time>2026-03-22T12:43:41.955Z</time></trkpt><trkpt lat="45.99661654580504" lon="12.10062668037004"><ele>1142.0</ele><time>2026-03-22T12:43:42.955Z</time></trkpt><trkpt lat="45.99654931033083" lon="12.10069526319292"><ele>1147.1666666666667</ele><time>2026-03-22T12:43:43.954Z</time></trkpt><trkpt lat="45.99650356330614" lon="12.100786603885735"><ele>1152.3333333333335</ele><time>2026-03-22T12:43:44.954Z</time></trkpt><trkpt lat="45.99645996342954" lon="12.100879093302693"><ele>1157.5</ele><time>2026-03-22T12:43:45.954Z</time></trkpt><trkpt lat="45.99641649094388" lon="12.100970069328335"><ele>1162.6666666666667</ele><time>2026-03-22T12:43:46.954Z</time></trkpt><trkpt lat="45.99637281481511" lon="12.101060787883233"><ele>1167.8333333333333</ele><time>2026-03-22T12:43:47.954Z</time></trkpt><trkpt lat="45.99633143244891" lon="12.101149018028263"><ele>1173.0</ele><time>2026-03-22T12:43:48.954Z</time></trkpt><trkpt lat="45.99628347850893" lon="12.101230266484409"><ele>1173.0</ele><time>2026-03-22T12:43:49.954Z</time></trkpt><trkpt lat="45.99623392954997" lon="12.101312070721434"><ele>1173.0</ele><time>2026-03-22T12:43:50.954Z</time></trkpt><trkpt lat="45.99618257509456" lon="12.101389136875898"><ele>1173.0</ele><time>2026-03-22T12:43:51.954Z</time></trkpt><trkpt lat="45.996129387099344" lon="12.101465499035035"><ele>1173.0</ele><time>2026-03-22T12:43:52.954Z</time></trkpt><trkpt lat="45.99608710155179" lon="12.101564788739582"><ele>1173.0</ele><time>2026-03-22T12:43:53.954Z</time></trkpt><trkpt lat="45.9960370515648" lon="12.101631842306146"><ele>1173.0</ele><time>2026-03-22T12:43:54.954Z</time></trkpt><trkpt lat="45.995983319961134" lon="12.101710470478025"><ele>1175.1666666666667</ele><time>2026-03-22T12:43:55.954Z</time></trkpt><trkpt lat="45.99589387725107" lon="12.101833785263132"><ele>1177.3333333333333</ele><time>2026-03-22T12:43:57.954Z</time></trkpt><trkpt lat="45.99584332605465" lon="12.101896136325314"><ele>1179.5</ele><time>2026-03-22T12:43:58.954Z</time></trkpt><trkpt lat="45.995797432151264" lon="12.101990957261949"><ele>1181.6666666666665</ele><time>2026-03-22T12:43:59.954Z</time></trkpt><trkpt lat="45.99575011513127" lon="12.102055602506098"><ele>1183.8333333333333</ele><time>2026-03-22T12:44:00.954Z</time></trkpt><trkpt lat="45.9956922029275" lon="12.102137081110266"><ele>1186.0</ele><time>2026-03-22T12:44:01.954Z</time></trkpt><trkpt lat="45.9956333485347" lon="12.102202110209186"><ele>1186.0</ele><time>2026-03-22T12:44:02.954Z</time></trkpt><trkpt lat="45.99558164065344" lon="12.102290848325351"><ele>1186.0</ele><time>2026-03-22T12:44:03.954Z</time></trkpt><trkpt lat="45.9955123698939" lon="12.102366940215223"><ele>1186.0</ele><time>2026-03-22T12:44:04.954Z</time></trkpt><trkpt lat="45.995436248828426" lon="12.10243008865501"><ele>1186.0</ele><time>2026-03-22T12:44:05.954Z</time></trkpt><trkpt lat="45.995356107933546" lon="12.102475438315789"><ele>1186.0</ele><time>2026-03-22T12:44:06.954Z</time></trkpt><trkpt lat="45.99529162865985" lon="12.102543856311422"><ele>1186.0</ele><time>2026-03-22T12:44:07.954Z</time></trkpt><trkpt lat="45.99523086122543" lon="12.102623562929944"><ele>1188.1666666666665</ele><time>2026-03-22T12:44:08.954Z</time></trkpt><trkpt lat="45.995162287260285" lon="12.102701887667095"><ele>1190.3333333333333</ele><time>2026-03-22T12:44:09.954Z</time></trkpt><trkpt lat="45.99508563671355" lon="12.102773401761315"><ele>1192.5</ele><time>2026-03-22T12:44:10.954Z</time></trkpt><trkpt lat="45.995013200290344" lon="12.102831264259173"><ele>1194.6666666666667</ele><time>2026-03-22T12:44:11.954Z</time></trkpt><trkpt lat="45.99493837748745" lon="12.102878362866056"><ele>1196.8333333333335</ele><time>2026-03-22T12:44:12.954Z</time></trkpt><trkpt lat="45.994876683889906" lon="12.102928288706899"><ele>1199.0</ele><time>2026-03-22T12:44:13.954Z</time></trkpt><trkpt lat="45.99480815474604" lon="12.102962376676158"><ele>1199.0</ele><time>2026-03-22T12:44:14.954Z</time></trkpt><trkpt lat="45.994733543736864" lon="12.103002245157636"><ele>1199.0</ele><time>2026-03-22T12:44:15.954Z</time></trkpt><trkpt lat="45.99465426169858" lon="12.103038360570382"><ele>1199.0</ele><time>2026-03-22T12:44:16.954Z</time></trkpt><trkpt lat="45.9945733124488" lon="12.103064809845048"><ele>1199.0</ele><time>2026-03-22T12:44:17.954Z</time></trkpt><trkpt lat="45.994487868798906" lon="12.10309234251618"><ele>1199.0</ele><time>2026-03-22T12:44:18.954Z</time></trkpt><trkpt lat="45.994399344509496" lon="12.103120810304787"><ele>1199.0</ele><time>2026-03-22T12:44:19.955Z</time></trkpt><trkpt lat="45.99430971319888" lon="12.103141095882535"><ele>1199.0</ele><time>2026-03-22T12:44:20.955Z</time></trkpt><trkpt lat="45.99421490384855" lon="12.103164595506648"><ele>1199.0</ele><time>2026-03-22T12:44:21.954Z</time></trkpt><trkpt lat="45.99412017779603" lon="12.10318825602537"><ele>1199.0</ele><time>2026-03-22T12:44:22.954Z</time></trkpt><trkpt lat="45.99402720064403" lon="12.103214065716559"><ele>1199.0</ele><time>2026-03-22T12:44:23.954Z</time></trkpt><trkpt lat="45.99394130575576" lon="12.10323389922749"><ele>1199.0</ele><time>2026-03-22T12:44:24.955Z</time></trkpt><trkpt lat="45.99385677177788" lon="12.103261880161254"><ele>1203.0</ele><time>2026-03-22T12:44:25.954Z</time></trkpt><trkpt lat="45.99378439642675" lon="12.10327943297643"><ele>1207.0</ele><time>2026-03-22T12:44:26.954Z</time></trkpt><trkpt lat="45.99372072685469" lon="12.10329821276778"><ele>1211.0</ele><time>2026-03-22T12:44:27.953Z</time></trkpt><trkpt lat="45.993621669339326" lon="12.1033207582045"><ele>1215.0</ele><time>2026-03-22T12:44:29.954Z</time></trkpt><trkpt lat="45.99353425999687" lon="12.103323782422713"><ele>1219.0</ele><time>2026-03-22T12:44:31.953Z</time></trkpt><trkpt lat="45.99344722874143" lon="12.103306709311932"><ele>1223.0</ele><time>2026-03-22T12:44:33.953Z</time></trkpt><trkpt lat="45.993358936354426" lon="12.103321154861227"><ele>1224.8333333333335</ele><time>2026-03-22T12:44:35.953Z</time></trkpt><trkpt lat="45.99326460955904" lon="12.103371250442951"><ele>1226.6666666666667</ele><time>2026-03-22T12:44:37.953Z</time></trkpt><trkpt lat="45.9931837314874" lon="12.103467125064649"><ele>1228.5</ele><time>2026-03-22T12:44:39.953Z</time></trkpt><trkpt lat="45.99313601486425" lon="12.103530134914745"><ele>1230.3333333333333</ele><time>2026-03-22T12:44:40.953Z</time></trkpt><trkpt lat="45.99313681447506" lon="12.103626069535657"><ele>1232.1666666666665</ele><time>2026-03-22T12:44:41.953Z</time></trkpt><trkpt lat="45.99311357446528" lon="12.103752656408831"><ele>1234.0</ele><time>2026-03-22T12:44:43.953Z</time></trkpt><trkpt lat="45.99307181706798" lon="12.103832440700458"><ele>1234.0</ele><time>2026-03-22T12:44:45.953Z</time></trkpt><trkpt lat="45.993029269314384" lon="12.103913023174249"><ele>1234.0</ele><time>2026-03-22T12:44:48.953Z</time></trkpt><trkpt lat="45.992980966222596" lon="12.103978484669728"><ele>1234.0</ele><time>2026-03-22T12:45:00.953Z</time></trkpt><trkpt lat="45.992989055941734" lon="12.104084903993739"><ele>1234.0</ele><time>2026-03-22T12:50:29.952Z</time></trkpt><trkpt lat="45.99293826131048" lon="12.104189641790676"><ele>1234.0</ele><time>2026-03-22T12:50:32.952Z</time></trkpt><trkpt lat="45.99289467409991" lon="12.104270030548859"><ele>1234.0</ele><time>2026-03-22T12:50:34.952Z</time></trkpt><trkpt lat="45.99284646261228" lon="12.104349885861083"><ele>1234.0</ele><time>2026-03-22T12:50:36.952Z</time></trkpt><trkpt lat="45.992789239510834" lon="12.104417779085656"><ele>1235.0</ele><time>2026-03-22T12:50:38.951Z</time></trkpt><trkpt lat="45.9927279028488" lon="12.104462021118865"><ele>1236.0</ele><time>2026-03-22T12:50:40.952Z</time></trkpt><trkpt lat="45.992637824740164" lon="12.104480059450148"><ele>1237.0</ele><time>2026-03-22T12:50:42.951Z</time></trkpt><trkpt lat="45.99253915518467" lon="12.104435441346682"><ele>1238.0</ele><time>2026-03-22T12:50:44.952Z</time></trkpt><trkpt lat="45.99245939353176" lon="12.104349672465927"><ele>1239.0</ele><time>2026-03-22T12:50:46.951Z</time></trkpt><trkpt lat="45.992395469138906" lon="12.104284585098762"><ele>1240.0</ele><time>2026-03-22T12:50:48.951Z</time></trkpt><trkpt lat="45.99234658240701" lon="12.1041823846348"><ele>1240.0</ele><time>2026-03-22T12:50:50.951Z</time></trkpt><trkpt lat="45.99227629502055" lon="12.104137465272416"><ele>1240.0</ele><time>2026-03-22T12:50:52.951Z</time></trkpt><trkpt lat="45.992206094427935" lon="12.104105756885515"><ele>1240.0</ele><time>2026-03-22T12:50:54.951Z</time></trkpt><trkpt lat="45.992126518196386" lon="12.104089768925796"><ele>1240.0</ele><time>2026-03-22T12:50:56.951Z</time></trkpt><trkpt lat="45.99203072706677" lon="12.104101352340104"><ele>1240.0</ele><time>2026-03-22T12:50:58.951Z</time></trkpt><trkpt lat="45.99193895344309" lon="12.10412417570298"><ele>1240.0</ele><time>2026-03-22T12:51:00.951Z</time></trkpt><trkpt lat="45.991850503224576" lon="12.104148239943806"><ele>1240.0</ele><time>2026-03-22T12:51:02.951Z</time></trkpt><trkpt lat="45.991763714327824" lon="12.104148226627409"><ele>1240.0</ele><time>2026-03-22T12:51:04.951Z</time></trkpt><trkpt lat="45.991668495756" lon="12.104140971733498"><ele>1240.0</ele><time>2026-03-22T12:51:06.951Z</time></trkpt><trkpt lat="45.991596260276935" lon="12.104131784364634"><ele>1240.0</ele><time>2026-03-22T12:51:08.951Z</time></trkpt><trkpt lat="45.99153800376719" lon="12.104071785696549"><ele>1240.0</ele><time>2026-03-22T12:51:10.951Z</time></trkpt><trkpt lat="45.99146056605159" lon="12.10397092011935"><ele>1240.0</ele><time>2026-03-22T12:51:12.951Z</time></trkpt><trkpt lat="45.99138089865059" lon="12.1038598322596"><ele>1237.0</ele><time>2026-03-22T12:51:14.951Z</time></trkpt><trkpt lat="45.99130295707993" lon="12.103742652864428"><ele>1234.0</ele><time>2026-03-22T12:51:16.951Z</time></trkpt><trkpt lat="45.99122950467224" lon="12.103655066441725"><ele>1231.0</ele><time>2026-03-22T12:51:18.951Z</time></trkpt><trkpt lat="45.99116020025864" lon="12.103584592756814"><ele>1228.0</ele><time>2026-03-22T12:51:20.95Z</time></trkpt><trkpt lat="45.99108414364807" lon="12.103519301646392"><ele>1225.0</ele><time>2026-03-22T12:51:22.95Z</time></trkpt><trkpt lat="45.99098319973473" lon="12.103468431976456"><ele>1225.0</ele><time>2026-03-22T12:51:24.95Z</time></trkpt><trkpt lat="45.990875722211086" lon="12.103439934152378"><ele>1225.0</ele><time>2026-03-22T12:51:26.95Z</time></trkpt><trkpt lat="45.990771765871905" lon="12.103444605226022"><ele>1225.0</ele><time>2026-03-22T12:51:28.95Z</time></trkpt><trkpt lat="45.99067647423922" lon="12.103432663828759"><ele>1225.0</ele><time>2026-03-22T12:51:30.95Z</time></trkpt><trkpt lat="45.99059019260579" lon="12.103422023994284"><ele>1225.0</ele><time>2026-03-22T12:51:32.95Z</time></trkpt><trkpt lat="45.99050845019341" lon="12.103414653602902"><ele>1227.4</ele><time>2026-03-22T12:51:34.95Z</time></trkpt><trkpt lat="45.99041832391095" lon="12.10342216114793"><ele>1229.8</ele><time>2026-03-22T12:51:36.95Z</time></trkpt><trkpt lat="45.990329281830256" lon="12.103474499852368"><ele>1232.2</ele><time>2026-03-22T12:51:38.95Z</time></trkpt><trkpt lat="45.99021766248112" lon="12.103538022395103"><ele>1234.6</ele><time>2026-03-22T12:51:40.95Z</time></trkpt><trkpt lat="45.99016194906327" lon="12.103581309198677"><ele>1237.0</ele><time>2026-03-22T12:51:41.95Z</time></trkpt><trkpt lat="45.99004444756639" lon="12.103659401548692"><ele>1236.5</ele><time>2026-03-22T12:51:43.95Z</time></trkpt><trkpt lat="45.98997973520228" lon="12.103681851491563"><ele>1236.0</ele><time>2026-03-22T12:51:44.95Z</time></trkpt><trkpt lat="45.98991075331404" lon="12.103710748828853"><ele>1235.5</ele><time>2026-03-22T12:51:45.95Z</time></trkpt><trkpt lat="45.9898362936489" lon="12.103703484922804"><ele>1235.0</ele><time>2026-03-22T12:51:46.95Z</time></trkpt><trkpt lat="45.98972917091529" lon="12.10366383146173"><ele>1234.5</ele><time>2026-03-22T12:51:48.95Z</time></trkpt><trkpt lat="45.98963630905266" lon="12.103579387682414"><ele>1234.0</ele><time>2026-03-22T12:51:50.95Z</time></trkpt><trkpt lat="45.9895429647727" lon="12.103518314819986"><ele>1234.0</ele><time>2026-03-22T12:51:52.95Z</time></trkpt><trkpt lat="45.98946021103549" lon="12.10344375401967"><ele>1234.0</ele><time>2026-03-22T12:51:54.95Z</time></trkpt><trkpt lat="45.98937010333873" lon="12.103350416164972"><ele>1234.0</ele><time>2026-03-22T12:51:56.95Z</time></trkpt><trkpt lat="45.98927174139258" lon="12.103250166246356"><ele>1234.0</ele><time>2026-03-22T12:51:58.95Z</time></trkpt><trkpt lat="45.98922563430046" lon="12.103187303930117"><ele>1234.0</ele><time>2026-03-22T12:51:59.95Z</time></trkpt><trkpt lat="45.98916973281097" lon="12.103145410822641"><ele>1233.4</ele><time>2026-03-22T12:52:00.95Z</time></trkpt><trkpt lat="45.98911699608137" lon="12.10308896531935"><ele>1232.8000000000002</ele><time>2026-03-22T12:52:01.95Z</time></trkpt><trkpt lat="45.9890457464961" lon="12.103086588774792"><ele>1232.1999999999998</ele><time>2026-03-22T12:52:02.95Z</time></trkpt><trkpt lat="45.988924750049286" lon="12.10302690998369"><ele>1231.6</ele><time>2026-03-22T12:52:04.95Z</time></trkpt><trkpt lat="45.988809441223516" lon="12.102988775993532"><ele>1231.0</ele><time>2026-03-22T12:52:06.949Z</time></trkpt><trkpt lat="45.98871856418377" lon="12.102946922845627"><ele>1231.0</ele><time>2026-03-22T12:52:08.949Z</time></trkpt><trkpt lat="45.98862443266984" lon="12.102919279470168"><ele>1231.0</ele><time>2026-03-22T12:52:11.949Z</time></trkpt><trkpt lat="45.988559999362074" lon="12.102883306013066"><ele>1231.0</ele><time>2026-03-22T12:52:13.949Z</time></trkpt><trkpt lat="45.98849906220863" lon="12.102853939547632"><ele>1231.0</ele><time>2026-03-22T12:52:15.949Z</time></trkpt><trkpt lat="45.98841502078451" lon="12.10282804174296"><ele>1231.0</ele><time>2026-03-22T12:52:17.949Z</time></trkpt><trkpt lat="45.988325427211294" lon="12.10274592409228"><ele>1231.0</ele><time>2026-03-22T12:52:19.949Z</time></trkpt><trkpt lat="45.988245501799135" lon="12.102630270245996"><ele>1231.3999999999999</ele><time>2026-03-22T12:52:21.949Z</time></trkpt><trkpt lat="45.98817437316769" lon="12.102533117998"><ele>1231.8</ele><time>2026-03-22T12:52:23.949Z</time></trkpt><trkpt lat="45.98809990645143" lon="12.102449792880725"><ele>1232.1999999999998</ele><time>2026-03-22T12:52:25.949Z</time></trkpt><trkpt lat="45.98801740821859" lon="12.102358487919656"><ele>1232.6</ele><time>2026-03-22T12:52:27.949Z</time></trkpt><trkpt lat="45.98793541253362" lon="12.102269848657393"><ele>1233.0</ele><time>2026-03-22T12:52:29.949Z</time></trkpt><trkpt lat="45.98784809865902" lon="12.102217076084068"><ele>1233.0</ele><time>2026-03-22T12:52:31.949Z</time></trkpt><trkpt lat="45.987749069199346" lon="12.102177794442047"><ele>1233.0</ele><time>2026-03-22T12:52:33.949Z</time></trkpt><trkpt lat="45.98764729183391" lon="12.102139101753258"><ele>1233.0</ele><time>2026-03-22T12:52:35.949Z</time></trkpt><trkpt lat="45.9875637337723" lon="12.102092767653359"><ele>1233.0</ele><time>2026-03-22T12:52:37.949Z</time></trkpt><trkpt lat="45.987494587933746" lon="12.102013394676788"><ele>1233.0</ele><time>2026-03-22T12:52:39.949Z</time></trkpt><trkpt lat="45.98742920694447" lon="12.101966804460695"><ele>1234.5714285714287</ele><time>2026-03-22T12:52:41.949Z</time></trkpt><trkpt lat="45.987368284666594" lon="12.101876239197178"><ele>1236.142857142857</ele><time>2026-03-22T12:53:08.948Z</time></trkpt><trkpt lat="45.987322952410686" lon="12.101803819191488"><ele>1237.7142857142858</ele><time>2026-03-22T12:53:10.948Z</time></trkpt><trkpt lat="45.9872999937873" lon="12.101697202711907"><ele>1239.2857142857142</ele><time>2026-03-22T12:53:12.948Z</time></trkpt><trkpt lat="45.98725209183504" lon="12.101623846811652"><ele>1240.857142857143</ele><time>2026-03-22T12:53:14.948Z</time></trkpt><trkpt lat="45.98719883115983" lon="12.10155192203274"><ele>1242.4285714285713</ele><time>2026-03-22T12:53:17.948Z</time></trkpt><trkpt lat="45.9872356702137" lon="12.101626230980662"><ele>1244.0</ele><time>2026-03-22T13:04:47.94Z</time></trkpt><trkpt lat="45.98728108038275" lon="12.101708894386919"><ele>1244.4285714285713</ele><time>2026-03-22T13:04:54.94Z</time></trkpt><trkpt lat="45.9873187512244" lon="12.10178974738916"><ele>1244.857142857143</ele><time>2026-03-22T13:04:58.94Z</time></trkpt><trkpt lat="45.987368791662085" lon="12.101876697085162"><ele>1245.2857142857142</ele><time>2026-03-22T13:05:02.94Z</time></trkpt><trkpt lat="45.98742390777338" lon="12.101949303320218"><ele>1245.7142857142858</ele><time>2026-03-22T13:05:08.94Z</time></trkpt><trkpt lat="45.9874806376273" lon="12.102009270534703"><ele>1246.142857142857</ele><time>2026-03-22T13:05:11.94Z</time></trkpt><trkpt lat="45.98751626341981" lon="12.101929933004847"><ele>1246.5714285714287</ele><time>2026-03-22T13:05:33.94Z</time></trkpt><trkpt lat="45.98747714162113" lon="12.101856673366987"><ele>1247.0</ele><time>2026-03-22T13:05:40.94Z</time></trkpt><trkpt lat="45.98742933857784" lon="12.101929537562794"><ele>1247.0</ele><time>2026-03-22T13:05:44.94Z</time></trkpt><trkpt lat="45.98747145721046" lon="12.102016202392132"><ele>1247.0</ele><time>2026-03-22T13:05:49.94Z</time></trkpt><trkpt lat="45.987528748390254" lon="12.102068308668537"><ele>1247.0</ele><time>2026-03-22T13:05:52.94Z</time></trkpt><trkpt lat="45.98760935016835" lon="12.102123551214513"><ele>1247.0</ele><time>2026-03-22T13:05:55.94Z</time></trkpt><trkpt lat="45.98767728890132" lon="12.102159709499325"><ele>1247.0</ele><time>2026-03-22T13:05:57.94Z</time></trkpt><trkpt lat="45.987767071876455" lon="12.1021994730873"><ele>1247.0</ele><time>2026-03-22T13:05:59.94Z</time></trkpt><trkpt lat="45.98786129242846" lon="12.102243958473268"><ele>1246.0</ele><time>2026-03-22T13:06:01.94Z</time></trkpt><trkpt lat="45.987936257316015" lon="12.102293764814485"><ele>1245.0</ele><time>2026-03-22T13:06:03.94Z</time></trkpt><trkpt lat="45.98800572776656" lon="12.102357106663103"><ele>1244.0</ele><time>2026-03-22T13:06:05.94Z</time></trkpt><trkpt lat="45.98807659161061" lon="12.102446133281562"><ele>1243.0</ele><time>2026-03-22T13:06:07.94Z</time></trkpt><trkpt lat="45.98815608978681" lon="12.102538324742174"><ele>1242.0</ele><time>2026-03-22T13:06:09.94Z</time></trkpt><trkpt lat="45.98822123405469" lon="12.102651598859142"><ele>1242.0</ele><time>2026-03-22T13:06:11.94Z</time></trkpt><trkpt lat="45.98828885731419" lon="12.102756448754018"><ele>1242.0</ele><time>2026-03-22T13:06:13.94Z</time></trkpt><trkpt lat="45.98834768568073" lon="12.102821002398771"><ele>1242.0</ele><time>2026-03-22T13:06:15.94Z</time></trkpt><trkpt lat="45.98840684459064" lon="12.102871369391869"><ele>1242.0</ele><time>2026-03-22T13:06:17.939Z</time></trkpt><trkpt lat="45.988475691759334" lon="12.102926991532158"><ele>1242.0</ele><time>2026-03-22T13:06:20.939Z</time></trkpt><trkpt lat="45.988541739700835" lon="12.102953593594377"><ele>1242.0</ele><time>2026-03-22T13:06:24.939Z</time></trkpt><trkpt lat="45.988632200651985" lon="12.102971794437536"><ele>1240.1666666666667</ele><time>2026-03-22T13:06:26.939Z</time></trkpt><trkpt lat="45.98874195969327" lon="12.103000944011969"><ele>1238.3333333333333</ele><time>2026-03-22T13:06:28.939Z</time></trkpt><trkpt lat="45.98880922395141" lon="12.103034541522574"><ele>1236.5</ele><time>2026-03-22T13:06:29.939Z</time></trkpt><trkpt lat="45.988876742540015" lon="12.103068059679671"><ele>1234.6666666666665</ele><time>2026-03-22T13:06:30.939Z</time></trkpt><trkpt lat="45.988945899840026" lon="12.103096609626752"><ele>1232.8333333333333</ele><time>2026-03-22T13:06:31.939Z</time></trkpt><trkpt lat="45.98900844800426" lon="12.103117164217622"><ele>1231.0</ele><time>2026-03-22T13:06:32.939Z</time></trkpt><trkpt lat="45.98911111841774" lon="12.103167513709344"><ele>1231.5</ele><time>2026-03-22T13:06:34.939Z</time></trkpt><trkpt lat="45.98919238557569" lon="12.103211939242744"><ele>1232.0</ele><time>2026-03-22T13:06:36.939Z</time></trkpt><trkpt lat="45.98926265363508" lon="12.10326456450519"><ele>1232.5</ele><time>2026-03-22T13:06:38.939Z</time></trkpt><trkpt lat="45.98934925658081" lon="12.103337329266315"><ele>1233.0</ele><time>2026-03-22T13:06:40.939Z</time></trkpt><trkpt lat="45.98942070775597" lon="12.10342163549118"><ele>1233.5</ele><time>2026-03-22T13:06:42.939Z</time></trkpt><trkpt lat="45.98946368978678" lon="12.103492748927975"><ele>1234.0</ele><time>2026-03-22T13:06:46.939Z</time></trkpt><trkpt lat="45.98952728803879" lon="12.103544616244982"><ele>1234.0</ele><time>2026-03-22T13:07:10.938Z</time></trkpt><trkpt lat="45.98959664228098" lon="12.103599872519522"><ele>1234.0</ele><time>2026-03-22T13:07:13.938Z</time></trkpt><trkpt lat="45.989650491100456" lon="12.103647916765077"><ele>1234.0</ele><time>2026-03-22T13:07:15.938Z</time></trkpt><trkpt lat="45.98970457534323" lon="12.103695744209723"><ele>1234.0</ele><time>2026-03-22T13:07:26.939Z</time></trkpt><trkpt lat="45.98976501895845" lon="12.103734396578178"><ele>1234.0</ele><time>2026-03-22T13:07:31.939Z</time></trkpt><trkpt lat="45.98982766412951" lon="12.10376369430212"><ele>1234.0</ele><time>2026-03-22T13:07:39.939Z</time></trkpt><trkpt lat="45.98991582569732" lon="12.1037833239439"><ele>1234.0</ele><time>2026-03-22T13:07:41.939Z</time></trkpt><trkpt lat="45.99002601409382" lon="12.103739544089189"><ele>1234.6000000000001</ele><time>2026-03-22T13:07:43.939Z</time></trkpt><trkpt lat="45.990130328130725" lon="12.103682344972146"><ele>1235.2</ele><time>2026-03-22T13:07:45.939Z</time></trkpt><trkpt lat="45.99022997542379" lon="12.103610294771656"><ele>1235.8000000000002</ele><time>2026-03-22T13:07:47.939Z</time></trkpt><trkpt lat="45.99030542551334" lon="12.103549191984955"><ele>1236.4</ele><time>2026-03-22T13:07:49.939Z</time></trkpt><trkpt lat="45.99038358984596" lon="12.103490983168406"><ele>1237.0</ele><time>2026-03-22T13:07:51.939Z</time></trkpt><trkpt lat="45.990498048541326" lon="12.103465346825688"><ele>1237.0</ele><time>2026-03-22T13:07:53.939Z</time></trkpt><trkpt lat="45.99056296076719" lon="12.10346881302601"><ele>1237.0</ele><time>2026-03-22T13:07:54.939Z</time></trkpt><trkpt lat="45.990630226668124" lon="12.103476127111824"><ele>1237.0</ele><time>2026-03-22T13:07:55.939Z</time></trkpt><trkpt lat="45.99069688136435" lon="12.103483199008418"><ele>1237.0</ele><time>2026-03-22T13:07:56.939Z</time></trkpt><trkpt lat="45.990761891500995" lon="12.103513605920599"><ele>1237.0</ele><time>2026-03-22T13:07:57.939Z</time></trkpt><trkpt lat="45.99083044489556" lon="12.103510889572346"><ele>1237.0</ele><time>2026-03-22T13:07:58.939Z</time></trkpt><trkpt lat="45.990899289191" lon="12.103524438218768"><ele>1237.0</ele><time>2026-03-22T13:07:59.939Z</time></trkpt><trkpt lat="45.99096718356362" lon="12.103543352943698"><ele>1234.6</ele><time>2026-03-22T13:08:00.939Z</time></trkpt><trkpt lat="45.991029499321634" lon="12.103563284452136"><ele>1232.2</ele><time>2026-03-22T13:08:01.939Z</time></trkpt><trkpt lat="45.99113528320664" lon="12.103630283208062"><ele>1229.8</ele><time>2026-03-22T13:08:03.939Z</time></trkpt><trkpt lat="45.99123290400082" lon="12.103719688894135"><ele>1227.4</ele><time>2026-03-22T13:08:05.939Z</time></trkpt><trkpt lat="45.9913204325081" lon="12.103807313939205"><ele>1225.0</ele><time>2026-03-22T13:08:07.939Z</time></trkpt><trkpt lat="45.991403201086484" lon="12.103928716752437"><ele>1225.0</ele><time>2026-03-22T13:08:09.939Z</time></trkpt><trkpt lat="45.99148049249459" lon="12.104067763630571"><ele>1225.0</ele><time>2026-03-22T13:08:11.939Z</time></trkpt><trkpt lat="45.99157094047844" lon="12.10418520074084"><ele>1225.0</ele><time>2026-03-22T13:08:13.938Z</time></trkpt><trkpt lat="45.99168215534186" lon="12.104212890429766"><ele>1225.0</ele><time>2026-03-22T13:08:15.938Z</time></trkpt><trkpt lat="45.991804686589944" lon="12.104242832604532"><ele>1228.0</ele><time>2026-03-22T13:08:17.938Z</time></trkpt><trkpt lat="45.991867031723764" lon="12.104218505834274"><ele>1231.0</ele><time>2026-03-22T13:08:18.938Z</time></trkpt><trkpt lat="45.99199631817105" lon="12.104181502864217"><ele>1234.0</ele><time>2026-03-22T13:08:20.938Z</time></trkpt><trkpt lat="45.992118303400716" lon="12.104159282998701"><ele>1237.0</ele><time>2026-03-22T13:08:22.938Z</time></trkpt><trkpt lat="45.992240017890225" lon="12.104197105148476"><ele>1240.0</ele><time>2026-03-22T13:08:24.938Z</time></trkpt><trkpt lat="45.9923510434386" lon="12.104250661326848"><ele>1240.0</ele><time>2026-03-22T13:08:26.938Z</time></trkpt><trkpt lat="45.99245420084537" lon="12.104335713645867"><ele>1240.0</ele><time>2026-03-22T13:08:28.938Z</time></trkpt><trkpt lat="45.99255425628902" lon="12.104440374610908"><ele>1240.0</ele><time>2026-03-22T13:08:30.938Z</time></trkpt><trkpt lat="45.992667074930544" lon="12.104488008426763"><ele>1240.0</ele><time>2026-03-22T13:08:32.938Z</time></trkpt><trkpt lat="45.99277095755572" lon="12.10443085236086"><ele>1240.8</ele><time>2026-03-22T13:08:34.938Z</time></trkpt><trkpt lat="45.99285827218441" lon="12.10432398422707"><ele>1241.6</ele><time>2026-03-22T13:08:36.938Z</time></trkpt><trkpt lat="45.992934667195414" lon="12.104194315711263"><ele>1242.4</ele><time>2026-03-22T13:08:38.938Z</time></trkpt><trkpt lat="45.99299100383175" lon="12.10408252023636"><ele>1243.2</ele><time>2026-03-22T13:08:40.938Z</time></trkpt><trkpt lat="45.99304318887553" lon="12.103976048571251"><ele>1244.0</ele><time>2026-03-22T13:08:42.938Z</time></trkpt><trkpt lat="45.99309407956113" lon="12.103885165805137"><ele>1242.0</ele><time>2026-03-22T13:08:44.938Z</time></trkpt><trkpt lat="45.99314869934063" lon="12.103810878097695"><ele>1240.0</ele><time>2026-03-22T13:08:47.938Z</time></trkpt><trkpt lat="45.99317209361447" lon="12.103715686554626"><ele>1238.0</ele><time>2026-03-22T13:08:49.938Z</time></trkpt><trkpt lat="45.993192567514434" lon="12.103573392172706"><ele>1236.0</ele><time>2026-03-22T13:08:51.938Z</time></trkpt><trkpt lat="45.99325342020966" lon="12.103447138080671"><ele>1234.0</ele><time>2026-03-22T13:08:53.938Z</time></trkpt><trkpt lat="45.993363581115496" lon="12.10341807626791"><ele>1231.8</ele><time>2026-03-22T13:08:55.938Z</time></trkpt><trkpt lat="45.993479143539915" lon="12.103413552084845"><ele>1229.6000000000001</ele><time>2026-03-22T13:08:57.937Z</time></trkpt><trkpt lat="45.99358942490775" lon="12.103415638507093"><ele>1227.4</ele><time>2026-03-22T13:08:59.937Z</time></trkpt><trkpt lat="45.99368690259547" lon="12.103402878765293"><ele>1225.2</ele><time>2026-03-22T13:09:01.937Z</time></trkpt><trkpt lat="45.99374946840888" lon="12.103392440354616"><ele>1223.0</ele><time>2026-03-22T13:09:02.937Z</time></trkpt><trkpt lat="45.993817974537656" lon="12.10337756435882"><ele>1223.0</ele><time>2026-03-22T13:09:03.937Z</time></trkpt><trkpt lat="45.993899770809904" lon="12.103358158458654"><ele>1223.0</ele><time>2026-03-22T13:09:04.937Z</time></trkpt><trkpt lat="45.99398226806659" lon="12.103319029408153"><ele>1223.0</ele><time>2026-03-22T13:09:05.937Z</time></trkpt><trkpt lat="45.99407162811928" lon="12.10329761037699"><ele>1223.0</ele><time>2026-03-22T13:09:06.937Z</time></trkpt><trkpt lat="45.994167140887974" lon="12.103274085477445"><ele>1223.0</ele><time>2026-03-22T13:09:07.937Z</time></trkpt><trkpt lat="45.994266413028605" lon="12.103252974084873"><ele>1218.2</ele><time>2026-03-22T13:09:08.937Z</time></trkpt><trkpt lat="45.99436646825492" lon="12.10323121632258"><ele>1213.4</ele><time>2026-03-22T13:09:09.937Z</time></trkpt><trkpt lat="45.9944721399986" lon="12.103205912156563"><ele>1208.6000000000001</ele><time>2026-03-22T13:09:10.937Z</time></trkpt><trkpt lat="45.994572007299105" lon="12.103178492231756"><ele>1203.8</ele><time>2026-03-22T13:09:11.937Z</time></trkpt><trkpt lat="45.9946596514198" lon="12.103144958974854"><ele>1199.0</ele><time>2026-03-22T13:09:12.937Z</time></trkpt><trkpt lat="45.99474362399112" lon="12.103111256697938"><ele>1199.0</ele><time>2026-03-22T13:09:13.937Z</time></trkpt><trkpt lat="45.99481507264496" lon="12.103075003357663"><ele>1199.0</ele><time>2026-03-22T13:09:14.937Z</time></trkpt><trkpt lat="45.99487739910206" lon="12.103038765679692"><ele>1199.0</ele><time>2026-03-22T13:09:15.937Z</time></trkpt><trkpt lat="45.99493639180032" lon="12.102993842077796"><ele>1199.0</ele><time>2026-03-22T13:09:16.937Z</time></trkpt><trkpt lat="45.99500192287847" lon="12.1029460063627"><ele>1199.0</ele><time>2026-03-22T13:09:17.937Z</time></trkpt><trkpt lat="45.99506975006711" lon="12.10289108579438"><ele>1199.0</ele><time>2026-03-22T13:09:18.937Z</time></trkpt><trkpt lat="45.995137898413184" lon="12.102827020119918"><ele>1199.0</ele><time>2026-03-22T13:09:19.937Z</time></trkpt><trkpt lat="45.995205367364115" lon="12.102752732963811"><ele>1201.1666666666667</ele><time>2026-03-22T13:09:20.937Z</time></trkpt><trkpt lat="45.99526838374256" lon="12.102675587430518"><ele>1203.3333333333335</ele><time>2026-03-22T13:09:21.937Z</time></trkpt><trkpt lat="45.995335327045225" lon="12.102610082365148"><ele>1205.5</ele><time>2026-03-22T13:09:22.937Z</time></trkpt><trkpt lat="45.9954035121411" lon="12.102555742085235"><ele>1207.6666666666667</ele><time>2026-03-22T13:09:23.937Z</time></trkpt><trkpt lat="45.99546287365361" lon="12.102503934602163"><ele>1209.8333333333333</ele><time>2026-03-22T13:09:24.938Z</time></trkpt><trkpt lat="45.995532764955115" lon="12.10244696418477"><ele>1212.0</ele><time>2026-03-22T13:09:25.938Z</time></trkpt><trkpt lat="45.99560670124806" lon="12.102372535096817"><ele>1210.8</ele><time>2026-03-22T13:09:26.938Z</time></trkpt><trkpt lat="45.99568180923712" lon="12.102287614282082"><ele>1209.6</ele><time>2026-03-22T13:09:27.938Z</time></trkpt><trkpt lat="45.99575567535885" lon="12.10218559272575"><ele>1208.3999999999999</ele><time>2026-03-22T13:09:28.939Z</time></trkpt><trkpt lat="45.99583143227412" lon="12.102077683033464"><ele>1207.2</ele><time>2026-03-22T13:09:29.939Z</time></trkpt><trkpt lat="45.99590740337208" lon="12.101958573777656"><ele>1206.0</ele><time>2026-03-22T13:09:30.938Z</time></trkpt><trkpt lat="45.99599116623265" lon="12.101838346443538"><ele>1206.0</ele><time>2026-03-22T13:09:31.938Z</time></trkpt><trkpt lat="45.996065157289884" lon="12.101719638220127"><ele>1206.0</ele><time>2026-03-22T13:09:32.938Z</time></trkpt><trkpt lat="45.99613761541832" lon="12.101621906353856"><ele>1206.0</ele><time>2026-03-22T13:09:33.938Z</time></trkpt><trkpt lat="45.9961985239984" lon="12.101526013529382"><ele>1206.0</ele><time>2026-03-22T13:09:34.938Z</time></trkpt><trkpt lat="45.996252580345065" lon="12.101429294126687"><ele>1206.0</ele><time>2026-03-22T13:09:35.938Z</time></trkpt><trkpt lat="45.99630015432601" lon="12.101340938170475"><ele>1199.3999999999999</ele><time>2026-03-22T13:09:36.938Z</time></trkpt><trkpt lat="45.996344944333714" lon="12.101241050486989"><ele>1192.8</ele><time>2026-03-22T13:09:37.938Z</time></trkpt><trkpt lat="45.99639664754885" lon="12.101149139144212"><ele>1186.1999999999998</ele><time>2026-03-22T13:09:38.938Z</time></trkpt><trkpt lat="45.99645502109997" lon="12.101032875969267"><ele>1179.6</ele><time>2026-03-22T13:09:39.938Z</time></trkpt><trkpt lat="45.99652475965258" lon="12.10090621520689"><ele>1173.0</ele><time>2026-03-22T13:09:40.938Z</time></trkpt><trkpt lat="45.996608247366176" lon="12.100784896348678"><ele>1174.0</ele><time>2026-03-22T13:09:41.938Z</time></trkpt><trkpt lat="45.99668143089245" lon="12.100673060393826"><ele>1175.0</ele><time>2026-03-22T13:09:42.938Z</time></trkpt><trkpt lat="45.996765545205655" lon="12.100547131579969"><ele>1176.0</ele><time>2026-03-22T13:09:43.938Z</time></trkpt><trkpt lat="45.99683326115982" lon="12.100421467393941"><ele>1177.0</ele><time>2026-03-22T13:09:44.938Z</time></trkpt><trkpt lat="45.996912447127315" lon="12.100299578849418"><ele>1177.0</ele><time>2026-03-22T13:09:45.938Z</time></trkpt><trkpt lat="45.996961677409196" lon="12.100165246687311"><ele>1177.0</ele><time>2026-03-22T13:09:46.938Z</time></trkpt><trkpt lat="45.99701443747852" lon="12.100038050839531"><ele>1177.0</ele><time>2026-03-22T13:09:47.938Z</time></trkpt><trkpt lat="45.997081638519774" lon="12.099912071039972"><ele>1177.0</ele><time>2026-03-22T13:09:48.938Z</time></trkpt><trkpt lat="45.99714684090302" lon="12.099772631126969"><ele>1177.0</ele><time>2026-03-22T13:09:49.938Z</time></trkpt><trkpt lat="45.99722863925265" lon="12.099637993183883"><ele>1169.2</ele><time>2026-03-22T13:09:50.938Z</time></trkpt><trkpt lat="45.997290205720546" lon="12.099482667456869"><ele>1161.4</ele><time>2026-03-22T13:09:51.938Z</time></trkpt><trkpt lat="45.99736202472369" lon="12.099361346973902"><ele>1153.6</ele><time>2026-03-22T13:09:52.938Z</time></trkpt><trkpt lat="45.99743374422546" lon="12.09924781289176"><ele>1145.8</ele><time>2026-03-22T13:09:53.938Z</time></trkpt><trkpt lat="45.99749100849692" lon="12.099145626575647"><ele>1138.0</ele><time>2026-03-22T13:09:54.938Z</time></trkpt><trkpt lat="45.997554265461616" lon="12.09904478885613"><ele>1135.8333333333333</ele><time>2026-03-22T13:09:55.938Z</time></trkpt><trkpt lat="45.997614633102444" lon="12.098942384013753"><ele>1133.6666666666665</ele><time>2026-03-22T13:09:56.938Z</time></trkpt><trkpt lat="45.99768540627723" lon="12.09885923899948"><ele>1131.5</ele><time>2026-03-22T13:09:57.938Z</time></trkpt><trkpt lat="45.99775178187091" lon="12.09876595616001"><ele>1129.3333333333333</ele><time>2026-03-22T13:09:58.938Z</time></trkpt><trkpt lat="45.997805174181295" lon="12.098663898067816"><ele>1127.1666666666667</ele><time>2026-03-22T13:09:59.938Z</time></trkpt><trkpt lat="45.997857665327786" lon="12.098593861250524"><ele>1125.0</ele><time>2026-03-22T13:10:00.938Z</time></trkpt><trkpt lat="45.997912697537785" lon="12.09853656377261"><ele>1125.0</ele><time>2026-03-22T13:10:01.938Z</time></trkpt><trkpt lat="45.997988981723914" lon="12.098483831256393"><ele>1125.0</ele><time>2026-03-22T13:10:02.938Z</time></trkpt><trkpt lat="45.99806030542513" lon="12.098467422200956"><ele>1125.0</ele><time>2026-03-22T13:10:03.938Z</time></trkpt><trkpt lat="45.99812716822354" lon="12.098470963573062"><ele>1125.0</ele><time>2026-03-22T13:10:04.938Z</time></trkpt><trkpt lat="45.9982023858801" lon="12.098486023980099"><ele>1125.0</ele><time>2026-03-22T13:10:05.938Z</time></trkpt><trkpt lat="45.998268073890806" lon="12.098511617602352"><ele>1125.0</ele><time>2026-03-22T13:10:06.938Z</time></trkpt><trkpt lat="45.998347471006866" lon="12.098521164848187"><ele>1125.0</ele><time>2026-03-22T13:10:07.938Z</time></trkpt><trkpt lat="45.99841901027678" lon="12.098541993604117"><ele>1125.1666666666667</ele><time>2026-03-22T13:10:08.937Z</time></trkpt><trkpt lat="45.998486992589584" lon="12.098575060589486"><ele>1125.3333333333333</ele><time>2026-03-22T13:10:09.937Z</time></trkpt><trkpt lat="45.998547648417535" lon="12.098604365888667"><ele>1125.5</ele><time>2026-03-22T13:10:10.937Z</time></trkpt><trkpt lat="45.998661223479964" lon="12.098605693280385"><ele>1125.6666666666665</ele><time>2026-03-22T13:10:12.937Z</time></trkpt><trkpt lat="45.99873615341044" lon="12.09862673776391"><ele>1125.8333333333333</ele><time>2026-03-22T13:10:13.937Z</time></trkpt><trkpt lat="45.99881809567617" lon="12.098605710066535"><ele>1126.0</ele><time>2026-03-22T13:10:14.937Z</time></trkpt><trkpt lat="45.99889386192994" lon="12.098561238078462"><ele>1126.0</ele><time>2026-03-22T13:10:15.937Z</time></trkpt><trkpt lat="45.998970523017476" lon="12.098501886317509"><ele>1126.0</ele><time>2026-03-22T13:10:16.937Z</time></trkpt><trkpt lat="45.99902642133586" lon="12.098454683300597"><ele>1126.0</ele><time>2026-03-22T13:10:17.937Z</time></trkpt><trkpt lat="45.99908413002093" lon="12.098407468545105"><ele>1126.0</ele><time>2026-03-22T13:10:18.937Z</time></trkpt><trkpt lat="45.999196073149164" lon="12.098332872917833"><ele>1126.0</ele><time>2026-03-22T13:10:20.937Z</time></trkpt><trkpt lat="45.99926973209319" lon="12.098310865433094"><ele>1126.0</ele><time>2026-03-22T13:10:21.937Z</time></trkpt><trkpt lat="45.99934011982754" lon="12.098304635759954"><ele>1125.8333333333333</ele><time>2026-03-22T13:10:22.937Z</time></trkpt><trkpt lat="45.99941541352377" lon="12.098306912221844"><ele>1125.6666666666665</ele><time>2026-03-22T13:10:23.937Z</time></trkpt><trkpt lat="45.99949874189078" lon="12.098308661323717"><ele>1125.5</ele><time>2026-03-22T13:10:24.937Z</time></trkpt><trkpt lat="45.999578564975444" lon="12.098282829967445"><ele>1125.3333333333333</ele><time>2026-03-22T13:10:25.937Z</time></trkpt><trkpt lat="45.99965459386882" lon="12.098296103431355"><ele>1125.1666666666667</ele><time>2026-03-22T13:10:26.937Z</time></trkpt><trkpt lat="45.99972722404412" lon="12.09829836395984"><ele>1125.0</ele><time>2026-03-22T13:10:27.937Z</time></trkpt><trkpt lat="45.99979457267658" lon="12.098299015257115"><ele>1125.0</ele><time>2026-03-22T13:10:28.937Z</time></trkpt><trkpt lat="45.99986281406514" lon="12.098297208457124"><ele>1125.0</ele><time>2026-03-22T13:10:29.937Z</time></trkpt><trkpt lat="45.99994225925811" lon="12.098283105458606"><ele>1125.0</ele><time>2026-03-22T13:10:30.937Z</time></trkpt><trkpt lat="46.00001059385144" lon="12.09826117693553"><ele>1125.0</ele><time>2026-03-22T13:10:31.937Z</time></trkpt><trkpt lat="46.000071589306884" lon="12.098217689010982"><ele>1125.0</ele><time>2026-03-22T13:10:32.937Z</time></trkpt><trkpt lat="46.00014598584465" lon="12.098194102664577"><ele>1125.0</ele><time>2026-03-22T13:10:33.937Z</time></trkpt><trkpt lat="46.00020839093989" lon="12.098135831311266"><ele>1125.0</ele><time>2026-03-22T13:10:34.937Z</time></trkpt><trkpt lat="46.000261549402204" lon="12.098078171580505"><ele>1117.6</ele><time>2026-03-22T13:10:35.937Z</time></trkpt><trkpt lat="46.00035065291117" lon="12.097973316021607"><ele>1110.2</ele><time>2026-03-22T13:10:37.937Z</time></trkpt><trkpt lat="46.00047087912534" lon="12.097936479460895"><ele>1102.8</ele><time>2026-03-22T13:10:39.937Z</time></trkpt><trkpt lat="46.000546014594" lon="12.097926277622676"><ele>1095.4</ele><time>2026-03-22T13:10:40.937Z</time></trkpt><trkpt lat="46.0006208923157" lon="12.097935384343744"><ele>1088.0</ele><time>2026-03-22T13:10:41.937Z</time></trkpt><trkpt lat="46.00069967148769" lon="12.097941453029222"><ele>1088.0</ele><time>2026-03-22T13:10:42.937Z</time></trkpt><trkpt lat="46.000777395592834" lon="12.097941841057755"><ele>1088.0</ele><time>2026-03-22T13:10:43.937Z</time></trkpt><trkpt lat="46.00085024662493" lon="12.097955026641403"><ele>1088.0</ele><time>2026-03-22T13:10:44.937Z</time></trkpt><trkpt lat="46.00092533543242" lon="12.097978766194633"><ele>1088.0</ele><time>2026-03-22T13:10:45.937Z</time></trkpt><trkpt lat="46.00100220266964" lon="12.09798830830134"><ele>1088.0</ele><time>2026-03-22T13:10:46.937Z</time></trkpt><trkpt lat="46.00107790658719" lon="12.097990617786731"><ele>1088.0</ele><time>2026-03-22T13:10:47.937Z</time></trkpt><trkpt lat="46.001155230732095" lon="12.097989965495527"><ele>1087.142857142857</ele><time>2026-03-22T13:10:48.937Z</time></trkpt><trkpt lat="46.00122740292357" lon="12.097977636320193"><ele>1086.2857142857142</ele><time>2026-03-22T13:10:49.937Z</time></trkpt><trkpt lat="46.001301808475645" lon="12.097979675963659"><ele>1085.4285714285716</ele><time>2026-03-22T13:10:50.937Z</time></trkpt><trkpt lat="46.001378093986176" lon="12.097963413336439"><ele>1084.5714285714284</ele><time>2026-03-22T13:10:51.937Z</time></trkpt><trkpt lat="46.00144043231416" lon="12.09794323309302"><ele>1083.7142857142858</ele><time>2026-03-22T13:10:52.937Z</time></trkpt><trkpt lat="46.001510220864816" lon="12.09795336593639"><ele>1082.857142857143</ele><time>2026-03-22T13:10:53.936Z</time></trkpt><trkpt lat="46.00157266762891" lon="12.097941183393676"><ele>1082.0</ele><time>2026-03-22T13:10:54.936Z</time></trkpt><trkpt lat="46.00164269814578" lon="12.097925539233222"><ele>1081.6666666666667</ele><time>2026-03-22T13:10:55.936Z</time></trkpt><trkpt lat="46.00170555111983" lon="12.097907140069921"><ele>1081.3333333333335</ele><time>2026-03-22T13:10:56.936Z</time></trkpt><trkpt lat="46.00177670863816" lon="12.097880304900736"><ele>1081.0</ele><time>2026-03-22T13:10:57.936Z</time></trkpt><trkpt lat="46.00184910189079" lon="12.09784421749795"><ele>1080.6666666666667</ele><time>2026-03-22T13:10:58.936Z</time></trkpt><trkpt lat="46.00191554243205" lon="12.097800405777823"><ele>1080.3333333333333</ele><time>2026-03-22T13:10:59.936Z</time></trkpt><trkpt lat="46.00198535253018" lon="12.09773461205135"><ele>1080.0</ele><time>2026-03-22T13:11:00.936Z</time></trkpt><trkpt lat="46.002050691275784" lon="12.097661081922965"><ele>1080.0</ele><time>2026-03-22T13:11:01.936Z</time></trkpt><trkpt lat="46.00210197619334" lon="12.09759781404856"><ele>1080.0</ele><time>2026-03-22T13:11:02.936Z</time></trkpt><trkpt lat="46.00214912231348" lon="12.097525777160074"><ele>1080.0</ele><time>2026-03-22T13:11:03.936Z</time></trkpt><trkpt lat="46.00219068815814" lon="12.09744334684719"><ele>1080.0</ele><time>2026-03-22T13:11:04.936Z</time></trkpt><trkpt lat="46.002225985538004" lon="12.097364884659822"><ele>1080.0</ele><time>2026-03-22T13:11:05.936Z</time></trkpt><trkpt lat="46.00225811480638" lon="12.097285322974798"><ele>1080.0</ele><time>2026-03-22T13:11:06.936Z</time></trkpt><trkpt lat="46.00229015444233" lon="12.097200925606685"><ele>1080.0</ele><time>2026-03-22T13:11:07.936Z</time></trkpt><trkpt lat="46.00232754613724" lon="12.097050628931047"><ele>1077.6666666666667</ele><time>2026-03-22T13:11:09.936Z</time></trkpt><trkpt lat="46.002382440302114" lon="12.096930766991326"><ele>1075.3333333333333</ele><time>2026-03-22T13:11:11.936Z</time></trkpt><trkpt lat="46.002447651583026" lon="12.096784223976288"><ele>1073.0</ele><time>2026-03-22T13:11:13.936Z</time></trkpt><trkpt lat="46.00251124955153" lon="12.096768061220121"><ele>1070.6666666666665</ele><time>2026-03-22T13:11:14.936Z</time></trkpt><trkpt lat="46.002572872587166" lon="12.096793604175014"><ele>1068.3333333333333</ele><time>2026-03-22T13:11:15.936Z</time></trkpt><trkpt lat="46.00265879112092" lon="12.096850358953539"><ele>1066.0</ele><time>2026-03-22T13:11:17.936Z</time></trkpt><trkpt lat="46.00275013931187" lon="12.096814545578626"><ele>1066.0</ele><time>2026-03-22T13:11:19.936Z</time></trkpt><trkpt lat="46.00284086927475" lon="12.096704153929771"><ele>1066.0</ele><time>2026-03-22T13:11:21.936Z</time></trkpt><trkpt lat="46.002911189301" lon="12.096661066346915"><ele>1066.0</ele><time>2026-03-22T13:11:22.936Z</time></trkpt><trkpt lat="46.00297819828295" lon="12.096594353320127"><ele>1066.0</ele><time>2026-03-22T13:11:23.936Z</time></trkpt><trkpt lat="46.00302881048525" lon="12.096519246217388"><ele>1066.0</ele><time>2026-03-22T13:11:24.936Z</time></trkpt><trkpt lat="46.00308756307783" lon="12.096458690749662"><ele>1066.0</ele><time>2026-03-22T13:11:25.936Z</time></trkpt><trkpt lat="46.00315003920111" lon="12.096390593137764"><ele>1062.0</ele><time>2026-03-22T13:11:26.936Z</time></trkpt><trkpt lat="46.003206980558794" lon="12.096337917232445"><ele>1058.0</ele><time>2026-03-22T13:11:27.936Z</time></trkpt><trkpt lat="46.00326388499671" lon="12.096275886214428"><ele>1054.0</ele><time>2026-03-22T13:11:28.936Z</time></trkpt><trkpt lat="46.003325877000684" lon="12.09619509258925"><ele>1050.0</ele><time>2026-03-22T13:11:29.936Z</time></trkpt><trkpt lat="46.003391664257514" lon="12.096112559810498"><ele>1046.0</ele><time>2026-03-22T13:11:30.937Z</time></trkpt><trkpt lat="46.00344706042541" lon="12.096034151134933"><ele>1042.0</ele><time>2026-03-22T13:11:31.937Z</time></trkpt><trkpt lat="46.00350183320735" lon="12.095948245657945"><ele>1042.0</ele><time>2026-03-22T13:11:32.937Z</time></trkpt><trkpt lat="46.00355834266848" lon="12.095852560714812"><ele>1042.0</ele><time>2026-03-22T13:11:33.937Z</time></trkpt><trkpt lat="46.003627322474465" lon="12.095759500750194"><ele>1042.0</ele><time>2026-03-22T13:11:34.937Z</time></trkpt><trkpt lat="46.0036991931945" lon="12.09566928595351"><ele>1042.0</ele><time>2026-03-22T13:11:35.937Z</time></trkpt><trkpt lat="46.003759347670645" lon="12.095574874245244"><ele>1042.0</ele><time>2026-03-22T13:11:36.937Z</time></trkpt><trkpt lat="46.00381300693561" lon="12.095487818374488"><ele>1042.0</ele><time>2026-03-22T13:11:37.937Z</time></trkpt><trkpt lat="46.0038558769795" lon="12.095393685583614"><ele>1039.1666666666665</ele><time>2026-03-22T13:11:38.937Z</time></trkpt><trkpt lat="46.003893062201705" lon="12.095294848127702"><ele>1036.3333333333333</ele><time>2026-03-22T13:11:39.937Z</time></trkpt><trkpt lat="46.00392042391246" lon="12.095205754941444"><ele>1033.5</ele><time>2026-03-22T13:11:40.937Z</time></trkpt><trkpt lat="46.00395150008806" lon="12.095117323373383"><ele>1030.6666666666667</ele><time>2026-03-22T13:11:41.937Z</time></trkpt><trkpt lat="46.00399434435956" lon="12.094999449667457"><ele>1027.8333333333335</ele><time>2026-03-22T13:11:43.937Z</time></trkpt><trkpt lat="46.0040634904428" lon="12.094958903258563"><ele>1025.0</ele><time>2026-03-22T13:11:45.937Z</time></trkpt><trkpt lat="46.00416662154051" lon="12.094979074216274"><ele>1025.0</ele><time>2026-03-22T13:11:47.936Z</time></trkpt><trkpt lat="46.004233270325145" lon="12.094985320901525"><ele>1025.0</ele><time>2026-03-22T13:11:48.936Z</time></trkpt><trkpt lat="46.00434562032467" lon="12.094967589945284"><ele>1025.0</ele><time>2026-03-22T13:11:50.936Z</time></trkpt><trkpt lat="46.004412070897075" lon="12.094939672489042"><ele>1025.0</ele><time>2026-03-22T13:11:51.936Z</time></trkpt><trkpt lat="46.00448020292122" lon="12.094908467788047"><ele>1025.0</ele><time>2026-03-22T13:11:52.936Z</time></trkpt><trkpt lat="46.00456565290318" lon="12.094870518097078"><ele>1025.0</ele><time>2026-03-22T13:11:53.936Z</time></trkpt><trkpt lat="46.00463804570664" lon="12.094844766053392"><ele>1020.4285714285713</ele><time>2026-03-22T13:11:54.936Z</time></trkpt><trkpt lat="46.004708720762686" lon="12.094842770182948"><ele>1015.8571428571429</ele><time>2026-03-22T13:11:55.936Z</time></trkpt><trkpt lat="46.00478390406785" lon="12.094849279285198"><ele>1011.2857142857142</ele><time>2026-03-22T13:11:56.936Z</time></trkpt><trkpt lat="46.0048585808389" lon="12.09484892942511"><ele>1006.7142857142857</ele><time>2026-03-22T13:11:57.936Z</time></trkpt><trkpt lat="46.00493664644353" lon="12.094840294229419"><ele>1002.1428571428571</ele><time>2026-03-22T13:11:58.936Z</time></trkpt><trkpt lat="46.00500209127557" lon="12.09481206496535"><ele>997.5714285714286</ele><time>2026-03-22T13:11:59.936Z</time></trkpt><trkpt lat="46.00506753673181" lon="12.094776593683557"><ele>993.0</ele><time>2026-03-22T13:12:00.936Z</time></trkpt><trkpt lat="46.00514415534405" lon="12.09476120675349"><ele>992.5</ele><time>2026-03-22T13:12:01.936Z</time></trkpt><trkpt lat="46.00521734039241" lon="12.094708330712882"><ele>992.0</ele><time>2026-03-22T13:12:02.936Z</time></trkpt><trkpt lat="46.005297000780814" lon="12.094705886826494"><ele>991.5</ele><time>2026-03-22T13:12:03.936Z</time></trkpt><trkpt lat="46.00537160895785" lon="12.094669314742655"><ele>991.0</ele><time>2026-03-22T13:12:04.936Z</time></trkpt><trkpt lat="46.00545423815658" lon="12.094669600766501"><ele>990.5</ele><time>2026-03-22T13:12:05.936Z</time></trkpt><trkpt lat="46.005541426398885" lon="12.09466825020325"><ele>990.0</ele><time>2026-03-22T13:12:06.936Z</time></trkpt><trkpt lat="46.00562715938839" lon="12.094663992779257"><ele>990.0</ele><time>2026-03-22T13:12:07.936Z</time></trkpt><trkpt lat="46.00572226221232" lon="12.09463561043366"><ele>990.0</ele><time>2026-03-22T13:12:08.936Z</time></trkpt><trkpt lat="46.00580469610168" lon="12.094631672607242"><ele>990.0</ele><time>2026-03-22T13:12:09.936Z</time></trkpt><trkpt lat="46.005876530373705" lon="12.094588202888367"><ele>990.0</ele><time>2026-03-22T13:12:10.936Z</time></trkpt><trkpt lat="46.00593995235209" lon="12.09452108632882"><ele>990.0</ele><time>2026-03-22T13:12:11.936Z</time></trkpt><trkpt lat="46.00598678906526" lon="12.094452286084003"><ele>990.0</ele><time>2026-03-22T13:12:12.936Z</time></trkpt><trkpt lat="46.006033501261015" lon="12.094378465598592"><ele>990.6666666666666</ele><time>2026-03-22T13:12:13.936Z</time></trkpt><trkpt lat="46.00607930508326" lon="12.09430037659304"><ele>991.3333333333333</ele><time>2026-03-22T13:12:14.936Z</time></trkpt><trkpt lat="46.00610882649867" lon="12.094216360560546"><ele>992.0</ele><time>2026-03-22T13:12:15.936Z</time></trkpt><trkpt lat="46.006158415959604" lon="12.094131646410633"><ele>992.6666666666666</ele><time>2026-03-22T13:12:17.936Z</time></trkpt><trkpt lat="46.006221850818825" lon="12.094050219737092"><ele>993.3333333333333</ele><time>2026-03-22T13:12:19.936Z</time></trkpt><trkpt lat="46.006286173370775" lon="12.093921809727414"><ele>994.0</ele><time>2026-03-22T13:12:21.936Z</time></trkpt><trkpt lat="46.006348360607404" lon="12.09380385510817"><ele>989.0</ele><time>2026-03-22T13:12:23.936Z</time></trkpt><trkpt lat="46.00643867702203" lon="12.093745311116786"><ele>984.0000000000001</ele><time>2026-03-22T13:12:25.936Z</time></trkpt><trkpt lat="46.006554345143364" lon="12.093759512074836"><ele>979.0000000000001</ele><time>2026-03-22T13:12:27.936Z</time></trkpt><trkpt lat="46.006657350285096" lon="12.093815541168032"><ele>974.0</ele><time>2026-03-22T13:12:29.936Z</time></trkpt><trkpt lat="46.006728399709175" lon="12.093865543328528"><ele>969.0</ele><time>2026-03-22T13:12:31.935Z</time></trkpt><trkpt lat="46.006797021533345" lon="12.093897907433892"><ele>969.0</ele><time>2026-03-22T13:12:33.935Z</time></trkpt><trkpt lat="46.00688145186938" lon="12.093973179651007"><ele>969.0</ele><time>2026-03-22T13:12:35.935Z</time></trkpt><trkpt lat="46.00693427636567" lon="12.09402529841922"><ele>969.0</ele><time>2026-03-22T13:12:36.935Z</time></trkpt><trkpt lat="46.007000770760726" lon="12.094087833435113"><ele>969.0</ele><time>2026-03-22T13:12:37.935Z</time></trkpt><trkpt lat="46.007074441167106" lon="12.094141022980624"><ele>969.0</ele><time>2026-03-22T13:12:38.935Z</time></trkpt><trkpt lat="46.00715568527062" lon="12.094191286948496"><ele>969.0</ele><time>2026-03-22T13:12:39.935Z</time></trkpt><trkpt lat="46.007242623489304" lon="12.094243707442695"><ele>966.8000000000001</ele><time>2026-03-22T13:12:40.935Z</time></trkpt><trkpt lat="46.00733732556963" lon="12.094295406189131"><ele>964.6000000000001</ele><time>2026-03-22T13:12:41.935Z</time></trkpt><trkpt lat="46.00743130264057" lon="12.09435835359755"><ele>962.4</ele><time>2026-03-22T13:12:42.935Z</time></trkpt><trkpt lat="46.00751461872166" lon="12.094452456276564"><ele>960.2</ele><time>2026-03-22T13:12:43.935Z</time></trkpt><trkpt lat="46.007594351741105" lon="12.094527158524713"><ele>958.0</ele><time>2026-03-22T13:12:44.935Z</time></trkpt><trkpt lat="46.00766334303363" lon="12.094601259248163"><ele>958.0</ele><time>2026-03-22T13:12:45.935Z</time></trkpt><trkpt lat="46.00771832045488" lon="12.094667849744974"><ele>958.0</ele><time>2026-03-22T13:12:46.935Z</time></trkpt><trkpt lat="46.00778136281733" lon="12.094751193420537"><ele>958.0</ele><time>2026-03-22T13:12:47.935Z</time></trkpt><trkpt lat="46.00784147799593" lon="12.094834686640775"><ele>958.0</ele><time>2026-03-22T13:12:48.935Z</time></trkpt><trkpt lat="46.007892111180865" lon="12.094905413046586"><ele>958.0</ele><time>2026-03-22T13:12:49.935Z</time></trkpt><trkpt lat="46.00793670822974" lon="12.09496975321758"><ele>958.0</ele><time>2026-03-22T13:12:50.935Z</time></trkpt><trkpt lat="46.0079819643643" lon="12.0950422646613"><ele>958.0</ele><time>2026-03-22T13:12:51.935Z</time></trkpt><trkpt lat="46.008024424187475" lon="12.095123701974465"><ele>960.6666666666666</ele><time>2026-03-22T13:12:52.935Z</time></trkpt><trkpt lat="46.008063575559504" lon="12.095221021334002"><ele>963.3333333333333</ele><time>2026-03-22T13:12:53.935Z</time></trkpt><trkpt lat="46.008099392826644" lon="12.095328225092594"><ele>966.0</ele><time>2026-03-22T13:12:54.935Z</time></trkpt><trkpt lat="46.00813549289015" lon="12.095438714304974"><ele>968.6666666666667</ele><time>2026-03-22T13:12:55.935Z</time></trkpt><trkpt lat="46.00817932744308" lon="12.095547690172754"><ele>971.3333333333334</ele><time>2026-03-22T13:12:56.935Z</time></trkpt><trkpt lat="46.008219073268904" lon="12.095667211410344"><ele>974.0</ele><time>2026-03-22T13:12:57.935Z</time></trkpt><trkpt lat="46.00825599389962" lon="12.095796261539185"><ele>975.5000000000001</ele><time>2026-03-22T13:12:58.935Z</time></trkpt><trkpt lat="46.00828448783584" lon="12.095911002974036"><ele>977.0</ele><time>2026-03-22T13:12:59.935Z</time></trkpt><trkpt lat="46.00830561160039" lon="12.096021427226157"><ele>978.5</ele><time>2026-03-22T13:13:00.935Z</time></trkpt><trkpt lat="46.00831886633003" lon="12.096139365982967"><ele>980.0</ele><time>2026-03-22T13:13:01.935Z</time></trkpt><trkpt lat="46.00833403818522" lon="12.096257886901762"><ele>981.5000000000001</ele><time>2026-03-22T13:13:02.935Z</time></trkpt><trkpt lat="46.00835493259142" lon="12.09637911069444"><ele>983.0</ele><time>2026-03-22T13:13:03.935Z</time></trkpt><trkpt lat="46.00837822376252" lon="12.09647475345901"><ele>977.1666666666667</ele><time>2026-03-22T13:13:04.935Z</time></trkpt><trkpt lat="46.008404885718086" lon="12.09657612609017"><ele>971.3333333333334</ele><time>2026-03-22T13:13:05.935Z</time></trkpt><trkpt lat="46.008434006144235" lon="12.096675582164677"><ele>965.5</ele><time>2026-03-22T13:13:06.935Z</time></trkpt><trkpt lat="46.00845678406272" lon="12.096788740613418"><ele>959.6666666666667</ele><time>2026-03-22T13:13:07.935Z</time></trkpt><trkpt lat="46.00847230605852" lon="12.096909758801004"><ele>953.8333333333334</ele><time>2026-03-22T13:13:08.935Z</time></trkpt><trkpt lat="46.0084845120584" lon="12.097025175565992"><ele>948.0</ele><time>2026-03-22T13:13:09.935Z</time></trkpt><trkpt lat="46.008502390601976" lon="12.097139256046287"><ele>948.0</ele><time>2026-03-22T13:13:10.935Z</time></trkpt><trkpt lat="46.00851024658919" lon="12.097243061342578"><ele>948.0</ele><time>2026-03-22T13:13:11.935Z</time></trkpt><trkpt lat="46.00851411767206" lon="12.09733850950299"><ele>948.0</ele><time>2026-03-22T13:13:12.935Z</time></trkpt><trkpt lat="46.00852365210775" lon="12.097499363162086"><ele>948.0</ele><time>2026-03-22T13:13:14.935Z</time></trkpt><trkpt lat="46.00851216836684" lon="12.097598272735187"><ele>948.0</ele><time>2026-03-22T13:13:15.935Z</time></trkpt><trkpt lat="46.00849031440595" lon="12.097685312467659"><ele>948.0</ele><time>2026-03-22T13:13:16.935Z</time></trkpt><trkpt lat="46.0084449161863" lon="12.097755289630914"><ele>946.4</ele><time>2026-03-22T13:13:17.934Z</time></trkpt><trkpt lat="46.008380655851475" lon="12.097885107278483"><ele>944.8</ele><time>2026-03-22T13:13:19.934Z</time></trkpt><trkpt lat="46.008311894792776" lon="12.097977893140511"><ele>943.2</ele><time>2026-03-22T13:13:21.934Z</time></trkpt><trkpt lat="46.00822234137969" lon="12.098051085986919"><ele>941.6</ele><time>2026-03-22T13:13:23.934Z</time></trkpt><trkpt lat="46.008161859545126" lon="12.098085421310316"><ele>940.0</ele><time>2026-03-22T13:13:24.934Z</time></trkpt><trkpt lat="46.00804202352441" lon="12.098154416289754"><ele>941.9999999999999</ele><time>2026-03-22T13:13:26.934Z</time></trkpt><trkpt lat="46.00798319722855" lon="12.098201647552829"><ele>944.0</ele><time>2026-03-22T13:13:27.934Z</time></trkpt><trkpt lat="46.00791217192705" lon="12.098271755622388"><ele>946.0</ele><time>2026-03-22T13:13:28.934Z</time></trkpt><trkpt lat="46.00784404919667" lon="12.098349080651703"><ele>948.0</ele><time>2026-03-22T13:13:29.934Z</time></trkpt><trkpt lat="46.007777959210024" lon="12.098448009003329"><ele>949.9999999999999</ele><time>2026-03-22T13:13:30.934Z</time></trkpt><trkpt lat="46.007729724089124" lon="12.098548613025152"><ele>952.0</ele><time>2026-03-22T13:13:31.934Z</time></trkpt><trkpt lat="46.00769272563412" lon="12.098673665600824"><ele>952.0</ele><time>2026-03-22T13:13:32.934Z</time></trkpt><trkpt lat="46.00766827727629" lon="12.098806110944288"><ele>952.0</ele><time>2026-03-22T13:13:33.934Z</time></trkpt><trkpt lat="46.00765838302668" lon="12.098943543845316"><ele>952.0</ele><time>2026-03-22T13:13:34.934Z</time></trkpt><trkpt lat="46.00767468020239" lon="12.099088834995896"><ele>952.0</ele><time>2026-03-22T13:13:35.937Z</time></trkpt><trkpt lat="46.007695542681105" lon="12.099200216340606"><ele>952.0</ele><time>2026-03-22T13:13:36.937Z</time></trkpt><trkpt lat="46.007716132141915" lon="12.09931165595005"><ele>948.6</ele><time>2026-03-22T13:13:37.937Z</time></trkpt><trkpt lat="46.00774023859117" lon="12.09939573778562"><ele>945.2</ele><time>2026-03-22T13:13:38.936Z</time></trkpt><trkpt lat="46.007762496080936" lon="12.099537687466006"><ele>941.8</ele><time>2026-03-22T13:13:40.936Z</time></trkpt><trkpt lat="46.00773438589654" lon="12.099719410643818"><ele>938.4</ele><time>2026-03-22T13:13:42.936Z</time></trkpt><trkpt lat="46.007709891729235" lon="12.099830374273122"><ele>935.0</ele><time>2026-03-22T13:13:43.936Z</time></trkpt><trkpt lat="46.007688444663884" lon="12.099935732899215"><ele>934.1666666666667</ele><time>2026-03-22T13:13:44.936Z</time></trkpt><trkpt lat="46.00766890583539" lon="12.1000293891075"><ele>933.3333333333334</ele><time>2026-03-22T13:13:45.936Z</time></trkpt><trkpt lat="46.00765657594426" lon="12.100128360430515"><ele>932.5</ele><time>2026-03-22T13:13:46.936Z</time></trkpt><trkpt lat="46.00762316828892" lon="12.100217905938788"><ele>931.6666666666667</ele><time>2026-03-22T13:13:47.936Z</time></trkpt><trkpt lat="46.00762397228598" lon="12.100415056659225"><ele>930.8333333333334</ele><time>2026-03-22T13:13:49.936Z</time></trkpt><trkpt lat="46.00767307058897" lon="12.100488306640964"><ele>930.0</ele><time>2026-03-22T13:13:50.936Z</time></trkpt><trkpt lat="46.007711825787766" lon="12.100586791974019"><ele>930.0</ele><time>2026-03-22T13:13:51.936Z</time></trkpt><trkpt lat="46.00775154796861" lon="12.100670811484175"><ele>930.0</ele><time>2026-03-22T13:13:52.936Z</time></trkpt><trkpt lat="46.00780757140293" lon="12.10082090169511"><ele>930.0</ele><time>2026-03-22T13:13:54.935Z</time></trkpt><trkpt lat="46.00780024937013" lon="12.100981326014105"><ele>930.0</ele><time>2026-03-22T13:13:56.935Z</time></trkpt><trkpt lat="46.00775323774086" lon="12.101126576413101"><ele>930.0</ele><time>2026-03-22T13:13:58.935Z</time></trkpt><trkpt lat="46.00770856541748" lon="12.10124409231364"><ele>929.5</ele><time>2026-03-22T13:14:00.935Z</time></trkpt><trkpt lat="46.007671754075844" lon="12.101327758682421"><ele>929.0</ele><time>2026-03-22T13:14:04.935Z</time></trkpt><trkpt lat="46.007622554021765" lon="12.101431440871012"><ele>928.5</ele><time>2026-03-22T13:14:54.934Z</time></trkpt><trkpt lat="46.0075677768562" lon="12.101498803427107"><ele>928.0</ele><time>2026-03-22T13:14:56.934Z</time></trkpt><trkpt lat="46.00751288127972" lon="12.101560830934227"><ele>927.5</ele><time>2026-03-22T13:14:58.934Z</time></trkpt><trkpt lat="46.00743693651604" lon="12.101648860396084"><ele>927.0</ele><time>2026-03-22T13:15:00.934Z</time></trkpt><trkpt lat="46.007352460111164" lon="12.101761004695142"><ele>931.3333333333334</ele><time>2026-03-22T13:15:02.934Z</time></trkpt><trkpt lat="46.007306794541705" lon="12.101827862752693"><ele>935.6666666666667</ele><time>2026-03-22T13:15:03.934Z</time></trkpt><trkpt lat="46.007234184451676" lon="12.101959168080157"><ele>940.0</ele><time>2026-03-22T13:15:05.934Z</time></trkpt><trkpt lat="46.007180880509196" lon="12.102115260430372"><ele>944.3333333333334</ele><time>2026-03-22T13:15:07.934Z</time></trkpt><trkpt lat="46.007160697203005" lon="12.102209817570046"><ele>948.6666666666667</ele><time>2026-03-22T13:15:08.934Z</time></trkpt><trkpt lat="46.00714534847879" lon="12.102304636219426"><ele>953.0</ele><time>2026-03-22T13:15:09.934Z</time></trkpt><trkpt lat="46.00713200033217" lon="12.102400055135572"><ele>951.5000000000001</ele><time>2026-03-22T13:15:10.934Z</time></trkpt><trkpt lat="46.00712261561014" lon="12.102509602654806"><ele>950.0</ele><time>2026-03-22T13:15:11.934Z</time></trkpt><trkpt lat="46.00711753404736" lon="12.102616280601193"><ele>948.5</ele><time>2026-03-22T13:15:12.934Z</time></trkpt><trkpt lat="46.007109024461165" lon="12.102706550428419"><ele>947.0</ele><time>2026-03-22T13:15:13.934Z</time></trkpt><trkpt lat="46.00710303506597" lon="12.102862437729952"><ele>945.5000000000001</ele><time>2026-03-22T13:15:15.934Z</time></trkpt><trkpt lat="46.00710804008319" lon="12.10299826111857"><ele>944.0</ele><time>2026-03-22T13:15:17.934Z</time></trkpt><trkpt lat="46.00707132582193" lon="12.103133935311975"><ele>941.5000000000001</ele><time>2026-03-22T13:15:19.934Z</time></trkpt><trkpt lat="46.0070336494243" lon="12.103290305785716"><ele>939.0</ele><time>2026-03-22T13:15:21.934Z</time></trkpt><trkpt lat="46.00702335648036" lon="12.103383414533562"><ele>936.5</ele><time>2026-03-22T13:15:22.934Z</time></trkpt><trkpt lat="46.00698682658085" lon="12.103474188660837"><ele>934.0</ele><time>2026-03-22T13:15:23.934Z</time></trkpt><trkpt lat="46.00694416274112" lon="12.103575585707292"><ele>931.5000000000001</ele><time>2026-03-22T13:15:24.933Z</time></trkpt><trkpt lat="46.00688484539139" lon="12.103669346297083"><ele>929.0</ele><time>2026-03-22T13:15:25.933Z</time></trkpt><trkpt lat="46.00683422484035" lon="12.10377200444482"><ele>929.0000000000001</ele><time>2026-03-22T13:15:26.933Z</time></trkpt><trkpt lat="46.00677268416796" lon="12.103865750773185"><ele>929.0</ele><time>2026-03-22T13:15:27.933Z</time></trkpt><trkpt lat="46.006711708935036" lon="12.103969265354753"><ele>929.0</ele><time>2026-03-22T13:15:28.933Z</time></trkpt><trkpt lat="46.00665655796739" lon="12.104074411660582"><ele>929.0</ele><time>2026-03-22T13:15:29.933Z</time></trkpt><trkpt lat="46.00661936776517" lon="12.104181061869507"><ele>929.0000000000001</ele><time>2026-03-22T13:15:30.933Z</time></trkpt><trkpt lat="46.00657620332081" lon="12.104282647382664"><ele>929.0</ele><time>2026-03-22T13:15:31.933Z</time></trkpt><trkpt lat="46.006513131190296" lon="12.10438153629516"><ele>931.5000000000001</ele><time>2026-03-22T13:15:32.933Z</time></trkpt><trkpt lat="46.00647310598116" lon="12.104477156796905"><ele>934.0</ele><time>2026-03-22T13:15:33.933Z</time></trkpt><trkpt lat="46.00642658619478" lon="12.104560900578672"><ele>936.5</ele><time>2026-03-22T13:15:34.933Z</time></trkpt><trkpt lat="46.00637587311319" lon="12.10464338905124"><ele>939.0</ele><time>2026-03-22T13:15:35.933Z</time></trkpt><trkpt lat="46.00631804225265" lon="12.104713493292152"><ele>941.5000000000001</ele><time>2026-03-22T13:15:36.933Z</time></trkpt><trkpt lat="46.00626280868144" lon="12.104781975316211"><ele>944.0</ele><time>2026-03-22T13:15:37.933Z</time></trkpt><trkpt lat="46.00619717577063" lon="12.104844215571443"><ele>944.0</ele><time>2026-03-22T13:15:38.933Z</time></trkpt><trkpt lat="46.006112687949305" lon="12.104903776167266"><ele>944.0000000000001</ele><time>2026-03-22T13:15:39.933Z</time></trkpt><trkpt lat="46.00602160549397" lon="12.104963010595384"><ele>944.0000000000001</ele><time>2026-03-22T13:15:40.933Z</time></trkpt><trkpt lat="46.00593322386999" lon="12.10501607850716"><ele>944.0</ele><time>2026-03-22T13:15:41.934Z</time></trkpt><trkpt lat="46.005854989098424" lon="12.105061135236907"><ele>944.0</ele><time>2026-03-22T13:15:42.935Z</time></trkpt><trkpt lat="46.00577380736274" lon="12.105114571752825"><ele>944.5000000000001</ele><time>2026-03-22T13:15:43.935Z</time></trkpt><trkpt lat="46.005688545658806" lon="12.105173532077966"><ele>945.0</ele><time>2026-03-22T13:15:44.934Z</time></trkpt><trkpt lat="46.00560535203313" lon="12.105197154820887"><ele>945.5</ele><time>2026-03-22T13:15:45.935Z</time></trkpt><trkpt lat="46.00552812144508" lon="12.105232501310784"><ele>946.0</ele><time>2026-03-22T13:15:46.935Z</time></trkpt><trkpt lat="46.00545384474102" lon="12.105263698196973"><ele>946.5000000000001</ele><time>2026-03-22T13:15:47.935Z</time></trkpt><trkpt lat="46.00538143762302" lon="12.105294907754852"><ele>947.0</ele><time>2026-03-22T13:15:48.934Z</time></trkpt><trkpt lat="46.00528697954628" lon="12.105368933933894"><ele>947.0</ele><time>2026-03-22T13:15:50.934Z</time></trkpt><trkpt lat="46.00524788819391" lon="12.105449294961824"><ele>947.0</ele><time>2026-03-22T13:15:51.935Z</time></trkpt><trkpt lat="46.00513674466708" lon="12.105575056323636"><ele>947.0</ele><time>2026-03-22T13:15:53.935Z</time></trkpt><trkpt lat="46.00507582079023" lon="12.10566112917404"><ele>947.0</ele><time>2026-03-22T13:15:54.934Z</time></trkpt><trkpt lat="46.0050135873859" lon="12.10577160345761"><ele>947.0</ele><time>2026-03-22T13:15:55.934Z</time></trkpt><trkpt lat="46.004931182075474" lon="12.105847786592348"><ele>945.3333333333334</ele><time>2026-03-22T13:15:56.934Z</time></trkpt><trkpt lat="46.004865416033084" lon="12.105938460656752"><ele>943.6666666666667</ele><time>2026-03-22T13:15:57.934Z</time></trkpt><trkpt lat="46.00480389409522" lon="12.106031876869405"><ele>942.0</ele><time>2026-03-22T13:15:58.934Z</time></trkpt><trkpt lat="46.0047521390494" lon="12.106111975253597"><ele>940.3333333333333</ele><time>2026-03-22T13:15:59.934Z</time></trkpt><trkpt lat="46.00471667839295" lon="12.106195497415388"><ele>938.6666666666666</ele><time>2026-03-22T13:16:00.934Z</time></trkpt><trkpt lat="46.004616441145785" lon="12.106273713243887"><ele>937.0</ele><time>2026-03-22T13:16:02.934Z</time></trkpt><trkpt lat="46.004483309868405" lon="12.106296191245347"><ele>936.9999999999999</ele><time>2026-03-22T13:16:04.934Z</time></trkpt><trkpt lat="46.00440902050969" lon="12.10629738091924"><ele>937.0</ele><time>2026-03-22T13:16:05.934Z</time></trkpt><trkpt lat="46.00432977088163" lon="12.106295997696567"><ele>937.0</ele><time>2026-03-22T13:16:06.934Z</time></trkpt><trkpt lat="46.00425210878235" lon="12.10630408840778"><ele>937.0</ele><time>2026-03-22T13:16:07.934Z</time></trkpt><trkpt lat="46.00418022890203" lon="12.1063205516487"><ele>936.9999999999999</ele><time>2026-03-22T13:16:08.933Z</time></trkpt><trkpt lat="46.004111142663234" lon="12.106321825175327"><ele>937.0</ele><time>2026-03-22T13:16:09.933Z</time></trkpt><trkpt lat="46.00403909033014" lon="12.106371531373625"><ele>935.3333333333333</ele><time>2026-03-22T13:16:10.933Z</time></trkpt><trkpt lat="46.00398558632627" lon="12.106427972969977"><ele>933.6666666666666</ele><time>2026-03-22T13:16:11.933Z</time></trkpt><trkpt lat="46.00393244432849" lon="12.106495695862074"><ele>932.0</ele><time>2026-03-22T13:16:12.933Z</time></trkpt><trkpt lat="46.003883480658686" lon="12.106576999237307"><ele>930.3333333333333</ele><time>2026-03-22T13:16:13.933Z</time></trkpt><trkpt lat="46.00382920098092" lon="12.106658585898908"><ele>928.6666666666666</ele><time>2026-03-22T13:16:14.933Z</time></trkpt><trkpt lat="46.00375800082116" lon="12.106723803621414"><ele>927.0</ele><time>2026-03-22T13:16:15.933Z</time></trkpt><trkpt lat="46.0036738391653" lon="12.10678413887545"><ele>927.0</ele><time>2026-03-22T13:16:16.933Z</time></trkpt><trkpt lat="46.00358981753205" lon="12.10683323131093"><ele>927.0</ele><time>2026-03-22T13:16:17.933Z</time></trkpt><trkpt lat="46.003500471561075" lon="12.10687418803609"><ele>927.0</ele><time>2026-03-22T13:16:18.933Z</time></trkpt><trkpt lat="46.003404800321945" lon="12.106907553381905"><ele>927.0</ele><time>2026-03-22T13:16:19.933Z</time></trkpt><trkpt lat="46.003310963786056" lon="12.106944582890687"><ele>927.0</ele><time>2026-03-22T13:16:20.933Z</time></trkpt><trkpt lat="46.003212664385295" lon="12.106987145767176"><ele>927.3333333333334</ele><time>2026-03-22T13:16:21.933Z</time></trkpt><trkpt lat="46.00312305666872" lon="12.10705993422864"><ele>927.6666666666667</ele><time>2026-03-22T13:16:22.933Z</time></trkpt><trkpt lat="46.003059788436595" lon="12.107182233769853"><ele>928.0</ele><time>2026-03-22T13:16:23.933Z</time></trkpt><trkpt lat="46.00301736296659" lon="12.107275076661894"><ele>928.3333333333334</ele><time>2026-03-22T13:16:24.933Z</time></trkpt><trkpt lat="46.00297289869169" lon="12.107374492759627"><ele>928.6666666666667</ele><time>2026-03-22T13:16:25.933Z</time></trkpt><trkpt lat="46.00293920151382" lon="12.107477829360667"><ele>929.0</ele><time>2026-03-22T13:16:26.933Z</time></trkpt><trkpt lat="46.002923928135175" lon="12.107579434942595"><ele>929.0000000000001</ele><time>2026-03-22T13:16:27.933Z</time></trkpt><trkpt lat="46.00293463896127" lon="12.10770301986375"><ele>929.0</ele><time>2026-03-22T13:16:28.933Z</time></trkpt><trkpt lat="46.0029584785539" lon="12.107812586520005"><ele>929.0</ele><time>2026-03-22T13:16:29.933Z</time></trkpt><trkpt lat="46.00298929364071" lon="12.107994171540406"><ele>929.0</ele><time>2026-03-22T13:16:31.933Z</time></trkpt><trkpt lat="46.00300557629652" lon="12.108092587336687"><ele>929.0000000000001</ele><time>2026-03-22T13:16:32.933Z</time></trkpt><trkpt lat="46.00302202081758" lon="12.108191981155732"><ele>929.0</ele><time>2026-03-22T13:16:33.933Z</time></trkpt><trkpt lat="46.0030318436822" lon="12.108338207179735"><ele>928.6</ele><time>2026-03-22T13:16:35.933Z</time></trkpt><trkpt lat="46.00303007468529" lon="12.108454983409533"><ele>928.2</ele><time>2026-03-22T13:16:38.933Z</time></trkpt><trkpt lat="46.00297429408571" lon="12.108593702069577"><ele>927.8000000000001</ele><time>2026-03-22T13:16:41.933Z</time></trkpt><trkpt lat="46.002916168297105" lon="12.108756774595246"><ele>927.4000000000001</ele><time>2026-03-22T13:16:43.933Z</time></trkpt><trkpt lat="46.00286348303254" lon="12.108910514133202"><ele>927.0</ele><time>2026-03-22T13:16:45.933Z</time></trkpt><trkpt lat="46.002818683905176" lon="12.10903724697885"><ele>926.8</ele><time>2026-03-22T13:16:47.933Z</time></trkpt><trkpt lat="46.00275092518826" lon="12.109180126634953"><ele>926.6</ele><time>2026-03-22T13:16:49.933Z</time></trkpt><trkpt lat="46.00270131813959" lon="12.109265478072494"><ele>926.3999999999999</ele><time>2026-03-22T13:16:50.933Z</time></trkpt><trkpt lat="46.002640844660874" lon="12.109361289578121"><ele>926.1999999999999</ele><time>2026-03-22T13:16:51.933Z</time></trkpt><trkpt lat="46.00257531459997" lon="12.109465112495457"><ele>926.0</ele><time>2026-03-22T13:16:52.933Z</time></trkpt><trkpt lat="46.002509974555366" lon="12.109579076513928"><ele>927.8</ele><time>2026-03-22T13:16:53.932Z</time></trkpt><trkpt lat="46.002448906541" lon="12.109693347973991"><ele>929.5999999999999</ele><time>2026-03-22T13:16:54.932Z</time></trkpt><trkpt lat="46.002376846093654" lon="12.109808879060028"><ele>931.4</ele><time>2026-03-22T13:16:55.932Z</time></trkpt><trkpt lat="46.00230514778867" lon="12.10993298586426"><ele>933.2</ele><time>2026-03-22T13:16:56.932Z</time></trkpt><trkpt lat="46.00223627101209" lon="12.110062617987236"><ele>935.0</ele><time>2026-03-22T13:16:57.932Z</time></trkpt><trkpt lat="46.00217230615236" lon="12.110199632979075"><ele>935.0</ele><time>2026-03-22T13:16:58.932Z</time></trkpt><trkpt lat="46.00211179131626" lon="12.11034723785532"><ele>935.0</ele><time>2026-03-22T13:16:59.932Z</time></trkpt><trkpt lat="46.00206371823593" lon="12.110498564624248"><ele>935.0</ele><time>2026-03-22T13:17:00.932Z</time></trkpt><trkpt lat="46.00201070343809" lon="12.11066034345995"><ele>935.0</ele><time>2026-03-22T13:17:01.932Z</time></trkpt><trkpt lat="46.001943198169194" lon="12.110809269371833"><ele>934.0</ele><time>2026-03-22T13:17:02.932Z</time></trkpt><trkpt lat="46.001877336604" lon="12.110945052081073"><ele>933.0</ele><time>2026-03-22T13:17:03.932Z</time></trkpt><trkpt lat="46.00181558087264" lon="12.111086323133438"><ele>932.0</ele><time>2026-03-22T13:17:04.932Z</time></trkpt><trkpt lat="46.00173576388418" lon="12.111211762072209"><ele>931.0</ele><time>2026-03-22T13:17:05.932Z</time></trkpt><trkpt lat="46.00164644724418" lon="12.111321997882536"><ele>931.0</ele><time>2026-03-22T13:17:06.932Z</time></trkpt><trkpt lat="46.00156416422999" lon="12.111448091689724"><ele>931.0</ele><time>2026-03-22T13:17:07.932Z</time></trkpt><trkpt lat="46.0014819140055" lon="12.11156165197312"><ele>931.0</ele><time>2026-03-22T13:17:08.932Z</time></trkpt><trkpt lat="46.00139295944507" lon="12.11166206065058"><ele>931.0</ele><time>2026-03-22T13:17:09.932Z</time></trkpt><trkpt lat="46.001300003682964" lon="12.111755424953921"><ele>926.5</ele><time>2026-03-22T13:17:10.932Z</time></trkpt><trkpt lat="46.00119765518468" lon="12.11183479880284"><ele>922.0</ele><time>2026-03-22T13:17:11.932Z</time></trkpt><trkpt lat="46.001086651420195" lon="12.111898042198728"><ele>917.5</ele><time>2026-03-22T13:17:12.932Z</time></trkpt><trkpt lat="46.000977260304616" lon="12.11194030374725"><ele>913.0</ele><time>2026-03-22T13:17:13.932Z</time></trkpt><trkpt lat="46.00086064199234" lon="12.111968169959388"><ele>914.25</ele><time>2026-03-22T13:17:14.932Z</time></trkpt><trkpt lat="46.000744610016504" lon="12.111987018246593"><ele>915.5</ele><time>2026-03-22T13:17:15.932Z</time></trkpt><trkpt lat="46.000623819691846" lon="12.11199150468367"><ele>916.75</ele><time>2026-03-22T13:17:16.932Z</time></trkpt><trkpt lat="46.0004988038065" lon="12.112029275551528"><ele>918.0</ele><time>2026-03-22T13:17:17.932Z</time></trkpt><trkpt lat="46.000385831079676" lon="12.112090768701066"><ele>918.0</ele><time>2026-03-22T13:17:18.932Z</time></trkpt><trkpt lat="46.00027809192387" lon="12.112156836987507"><ele>918.0</ele><time>2026-03-22T13:17:19.932Z</time></trkpt><trkpt lat="46.00017742668632" lon="12.112218567368448"><ele>918.0</ele><time>2026-03-22T13:17:20.932Z</time></trkpt><trkpt lat="46.00009190078208" lon="12.112277543803811"><ele>918.0</ele><time>2026-03-22T13:17:21.932Z</time></trkpt><trkpt lat="46.00001037219824" lon="12.112345498558607"><ele>918.0</ele><time>2026-03-22T13:17:22.932Z</time></trkpt><trkpt lat="45.99993173086892" lon="12.112429351996328"><ele>914.5999999999999</ele><time>2026-03-22T13:17:23.932Z</time></trkpt><trkpt lat="45.99985584034489" lon="12.112528367341687"><ele>911.1999999999999</ele><time>2026-03-22T13:17:24.932Z</time></trkpt><trkpt lat="45.999783894066674" lon="12.11263114974674"><ele>907.8</ele><time>2026-03-22T13:17:25.932Z</time></trkpt><trkpt lat="45.99971368297197" lon="12.112720720676986"><ele>904.4</ele><time>2026-03-22T13:17:26.932Z</time></trkpt><trkpt lat="45.99964422299092" lon="12.112799431184692"><ele>901.0</ele><time>2026-03-22T13:17:27.932Z</time></trkpt><trkpt lat="45.99956763960109" lon="12.112855440271941"><ele>901.0</ele><time>2026-03-22T13:17:28.932Z</time></trkpt><trkpt lat="45.99948554159119" lon="12.112878272024108"><ele>900.9999999999999</ele><time>2026-03-22T13:17:29.932Z</time></trkpt><trkpt lat="45.99937708700723" lon="12.11290691988991"><ele>900.9999999999999</ele><time>2026-03-22T13:17:30.932Z</time></trkpt><trkpt lat="45.99928208026563" lon="12.112967166540301"><ele>901.0</ele><time>2026-03-22T13:17:31.932Z</time></trkpt><trkpt lat="45.999193178132096" lon="12.113052392653616"><ele>901.0</ele><time>2026-03-22T13:17:32.932Z</time></trkpt><trkpt lat="45.99911335495654" lon="12.11316675838376"><ele>899.9999999999999</ele><time>2026-03-22T13:17:33.932Z</time></trkpt><trkpt lat="45.99904979200304" lon="12.113268238344128"><ele>899.0</ele><time>2026-03-22T13:17:34.932Z</time></trkpt><trkpt lat="45.998984330374526" lon="12.113353753552863"><ele>898.0</ele><time>2026-03-22T13:17:35.932Z</time></trkpt><trkpt lat="45.99891570665518" lon="12.113427313311684"><ele>897.0</ele><time>2026-03-22T13:17:36.932Z</time></trkpt><trkpt lat="45.998839009482644" lon="12.113489868717627"><ele>895.9999999999999</ele><time>2026-03-22T13:17:37.932Z</time></trkpt><trkpt lat="45.99875756004425" lon="12.113536061261508"><ele>895.0</ele><time>2026-03-22T13:17:38.932Z</time></trkpt><trkpt lat="45.99867507979442" lon="12.113574084870626"><ele>894.9999999999999</ele><time>2026-03-22T13:17:39.931Z</time></trkpt><trkpt lat="45.998582683514655" lon="12.113616551034564"><ele>895.0</ele><time>2026-03-22T13:17:40.931Z</time></trkpt><trkpt lat="45.99849631459684" lon="12.113662521750292"><ele>895.0</ele><time>2026-03-22T13:17:41.931Z</time></trkpt><trkpt lat="45.99841302608791" lon="12.113716586054657"><ele>895.0</ele><time>2026-03-22T13:17:42.931Z</time></trkpt><trkpt lat="45.99834195719688" lon="12.113767493705788"><ele>894.9999999999999</ele><time>2026-03-22T13:17:43.931Z</time></trkpt><trkpt lat="45.99827115498718" lon="12.113823290640042"><ele>895.0</ele><time>2026-03-22T13:17:44.931Z</time></trkpt><trkpt lat="45.99821255434935" lon="12.11387991643677"><ele>895.8</ele><time>2026-03-22T13:17:45.931Z</time></trkpt><trkpt lat="45.998120700920374" lon="12.113966930951145"><ele>896.6</ele><time>2026-03-22T13:17:47.933Z</time></trkpt><trkpt lat="45.998014899947634" lon="12.11400527106026"><ele>897.4000000000001</ele><time>2026-03-22T13:17:49.932Z</time></trkpt><trkpt lat="45.99788680840025" lon="12.114025824989245"><ele>898.2</ele><time>2026-03-22T13:17:51.932Z</time></trkpt><trkpt lat="45.99780468991857" lon="12.114050891031548"><ele>899.0</ele><time>2026-03-22T13:17:52.932Z</time></trkpt><trkpt lat="45.99772259775162" lon="12.11407923667202"><ele>895.6</ele><time>2026-03-22T13:17:53.933Z</time></trkpt><trkpt lat="45.9976467003296" lon="12.114112453238098"><ele>892.2</ele><time>2026-03-22T13:17:54.933Z</time></trkpt><trkpt lat="45.99758615405617" lon="12.114149597555855"><ele>888.8000000000001</ele><time>2026-03-22T13:17:55.933Z</time></trkpt><trkpt lat="45.997492004348885" lon="12.114229963419676"><ele>885.4000000000001</ele><time>2026-03-22T13:17:57.933Z</time></trkpt><trkpt lat="45.99736121778394" lon="12.114279484450819"><ele>882.0</ele><time>2026-03-22T13:17:59.933Z</time></trkpt><trkpt lat="45.997238057361805" lon="12.1143225153392"><ele>882.0</ele><time>2026-03-22T13:18:01.932Z</time></trkpt><trkpt lat="45.99717292642542" lon="12.114334667758015"><ele>882.0</ele><time>2026-03-22T13:18:02.932Z</time></trkpt><trkpt lat="45.99709812036173" lon="12.114346491340516"><ele>882.0</ele><time>2026-03-22T13:18:03.932Z</time></trkpt><trkpt lat="45.997011261390405" lon="12.114370973123542"><ele>882.0</ele><time>2026-03-22T13:18:04.932Z</time></trkpt><trkpt lat="45.99691916999396" lon="12.114415045328816"><ele>882.0</ele><time>2026-03-22T13:18:05.932Z</time></trkpt><trkpt lat="45.99683096818936" lon="12.114470130050524"><ele>882.0</ele><time>2026-03-22T13:18:06.932Z</time></trkpt><trkpt lat="45.99673994673791" lon="12.11453387246656"><ele>882.2</ele><time>2026-03-22T13:18:07.932Z</time></trkpt><trkpt lat="45.99663494137502" lon="12.114603840927783"><ele>882.4000000000001</ele><time>2026-03-22T13:18:08.932Z</time></trkpt><trkpt lat="45.99654058518525" lon="12.114672179982422"><ele>882.5999999999999</ele><time>2026-03-22T13:18:09.932Z</time></trkpt><trkpt lat="45.99646422214367" lon="12.114743733589675"><ele>882.8</ele><time>2026-03-22T13:18:10.932Z</time></trkpt><trkpt lat="45.99639399700542" lon="12.114813489120488"><ele>883.0</ele><time>2026-03-22T13:18:11.932Z</time></trkpt><trkpt lat="45.99631870718689" lon="12.114923900756176"><ele>879.8</ele><time>2026-03-22T13:18:13.932Z</time></trkpt><trkpt lat="45.99636662960715" lon="12.115086756379094"><ele>876.5999999999999</ele><time>2026-03-22T13:18:15.932Z</time></trkpt><trkpt lat="45.99647449848165" lon="12.115085117327924"><ele>873.4000000000001</ele><time>2026-03-22T13:18:17.932Z</time></trkpt><trkpt lat="45.99653592919165" lon="12.115051920063408"><ele>870.2</ele><time>2026-03-22T13:18:18.932Z</time></trkpt><trkpt lat="45.996611532879946" lon="12.115074601578053"><ele>867.0</ele><time>2026-03-22T13:18:19.932Z</time></trkpt><trkpt lat="45.99668472553082" lon="12.115108561865707"><ele>867.0</ele><time>2026-03-22T13:18:20.932Z</time></trkpt><trkpt lat="45.99677561549471" lon="12.115157680438246"><ele>867.0</ele><time>2026-03-22T13:18:21.932Z</time></trkpt><trkpt lat="45.996880207020574" lon="12.115229147189398"><ele>867.0</ele><time>2026-03-22T13:18:22.932Z</time></trkpt><trkpt lat="45.996966297605844" lon="12.11530103409213"><ele>867.0</ele><time>2026-03-22T13:18:23.932Z</time></trkpt><trkpt lat="45.997037539977846" lon="12.115347255828805"><ele>867.0</ele><time>2026-03-22T13:18:24.932Z</time></trkpt><trkpt lat="45.9971049150127" lon="12.115454355221365"><ele>867.0</ele><time>2026-03-22T13:18:26.932Z</time></trkpt><trkpt lat="45.99707955035523" lon="12.115583179407803"><ele>867.0</ele><time>2026-03-22T13:18:28.932Z</time></trkpt><trkpt lat="45.99702717722702" lon="12.115640315979276"><ele>867.0</ele><time>2026-03-22T13:18:29.932Z</time></trkpt><trkpt lat="45.99696713670389" lon="12.115689031785061"><ele>867.0</ele><time>2026-03-22T13:18:30.932Z</time></trkpt><trkpt lat="45.9969095629635" lon="12.115727320923924"><ele>867.0</ele><time>2026-03-22T13:18:31.932Z</time></trkpt><trkpt lat="45.99685327518065" lon="12.115785024246543"><ele>867.0</ele><time>2026-03-22T13:18:32.932Z</time></trkpt><trkpt lat="45.99679808363081" lon="12.115916499890709"><ele>867.8</ele><time>2026-03-22T13:18:34.932Z</time></trkpt><trkpt lat="45.99679464593373" lon="12.116105491185758"><ele>868.6</ele><time>2026-03-22T13:18:36.932Z</time></trkpt><trkpt lat="45.99677125879998" lon="12.116190874638562"><ele>869.3999999999999</ele><time>2026-03-22T13:18:37.932Z</time></trkpt><trkpt lat="45.99672091822795" lon="12.11628555286802"><ele>870.1999999999999</ele><time>2026-03-22T13:18:38.932Z</time></trkpt><trkpt lat="45.99665239387216" lon="12.11638557356883"><ele>871.0</ele><time>2026-03-22T13:18:39.932Z</time></trkpt><trkpt lat="45.996592100098006" lon="12.116502093716138"><ele>866.5999999999999</ele><time>2026-03-22T13:18:40.932Z</time></trkpt><trkpt lat="45.9965330889777" lon="12.11661479751164"><ele>862.1999999999999</ele><time>2026-03-22T13:18:41.932Z</time></trkpt><trkpt lat="45.99647671062192" lon="12.116729991309446"><ele>857.8</ele><time>2026-03-22T13:18:42.932Z</time></trkpt><trkpt lat="45.99641970025703" lon="12.11684106851911"><ele>853.4000000000001</ele><time>2026-03-22T13:18:43.932Z</time></trkpt><trkpt lat="45.996381147247654" lon="12.116955736474381"><ele>849.0</ele><time>2026-03-22T13:18:44.931Z</time></trkpt><trkpt lat="45.99634475869959" lon="12.117063491766096"><ele>849.0</ele><time>2026-03-22T13:18:45.931Z</time></trkpt><trkpt lat="45.99630820287714" lon="12.117169308775118"><ele>849.0</ele><time>2026-03-22T13:18:46.931Z</time></trkpt><trkpt lat="45.99628718126349" lon="12.117292000812206"><ele>849.0</ele><time>2026-03-22T13:18:47.931Z</time></trkpt><trkpt lat="45.99624425569703" lon="12.117397050890789"><ele>849.0</ele><time>2026-03-22T13:18:48.931Z</time></trkpt><trkpt lat="45.996190626291664" lon="12.117503453810576"><ele>849.0</ele><time>2026-03-22T13:18:49.931Z</time></trkpt><trkpt lat="45.996144580967375" lon="12.117607904086503"><ele>849.0</ele><time>2026-03-22T13:18:50.931Z</time></trkpt><trkpt lat="45.99609854836463" lon="12.117720157060822"><ele>853.0</ele><time>2026-03-22T13:18:51.931Z</time></trkpt><trkpt lat="45.99607709292472" lon="12.117833896250348"><ele>857.0</ele><time>2026-03-22T13:18:52.931Z</time></trkpt><trkpt lat="45.996058982741516" lon="12.11794455744667"><ele>861.0</ele><time>2026-03-22T13:18:53.931Z</time></trkpt><trkpt lat="45.996042289591415" lon="12.118070981899109"><ele>865.0</ele><time>2026-03-22T13:18:54.931Z</time></trkpt><trkpt lat="45.99602816272429" lon="12.118188377087334"><ele>869.0</ele><time>2026-03-22T13:18:55.931Z</time></trkpt><trkpt lat="45.99603114031408" lon="12.118299790390788"><ele>873.0</ele><time>2026-03-22T13:18:56.931Z</time></trkpt><trkpt lat="45.99603761189187" lon="12.118414839858396"><ele>875.0</ele><time>2026-03-22T13:18:57.931Z</time></trkpt><trkpt lat="45.99605430336106" lon="12.118528535661294"><ele>877.0</ele><time>2026-03-22T13:18:58.931Z</time></trkpt><trkpt lat="45.99608473672177" lon="12.118625093520537"><ele>879.0</ele><time>2026-03-22T13:18:59.931Z</time></trkpt><trkpt lat="45.99609842823912" lon="12.118735104991407"><ele>881.0</ele><time>2026-03-22T13:19:00.931Z</time></trkpt><trkpt lat="45.99613868266475" lon="12.118819907096166"><ele>883.0</ele><time>2026-03-22T13:19:01.931Z</time></trkpt><trkpt lat="45.99608792441965" lon="12.118977455558989"><ele>885.0</ele><time>2026-03-22T13:19:03.931Z</time></trkpt><trkpt lat="45.996013204146315" lon="12.11897676055544"><ele>885.0</ele><time>2026-03-22T13:19:04.931Z</time></trkpt><trkpt lat="45.99588227166121" lon="12.118989323210432"><ele>885.0</ele><time>2026-03-22T13:19:06.931Z</time></trkpt><trkpt lat="45.99578438026682" lon="12.118963727059297"><ele>885.0</ele><time>2026-03-22T13:19:07.931Z</time></trkpt><trkpt lat="45.995680555108294" lon="12.118971579373909"><ele>885.0</ele><time>2026-03-22T13:19:08.931Z</time></trkpt><trkpt lat="45.99557481536729" lon="12.118976735288882"><ele>885.0</ele><time>2026-03-22T13:19:09.931Z</time></trkpt><trkpt lat="45.99547737083119" lon="12.118974895711654"><ele>878.8333333333334</ele><time>2026-03-22T13:19:10.931Z</time></trkpt><trkpt lat="45.99539727167658" lon="12.118963398206109"><ele>872.6666666666667</ele><time>2026-03-22T13:19:11.931Z</time></trkpt><trkpt lat="45.9952921323572" lon="12.118968496434222"><ele>866.5</ele><time>2026-03-22T13:19:13.931Z</time></trkpt><trkpt lat="45.99518530709321" lon="12.119018435403653"><ele>860.3333333333334</ele><time>2026-03-22T13:19:15.931Z</time></trkpt><trkpt lat="45.995138854845536" lon="12.119090047338481"><ele>854.1666666666667</ele><time>2026-03-22T13:19:16.931Z</time></trkpt><trkpt lat="45.9951097922867" lon="12.119198173063793"><ele>848.0</ele><time>2026-03-22T13:19:17.931Z</time></trkpt><trkpt lat="45.9951219069339" lon="12.1193152458721"><ele>848.0</ele><time>2026-03-22T13:19:18.931Z</time></trkpt><trkpt lat="45.995151818337106" lon="12.119400502863263"><ele>848.0</ele><time>2026-03-22T13:19:19.931Z</time></trkpt><trkpt lat="45.99519359871579" lon="12.119476986055616"><ele>848.0</ele><time>2026-03-22T13:19:20.931Z</time></trkpt><trkpt lat="45.99524070986472" lon="12.119555019811694"><ele>848.0</ele><time>2026-03-22T13:19:21.931Z</time></trkpt><trkpt lat="45.99528909810196" lon="12.11964104893008"><ele>848.0</ele><time>2026-03-22T13:19:22.931Z</time></trkpt><trkpt lat="45.995336493897305" lon="12.11973455932735"><ele>848.0</ele><time>2026-03-22T13:19:23.931Z</time></trkpt><trkpt lat="45.99537861865262" lon="12.119834641208518"><ele>848.0</ele><time>2026-03-22T13:19:24.931Z</time></trkpt><trkpt lat="45.99541362368729" lon="12.119931178272855"><ele>848.0</ele><time>2026-03-22T13:19:25.931Z</time></trkpt><trkpt lat="45.99544084806081" lon="12.120112809300473"><ele>848.0</ele><time>2026-03-22T13:19:27.93Z</time></trkpt><trkpt lat="45.99546190903489" lon="12.120226669764522"><ele>848.0</ele><time>2026-03-22T13:19:28.93Z</time></trkpt><trkpt lat="45.995509333289505" lon="12.1203602574277"><ele>848.0</ele><time>2026-03-22T13:19:30.93Z</time></trkpt><trkpt lat="45.99554970375774" lon="12.120454185429049"><ele>848.0</ele><time>2026-03-22T13:19:32.93Z</time></trkpt><trkpt lat="45.99558727806972" lon="12.1205655400763"><ele>848.0</ele><time>2026-03-22T13:19:34.93Z</time></trkpt><trkpt lat="45.99564348941177" lon="12.120676953250001"><ele>848.0</ele><time>2026-03-22T13:19:36.93Z</time></trkpt><trkpt lat="45.99572722900643" lon="12.120800737411052"><ele>848.0</ele><time>2026-03-22T13:19:38.93Z</time></trkpt><trkpt lat="45.99574701562867" lon="12.120912031578463"><ele>848.0</ele><time>2026-03-22T13:19:39.93Z</time></trkpt><trkpt lat="45.995773265691575" lon="12.121033225712816"><ele>848.0</ele><time>2026-03-22T13:19:40.93Z</time></trkpt><trkpt lat="45.99577792283759" lon="12.121156819880355"><ele>858.5999999999999</ele><time>2026-03-22T13:19:41.93Z</time></trkpt><trkpt lat="45.99580284965138" lon="12.121278615987976"><ele>869.1999999999999</ele><time>2026-03-22T13:19:42.93Z</time></trkpt><trkpt lat="45.995825595930114" lon="12.12140183985892"><ele>879.8</ele><time>2026-03-22T13:19:43.93Z</time></trkpt><trkpt lat="45.99585516812035" lon="12.121522532370497"><ele>890.4</ele><time>2026-03-22T13:19:44.93Z</time></trkpt><trkpt lat="45.99584775636639" lon="12.121648427950307"><ele>901.0</ele><time>2026-03-22T13:19:45.93Z</time></trkpt><trkpt lat="45.99583029878803" lon="12.121807586617713"><ele>910.0</ele><time>2026-03-22T13:19:47.93Z</time></trkpt><trkpt lat="45.99587328908541" lon="12.121920345921232"><ele>918.9999999999999</ele><time>2026-03-22T13:19:49.93Z</time></trkpt><trkpt lat="45.99596413645123" lon="12.122059881558744"><ele>927.9999999999999</ele><time>2026-03-22T13:19:51.93Z</time></trkpt><trkpt lat="45.996010856022224" lon="12.122136783330971"><ele>937.0</ele><time>2026-03-22T13:19:52.93Z</time></trkpt><trkpt lat="45.99606415947349" lon="12.12221461270247"><ele>946.0</ele><time>2026-03-22T13:19:53.931Z</time></trkpt><trkpt lat="45.996120477774575" lon="12.122358433317213"><ele>946.0</ele><time>2026-03-22T13:19:55.931Z</time></trkpt><trkpt lat="45.99607057731002" lon="12.122501439815233"><ele>945.9999999999999</ele><time>2026-03-22T13:19:57.93Z</time></trkpt><trkpt lat="45.99595315430521" lon="12.122534642389635"><ele>945.9999999999999</ele><time>2026-03-22T13:19:58.93Z</time></trkpt><trkpt lat="45.99586631103301" lon="12.122554828739272"><ele>946.0</ele><time>2026-03-22T13:19:59.931Z</time></trkpt><trkpt lat="45.995774219123874" lon="12.12257838547786"><ele>946.0</ele><time>2026-03-22T13:20:00.931Z</time></trkpt><trkpt lat="45.995671921251585" lon="12.122575396328292"><ele>936.6666666666666</ele><time>2026-03-22T13:20:01.931Z</time></trkpt><trkpt lat="45.995580014897264" lon="12.122557335134974"><ele>927.3333333333333</ele><time>2026-03-22T13:20:02.931Z</time></trkpt><trkpt lat="45.995499416848936" lon="12.122558487762952"><ele>918.0</ele><time>2026-03-22T13:20:03.93Z</time></trkpt><trkpt lat="45.99542026684145" lon="12.122544781400748"><ele>908.6666666666667</ele><time>2026-03-22T13:20:04.93Z</time></trkpt><trkpt lat="45.99535671168573" lon="12.122539836335221"><ele>899.3333333333334</ele><time>2026-03-22T13:20:05.931Z</time></trkpt><trkpt lat="45.99528876717515" lon="12.122550128920967"><ele>890.0</ele><time>2026-03-22T13:20:06.93Z</time></trkpt><trkpt lat="45.995230867109605" lon="12.122592288238444"><ele>890.0000000000001</ele><time>2026-03-22T13:20:07.93Z</time></trkpt><trkpt lat="45.99518079308796" lon="12.122654052012333"><ele>890.0</ele><time>2026-03-22T13:20:08.93Z</time></trkpt><trkpt lat="45.99511332722218" lon="12.12270624329092"><ele>890.0</ele><time>2026-03-22T13:20:09.93Z</time></trkpt><trkpt lat="45.99504403362176" lon="12.122723530056925"><ele>890.0</ele><time>2026-03-22T13:20:10.93Z</time></trkpt><trkpt lat="45.99498176110368" lon="12.122677053666699"><ele>890.0000000000001</ele><time>2026-03-22T13:20:11.93Z</time></trkpt><trkpt lat="45.994913267013494" lon="12.122656547223205"><ele>890.0</ele><time>2026-03-22T13:20:12.93Z</time></trkpt><trkpt lat="45.99480552747039" lon="12.122639633788776"><ele>878.2</ele><time>2026-03-22T13:20:14.93Z</time></trkpt><trkpt lat="45.99470858537492" lon="12.12273445431558"><ele>866.4</ele><time>2026-03-22T13:20:16.93Z</time></trkpt><trkpt lat="45.99468975806492" lon="12.122837851738495"><ele>854.5999999999999</ele><time>2026-03-22T13:20:17.93Z</time></trkpt><trkpt lat="45.994664984550575" lon="12.122950605577019"><ele>842.8</ele><time>2026-03-22T13:20:18.93Z</time></trkpt><trkpt lat="45.99460383560269" lon="12.123056100156017"><ele>831.0</ele><time>2026-03-22T13:20:19.93Z</time></trkpt><trkpt lat="45.99453629390226" lon="12.12315489257965"><ele>828.8</ele><time>2026-03-22T13:20:20.93Z</time></trkpt><trkpt lat="45.994466151915745" lon="12.12326051650654"><ele>826.5999999999999</ele><time>2026-03-22T13:20:21.93Z</time></trkpt><trkpt lat="45.99439169788172" lon="12.123359249773262"><ele>824.4</ele><time>2026-03-22T13:20:22.93Z</time></trkpt><trkpt lat="45.99431265800464" lon="12.123479424738992"><ele>822.2</ele><time>2026-03-22T13:20:23.93Z</time></trkpt><trkpt lat="45.99423276661155" lon="12.123599740653994"><ele>820.0</ele><time>2026-03-22T13:20:24.93Z</time></trkpt><trkpt lat="45.99415572954422" lon="12.123722157148121"><ele>820.0</ele><time>2026-03-22T13:20:25.93Z</time></trkpt><trkpt lat="45.994093225028934" lon="12.123848568067729"><ele>820.0</ele><time>2026-03-22T13:20:26.93Z</time></trkpt><trkpt lat="45.99405034168413" lon="12.12395393314124"><ele>820.0</ele><time>2026-03-22T13:20:27.93Z</time></trkpt><trkpt lat="45.99400917567852" lon="12.124024221422838"><ele>820.0</ele><time>2026-03-22T13:20:28.93Z</time></trkpt><trkpt lat="45.9939089584371" lon="12.124028211701424"><ele>820.0</ele><time>2026-03-22T13:20:30.929Z</time></trkpt><trkpt lat="45.99377700947519" lon="12.123965027140335"><ele>819.9999999999999</ele><time>2026-03-22T13:20:32.929Z</time></trkpt><trkpt lat="45.99370026865188" lon="12.123947856551844"><ele>820.0</ele><time>2026-03-22T13:20:33.929Z</time></trkpt><trkpt lat="45.99360678967458" lon="12.123949221692834"><ele>820.0</ele><time>2026-03-22T13:20:34.929Z</time></trkpt><trkpt lat="45.993523928453286" lon="12.123965748004919"><ele>820.0</ele><time>2026-03-22T13:20:35.929Z</time></trkpt><trkpt lat="45.99343624327709" lon="12.1239488551165"><ele>819.9999999999999</ele><time>2026-03-22T13:20:36.929Z</time></trkpt><trkpt lat="45.99334705283945" lon="12.123912766258893"><ele>820.0</ele><time>2026-03-22T13:20:37.929Z</time></trkpt><trkpt lat="45.993256955725315" lon="12.123869719259648"><ele>814.2</ele><time>2026-03-22T13:20:38.929Z</time></trkpt><trkpt lat="45.993182094390654" lon="12.123820819480416"><ele>808.4</ele><time>2026-03-22T13:20:39.929Z</time></trkpt><trkpt lat="45.99312196955482" lon="12.123790299023797"><ele>802.5999999999999</ele><time>2026-03-22T13:20:40.929Z</time></trkpt><trkpt lat="45.99303670131634" lon="12.123711726249805"><ele>796.8</ele><time>2026-03-22T13:20:42.929Z</time></trkpt><trkpt lat="45.99294710564002" lon="12.123741649574706"><ele>791.0</ele><time>2026-03-22T13:20:44.929Z</time></trkpt><trkpt lat="45.99290375813516" lon="12.123893160126064"><ele>791.0</ele><time>2026-03-22T13:20:46.929Z</time></trkpt><trkpt lat="45.9929365068256" lon="12.12397496196256"><ele>791.0</ele><time>2026-03-22T13:20:47.929Z</time></trkpt><trkpt lat="45.993052784254026" lon="12.124070428808087"><ele>791.0</ele><time>2026-03-22T13:20:49.929Z</time></trkpt><trkpt lat="45.9931170796259" lon="12.124142250731653"><ele>791.0</ele><time>2026-03-22T13:20:50.929Z</time></trkpt><trkpt lat="45.99316533121976" lon="12.12423261319017"><ele>791.0</ele><time>2026-03-22T13:20:51.929Z</time></trkpt><trkpt lat="45.993237155551306" lon="12.124314422760106"><ele>795.1999999999999</ele><time>2026-03-22T13:20:52.929Z</time></trkpt><trkpt lat="45.993314084849374" lon="12.124387661066825"><ele>799.4</ele><time>2026-03-22T13:20:53.929Z</time></trkpt><trkpt lat="45.993392049024585" lon="12.124473478863017"><ele>803.6</ele><time>2026-03-22T13:20:54.929Z</time></trkpt><trkpt lat="45.993467402825885" lon="12.1245759274966"><ele>807.8</ele><time>2026-03-22T13:20:55.929Z</time></trkpt><trkpt lat="45.99355228866855" lon="12.124678996690118"><ele>812.0</ele><time>2026-03-22T13:20:56.929Z</time></trkpt><trkpt lat="45.993620515171926" lon="12.124787036455256"><ele>813.6666666666667</ele><time>2026-03-22T13:20:57.929Z</time></trkpt><trkpt lat="45.99369048619616" lon="12.124871696978579"><ele>815.3333333333334</ele><time>2026-03-22T13:20:58.929Z</time></trkpt><trkpt lat="45.993748284085086" lon="12.124951049116707"><ele>817.0</ele><time>2026-03-22T13:20:59.929Z</time></trkpt><trkpt lat="45.99379914906744" lon="12.125017685911633"><ele>818.6666666666667</ele><time>2026-03-22T13:21:00.929Z</time></trkpt><trkpt lat="45.993852137820014" lon="12.125095124647176"><ele>820.3333333333334</ele><time>2026-03-22T13:21:01.929Z</time></trkpt><trkpt lat="45.99390961174474" lon="12.12522659451535"><ele>822.0</ele><time>2026-03-22T13:21:03.929Z</time></trkpt><trkpt lat="45.99401685052479" lon="12.125298306916886"><ele>822.0</ele><time>2026-03-22T13:21:05.929Z</time></trkpt><trkpt lat="45.99408981447555" lon="12.12533445165622"><ele>822.0</ele><time>2026-03-22T13:21:06.929Z</time></trkpt><trkpt lat="45.99415889995548" lon="12.125402923675383"><ele>822.0</ele><time>2026-03-22T13:21:07.929Z</time></trkpt><trkpt lat="45.99422490885773" lon="12.12549025008094"><ele>822.0</ele><time>2026-03-22T13:21:08.929Z</time></trkpt><trkpt lat="45.994295885262275" lon="12.125599290147846"><ele>822.0</ele><time>2026-03-22T13:21:09.929Z</time></trkpt><trkpt lat="45.99435833116445" lon="12.12572105893834"><ele>829.2</ele><time>2026-03-22T13:21:10.929Z</time></trkpt><trkpt lat="45.99440710614712" lon="12.125854025631062"><ele>836.4000000000001</ele><time>2026-03-22T13:21:11.929Z</time></trkpt><trkpt lat="45.99443604137705" lon="12.125961570271771"><ele>843.5999999999999</ele><time>2026-03-22T13:21:12.929Z</time></trkpt><trkpt lat="45.994470325976685" lon="12.126060397103721"><ele>850.8</ele><time>2026-03-22T13:21:13.929Z</time></trkpt><trkpt lat="45.99450752102331" lon="12.126164710318818"><ele>858.0</ele><time>2026-03-22T13:21:14.929Z</time></trkpt><trkpt lat="45.99456761718706" lon="12.126293924260743"><ele>858.0</ele><time>2026-03-22T13:21:16.929Z</time></trkpt><trkpt lat="45.99453592332182" lon="12.126441515940279"><ele>858.0</ele><time>2026-03-22T13:21:18.928Z</time></trkpt><trkpt lat="45.99453328486865" lon="12.126550594805668"><ele>858.0</ele><time>2026-03-22T13:21:19.928Z</time></trkpt><trkpt lat="45.994510940395756" lon="12.126658513382623"><ele>858.0</ele><time>2026-03-22T13:21:20.928Z</time></trkpt><trkpt lat="45.99448565155293" lon="12.126766932573128"><ele>858.0</ele><time>2026-03-22T13:21:21.928Z</time></trkpt><trkpt lat="45.99445327243945" lon="12.126858120992575"><ele>858.0</ele><time>2026-03-22T13:21:22.928Z</time></trkpt><trkpt lat="45.994427402559765" lon="12.126954882535612"><ele>852.6666666666666</ele><time>2026-03-22T13:21:23.928Z</time></trkpt><trkpt lat="45.99439964673997" lon="12.12705650786923"><ele>847.3333333333333</ele><time>2026-03-22T13:21:24.928Z</time></trkpt><trkpt lat="45.99440011090005" lon="12.127148989465866"><ele>842.0</ele><time>2026-03-22T13:21:25.928Z</time></trkpt><trkpt lat="45.99442890638858" lon="12.127259815377032"><ele>836.6666666666666</ele><time>2026-03-22T13:21:27.928Z</time></trkpt><trkpt lat="45.994369413102824" lon="12.127136556629626"><ele>831.3333333333333</ele><time>2026-03-22T13:21:32.928Z</time></trkpt><trkpt lat="45.99435915332254" lon="12.12697322885588"><ele>826.0</ele><time>2026-03-22T13:21:34.928Z</time></trkpt><trkpt lat="45.994378582980346" lon="12.126791592400602"><ele>826.0</ele><time>2026-03-22T13:21:36.928Z</time></trkpt><trkpt lat="45.994391796658036" lon="12.126698610439034"><ele>826.0</ele><time>2026-03-22T13:21:37.928Z</time></trkpt><trkpt lat="45.994388985013416" lon="12.12659535957286"><ele>826.0</ele><time>2026-03-22T13:21:38.928Z</time></trkpt><trkpt lat="45.994395103327335" lon="12.126500227881598"><ele>826.0</ele><time>2026-03-22T13:21:39.928Z</time></trkpt><trkpt lat="45.994389795127844" lon="12.126334197976094"><ele>826.0</ele><time>2026-03-22T13:21:41.928Z</time></trkpt><trkpt lat="45.99429942747363" lon="12.126184973231194"><ele>832.4</ele><time>2026-03-22T13:21:43.928Z</time></trkpt><trkpt lat="45.99423811517405" lon="12.12613059223286"><ele>838.8</ele><time>2026-03-22T13:21:44.928Z</time></trkpt><trkpt lat="45.99415108157993" lon="12.126059342271374"><ele>845.1999999999999</ele><time>2026-03-22T13:21:45.928Z</time></trkpt><trkpt lat="45.994090786082374" lon="12.125955471185465"><ele>851.5999999999999</ele><time>2026-03-22T13:21:46.928Z</time></trkpt><trkpt lat="45.99401942134058" lon="12.12586424272033"><ele>858.0</ele><time>2026-03-22T13:21:47.928Z</time></trkpt><trkpt lat="45.99394078155166" lon="12.125770568712785"><ele>850.8</ele><time>2026-03-22T13:21:48.928Z</time></trkpt><trkpt lat="45.99385748484741" lon="12.125685253980178"><ele>843.5999999999999</ele><time>2026-03-22T13:21:49.928Z</time></trkpt><trkpt lat="45.993762513537924" lon="12.125606813779497"><ele>836.4000000000001</ele><time>2026-03-22T13:21:50.928Z</time></trkpt><trkpt lat="45.99368225646453" lon="12.125529890086307"><ele>829.2</ele><time>2026-03-22T13:21:51.928Z</time></trkpt><trkpt lat="45.99359826915397" lon="12.125438584746178"><ele>822.0</ele><time>2026-03-22T13:21:52.928Z</time></trkpt><trkpt lat="45.99350477434925" lon="12.1253484770291"><ele>822.0</ele><time>2026-03-22T13:21:53.928Z</time></trkpt><trkpt lat="45.993404584510856" lon="12.12524400247361"><ele>822.0</ele><time>2026-03-22T13:21:54.928Z</time></trkpt><trkpt lat="45.993292644869356" lon="12.125179713333697"><ele>822.0</ele><time>2026-03-22T13:21:55.928Z</time></trkpt><trkpt lat="45.99318255886434" lon="12.125124013723807"><ele>822.0</ele><time>2026-03-22T13:21:56.928Z</time></trkpt><trkpt lat="45.993090885319205" lon="12.125069418676377"><ele>820.3333333333334</ele><time>2026-03-22T13:21:57.928Z</time></trkpt><trkpt lat="45.9930076840207" lon="12.125049588003895"><ele>818.6666666666667</ele><time>2026-03-22T13:21:58.929Z</time></trkpt><trkpt lat="45.99294424331596" lon="12.125040226625094"><ele>817.0</ele><time>2026-03-22T13:21:59.928Z</time></trkpt><trkpt lat="45.99283073944454" lon="12.12502202469351"><ele>815.3333333333334</ele><time>2026-03-22T13:22:01.929Z</time></trkpt><trkpt lat="45.992772621826845" lon="12.124947667093641"><ele>813.6666666666667</ele><time>2026-03-22T13:22:02.929Z</time></trkpt><trkpt lat="45.992724920257835" lon="12.124874517969753"><ele>812.0</ele><time>2026-03-22T13:22:03.929Z</time></trkpt><trkpt lat="45.99265531684589" lon="12.124791783167108"><ele>812.0000000000001</ele><time>2026-03-22T13:22:05.928Z</time></trkpt><trkpt lat="45.99258572781441" lon="12.124788321294176"><ele>812.0</ele><time>2026-03-22T13:22:07.928Z</time></trkpt><trkpt lat="45.99256286694047" lon="12.124921354958834"><ele>812.0</ele><time>2026-03-22T13:22:08.929Z</time></trkpt><trkpt lat="45.992648265883275" lon="12.12501898360777"><ele>812.0</ele><time>2026-03-22T13:22:09.929Z</time></trkpt><trkpt lat="45.992710624065566" lon="12.125073922900713"><ele>812.0000000000001</ele><time>2026-03-22T13:22:10.929Z</time></trkpt><trkpt lat="45.992768437804166" lon="12.125132884473624"><ele>812.0</ele><time>2026-03-22T13:22:11.928Z</time></trkpt><trkpt lat="45.992840462129614" lon="12.125206466504691"><ele>805.8</ele><time>2026-03-22T13:22:12.928Z</time></trkpt><trkpt lat="45.99293359496871" lon="12.12525967112172"><ele>799.6</ele><time>2026-03-22T13:22:13.928Z</time></trkpt><trkpt lat="45.99302799418097" lon="12.125333675923168"><ele>793.4</ele><time>2026-03-22T13:22:14.928Z</time></trkpt><trkpt lat="45.99312361994753" lon="12.125417037671669"><ele>787.1999999999999</ele><time>2026-03-22T13:22:15.928Z</time></trkpt><trkpt lat="45.993211327477134" lon="12.125516792673757"><ele>781.0</ele><time>2026-03-22T13:22:16.928Z</time></trkpt><trkpt lat="45.9932923399024" lon="12.125626846383826"><ele>782.0</ele><time>2026-03-22T13:22:17.928Z</time></trkpt><trkpt lat="45.99336758639392" lon="12.125779718211259"><ele>783.0</ele><time>2026-03-22T13:22:18.928Z</time></trkpt><trkpt lat="45.99343994163839" lon="12.125926273516376"><ele>784.0</ele><time>2026-03-22T13:22:19.928Z</time></trkpt><trkpt lat="45.993493642310334" lon="12.126077867604813"><ele>785.0</ele><time>2026-03-22T13:22:20.928Z</time></trkpt><trkpt lat="45.993537610711364" lon="12.12622508107057"><ele>785.0000000000001</ele><time>2026-03-22T13:22:21.928Z</time></trkpt><trkpt lat="45.99360025767239" lon="12.126352195876422"><ele>785.0</ele><time>2026-03-22T13:22:22.928Z</time></trkpt><trkpt lat="45.99366670982612" lon="12.126459230092724"><ele>785.0</ele><time>2026-03-22T13:22:23.928Z</time></trkpt><trkpt lat="45.99372831252724" lon="12.126547977722149"><ele>785.0</ele><time>2026-03-22T13:22:24.928Z</time></trkpt><trkpt lat="45.99378057103857" lon="12.126614687645366"><ele>785.0000000000001</ele><time>2026-03-22T13:22:25.928Z</time></trkpt><trkpt lat="45.99383241347846" lon="12.126693042054763"><ele>785.0</ele><time>2026-03-22T13:22:28.928Z</time></trkpt><trkpt lat="45.99373949696341" lon="12.126662757832323"><ele>785.0</ele><time>2026-03-22T13:22:30.928Z</time></trkpt><trkpt lat="45.99368889972946" lon="12.126606960865896"><ele>785.0</ele><time>2026-03-22T13:22:31.928Z</time></trkpt><trkpt lat="45.993616694191516" lon="12.126548835535907"><ele>785.0</ele><time>2026-03-22T13:22:32.928Z</time></trkpt><trkpt lat="45.99353142928896" lon="12.126476105225592"><ele>785.0</ele><time>2026-03-22T13:22:33.928Z</time></trkpt><trkpt lat="45.99345358167106" lon="12.126369575355106"><ele>785.0</ele><time>2026-03-22T13:22:34.928Z</time></trkpt><trkpt lat="45.993372025109565" lon="12.12624769156528"><ele>772.75</ele><time>2026-03-22T13:22:35.928Z</time></trkpt><trkpt lat="45.99327810242771" lon="12.126145100828726"><ele>760.5</ele><time>2026-03-22T13:22:36.928Z</time></trkpt><trkpt lat="45.9931687785188" lon="12.126035552449864"><ele>748.25</ele><time>2026-03-22T13:22:37.928Z</time></trkpt><trkpt lat="45.99304410131895" lon="12.125939818600463"><ele>736.0</ele><time>2026-03-22T13:22:38.928Z</time></trkpt><trkpt lat="45.99292056872849" lon="12.125837484966143"><ele>736.0</ele><time>2026-03-22T13:22:39.928Z</time></trkpt><trkpt lat="45.99278493175767" lon="12.125776928648724"><ele>736.0</ele><time>2026-03-22T13:22:40.928Z</time></trkpt><trkpt lat="45.992645531335" lon="12.125691804459997"><ele>736.0</ele><time>2026-03-22T13:22:41.928Z</time></trkpt><trkpt lat="45.99249818658923" lon="12.125635650560021"><ele>736.0</ele><time>2026-03-22T13:22:42.928Z</time></trkpt><trkpt lat="45.99233903451399" lon="12.125598445324494"><ele>738.0</ele><time>2026-03-22T13:22:43.927Z</time></trkpt><trkpt lat="45.99217615740382" lon="12.125572685976685"><ele>740.0</ele><time>2026-03-22T13:22:44.927Z</time></trkpt><trkpt lat="45.992030192619424" lon="12.125539523136474"><ele>742.0</ele><time>2026-03-22T13:22:45.927Z</time></trkpt><trkpt lat="45.9919058407636" lon="12.125497087865693"><ele>744.0</ele><time>2026-03-22T13:22:46.927Z</time></trkpt><trkpt lat="45.99179863608625" lon="12.12545195086095"><ele>744.0</ele><time>2026-03-22T13:22:47.927Z</time></trkpt><trkpt lat="45.9917114424685" lon="12.12540253480471"><ele>744.0</ele><time>2026-03-22T13:22:48.927Z</time></trkpt><trkpt lat="45.99163219039443" lon="12.125339190288717"><ele>744.0</ele><time>2026-03-22T13:22:49.927Z</time></trkpt><trkpt lat="45.99155248873078" lon="12.125276925422865"><ele>744.0</ele><time>2026-03-22T13:22:50.927Z</time></trkpt><trkpt lat="45.99147505827637" lon="12.125214741034368"><ele>744.0</ele><time>2026-03-22T13:22:51.927Z</time></trkpt><trkpt lat="45.991370926131054" lon="12.125179116181494"><ele>744.0</ele><time>2026-03-22T13:22:53.927Z</time></trkpt><trkpt lat="45.99132390483673" lon="12.12527278548259"><ele>744.0</ele><time>2026-03-22T13:22:55.927Z</time></trkpt><trkpt lat="45.99137025278882" lon="12.125368591434059"><ele>744.0</ele><time>2026-03-22T13:22:56.927Z</time></trkpt><trkpt lat="45.991453771593726" lon="12.12541218851933"><ele>744.0</ele><time>2026-03-22T13:22:57.927Z</time></trkpt><trkpt lat="45.99153065439225" lon="12.125471607218692"><ele>744.0</ele><time>2026-03-22T13:22:58.928Z</time></trkpt><trkpt lat="45.99162775801294" lon="12.125526530316803"><ele>744.0</ele><time>2026-03-22T13:22:59.929Z</time></trkpt><trkpt lat="45.991723030292974" lon="12.125627023908523"><ele>733.5</ele><time>2026-03-22T13:23:00.929Z</time></trkpt><trkpt lat="45.991836195192924" lon="12.125729551691691"><ele>723.0</ele><time>2026-03-22T13:23:01.93Z</time></trkpt><trkpt lat="45.99194951441435" lon="12.12583526135555"><ele>712.5</ele><time>2026-03-22T13:23:02.931Z</time></trkpt><trkpt lat="45.992071093088306" lon="12.125947861435064"><ele>702.0</ele><time>2026-03-22T13:23:03.931Z</time></trkpt><trkpt lat="45.99219397777555" lon="12.126065786666983"><ele>702.0</ele><time>2026-03-22T13:23:04.932Z</time></trkpt><trkpt lat="45.9923058084482" lon="12.126198129874455"><ele>702.0</ele><time>2026-03-22T13:23:05.933Z</time></trkpt><trkpt lat="45.99240799910892" lon="12.126331538984797"><ele>702.0</ele><time>2026-03-22T13:23:06.933Z</time></trkpt><trkpt lat="45.99249241764888" lon="12.126452487866214"><ele>702.0</ele><time>2026-03-22T13:23:07.934Z</time></trkpt><trkpt lat="45.99256222200905" lon="12.126573490015257"><ele>703.25</ele><time>2026-03-22T13:23:08.934Z</time></trkpt><trkpt lat="45.99261374558916" lon="12.126710354398448"><ele>704.5</ele><time>2026-03-22T13:23:09.935Z</time></trkpt><trkpt lat="45.99264773107532" lon="12.12687591651214"><ele>705.75</ele><time>2026-03-22T13:23:10.935Z</time></trkpt><trkpt lat="45.99269053958324" lon="12.127050875863231"><ele>707.0</ele><time>2026-03-22T13:23:11.935Z</time></trkpt><trkpt lat="45.992733106958305" lon="12.127224569783099"><ele>704.25</ele><time>2026-03-22T13:23:12.936Z</time></trkpt><trkpt lat="45.99279685320194" lon="12.127400931572138"><ele>701.5</ele><time>2026-03-22T13:23:13.936Z</time></trkpt><trkpt lat="45.99284877398654" lon="12.127599567092895"><ele>698.75</ele><time>2026-03-22T13:23:14.936Z</time></trkpt><trkpt lat="45.99288962266376" lon="12.12779677479256"><ele>696.0</ele><time>2026-03-22T13:23:15.937Z</time></trkpt><trkpt lat="45.99290431043396" lon="12.12797976409505"><ele>696.0</ele><time>2026-03-22T13:23:16.937Z</time></trkpt><trkpt lat="45.99290347259065" lon="12.128137652095813"><ele>696.0</ele><time>2026-03-22T13:23:17.937Z</time></trkpt><trkpt lat="45.992875064506826" lon="12.128258442735117"><ele>696.0</ele><time>2026-03-22T13:23:18.937Z</time></trkpt><trkpt lat="45.99285921985819" lon="12.128356164229011"><ele>696.0</ele><time>2026-03-22T13:23:19.938Z</time></trkpt><trkpt lat="45.992843300859114" lon="12.128457350829784"><ele>696.0</ele><time>2026-03-22T13:23:20.938Z</time></trkpt><trkpt lat="45.992842551875626" lon="12.128573646586323"><ele>696.0</ele><time>2026-03-22T13:23:21.938Z</time></trkpt><trkpt lat="45.99287202263735" lon="12.128698581603361"><ele>691.5999999999999</ele><time>2026-03-22T13:23:22.938Z</time></trkpt><trkpt lat="45.99291837635465" lon="12.128816057165379"><ele>687.2</ele><time>2026-03-22T13:23:23.938Z</time></trkpt><trkpt lat="45.99297009290301" lon="12.12895158549526"><ele>682.8</ele><time>2026-03-22T13:23:24.938Z</time></trkpt><trkpt lat="45.99302068619738" lon="12.129107577324003"><ele>678.4000000000001</ele><time>2026-03-22T13:23:25.939Z</time></trkpt><trkpt lat="45.993066405890744" lon="12.129259863385617"><ele>674.0</ele><time>2026-03-22T13:23:26.939Z</time></trkpt><trkpt lat="45.99310399492805" lon="12.1294262175022"><ele>668.0</ele><time>2026-03-22T13:23:27.939Z</time></trkpt><trkpt lat="45.993099740702064" lon="12.129602717964758"><ele>662.0</ele><time>2026-03-22T13:23:28.939Z</time></trkpt><trkpt lat="45.99310523544448" lon="12.1297995132596"><ele>656.0</ele><time>2026-03-22T13:23:29.939Z</time></trkpt><trkpt lat="45.99312605950935" lon="12.129977378262037"><ele>650.0</ele><time>2026-03-22T13:23:30.939Z</time></trkpt><trkpt lat="45.993113753717836" lon="12.130145644728318"><ele>648.3333333333333</ele><time>2026-03-22T13:23:31.939Z</time></trkpt><trkpt lat="45.99311605317854" lon="12.130281073405525"><ele>646.6666666666666</ele><time>2026-03-22T13:23:32.939Z</time></trkpt><trkpt lat="45.99312445374443" lon="12.130381454918696"><ele>645.0</ele><time>2026-03-22T13:23:33.939Z</time></trkpt><trkpt lat="45.993134687382714" lon="12.130524502753815"><ele>643.3333333333334</ele><time>2026-03-22T13:23:35.94Z</time></trkpt><trkpt lat="45.993043637306904" lon="12.130561534757701"><ele>641.6666666666667</ele><time>2026-03-22T13:23:37.94Z</time></trkpt><trkpt lat="45.993013525834485" lon="12.130460935110769"><ele>640.0</ele><time>2026-03-22T13:23:38.94Z</time></trkpt><trkpt lat="45.9929733139806" lon="12.130356169417315"><ele>640.0</ele><time>2026-03-22T13:23:39.94Z</time></trkpt><trkpt lat="45.99293414836234" lon="12.130221333179948"><ele>640.0</ele><time>2026-03-22T13:23:40.94Z</time></trkpt><trkpt lat="45.99290519235167" lon="12.130055404349614"><ele>640.0</ele><time>2026-03-22T13:23:41.94Z</time></trkpt><trkpt lat="45.99285625667905" lon="12.129895159064317"><ele>640.0</ele><time>2026-03-22T13:23:42.94Z</time></trkpt><trkpt lat="45.99276915822867" lon="12.12975483507195"><ele>642.5</ele><time>2026-03-22T13:23:43.94Z</time></trkpt><trkpt lat="45.992701566355436" lon="12.129601870016106"><ele>645.0</ele><time>2026-03-22T13:23:44.94Z</time></trkpt><trkpt lat="45.99264510070891" lon="12.12943158912901"><ele>647.5</ele><time>2026-03-22T13:23:45.94Z</time></trkpt><trkpt lat="45.99256640861263" lon="12.129269265937783"><ele>650.0</ele><time>2026-03-22T13:23:46.94Z</time></trkpt><trkpt lat="45.99247315796667" lon="12.129120302446452"><ele>645.0</ele><time>2026-03-22T13:23:47.94Z</time></trkpt><trkpt lat="45.99237121189184" lon="12.128988327473126"><ele>640.0</ele><time>2026-03-22T13:23:48.94Z</time></trkpt><trkpt lat="45.992272632760326" lon="12.128852939175355"><ele>635.0</ele><time>2026-03-22T13:23:49.94Z</time></trkpt><trkpt lat="45.99218269687421" lon="12.128721580058683"><ele>630.0</ele><time>2026-03-22T13:23:50.94Z</time></trkpt><trkpt lat="45.992092759981475" lon="12.128583664636043"><ele>630.0</ele><time>2026-03-22T13:23:51.94Z</time></trkpt><trkpt lat="45.99198510128369" lon="12.128434401478083"><ele>630.0</ele><time>2026-03-22T13:23:52.94Z</time></trkpt><trkpt lat="45.9918679214226" lon="12.128284875946012"><ele>630.0</ele><time>2026-03-22T13:23:53.94Z</time></trkpt><trkpt lat="45.99176804659818" lon="12.12815167455329"><ele>630.0</ele><time>2026-03-22T13:23:54.94Z</time></trkpt><trkpt lat="45.99169720568953" lon="12.128042289447379"><ele>626.6666666666666</ele><time>2026-03-22T13:23:55.94Z</time></trkpt><trkpt lat="45.99164481074588" lon="12.12792729831064"><ele>623.3333333333334</ele><time>2026-03-22T13:23:56.94Z</time></trkpt><trkpt lat="45.99161143163741" lon="12.127814736281392"><ele>620.0</ele><time>2026-03-22T13:23:57.94Z</time></trkpt><trkpt lat="45.9915302647119" lon="12.127721194458642"><ele>616.6666666666667</ele><time>2026-03-22T13:23:59.94Z</time></trkpt><trkpt lat="45.9914630265275" lon="12.127717465252497"><ele>613.3333333333334</ele><time>2026-03-22T13:24:00.94Z</time></trkpt><trkpt lat="45.99142296609139" lon="12.12784294161378"><ele>610.0</ele><time>2026-03-22T13:24:01.94Z</time></trkpt><trkpt lat="45.99142150561124" lon="12.1279977450944"><ele>610.0</ele><time>2026-03-22T13:24:02.94Z</time></trkpt><trkpt lat="45.9914487767062" lon="12.12814269739385"><ele>610.0</ele><time>2026-03-22T13:24:03.94Z</time></trkpt><trkpt lat="45.991493336195504" lon="12.128296765109132"><ele>610.0</ele><time>2026-03-22T13:24:04.94Z</time></trkpt><trkpt lat="45.991540701139" lon="12.128460750838734"><ele>610.0</ele><time>2026-03-22T13:24:05.94Z</time></trkpt><trkpt lat="45.99157522252945" lon="12.128629122027212"><ele>607.0</ele><time>2026-03-22T13:24:06.94Z</time></trkpt><trkpt lat="45.99159399944844" lon="12.128782243576921"><ele>604.0</ele><time>2026-03-22T13:24:07.941Z</time></trkpt><trkpt lat="45.99162295156182" lon="12.12890483502353"><ele>601.0</ele><time>2026-03-22T13:24:08.94Z</time></trkpt><trkpt lat="45.991620560606954" lon="12.129001048000529"><ele>598.0</ele><time>2026-03-22T13:24:09.94Z</time></trkpt><trkpt lat="45.991634731407295" lon="12.129132224302607"><ele>595.0</ele><time>2026-03-22T13:24:11.94Z</time></trkpt><trkpt lat="45.99165150956832" lon="12.129312017198156"><ele>597.0</ele><time>2026-03-22T13:24:13.941Z</time></trkpt><trkpt lat="45.99167587096805" lon="12.12941255799557"><ele>599.0</ele><time>2026-03-22T13:24:14.94Z</time></trkpt><trkpt lat="45.99168649895132" lon="12.129542648967318"><ele>601.0</ele><time>2026-03-22T13:24:15.94Z</time></trkpt><trkpt lat="45.99170731399418" lon="12.129657446376408"><ele>603.0</ele><time>2026-03-22T13:24:16.94Z</time></trkpt><trkpt lat="45.99173586701962" lon="12.129793642426451"><ele>605.0</ele><time>2026-03-22T13:24:18.941Z</time></trkpt><trkpt lat="45.99172791672219" lon="12.129930643262215"><ele>607.0</ele><time>2026-03-22T13:24:20.941Z</time></trkpt><trkpt lat="45.99165125630413" lon="12.129981506805462"><ele>603.1666666666667</ele><time>2026-03-22T13:24:21.941Z</time></trkpt><trkpt lat="45.99158830690113" lon="12.129920979961115"><ele>599.3333333333334</ele><time>2026-03-22T13:24:22.941Z</time></trkpt><trkpt lat="45.99156397610057" lon="12.12983651787382"><ele>595.5</ele><time>2026-03-22T13:24:23.941Z</time></trkpt><trkpt lat="45.99149902980154" lon="12.129684782366134"><ele>591.6666666666666</ele><time>2026-03-22T13:24:25.941Z</time></trkpt><trkpt lat="45.99145425137797" lon="12.129585454226087"><ele>587.8333333333333</ele><time>2026-03-22T13:24:26.941Z</time></trkpt><trkpt lat="45.99140025761042" lon="12.129476575287189"><ele>584.0</ele><time>2026-03-22T13:24:27.941Z</time></trkpt><trkpt lat="45.991340425137096" lon="12.129355564882617"><ele>584.0</ele><time>2026-03-22T13:24:28.941Z</time></trkpt><trkpt lat="45.9912783243164" lon="12.129235998945386"><ele>584.0</ele><time>2026-03-22T13:24:29.941Z</time></trkpt><trkpt lat="45.99121874978788" lon="12.129119087252755"><ele>584.0</ele><time>2026-03-22T13:24:30.941Z</time></trkpt><trkpt lat="45.99115625477442" lon="12.128998511762807"><ele>584.0</ele><time>2026-03-22T13:24:31.941Z</time></trkpt><trkpt lat="45.99108994797452" lon="12.128849037886198"><ele>584.0</ele><time>2026-03-22T13:24:32.941Z</time></trkpt><trkpt lat="45.99100180996049" lon="12.128755121932178"><ele>586.2</ele><time>2026-03-22T13:24:33.941Z</time></trkpt><trkpt lat="45.99093955707877" lon="12.12866602249142"><ele>588.4</ele><time>2026-03-22T13:24:34.94Z</time></trkpt><trkpt lat="45.99090142673246" lon="12.12857287935943"><ele>590.6</ele><time>2026-03-22T13:24:35.94Z</time></trkpt><trkpt lat="45.9908388793375" lon="12.128494730085"><ele>592.8</ele><time>2026-03-22T13:24:37.94Z</time></trkpt><trkpt lat="45.9907511017179" lon="12.12847376723252"><ele>595.0</ele><time>2026-03-22T13:24:39.94Z</time></trkpt><trkpt lat="45.990740442303476" lon="12.128678039693172"><ele>595.0</ele><time>2026-03-22T13:24:41.94Z</time></trkpt><trkpt lat="45.990776489011914" lon="12.128772381732992"><ele>595.0</ele><time>2026-03-22T13:24:42.94Z</time></trkpt><trkpt lat="45.99081120716186" lon="12.128863955332525"><ele>595.0</ele><time>2026-03-22T13:24:43.94Z</time></trkpt><trkpt lat="45.99084120137626" lon="12.128969299172976"><ele>595.0</ele><time>2026-03-22T13:24:44.94Z</time></trkpt><trkpt lat="45.99085281912732" lon="12.12907110931833"><ele>595.0</ele><time>2026-03-22T13:24:45.94Z</time></trkpt><trkpt lat="45.99085866007883" lon="12.12917344575639"><ele>595.0</ele><time>2026-03-22T13:24:46.94Z</time></trkpt><trkpt lat="45.990857737055904" lon="12.129269067205032"><ele>595.0</ele><time>2026-03-22T13:24:47.94Z</time></trkpt><trkpt lat="45.990858800810024" lon="12.129432020489158"><ele>592.8</ele><time>2026-03-22T13:24:48.94Z</time></trkpt><trkpt lat="45.99086275089816" lon="12.129565147995976"><ele>590.6</ele><time>2026-03-22T13:24:49.94Z</time></trkpt><trkpt lat="45.99086668571498" lon="12.12969769273156"><ele>588.4</ele><time>2026-03-22T13:24:50.94Z</time></trkpt><trkpt lat="45.99087242115217" lon="12.129832054932058"><ele>586.2</ele><time>2026-03-22T13:24:51.94Z</time></trkpt><trkpt lat="45.99088019635635" lon="12.1299685271726"><ele>584.0</ele><time>2026-03-22T13:24:52.94Z</time></trkpt><trkpt lat="45.99089558326302" lon="12.130095910005377"><ele>582.8</ele><time>2026-03-22T13:24:53.94Z</time></trkpt><trkpt lat="45.990903613857334" lon="12.130229255627475"><ele>581.5999999999999</ele><time>2026-03-22T13:24:54.94Z</time></trkpt><trkpt lat="45.99091947272464" lon="12.13033839301264"><ele>580.4</ele><time>2026-03-22T13:24:55.94Z</time></trkpt><trkpt lat="45.990915392862775" lon="12.130433390251207"><ele>579.1999999999999</ele><time>2026-03-22T13:24:56.94Z</time></trkpt><trkpt lat="45.990870020182044" lon="12.13056452822361"><ele>578.0</ele><time>2026-03-22T13:24:58.94Z</time></trkpt><trkpt lat="45.99075665639649" lon="12.13054314559505"><ele>572.0</ele><time>2026-03-22T13:25:00.94Z</time></trkpt><trkpt lat="45.99070745322784" lon="12.130465460222283"><ele>566.0</ele><time>2026-03-22T13:25:01.94Z</time></trkpt><trkpt lat="45.99065092527047" lon="12.130369497069408"><ele>560.0</ele><time>2026-03-22T13:25:02.94Z</time></trkpt><trkpt lat="45.9905882680591" lon="12.130260639144444"><ele>554.0</ele><time>2026-03-22T13:25:03.94Z</time></trkpt><trkpt lat="45.99051993809853" lon="12.130133350137488"><ele>548.0</ele><time>2026-03-22T13:25:04.94Z</time></trkpt><trkpt lat="45.99045844985781" lon="12.129992188921728"><ele>549.25</ele><time>2026-03-22T13:25:05.94Z</time></trkpt><trkpt lat="45.99039764732305" lon="12.129846724865923"><ele>550.5</ele><time>2026-03-22T13:25:06.94Z</time></trkpt><trkpt lat="45.99033376382615" lon="12.129698698274531"><ele>551.75</ele><time>2026-03-22T13:25:07.94Z</time></trkpt><trkpt lat="45.990263923150046" lon="12.129548590574315"><ele>553.0</ele><time>2026-03-22T13:25:08.94Z</time></trkpt><trkpt lat="45.990191443077904" lon="12.129392233440708"><ele>553.0</ele><time>2026-03-22T13:25:09.94Z</time></trkpt><trkpt lat="45.990128611155264" lon="12.12922694612535"><ele>553.0</ele><time>2026-03-22T13:25:10.94Z</time></trkpt><trkpt lat="45.99005763203121" lon="12.129071014659024"><ele>553.0</ele><time>2026-03-22T13:25:11.94Z</time></trkpt><trkpt lat="45.98999892201528" lon="12.128910855226211"><ele>553.0</ele><time>2026-03-22T13:25:12.94Z</time></trkpt><trkpt lat="45.98995393015524" lon="12.12874359625406"><ele>551.8</ele><time>2026-03-22T13:25:13.94Z</time></trkpt><trkpt lat="45.989927566245036" lon="12.128570884433962"><ele>550.5999999999999</ele><time>2026-03-22T13:25:14.94Z</time></trkpt><trkpt lat="45.98992167394623" lon="12.128420715285683"><ele>549.4000000000001</ele><time>2026-03-22T13:25:15.94Z</time></trkpt><trkpt lat="45.989942017807195" lon="12.12829330770053"><ele>548.2</ele><time>2026-03-22T13:25:16.94Z</time></trkpt><trkpt lat="45.989952277522114" lon="12.128170967541678"><ele>547.0</ele><time>2026-03-22T13:25:17.94Z</time></trkpt><trkpt lat="45.98993631353799" lon="12.128049857560129"><ele>547.0</ele><time>2026-03-22T13:25:18.94Z</time></trkpt><trkpt lat="45.98989338042298" lon="12.12792078431942"><ele>547.0</ele><time>2026-03-22T13:25:19.94Z</time></trkpt><trkpt lat="45.98980856497994" lon="12.127832764940578"><ele>547.0</ele><time>2026-03-22T13:25:20.94Z</time></trkpt><trkpt lat="45.989735916593524" lon="12.127725594270341"><ele>547.0</ele><time>2026-03-22T13:25:21.94Z</time></trkpt><trkpt lat="45.989665637508985" lon="12.127612345448517"><ele>547.0</ele><time>2026-03-22T13:25:22.94Z</time></trkpt><trkpt lat="45.98959058000762" lon="12.127507295700578"><ele>547.0</ele><time>2026-03-22T13:25:23.94Z</time></trkpt><trkpt lat="45.989518360445544" lon="12.127397495019117"><ele>547.0</ele><time>2026-03-22T13:25:24.94Z</time></trkpt><trkpt lat="45.98944846629523" lon="12.127286616270478"><ele>547.0</ele><time>2026-03-22T13:25:25.94Z</time></trkpt><trkpt lat="45.98938129290219" lon="12.127169374584335"><ele>547.0</ele><time>2026-03-22T13:25:26.94Z</time></trkpt><trkpt lat="45.98931928313631" lon="12.1270476439395"><ele>547.0</ele><time>2026-03-22T13:25:27.939Z</time></trkpt><trkpt lat="45.98927180638859" lon="12.12693883440494"><ele>541.5</ele><time>2026-03-22T13:25:28.939Z</time></trkpt><trkpt lat="45.98923721994717" lon="12.12684665583408"><ele>536.0</ele><time>2026-03-22T13:25:29.939Z</time></trkpt><trkpt lat="45.98918706256577" lon="12.12677862380894"><ele>530.5</ele><time>2026-03-22T13:25:32.939Z</time></trkpt><trkpt lat="45.989144424051524" lon="12.126695385846013"><ele>525.0</ele><time>2026-03-22T13:25:38.939Z</time></trkpt><trkpt lat="45.98911086541368" lon="12.127034248035516"><ele>525.0</ele><time>2026-03-22T13:25:43.939Z</time></trkpt><trkpt lat="45.98916881480263" lon="12.127208614311767"><ele>525.0</ele><time>2026-03-22T13:25:44.939Z</time></trkpt><trkpt lat="45.989218915876386" lon="12.127333465151855"><ele>525.0</ele><time>2026-03-22T13:25:45.939Z</time></trkpt><trkpt lat="45.989253595603934" lon="12.127478699078036"><ele>525.0</ele><time>2026-03-22T13:25:46.939Z</time></trkpt><trkpt lat="45.989321543315654" lon="12.127601494972204"><ele>529.4</ele><time>2026-03-22T13:25:47.939Z</time></trkpt><trkpt lat="45.98937768906157" lon="12.127719007655656"><ele>533.8</ele><time>2026-03-22T13:25:48.939Z</time></trkpt><trkpt lat="45.989403595694995" lon="12.127820973531486"><ele>538.2</ele><time>2026-03-22T13:25:49.939Z</time></trkpt><trkpt lat="45.98940655991362" lon="12.12796497944148"><ele>542.6</ele><time>2026-03-22T13:25:51.939Z</time></trkpt><trkpt lat="45.989306082068104" lon="12.1280913321877"><ele>547.0</ele><time>2026-03-22T13:25:53.939Z</time></trkpt><trkpt lat="45.98924006325741" lon="12.12816510320466"><ele>544.0</ele><time>2026-03-22T13:25:54.939Z</time></trkpt><trkpt lat="45.98917682508256" lon="12.128253107529407"><ele>541.0</ele><time>2026-03-22T13:25:55.939Z</time></trkpt><trkpt lat="45.98911647619247" lon="12.128351643409118"><ele>538.0</ele><time>2026-03-22T13:25:56.939Z</time></trkpt><trkpt lat="45.989058911444594" lon="12.128473017187542"><ele>535.0</ele><time>2026-03-22T13:25:57.939Z</time></trkpt><trkpt lat="45.9890184838423" lon="12.128603696234789"><ele>532.0</ele><time>2026-03-22T13:25:58.939Z</time></trkpt><trkpt lat="45.98901313820947" lon="12.128750974108266"><ele>527.6666666666667</ele><time>2026-03-22T13:25:59.939Z</time></trkpt><trkpt lat="45.98902486049358" lon="12.128859333282206"><ele>523.3333333333334</ele><time>2026-03-22T13:26:00.939Z</time></trkpt><trkpt lat="45.989037930407214" lon="12.128954268670643"><ele>519.0</ele><time>2026-03-22T13:26:02.939Z</time></trkpt><trkpt lat="45.988939851368706" lon="12.128903422502388"><ele>514.6666666666666</ele><time>2026-03-22T13:26:05.939Z</time></trkpt><trkpt lat="45.98891059849735" lon="12.128820048120506"><ele>510.3333333333333</ele><time>2026-03-22T13:26:06.939Z</time></trkpt><trkpt lat="45.988865932425306" lon="12.128722509219093"><ele>506.0</ele><time>2026-03-22T13:26:07.939Z</time></trkpt><trkpt lat="45.98880751559561" lon="12.1286286010717"><ele>506.0</ele><time>2026-03-22T13:26:08.939Z</time></trkpt><trkpt lat="45.98875058620085" lon="12.128525570336151"><ele>506.0</ele><time>2026-03-22T13:26:09.939Z</time></trkpt><trkpt lat="45.98868757448012" lon="12.128407905595399"><ele>506.0</ele><time>2026-03-22T13:26:10.939Z</time></trkpt><trkpt lat="45.98864253555286" lon="12.12826873141796"><ele>506.0</ele><time>2026-03-22T13:26:11.938Z</time></trkpt><trkpt lat="45.98861363812572" lon="12.128130463673658"><ele>506.0</ele><time>2026-03-22T13:26:12.938Z</time></trkpt><trkpt lat="45.988614082418955" lon="12.127996772495393"><ele>506.4</ele><time>2026-03-22T13:26:13.939Z</time></trkpt><trkpt lat="45.98863082358563" lon="12.1278878394761"><ele>506.8</ele><time>2026-03-22T13:26:14.938Z</time></trkpt><trkpt lat="45.98867832684789" lon="12.127806244460322"><ele>507.19999999999993</ele><time>2026-03-22T13:26:15.938Z</time></trkpt><trkpt lat="45.988758109839495" lon="12.127694812033038"><ele>507.59999999999997</ele><time>2026-03-22T13:26:17.939Z</time></trkpt><trkpt lat="45.98874136342233" lon="12.127514080310362"><ele>508.0</ele><time>2026-03-22T13:26:19.939Z</time></trkpt><trkpt lat="45.98868816177183" lon="12.127431567682263"><ele>510.83333333333337</ele><time>2026-03-22T13:26:20.938Z</time></trkpt><trkpt lat="45.98863475940899" lon="12.127360861115282"><ele>513.6666666666667</ele><time>2026-03-22T13:26:21.938Z</time></trkpt><trkpt lat="45.988586042302366" lon="12.127287701123771"><ele>516.5</ele><time>2026-03-22T13:26:22.939Z</time></trkpt><trkpt lat="45.988541667852104" lon="12.127203131818122"><ele>519.3333333333334</ele><time>2026-03-22T13:26:23.938Z</time></trkpt><trkpt lat="45.98852104196425" lon="12.127096495516598"><ele>522.1666666666666</ele><time>2026-03-22T13:26:24.938Z</time></trkpt><trkpt lat="45.988502539177574" lon="12.12699454706004"><ele>525.0</ele><time>2026-03-22T13:26:25.938Z</time></trkpt><trkpt lat="45.98847254996472" lon="12.12688018390214"><ele>525.0</ele><time>2026-03-22T13:26:26.938Z</time></trkpt><trkpt lat="45.98843383167665" lon="12.12678653608364"><ele>525.0</ele><time>2026-03-22T13:26:27.938Z</time></trkpt><trkpt lat="45.98840765848776" lon="12.126686454121538"><ele>525.0</ele><time>2026-03-22T13:26:28.938Z</time></trkpt><trkpt lat="45.98835958879633" lon="12.12660719562687"><ele>525.0</ele><time>2026-03-22T13:26:29.938Z</time></trkpt><trkpt lat="45.98829897359852" lon="12.126522362666387"><ele>525.0</ele><time>2026-03-22T13:26:30.938Z</time></trkpt><trkpt lat="45.988230912571034" lon="12.12643118311318"><ele>525.0</ele><time>2026-03-22T13:26:31.938Z</time></trkpt><trkpt lat="45.98815112458703" lon="12.12632221686174"><ele>524.0</ele><time>2026-03-22T13:26:32.938Z</time></trkpt><trkpt lat="45.988074443728" lon="12.126221666491695"><ele>523.0</ele><time>2026-03-22T13:26:33.938Z</time></trkpt><trkpt lat="45.988019917273505" lon="12.126083455326423"><ele>522.0</ele><time>2026-03-22T13:26:34.938Z</time></trkpt><trkpt lat="45.98796050626094" lon="12.125953956689635"><ele>521.0</ele><time>2026-03-22T13:26:35.938Z</time></trkpt><trkpt lat="45.98789863856251" lon="12.12582296970463"><ele>520.0</ele><time>2026-03-22T13:26:36.938Z</time></trkpt><trkpt lat="45.98782778210501" lon="12.125698658168712"><ele>520.0</ele><time>2026-03-22T13:26:37.938Z</time></trkpt><trkpt lat="45.98775718124335" lon="12.125576696521453"><ele>520.0</ele><time>2026-03-22T13:26:38.938Z</time></trkpt><trkpt lat="45.98768539951773" lon="12.125466434093685"><ele>520.0</ele><time>2026-03-22T13:26:39.938Z</time></trkpt><trkpt lat="45.98761390452523" lon="12.125354223490717"><ele>520.0</ele><time>2026-03-22T13:26:40.938Z</time></trkpt><trkpt lat="45.987544620502014" lon="12.12525050826824"><ele>520.0</ele><time>2026-03-22T13:26:41.938Z</time></trkpt><trkpt lat="45.98748029963919" lon="12.125144589597483"><ele>511.6666666666667</ele><time>2026-03-22T13:26:42.938Z</time></trkpt><trkpt lat="45.987421094770035" lon="12.12504104841338"><ele>503.33333333333337</ele><time>2026-03-22T13:26:43.938Z</time></trkpt><trkpt lat="45.98737357773431" lon="12.12494268212181"><ele>495.0</ele><time>2026-03-22T13:26:44.938Z</time></trkpt><trkpt lat="45.98734625424764" lon="12.124839276781463"><ele>486.66666666666663</ele><time>2026-03-22T13:26:45.938Z</time></trkpt><trkpt lat="45.98731280016122" lon="12.124756733949525"><ele>478.3333333333333</ele><time>2026-03-22T13:26:46.938Z</time></trkpt><trkpt lat="45.98732590576193" lon="12.124651394301317"><ele>470.0</ele><time>2026-03-22T13:26:47.938Z</time></trkpt><trkpt lat="45.987387525407826" lon="12.124512415325263"><ele>469.0</ele><time>2026-03-22T13:26:49.938Z</time></trkpt><trkpt lat="45.98744833392641" lon="12.124355900754876"><ele>468.0</ele><time>2026-03-22T13:26:51.938Z</time></trkpt><trkpt lat="45.98748066460642" lon="12.12425057413227"><ele>467.0</ele><time>2026-03-22T13:26:52.938Z</time></trkpt><trkpt lat="45.98753559882046" lon="12.124152633851061"><ele>466.0</ele><time>2026-03-22T13:26:53.938Z</time></trkpt><trkpt lat="45.987594779056266" lon="12.124050670115857"><ele>465.0</ele><time>2026-03-22T13:26:54.938Z</time></trkpt><trkpt lat="45.9876572577249" lon="12.123948900334709"><ele>470.8333333333333</ele><time>2026-03-22T13:26:55.938Z</time></trkpt><trkpt lat="45.98773013392952" lon="12.123872113647137"><ele>476.66666666666663</ele><time>2026-03-22T13:26:56.938Z</time></trkpt><trkpt lat="45.98778513994332" lon="12.123780045282624"><ele>482.5</ele><time>2026-03-22T13:26:57.938Z</time></trkpt><trkpt lat="45.98783428510024" lon="12.123674284589221"><ele>488.3333333333333</ele><time>2026-03-22T13:26:58.938Z</time></trkpt><trkpt lat="45.98787437146761" lon="12.123571936733045"><ele>494.16666666666663</ele><time>2026-03-22T13:26:59.938Z</time></trkpt><trkpt lat="45.98790559085268" lon="12.123462783963422"><ele>500.0</ele><time>2026-03-22T13:27:00.938Z</time></trkpt><trkpt lat="45.98793469906261" lon="12.123332052648598"><ele>495.8</ele><time>2026-03-22T13:27:01.938Z</time></trkpt><trkpt lat="45.98796467450018" lon="12.123204347467867"><ele>491.6</ele><time>2026-03-22T13:27:02.938Z</time></trkpt><trkpt lat="45.987986969708416" lon="12.123075248790052"><ele>487.4</ele><time>2026-03-22T13:27:03.938Z</time></trkpt><trkpt lat="45.9880088682516" lon="12.122952399551401"><ele>483.2</ele><time>2026-03-22T13:27:04.938Z</time></trkpt><trkpt lat="45.988033780213534" lon="12.1228250866659"><ele>479.0</ele><time>2026-03-22T13:27:05.938Z</time></trkpt><trkpt lat="45.98805024624154" lon="12.122691331857366"><ele>479.0</ele><time>2026-03-22T13:27:06.938Z</time></trkpt><trkpt lat="45.98806336780508" lon="12.12254106278045"><ele>479.0</ele><time>2026-03-22T13:27:07.938Z</time></trkpt><trkpt lat="45.9880809428312" lon="12.122395075095296"><ele>479.0</ele><time>2026-03-22T13:27:08.938Z</time></trkpt><trkpt lat="45.988083109888066" lon="12.12224939627664"><ele>479.0</ele><time>2026-03-22T13:27:09.938Z</time></trkpt><trkpt lat="45.988080371066545" lon="12.12211699589268"><ele>479.0</ele><time>2026-03-22T13:27:10.938Z</time></trkpt><trkpt lat="45.98806094653154" lon="12.122003007147187"><ele>476.66666666666663</ele><time>2026-03-22T13:27:11.937Z</time></trkpt><trkpt lat="45.98807397335334" lon="12.121890533578135"><ele>474.3333333333333</ele><time>2026-03-22T13:27:12.937Z</time></trkpt><trkpt lat="45.98809731960486" lon="12.121776327083838"><ele>472.0</ele><time>2026-03-22T13:27:13.937Z</time></trkpt><trkpt lat="45.98813061810334" lon="12.121657668443707"><ele>469.66666666666663</ele><time>2026-03-22T13:27:14.937Z</time></trkpt><trkpt lat="45.98815730350477" lon="12.121536435105032"><ele>467.3333333333333</ele><time>2026-03-22T13:27:15.937Z</time></trkpt><trkpt lat="45.98820154646363" lon="12.121417906884583"><ele>465.0</ele><time>2026-03-22T13:27:16.937Z</time></trkpt><trkpt lat="45.98824514422097" lon="12.121329850252966"><ele>464.4</ele><time>2026-03-22T13:27:17.937Z</time></trkpt><trkpt lat="45.98829595659537" lon="12.12124504770001"><ele>463.8</ele><time>2026-03-22T13:27:18.937Z</time></trkpt><trkpt lat="45.98837081891894" lon="12.121132497759039"><ele>463.20000000000005</ele><time>2026-03-22T13:27:20.937Z</time></trkpt><trkpt lat="45.98836177513154" lon="12.12101858416866"><ele>462.6</ele><time>2026-03-22T13:27:22.937Z</time></trkpt><trkpt lat="45.988325124325776" lon="12.120851756681114"><ele>462.0</ele><time>2026-03-22T13:27:24.937Z</time></trkpt><trkpt lat="45.98823608340106" lon="12.120818070681398"><ele>462.0</ele><time>2026-03-22T13:27:25.937Z</time></trkpt><trkpt lat="45.98813658251594" lon="12.120859452575612"><ele>462.00000000000006</ele><time>2026-03-22T13:27:26.937Z</time></trkpt><trkpt lat="45.98806611045463" lon="12.120929781155626"><ele>462.00000000000006</ele><time>2026-03-22T13:27:27.937Z</time></trkpt><trkpt lat="45.988001118324476" lon="12.121031052648966"><ele>462.0</ele><time>2026-03-22T13:27:28.937Z</time></trkpt><trkpt lat="45.987945370632794" lon="12.121143022210324"><ele>462.0</ele><time>2026-03-22T13:27:29.937Z</time></trkpt><trkpt lat="45.98789793913953" lon="12.121275341943315"><ele>462.0</ele><time>2026-03-22T13:27:30.937Z</time></trkpt><trkpt lat="45.9878594407209" lon="12.121422512126818"><ele>462.0</ele><time>2026-03-22T13:27:31.937Z</time></trkpt><trkpt lat="45.98779362826004" lon="12.12156071077186"><ele>462.0</ele><time>2026-03-22T13:27:32.937Z</time></trkpt><trkpt lat="45.98773010008715" lon="12.121724668169046"><ele>462.0</ele><time>2026-03-22T13:27:33.937Z</time></trkpt><trkpt lat="45.98767072439258" lon="12.121888865462568"><ele>462.75</ele><time>2026-03-22T13:27:34.937Z</time></trkpt><trkpt lat="45.98760218805865" lon="12.122047756776954"><ele>463.5</ele><time>2026-03-22T13:27:35.937Z</time></trkpt><trkpt lat="45.987523035965076" lon="12.122188194727212"><ele>464.25</ele><time>2026-03-22T13:27:36.937Z</time></trkpt><trkpt lat="45.98743521891348" lon="12.122333896795357"><ele>465.0</ele><time>2026-03-22T13:27:37.937Z</time></trkpt><trkpt lat="45.98734634627784" lon="12.122475351962404"><ele>458.25</ele><time>2026-03-22T13:27:38.937Z</time></trkpt><trkpt lat="45.9872545250523" lon="12.122605637705364"><ele>451.5</ele><time>2026-03-22T13:27:39.937Z</time></trkpt><trkpt lat="45.98715498902303" lon="12.122736982967862"><ele>444.75</ele><time>2026-03-22T13:27:40.937Z</time></trkpt><trkpt lat="45.98703428380743" lon="12.122845041375115"><ele>438.0</ele><time>2026-03-22T13:27:41.937Z</time></trkpt><trkpt lat="45.98691937959185" lon="12.122963887662111"><ele>438.0</ele><time>2026-03-22T13:27:42.937Z</time></trkpt><trkpt lat="45.986807734224904" lon="12.123060991486755"><ele>438.0</ele><time>2026-03-22T13:27:43.937Z</time></trkpt><trkpt lat="45.9867093334324" lon="12.123177697329583"><ele>438.0</ele><time>2026-03-22T13:27:44.937Z</time></trkpt><trkpt lat="45.98661437953651" lon="12.123279285208646"><ele>438.0</ele><time>2026-03-22T13:27:45.937Z</time></trkpt><trkpt lat="45.98653053039347" lon="12.123373108277034"><ele>433.59999999999997</ele><time>2026-03-22T13:27:46.937Z</time></trkpt><trkpt lat="45.98645514569641" lon="12.12346469952427"><ele>429.19999999999993</ele><time>2026-03-22T13:27:47.937Z</time></trkpt><trkpt lat="45.986378598752005" lon="12.123556460864865"><ele>424.8</ele><time>2026-03-22T13:27:48.937Z</time></trkpt><trkpt lat="45.98629401692443" lon="12.12364979153932"><ele>420.4</ele><time>2026-03-22T13:27:49.937Z</time></trkpt><trkpt lat="45.98620126778465" lon="12.123728490687224"><ele>416.0</ele><time>2026-03-22T13:27:50.937Z</time></trkpt><trkpt lat="45.98608507300497" lon="12.123795182865504"><ele>416.0</ele><time>2026-03-22T13:27:51.937Z</time></trkpt><trkpt lat="45.98595972099665" lon="12.123838979243045"><ele>416.0</ele><time>2026-03-22T13:27:52.937Z</time></trkpt><trkpt lat="45.98583149567424" lon="12.123886553525432"><ele>416.0</ele><time>2026-03-22T13:27:53.937Z</time></trkpt><trkpt lat="45.985715380682194" lon="12.123894065884084"><ele>416.0</ele><time>2026-03-22T13:27:54.937Z</time></trkpt><trkpt lat="45.9856103546569" lon="12.123891866730906"><ele>413.4</ele><time>2026-03-22T13:27:55.937Z</time></trkpt><trkpt lat="45.98551899803852" lon="12.123853052171194"><ele>410.8</ele><time>2026-03-22T13:27:56.937Z</time></trkpt><trkpt lat="45.985425069391304" lon="12.12383157416227"><ele>408.2</ele><time>2026-03-22T13:27:57.937Z</time></trkpt><trkpt lat="45.98532738657985" lon="12.123806033758687"><ele>405.59999999999997</ele><time>2026-03-22T13:27:58.937Z</time></trkpt><trkpt lat="45.985219992318356" lon="12.123802570829547"><ele>403.0</ele><time>2026-03-22T13:27:59.937Z</time></trkpt><trkpt lat="45.98511216876342" lon="12.123752457773715"><ele>401.59999999999997</ele><time>2026-03-22T13:28:00.936Z</time></trkpt><trkpt lat="45.98499829168295" lon="12.123723837079345"><ele>400.2</ele><time>2026-03-22T13:28:01.936Z</time></trkpt><trkpt lat="45.9848945598459" lon="12.123686538946531"><ele>398.8</ele><time>2026-03-22T13:28:02.936Z</time></trkpt><trkpt lat="45.98479300137522" lon="12.12363663716294"><ele>397.4</ele><time>2026-03-22T13:28:03.936Z</time></trkpt><trkpt lat="45.98471314693599" lon="12.123594568263012"><ele>396.0</ele><time>2026-03-22T13:28:04.936Z</time></trkpt><trkpt lat="45.98465137348867" lon="12.123566592351992"><ele>396.0</ele><time>2026-03-22T13:28:05.936Z</time></trkpt><trkpt lat="45.984537115370465" lon="12.123568852309804"><ele>396.0</ele><time>2026-03-22T13:28:07.936Z</time></trkpt><trkpt lat="45.98447779643836" lon="12.123599664104198"><ele>396.0</ele><time>2026-03-22T13:28:08.936Z</time></trkpt><trkpt lat="45.9844132790531" lon="12.123635563130081"><ele>396.0</ele><time>2026-03-22T13:28:09.936Z</time></trkpt><trkpt lat="45.98433373919855" lon="12.123672837093526"><ele>396.0</ele><time>2026-03-22T13:28:10.936Z</time></trkpt><trkpt lat="45.98424904819568" lon="12.123704047079496"><ele>396.0</ele><time>2026-03-22T13:28:11.936Z</time></trkpt><trkpt lat="45.98416022206113" lon="12.123729784472454"><ele>393.6</ele><time>2026-03-22T13:28:12.936Z</time></trkpt><trkpt lat="45.98406597040885" lon="12.12375074971039"><ele>391.20000000000005</ele><time>2026-03-22T13:28:13.936Z</time></trkpt><trkpt lat="45.98395714808113" lon="12.123774956044482"><ele>388.79999999999995</ele><time>2026-03-22T13:28:14.936Z</time></trkpt><trkpt lat="45.9838452171093" lon="12.12380265871195"><ele>386.4</ele><time>2026-03-22T13:28:15.936Z</time></trkpt><trkpt lat="45.983760312145456" lon="12.123842566625777"><ele>384.0</ele><time>2026-03-22T13:28:16.937Z</time></trkpt><trkpt lat="45.98368925251079" lon="12.123854898434866"><ele>384.0</ele><time>2026-03-22T13:28:17.937Z</time></trkpt><trkpt lat="45.98360671921019" lon="12.12385502058863"><ele>384.0</ele><time>2026-03-22T13:28:19.936Z</time></trkpt><trkpt lat="45.98353002196777" lon="12.12382198798447"><ele>384.0</ele><time>2026-03-22T13:28:57.936Z</time></trkpt><trkpt lat="45.983640266860164" lon="12.123736022477525"><ele>384.0</ele><time>2026-03-22T13:29:05.936Z</time></trkpt><trkpt lat="45.98363536542485" lon="12.123594485024825"><ele>384.0</ele><time>2026-03-22T13:29:07.936Z</time></trkpt><trkpt lat="45.98357391314085" lon="12.123465629153714"><ele>384.0</ele><time>2026-03-22T13:29:09.936Z</time></trkpt><trkpt lat="45.98349813195262" lon="12.12348979973975"><ele>384.0</ele><time>2026-03-22T13:29:10.936Z</time></trkpt><trkpt lat="45.98337489518677" lon="12.12351060338361"><ele>384.0</ele><time>2026-03-22T13:29:12.936Z</time></trkpt><trkpt lat="45.983301406242624" lon="12.123525934426159"><ele>384.0</ele><time>2026-03-22T13:29:13.936Z</time></trkpt><trkpt lat="45.98322345220394" lon="12.123516039400457"><ele>384.0</ele><time>2026-03-22T13:29:14.936Z</time></trkpt><trkpt lat="45.98314454689419" lon="12.123527916208634"><ele>384.0</ele><time>2026-03-22T13:29:15.936Z</time></trkpt><trkpt lat="45.98306605970478" lon="12.123539730093535"><ele>382.5</ele><time>2026-03-22T13:29:16.935Z</time></trkpt><trkpt lat="45.9829926291758" lon="12.123545866051515"><ele>381.0</ele><time>2026-03-22T13:29:17.935Z</time></trkpt><trkpt lat="45.98292359249464" lon="12.123571118059019"><ele>379.5</ele><time>2026-03-22T13:29:18.935Z</time></trkpt><trkpt lat="45.98280998998309" lon="12.123543692828054"><ele>378.0</ele><time>2026-03-22T13:29:20.935Z</time></trkpt><trkpt lat="45.982749676277905" lon="12.123494233667339"><ele>376.5</ele><time>2026-03-22T13:29:21.935Z</time></trkpt><trkpt lat="45.98273232429832" lon="12.123388990878803"><ele>375.0</ele><time>2026-03-22T13:29:22.935Z</time></trkpt><trkpt lat="45.982664787519624" lon="12.123239721796836"><ele>375.5</ele><time>2026-03-22T13:29:24.935Z</time></trkpt><trkpt lat="45.98262713031659" lon="12.123141242912215"><ele>376.0</ele><time>2026-03-22T13:29:25.935Z</time></trkpt><trkpt lat="45.98258644520031" lon="12.123039100319602"><ele>376.5</ele><time>2026-03-22T13:29:26.935Z</time></trkpt><trkpt lat="45.98253771360806" lon="12.122947172776144"><ele>377.0</ele><time>2026-03-22T13:29:27.935Z</time></trkpt><trkpt lat="45.98247429748485" lon="12.122852389817782"><ele>377.5</ele><time>2026-03-22T13:29:28.935Z</time></trkpt><trkpt lat="45.982409432634135" lon="12.122780287040381"><ele>378.0</ele><time>2026-03-22T13:29:29.935Z</time></trkpt><trkpt lat="45.9823417286579" lon="12.122724764245728"><ele>378.0</ele><time>2026-03-22T13:29:30.935Z</time></trkpt><trkpt lat="45.98227475628108" lon="12.122676274900119"><ele>378.0</ele><time>2026-03-22T13:29:31.935Z</time></trkpt><trkpt lat="45.98219776256243" lon="12.122624400825895"><ele>378.0</ele><time>2026-03-22T13:29:32.935Z</time></trkpt><trkpt lat="45.982125575870604" lon="12.122584870386008"><ele>378.0</ele><time>2026-03-22T13:29:33.935Z</time></trkpt><trkpt lat="45.982043174157106" lon="12.12256619223501"><ele>378.0</ele><time>2026-03-22T13:29:34.935Z</time></trkpt><trkpt lat="45.981965874741896" lon="12.12250080240283"><ele>378.0</ele><time>2026-03-22T13:29:35.935Z</time></trkpt><trkpt lat="45.981883397614546" lon="12.122459838557823"><ele>378.0</ele><time>2026-03-22T13:29:36.935Z</time></trkpt><trkpt lat="45.98181723650922" lon="12.122424033379664"><ele>378.0</ele><time>2026-03-22T13:29:37.935Z</time></trkpt><trkpt lat="45.981756283217365" lon="12.12239883130695"><ele>378.0</ele><time>2026-03-22T13:29:38.935Z</time></trkpt><trkpt lat="45.98170356124962" lon="12.122341345086895"><ele>378.0</ele><time>2026-03-22T13:29:39.935Z</time></trkpt><trkpt lat="45.98165929259182" lon="12.122179753392702"><ele>378.0</ele><time>2026-03-22T13:29:41.935Z</time></trkpt><trkpt lat="45.981656443307486" lon="12.122068964559713"><ele>378.0</ele><time>2026-03-22T13:29:42.935Z</time></trkpt><trkpt lat="45.98166575041797" lon="12.121955234781042"><ele>378.6666666666667</ele><time>2026-03-22T13:29:43.935Z</time></trkpt><trkpt lat="45.981676773144166" lon="12.121836817366905"><ele>379.3333333333333</ele><time>2026-03-22T13:29:44.935Z</time></trkpt><trkpt lat="45.9816763802356" lon="12.121720759458416"><ele>380.0</ele><time>2026-03-22T13:29:45.935Z</time></trkpt><trkpt lat="45.981652306800264" lon="12.121612488158295"><ele>380.66666666666663</ele><time>2026-03-22T13:29:46.935Z</time></trkpt><trkpt lat="45.98162088783235" lon="12.121528527178885"><ele>381.3333333333333</ele><time>2026-03-22T13:29:47.935Z</time></trkpt><trkpt lat="45.98155185381757" lon="12.121429622892906"><ele>382.0</ele><time>2026-03-22T13:29:49.935Z</time></trkpt><trkpt lat="45.98150942392916" lon="12.12133217429226"><ele>385.3333333333333</ele><time>2026-03-22T13:30:04.935Z</time></trkpt><trkpt lat="45.98157308702682" lon="12.12139271682228"><ele>388.66666666666663</ele><time>2026-03-22T13:30:09.934Z</time></trkpt><trkpt lat="45.9816515895584" lon="12.121465265682978"><ele>392.0</ele><time>2026-03-22T13:30:11.934Z</time></trkpt><trkpt lat="45.98174635845994" lon="12.121549314675855"><ele>395.3333333333333</ele><time>2026-03-22T13:30:13.934Z</time></trkpt><trkpt lat="45.98180497697314" lon="12.12159804680252"><ele>398.6666666666667</ele><time>2026-03-22T13:30:14.934Z</time></trkpt><trkpt lat="45.98186777111871" lon="12.121648739204876"><ele>402.0</ele><time>2026-03-22T13:30:15.934Z</time></trkpt><trkpt lat="45.98193055994701" lon="12.12169116111814"><ele>402.0</ele><time>2026-03-22T13:30:16.934Z</time></trkpt><trkpt lat="45.9819989349443" lon="12.121730407097067"><ele>402.0</ele><time>2026-03-22T13:30:17.934Z</time></trkpt><trkpt lat="45.9820685206542" lon="12.121774695869766"><ele>402.0</ele><time>2026-03-22T13:30:18.934Z</time></trkpt><trkpt lat="45.98213730775832" lon="12.121812561838814"><ele>402.0</ele><time>2026-03-22T13:30:19.934Z</time></trkpt><trkpt lat="45.982206362152354" lon="12.121854234921143"><ele>402.0</ele><time>2026-03-22T13:30:20.934Z</time></trkpt><trkpt lat="45.982276880481365" lon="12.12189910590544"><ele>402.0</ele><time>2026-03-22T13:30:21.934Z</time></trkpt><trkpt lat="45.982348591186835" lon="12.121936255485073"><ele>402.0</ele><time>2026-03-22T13:30:22.934Z</time></trkpt><trkpt lat="45.982415371537385" lon="12.121947886238004"><ele>402.0</ele><time>2026-03-22T13:30:23.934Z</time></trkpt><trkpt lat="45.98247871286087" lon="12.121951586980432"><ele>402.0</ele><time>2026-03-22T13:30:24.934Z</time></trkpt><trkpt lat="45.98259867518568" lon="12.121972642110514"><ele>402.0</ele><time>2026-03-22T13:30:26.934Z</time></trkpt><trkpt lat="45.98265946801205" lon="12.121998347038641"><ele>402.0</ele><time>2026-03-22T13:30:27.934Z</time></trkpt><trkpt lat="45.98272380012409" lon="12.122023927300923"><ele>402.0</ele><time>2026-03-22T13:30:28.934Z</time></trkpt><trkpt lat="45.98282583925754" lon="12.122079764325719"><ele>404.5</ele><time>2026-03-22T13:30:30.933Z</time></trkpt><trkpt lat="45.982890253684424" lon="12.12210363474463"><ele>407.0</ele><time>2026-03-22T13:30:32.934Z</time></trkpt><trkpt lat="45.982967114654336" lon="12.122090950797928"><ele>409.5</ele><time>2026-03-22T13:30:37.933Z</time></trkpt><trkpt lat="45.98299037054359" lon="12.12197442114198"><ele>412.0</ele><time>2026-03-22T13:30:39.933Z</time></trkpt><trkpt lat="45.98297214085284" lon="12.121846550058034"><ele>414.5</ele><time>2026-03-22T13:30:41.933Z</time></trkpt><trkpt lat="45.98292441364328" lon="12.121787278577273"><ele>417.0</ele><time>2026-03-22T13:30:42.933Z</time></trkpt><trkpt lat="45.9828608641621" lon="12.12173978990479"><ele>417.0</ele><time>2026-03-22T13:30:43.933Z</time></trkpt><trkpt lat="45.98280092769129" lon="12.121700014755561"><ele>417.0</ele><time>2026-03-22T13:30:44.933Z</time></trkpt><trkpt lat="45.98273862831749" lon="12.121658289741728"><ele>417.0</ele><time>2026-03-22T13:30:45.933Z</time></trkpt><trkpt lat="45.98264921487765" lon="12.121534028662447"><ele>417.0</ele><time>2026-03-22T13:30:47.933Z</time></trkpt><trkpt lat="45.98260940849353" lon="12.121452020740232"><ele>417.0</ele><time>2026-03-22T13:30:48.933Z</time></trkpt><trkpt lat="45.98256678750249" lon="12.121351366330412"><ele>417.0</ele><time>2026-03-22T13:30:49.933Z</time></trkpt><trkpt lat="45.98253327796951" lon="12.12125556541797"><ele>418.0</ele><time>2026-03-22T13:30:50.933Z</time></trkpt><trkpt lat="45.982496627192276" lon="12.121177958824388"><ele>419.0</ele><time>2026-03-22T13:30:51.933Z</time></trkpt><trkpt lat="45.98245721255766" lon="12.121100031188579"><ele>420.0</ele><time>2026-03-22T13:30:52.933Z</time></trkpt><trkpt lat="45.98240773458479" lon="12.121021435566032"><ele>421.0</ele><time>2026-03-22T13:30:53.933Z</time></trkpt><trkpt lat="45.98234708945801" lon="12.120959850555694"><ele>422.0</ele><time>2026-03-22T13:30:54.933Z</time></trkpt><trkpt lat="45.982288639123155" lon="12.120918957572897"><ele>423.0</ele><time>2026-03-22T13:30:55.933Z</time></trkpt><trkpt lat="45.98218925533397" lon="12.120837927570586"><ele>423.0</ele><time>2026-03-22T13:30:57.933Z</time></trkpt><trkpt lat="45.98213999146359" lon="12.120781066300248"><ele>423.0</ele><time>2026-03-22T13:30:58.933Z</time></trkpt><trkpt lat="45.98209215540339" lon="12.12071903792916"><ele>423.0</ele><time>2026-03-22T13:30:59.933Z</time></trkpt><trkpt lat="45.982034246735836" lon="12.120672377074985"><ele>423.0</ele><time>2026-03-22T13:31:00.933Z</time></trkpt><trkpt lat="45.981949502937056" lon="12.120530485865043"><ele>423.0</ele><time>2026-03-22T13:31:02.933Z</time></trkpt><trkpt lat="45.98189475100724" lon="12.120467379708286"><ele>423.0</ele><time>2026-03-22T13:31:03.933Z</time></trkpt><trkpt lat="45.981837785861444" lon="12.120403498984258"><ele>423.5</ele><time>2026-03-22T13:31:04.933Z</time></trkpt><trkpt lat="45.98178470251643" lon="12.120345358487764"><ele>424.0</ele><time>2026-03-22T13:31:05.933Z</time></trkpt><trkpt lat="45.98169635983528" lon="12.120254568516152"><ele>424.5</ele><time>2026-03-22T13:31:07.933Z</time></trkpt><trkpt lat="45.98164348831099" lon="12.120174591596307"><ele>425.0</ele><time>2026-03-22T13:31:09.933Z</time></trkpt><trkpt lat="45.98158570858993" lon="12.120102303661268"><ele>425.5</ele><time>2026-03-22T13:31:11.933Z</time></trkpt><trkpt lat="45.98153634794064" lon="12.120031878309335"><ele>426.0</ele><time>2026-03-22T13:31:13.933Z</time></trkpt><trkpt lat="45.981489595258466" lon="12.119955653638879"><ele>425.99999999999994</ele><time>2026-03-22T13:31:21.933Z</time></trkpt><trkpt lat="45.981450916140346" lon="12.119881653523182"><ele>426.0</ele><time>2026-03-22T13:31:25.933Z</time></trkpt><trkpt lat="45.9815039230196" lon="12.119989297074365"><ele>426.0</ele><time>2026-03-22T13:31:54.932Z</time></trkpt><trkpt lat="45.98146319003375" lon="12.119905306868356"><ele>426.0</ele><time>2026-03-22T13:32:54.932Z</time></trkpt><trkpt lat="45.981416222346574" lon="12.119835483044053"><ele>426.0</ele><time>2026-03-22T13:33:39.931Z</time></trkpt><trkpt lat="45.981383910236644" lon="12.119757100826154"><ele>425.99999999999994</ele><time>2026-03-22T13:33:48.931Z</time></trkpt><trkpt lat="45.98134210127293" lon="12.119671299101189"><ele>426.0</ele><time>2026-03-22T13:33:54.931Z</time></trkpt><trkpt lat="45.98130961236689" lon="12.119585305791237"><ele>428.57142857142856</ele><time>2026-03-22T13:34:00.931Z</time></trkpt><trkpt lat="45.98127866289317" lon="12.119501648490347"><ele>431.1428571428571</ele><time>2026-03-22T13:34:06.931Z</time></trkpt><trkpt lat="45.981257203249804" lon="12.11941411467535"><ele>433.71428571428567</ele><time>2026-03-22T13:34:13.93Z</time></trkpt><trkpt lat="45.98121437352036" lon="12.119336181819337"><ele>436.2857142857143</ele><time>2026-03-22T13:34:19.93Z</time></trkpt><trkpt lat="45.98117778517514" lon="12.11925464945527"><ele>438.8571428571429</ele><time>2026-03-22T13:34:26.93Z</time></trkpt><trkpt lat="45.98116300791894" lon="12.119159439115657"><ele>441.4285714285714</ele><time>2026-03-22T13:34:31.93Z</time></trkpt><trkpt lat="45.981132049632656" lon="12.11907879942111"><ele>444.0</ele><time>2026-03-22T13:34:38.931Z</time></trkpt><trkpt lat="45.981109262123226" lon="12.118986465569824"><ele>446.57142857142856</ele><time>2026-03-22T13:34:45.931Z</time></trkpt><trkpt lat="45.981060456932894" lon="12.118910804642667"><ele>449.14285714285717</ele><time>2026-03-22T13:34:53.931Z</time></trkpt><trkpt lat="45.981036862781046" lon="12.118819449621501"><ele>451.7142857142857</ele><time>2026-03-22T13:35:00.931Z</time></trkpt><trkpt lat="45.98109428706789" lon="12.118775940127035"><ele>454.2857142857143</ele><time>2026-03-22T13:35:08.931Z</time></trkpt><trkpt lat="45.98114997490724" lon="12.118830521965355"><ele>456.8571428571429</ele><time>2026-03-22T13:35:15.931Z</time></trkpt><trkpt lat="45.98119185332758" lon="12.118911507591706"><ele>459.42857142857144</ele><time>2026-03-22T13:35:23.931Z</time></trkpt><trkpt lat="45.98125439200066" lon="12.118970978999261"><ele>462.0</ele><time>2026-03-22T13:35:31.931Z</time></trkpt><trkpt lat="45.98130989689403" lon="12.119027732386183"><ele>462.0</ele><time>2026-03-22T13:35:38.93Z</time></trkpt><trkpt lat="45.98137176019429" lon="12.119061352399477"><ele>462.0</ele><time>2026-03-22T13:35:42.93Z</time></trkpt><trkpt lat="45.98142697179339" lon="12.119112482352083"><ele>462.0</ele><time>2026-03-22T13:35:46.93Z</time></trkpt><trkpt lat="45.9814690034448" lon="12.11919166495882"><ele>462.0</ele><time>2026-03-22T13:35:54.93Z</time></trkpt><trkpt lat="45.98148864482667" lon="12.119283194639184"><ele>462.0</ele><time>2026-03-22T13:36:01.93Z</time></trkpt><trkpt lat="45.98152195191057" lon="12.11936425891823"><ele>462.0</ele><time>2026-03-22T13:36:07.93Z</time></trkpt><trkpt lat="45.981572539222725" lon="12.119424229821243"><ele>462.0</ele><time>2026-03-22T13:36:14.93Z</time></trkpt><trkpt lat="45.981615580338705" lon="12.11949555722076"><ele>464.3333333333333</ele><time>2026-03-22T13:36:20.93Z</time></trkpt><trkpt lat="45.981665507606145" lon="12.119558665652411"><ele>466.66666666666663</ele><time>2026-03-22T13:36:26.93Z</time></trkpt><trkpt lat="45.98172208662037" lon="12.119616949784534"><ele>469.0</ele><time>2026-03-22T13:36:32.929Z</time></trkpt><trkpt lat="45.98176448223131" lon="12.119690253646569"><ele>471.3333333333333</ele><time>2026-03-22T13:36:37.929Z</time></trkpt><trkpt lat="45.981807088863604" lon="12.119615528039672"><ele>473.66666666666663</ele><time>2026-03-22T13:36:51.931Z</time></trkpt><trkpt lat="45.98187216006332" lon="12.119613159614714"><ele>476.0</ele><time>2026-03-22T13:36:57.93Z</time></trkpt><trkpt lat="45.98205434813445" lon="12.119470180400953"><ele>476.0</ele><time>2026-03-22T13:37:16.93Z</time></trkpt><trkpt lat="45.98196759229924" lon="12.119475109077742"><ele>476.0</ele><time>2026-03-22T13:37:19.93Z</time></trkpt><trkpt lat="45.981893600336065" lon="12.119507634704028"><ele>476.0</ele><time>2026-03-22T13:37:21.93Z</time></trkpt><trkpt lat="45.98186854828628" lon="12.119609445655772"><ele>476.0</ele><time>2026-03-22T13:37:22.93Z</time></trkpt><trkpt lat="45.981791046882584" lon="12.119622760386084"><ele>476.0</ele><time>2026-03-22T13:37:24.929Z</time></trkpt><trkpt lat="45.98172305843028" lon="12.119605942209418"><ele>476.0</ele><time>2026-03-22T13:37:30.929Z</time></trkpt><trkpt lat="45.98168066707734" lon="12.119538535583153"><ele>476.0</ele><time>2026-03-22T13:37:37.929Z</time></trkpt><trkpt lat="45.9816222131482" lon="12.11945872696874"><ele>474.0</ele><time>2026-03-22T13:37:43.929Z</time></trkpt><trkpt lat="45.98155796300085" lon="12.119400137714116"><ele>472.0</ele><time>2026-03-22T13:37:51.929Z</time></trkpt><trkpt lat="45.98151815653205" lon="12.119315748759826"><ele>470.0</ele><time>2026-03-22T13:37:57.929Z</time></trkpt><trkpt lat="45.98148435237817" lon="12.119217346240093"><ele>468.0</ele><time>2026-03-22T13:38:03.929Z</time></trkpt><trkpt lat="45.98142987177481" lon="12.119159588590222"><ele>466.0</ele><time>2026-03-22T13:38:07.929Z</time></trkpt><trkpt lat="45.98137964281273" lon="12.11910396038908"><ele>464.0</ele><time>2026-03-22T13:38:13.929Z</time></trkpt><trkpt lat="45.98131410693926" lon="12.119041271669634"><ele>462.0</ele><time>2026-03-22T13:38:19.928Z</time></trkpt><trkpt lat="45.981259328851145" lon="12.118980642589081"><ele>462.0</ele><time>2026-03-22T13:38:24.928Z</time></trkpt><trkpt lat="45.98121552228229" lon="12.1188933066976"><ele>462.0</ele><time>2026-03-22T13:38:30.928Z</time></trkpt><trkpt lat="45.98117056109053" lon="12.11881262307954"><ele>462.0</ele><time>2026-03-22T13:38:35.928Z</time></trkpt><trkpt lat="45.98112707046194" lon="12.118745938050319"><ele>462.0</ele><time>2026-03-22T13:38:40.928Z</time></trkpt><trkpt lat="45.981075099554744" lon="12.118683644267321"><ele>462.0</ele><time>2026-03-22T13:38:45.928Z</time></trkpt><trkpt lat="45.98105948496851" lon="12.118784775914982"><ele>462.0</ele><time>2026-03-22T13:39:26.953Z</time></trkpt><trkpt lat="45.98109798207581" lon="12.118872807887671"><ele>462.0</ele><time>2026-03-22T13:39:32.955Z</time></trkpt><trkpt lat="45.98112454789329" lon="12.118955415874554"><ele>462.0</ele><time>2026-03-22T13:39:37.955Z</time></trkpt><trkpt lat="45.98116099554145" lon="12.119052002082594"><ele>462.0</ele><time>2026-03-22T13:39:45.956Z</time></trkpt><trkpt lat="45.981190677551254" lon="12.119135410273394"><ele>462.0</ele><time>2026-03-22T13:39:52.957Z</time></trkpt><trkpt lat="45.98121436550257" lon="12.119231719541602"><ele>462.0</ele><time>2026-03-22T13:39:58.957Z</time></trkpt><trkpt lat="45.98126028192827" lon="12.119299288417315"><ele>462.0</ele><time>2026-03-22T13:40:03.957Z</time></trkpt><trkpt lat="45.981312336388115" lon="12.119383947900705"><ele>462.0</ele><time>2026-03-22T13:40:14.957Z</time></trkpt><trkpt lat="45.98132691987205" lon="12.119480148359083"><ele>462.0</ele><time>2026-03-22T13:40:22.957Z</time></trkpt><trkpt lat="45.98134852504668" lon="12.119582877172238"><ele>459.42857142857144</ele><time>2026-03-22T13:40:28.957Z</time></trkpt><trkpt lat="45.98137563272258" lon="12.119675871803198"><ele>456.8571428571429</ele><time>2026-03-22T13:40:34.957Z</time></trkpt><trkpt lat="45.98140779779292" lon="12.119768217348158"><ele>454.2857142857143</ele><time>2026-03-22T13:40:40.957Z</time></trkpt><trkpt lat="45.98145558715482" lon="12.119830328037395"><ele>451.7142857142857</ele><time>2026-03-22T13:40:46.957Z</time></trkpt><trkpt lat="45.981463124802566" lon="12.119935889744749"><ele>449.14285714285717</ele><time>2026-03-22T13:40:52.959Z</time></trkpt><trkpt lat="45.98152932122042" lon="12.119998001539024"><ele>446.57142857142856</ele><time>2026-03-22T13:41:52.958Z</time></trkpt><trkpt lat="45.981533278760665" lon="12.120094187200486"><ele>444.0</ele><time>2026-03-22T13:41:54.958Z</time></trkpt><trkpt lat="45.981590607891654" lon="12.120172618790374"><ele>445.2</ele><time>2026-03-22T13:41:57.958Z</time></trkpt><trkpt lat="45.98164793936867" lon="12.120244777415355"><ele>446.4</ele><time>2026-03-22T13:41:59.958Z</time></trkpt><trkpt lat="45.98170878201238" lon="12.120318864214182"><ele>447.6</ele><time>2026-03-22T13:42:01.958Z</time></trkpt><trkpt lat="45.981815809243365" lon="12.120410244145983"><ele>448.8</ele><time>2026-03-22T13:42:03.958Z</time></trkpt><trkpt lat="45.981867750537596" lon="12.120471256452387"><ele>450.0</ele><time>2026-03-22T13:42:04.958Z</time></trkpt><trkpt lat="45.98196456854209" lon="12.120586561061998"><ele>450.0</ele><time>2026-03-22T13:42:06.958Z</time></trkpt><trkpt lat="45.98204955295033" lon="12.120709675178604"><ele>450.0</ele><time>2026-03-22T13:42:08.958Z</time></trkpt><trkpt lat="45.9820901769249" lon="12.120797265730493"><ele>450.0</ele><time>2026-03-22T13:42:10.958Z</time></trkpt><trkpt lat="45.98214080160697" lon="12.120862589668384"><ele>450.0</ele><time>2026-03-22T13:42:16.958Z</time></trkpt><trkpt lat="45.982199372090044" lon="12.120921030210557"><ele>450.0</ele><time>2026-03-22T13:42:21.958Z</time></trkpt><trkpt lat="45.98225381004489" lon="12.120974329959845"><ele>450.0</ele><time>2026-03-22T13:42:35.957Z</time></trkpt><trkpt lat="45.982310998534295" lon="12.121040424000919"><ele>450.0</ele><time>2026-03-22T13:42:39.957Z</time></trkpt><trkpt lat="45.98238504870809" lon="12.121086327360375"><ele>450.0</ele><time>2026-03-22T13:42:42.957Z</time></trkpt><trkpt lat="45.98243459744164" lon="12.121147459897399"><ele>450.0</ele><time>2026-03-22T13:42:44.957Z</time></trkpt><trkpt lat="45.98249095596143" lon="12.121285865619765"><ele>450.0</ele><time>2026-03-22T13:42:46.957Z</time></trkpt><trkpt lat="45.98256349191081" lon="12.121419266704283"><ele>450.0</ele><time>2026-03-22T13:42:48.957Z</time></trkpt><trkpt lat="45.98260582796784" lon="12.121506053321745"><ele>450.0</ele><time>2026-03-22T13:42:49.957Z</time></trkpt><trkpt lat="45.9826437811991" lon="12.121598282401548"><ele>444.5</ele><time>2026-03-22T13:42:50.957Z</time></trkpt><trkpt lat="45.98269470177716" lon="12.121673245224136"><ele>439.0</ele><time>2026-03-22T13:42:51.957Z</time></trkpt><trkpt lat="45.982765624720656" lon="12.121729196304901"><ele>433.5</ele><time>2026-03-22T13:42:52.957Z</time></trkpt><trkpt lat="45.98282951468991" lon="12.121771595131808"><ele>428.0</ele><time>2026-03-22T13:42:53.957Z</time></trkpt><trkpt lat="45.98289393606625" lon="12.121790568090654"><ele>422.5</ele><time>2026-03-22T13:42:54.957Z</time></trkpt><trkpt lat="45.98296137215027" lon="12.121910535534651"><ele>417.0</ele><time>2026-03-22T13:42:56.957Z</time></trkpt><trkpt lat="45.98296089572449" lon="12.122012117990412"><ele>417.0</ele><time>2026-03-22T13:42:58.959Z</time></trkpt><trkpt lat="45.982872304563585" lon="12.122070217570073"><ele>417.0</ele><time>2026-03-22T13:43:01.958Z</time></trkpt><trkpt lat="45.982790030384756" lon="12.122015255803982"><ele>417.0</ele><time>2026-03-22T13:43:03.958Z</time></trkpt><trkpt lat="45.98272795527733" lon="12.12199074660403"><ele>417.0</ele><time>2026-03-22T13:43:04.959Z</time></trkpt><trkpt lat="45.98265676896814" lon="12.12196264002981"><ele>417.0</ele><time>2026-03-22T13:43:05.958Z</time></trkpt><trkpt lat="45.982586209355205" lon="12.121935060699977"><ele>417.0</ele><time>2026-03-22T13:43:06.958Z</time></trkpt><trkpt lat="45.982514568843605" lon="12.121908478442984"><ele>414.0</ele><time>2026-03-22T13:43:07.959Z</time></trkpt><trkpt lat="45.98243563970232" lon="12.121885293919425"><ele>411.0</ele><time>2026-03-22T13:43:08.958Z</time></trkpt><trkpt lat="45.98235395948577" lon="12.121883406428994"><ele>408.0</ele><time>2026-03-22T13:43:09.958Z</time></trkpt><trkpt lat="45.982267106334625" lon="12.12183314887243"><ele>405.0</ele><time>2026-03-22T13:43:10.958Z</time></trkpt><trkpt lat="45.982174535897265" lon="12.121784258974479"><ele>402.0</ele><time>2026-03-22T13:43:11.958Z</time></trkpt><trkpt lat="45.98208363499311" lon="12.12173071233251"><ele>402.0</ele><time>2026-03-22T13:43:12.958Z</time></trkpt><trkpt lat="45.98198853223601" lon="12.12168038064168"><ele>402.0</ele><time>2026-03-22T13:43:13.958Z</time></trkpt><trkpt lat="45.981904127894865" lon="12.121600709021008"><ele>402.0</ele><time>2026-03-22T13:43:14.958Z</time></trkpt><trkpt lat="45.98180542186423" lon="12.121553662672861"><ele>402.0</ele><time>2026-03-22T13:43:15.958Z</time></trkpt><trkpt lat="45.98173214438006" lon="12.121481703607603"><ele>402.0</ele><time>2026-03-22T13:43:16.958Z</time></trkpt><trkpt lat="45.98167019540536" lon="12.121422845113273"><ele>402.1666666666667</ele><time>2026-03-22T13:43:17.958Z</time></trkpt><trkpt lat="45.98164074777537" lon="12.121340036178527"><ele>402.33333333333337</ele><time>2026-03-22T13:43:18.958Z</time></trkpt><trkpt lat="45.98157710159529" lon="12.121255785458597"><ele>402.5</ele><time>2026-03-22T13:43:20.958Z</time></trkpt><trkpt lat="45.98148844332208" lon="12.12118944782358"><ele>402.6666666666667</ele><time>2026-03-22T13:43:22.958Z</time></trkpt><trkpt lat="45.98143227448486" lon="12.121145606090035"><ele>402.83333333333337</ele><time>2026-03-22T13:43:23.958Z</time></trkpt><trkpt lat="45.98139187607597" lon="12.121074955061317"><ele>403.0</ele><time>2026-03-22T13:43:24.958Z</time></trkpt><trkpt lat="45.98131184114327" lon="12.120923514859749"><ele>403.00000000000006</ele><time>2026-03-22T13:43:26.958Z</time></trkpt><trkpt lat="45.98126424599957" lon="12.12083076116086"><ele>403.0</ele><time>2026-03-22T13:43:27.958Z</time></trkpt><trkpt lat="45.98121870537538" lon="12.120726650796914"><ele>403.0</ele><time>2026-03-22T13:43:28.958Z</time></trkpt><trkpt lat="45.98117389590104" lon="12.120620984177442"><ele>403.0</ele><time>2026-03-22T13:43:29.958Z</time></trkpt><trkpt lat="45.981134516715585" lon="12.120537937245317"><ele>403.00000000000006</ele><time>2026-03-22T13:43:30.958Z</time></trkpt><trkpt lat="45.98104130106413" lon="12.120414458450215"><ele>403.0</ele><time>2026-03-22T13:43:32.958Z</time></trkpt><trkpt lat="45.98091860229502" lon="12.1204084185428"><ele>403.79999999999995</ele><time>2026-03-22T13:43:34.958Z</time></trkpt><trkpt lat="45.98084369807047" lon="12.120451180965333"><ele>404.6</ele><time>2026-03-22T13:43:35.958Z</time></trkpt><trkpt lat="45.98078096450796" lon="12.120547141850771"><ele>405.4</ele><time>2026-03-22T13:43:36.958Z</time></trkpt><trkpt lat="45.98074636653263" lon="12.12069847701235"><ele>406.20000000000005</ele><time>2026-03-22T13:43:38.958Z</time></trkpt><trkpt lat="45.980729761988876" lon="12.120819417018318"><ele>407.0</ele><time>2026-03-22T13:43:40.958Z</time></trkpt><trkpt lat="45.98070824912498" lon="12.120953518293293"><ele>404.66666666666663</ele><time>2026-03-22T13:43:43.958Z</time></trkpt><trkpt lat="45.980661914977226" lon="12.121047174022554"><ele>402.3333333333333</ele><time>2026-03-22T13:43:45.958Z</time></trkpt><trkpt lat="45.98059577644064" lon="12.121081477907577"><ele>400.0</ele><time>2026-03-22T13:43:46.958Z</time></trkpt><trkpt lat="45.980517856601686" lon="12.121067279007342"><ele>397.66666666666663</ele><time>2026-03-22T13:43:47.958Z</time></trkpt><trkpt lat="45.980459434281464" lon="12.121028521656365"><ele>395.3333333333333</ele><time>2026-03-22T13:43:48.958Z</time></trkpt><trkpt lat="45.980377664955995" lon="12.120957547532623"><ele>393.0</ele><time>2026-03-22T13:43:49.957Z</time></trkpt><trkpt lat="45.9803066594848" lon="12.120875744543484"><ele>393.0</ele><time>2026-03-22T13:43:50.957Z</time></trkpt><trkpt lat="45.98024341168548" lon="12.120796079570955"><ele>393.0</ele><time>2026-03-22T13:43:51.957Z</time></trkpt><trkpt lat="45.980184046244126" lon="12.120717170688696"><ele>393.0</ele><time>2026-03-22T13:43:52.957Z</time></trkpt><trkpt lat="45.98012560510922" lon="12.120635999640491"><ele>393.0</ele><time>2026-03-22T13:43:53.957Z</time></trkpt><trkpt lat="45.98007294326293" lon="12.120562326866864"><ele>393.0</ele><time>2026-03-22T13:43:54.957Z</time></trkpt><trkpt lat="45.98003210608912" lon="12.120474797309162"><ele>393.0</ele><time>2026-03-22T13:43:55.957Z</time></trkpt><trkpt lat="45.97997561885529" lon="12.120405079979227"><ele>394.5</ele><time>2026-03-22T13:43:56.957Z</time></trkpt><trkpt lat="45.97992768730753" lon="12.120324783425282"><ele>396.0</ele><time>2026-03-22T13:43:57.957Z</time></trkpt><trkpt lat="45.97983873056853" lon="12.120201305511909"><ele>397.5</ele><time>2026-03-22T13:43:59.957Z</time></trkpt><trkpt lat="45.979798738698705" lon="12.120111207101635"><ele>399.0</ele><time>2026-03-22T13:44:00.957Z</time></trkpt><trkpt lat="45.979766095750016" lon="12.11999145533684"><ele>400.5</ele><time>2026-03-22T13:44:01.957Z</time></trkpt><trkpt lat="45.979743412646336" lon="12.11989057197047"><ele>402.0</ele><time>2026-03-22T13:44:02.957Z</time></trkpt><trkpt lat="45.97970215596192" lon="12.119747159845614"><ele>404.40000000000003</ele><time>2026-03-22T13:44:04.957Z</time></trkpt><trkpt lat="45.97960431069159" lon="12.119686193234546"><ele>406.8</ele><time>2026-03-22T13:44:06.957Z</time></trkpt><trkpt lat="45.97949325873787" lon="12.119600257706473"><ele>409.2</ele><time>2026-03-22T13:44:08.957Z</time></trkpt><trkpt lat="45.979430594926725" lon="12.119527633552668"><ele>411.6</ele><time>2026-03-22T13:44:09.957Z</time></trkpt><trkpt lat="45.97935405236814" lon="12.11946433691496"><ele>414.0</ele><time>2026-03-22T13:44:10.957Z</time></trkpt><trkpt lat="45.97930325406543" lon="12.119380912234998"><ele>414.0</ele><time>2026-03-22T13:44:11.957Z</time></trkpt><trkpt lat="45.9792606913352" lon="12.119292151689034"><ele>414.0</ele><time>2026-03-22T13:44:12.957Z</time></trkpt><trkpt lat="45.97921288194336" lon="12.119196947323422"><ele>414.0</ele><time>2026-03-22T13:44:13.957Z</time></trkpt><trkpt lat="45.97916562961764" lon="12.119096642062964"><ele>414.0</ele><time>2026-03-22T13:44:14.957Z</time></trkpt><trkpt lat="45.97913901942591" lon="12.118970890397675"><ele>414.0</ele><time>2026-03-22T13:44:15.957Z</time></trkpt><trkpt lat="45.97916104110539" lon="12.118854000279532"><ele>414.0</ele><time>2026-03-22T13:44:16.957Z</time></trkpt><trkpt lat="45.9791822109091" lon="12.118759878522138"><ele>414.2</ele><time>2026-03-22T13:44:17.957Z</time></trkpt><trkpt lat="45.979206049679874" lon="12.118667493022148"><ele>414.4</ele><time>2026-03-22T13:44:18.957Z</time></trkpt><trkpt lat="45.97924199396534" lon="12.118516018219355"><ele>414.6</ele><time>2026-03-22T13:44:20.957Z</time></trkpt><trkpt lat="45.97921057875065" lon="12.11831125013976"><ele>414.8</ele><time>2026-03-22T13:44:22.957Z</time></trkpt><trkpt lat="45.97912261579164" lon="12.118256573846477"><ele>415.0</ele><time>2026-03-22T13:44:23.957Z</time></trkpt><trkpt lat="45.979030120630746" lon="12.11826305308891"><ele>415.00000000000006</ele><time>2026-03-22T13:44:24.957Z</time></trkpt><trkpt lat="45.97894920498407" lon="12.11825267814407"><ele>415.0</ele><time>2026-03-22T13:44:25.957Z</time></trkpt><trkpt lat="45.97886256378409" lon="12.118236042707172"><ele>415.0</ele><time>2026-03-22T13:44:26.957Z</time></trkpt><trkpt lat="45.978783467407105" lon="12.118218259713315"><ele>415.0</ele><time>2026-03-22T13:44:27.957Z</time></trkpt><trkpt lat="45.9787039491612" lon="12.118200382945508"><ele>415.00000000000006</ele><time>2026-03-22T13:44:28.957Z</time></trkpt><trkpt lat="45.97860719808216" lon="12.1181806966769"><ele>415.0</ele><time>2026-03-22T13:44:29.957Z</time></trkpt><trkpt lat="45.97850745775311" lon="12.118166688711765"><ele>417.33333333333337</ele><time>2026-03-22T13:44:30.957Z</time></trkpt><trkpt lat="45.978419886593336" lon="12.118172244942476"><ele>419.6666666666667</ele><time>2026-03-22T13:44:31.957Z</time></trkpt><trkpt lat="45.97833148052457" lon="12.118148889477137"><ele>422.0</ele><time>2026-03-22T13:44:32.957Z</time></trkpt><trkpt lat="45.97824956739266" lon="12.118090340091042"><ele>424.33333333333337</ele><time>2026-03-22T13:44:33.957Z</time></trkpt><trkpt lat="45.978179756454296" lon="12.118036445016863"><ele>426.6666666666667</ele><time>2026-03-22T13:44:34.957Z</time></trkpt><trkpt lat="45.97810916566363" lon="12.11799741369506"><ele>429.0</ele><time>2026-03-22T13:44:35.957Z</time></trkpt><trkpt lat="45.97804676942185" lon="12.117939723910913"><ele>429.0</ele><time>2026-03-22T13:44:36.957Z</time></trkpt><trkpt lat="45.977961178869265" lon="12.117893059817893"><ele>429.0</ele><time>2026-03-22T13:44:37.957Z</time></trkpt><trkpt lat="45.97788454749209" lon="12.117811599585988"><ele>429.0</ele><time>2026-03-22T13:44:38.957Z</time></trkpt><trkpt lat="45.97782248767012" lon="12.117727122829894"><ele>429.0</ele><time>2026-03-22T13:44:39.957Z</time></trkpt><trkpt lat="45.97776095577371" lon="12.11762675547714"><ele>429.0</ele><time>2026-03-22T13:44:40.957Z</time></trkpt><trkpt lat="45.977714656435026" lon="12.117535437818848"><ele>429.0</ele><time>2026-03-22T13:44:41.957Z</time></trkpt><trkpt lat="45.97766738523184" lon="12.117430619199233"><ele>431.0</ele><time>2026-03-22T13:44:42.957Z</time></trkpt><trkpt lat="45.977630659649336" lon="12.117329963235854"><ele>433.0</ele><time>2026-03-22T13:44:43.957Z</time></trkpt><trkpt lat="45.97760373352602" lon="12.117227239154959"><ele>435.0</ele><time>2026-03-22T13:44:44.957Z</time></trkpt><trkpt lat="45.9775602436287" lon="12.117155404799425"><ele>437.0</ele><time>2026-03-22T13:44:45.957Z</time></trkpt><trkpt lat="45.97747166161202" lon="12.117043418057671"><ele>439.0</ele><time>2026-03-22T13:44:47.957Z</time></trkpt><trkpt lat="45.97740460792058" lon="12.116994066498536"><ele>441.0</ele><time>2026-03-22T13:44:48.957Z</time></trkpt><trkpt lat="45.97732227299107" lon="12.116965530509042"><ele>441.0</ele><time>2026-03-22T13:44:49.957Z</time></trkpt><trkpt lat="45.97725686836928" lon="12.116954951118933"><ele>441.0</ele><time>2026-03-22T13:44:50.957Z</time></trkpt><trkpt lat="45.977187149042855" lon="12.116943673652472"><ele>441.0</ele><time>2026-03-22T13:44:51.957Z</time></trkpt><trkpt lat="45.977117058174144" lon="12.116906786970302"><ele>441.0</ele><time>2026-03-22T13:44:53.957Z</time></trkpt><trkpt lat="45.977175199538635" lon="12.116956742700593"><ele>441.0</ele><time>2026-03-22T13:45:46.957Z</time></trkpt><trkpt lat="45.9772738154073" lon="12.11697529078859"><ele>441.0</ele><time>2026-03-22T13:45:48.957Z</time></trkpt><trkpt lat="45.97738380408587" lon="12.116975484362248"><ele>441.0</ele><time>2026-03-22T13:45:50.957Z</time></trkpt><trkpt lat="45.97748853381086" lon="12.117024990525039"><ele>441.0</ele><time>2026-03-22T13:45:52.957Z</time></trkpt><trkpt lat="45.97757835624782" lon="12.117177592259056"><ele>441.0</ele><time>2026-03-22T13:45:54.957Z</time></trkpt><trkpt lat="45.977602000006385" lon="12.1172694773292"><ele>441.0</ele><time>2026-03-22T13:45:56.957Z</time></trkpt><trkpt lat="45.97762384884232" lon="12.117362780179583"><ele>441.0</ele><time>2026-03-22T13:46:01.956Z</time></trkpt><trkpt lat="45.97765608860758" lon="12.11744936699835"><ele>441.0</ele><time>2026-03-22T13:46:10.956Z</time></trkpt><trkpt lat="45.9776238137211" lon="12.117362683855797"><ele>441.0</ele><time>2026-03-22T13:46:40.956Z</time></trkpt><trkpt lat="45.97758594762141" lon="12.117258902691527"><ele>441.0</ele><time>2026-03-22T13:46:44.956Z</time></trkpt><trkpt lat="45.97755201917123" lon="12.117170272202658"><ele>441.0</ele><time>2026-03-22T13:46:46.956Z</time></trkpt><trkpt lat="45.97746776840225" lon="12.117039876726926"><ele>441.0</ele><time>2026-03-22T13:46:48.956Z</time></trkpt><trkpt lat="45.97738722505245" lon="12.116984839169117"><ele>441.0</ele><time>2026-03-22T13:46:49.956Z</time></trkpt><trkpt lat="45.97732243238792" lon="12.116965556358426"><ele>441.0</ele><time>2026-03-22T13:46:50.956Z</time></trkpt><trkpt lat="45.97725200871411" lon="12.116954165042"><ele>441.0</ele><time>2026-03-22T13:46:53.956Z</time></trkpt><trkpt lat="45.97715875775944" lon="12.11692984573472"><ele>441.0</ele><time>2026-03-22T13:46:57.956Z</time></trkpt><trkpt lat="45.9770993013252" lon="12.11688860260791"><ele>441.0</ele><time>2026-03-22T13:47:00.956Z</time></trkpt><trkpt lat="45.97643319562884" lon="12.117121768311984"><ele>440.5</ele><time>2026-03-22T13:49:14.954Z</time></trkpt><trkpt lat="45.976339252545266" lon="12.117133820164373"><ele>440.0</ele><time>2026-03-22T13:49:16.954Z</time></trkpt><trkpt lat="45.97624314526693" lon="12.117134476370216"><ele>439.5</ele><time>2026-03-22T13:49:18.954Z</time></trkpt><trkpt lat="45.976155827527975" lon="12.11711363430048"><ele>439.0</ele><time>2026-03-22T13:49:20.954Z</time></trkpt><trkpt lat="45.97608800787013" lon="12.117086538092837"><ele>438.5</ele><time>2026-03-22T13:49:22.953Z</time></trkpt><trkpt lat="45.976011342259206" lon="12.117056988902647"><ele>438.0</ele><time>2026-03-22T13:49:26.954Z</time></trkpt><trkpt lat="45.97590974227225" lon="12.117041400764718"><ele>436.6666666666667</ele><time>2026-03-22T13:49:29.954Z</time></trkpt><trkpt lat="45.97580991990942" lon="12.117011936944106"><ele>435.33333333333337</ele><time>2026-03-22T13:49:31.954Z</time></trkpt><trkpt lat="45.97572277776246" lon="12.116982121752674"><ele>434.0</ele><time>2026-03-22T13:49:33.954Z</time></trkpt><trkpt lat="45.97562973706662" lon="12.116982783028838"><ele>432.6666666666667</ele><time>2026-03-22T13:49:35.954Z</time></trkpt><trkpt lat="45.9755660442398" lon="12.117000406738951"><ele>431.33333333333337</ele><time>2026-03-22T13:49:37.954Z</time></trkpt><trkpt lat="45.9754929122451" lon="12.117032479650037"><ele>430.0</ele><time>2026-03-22T13:49:42.954Z</time></trkpt><trkpt lat="45.97542942171856" lon="12.11706872972717"><ele>430.00000000000006</ele><time>2026-03-22T13:49:48.954Z</time></trkpt><trkpt lat="45.9753626746254" lon="12.11707825865956"><ele>430.0</ele><time>2026-03-22T13:49:53.954Z</time></trkpt><trkpt lat="45.97529387737587" lon="12.117055168544024"><ele>430.0</ele><time>2026-03-22T13:50:03.954Z</time></trkpt><trkpt lat="45.975218440488426" lon="12.117085899027515"><ele>430.0</ele><time>2026-03-22T13:50:06.954Z</time></trkpt><trkpt lat="45.975139286049455" lon="12.117136455726165"><ele>430.00000000000006</ele><time>2026-03-22T13:50:08.954Z</time></trkpt><trkpt lat="45.97505643743124" lon="12.117177862267372"><ele>430.0</ele><time>2026-03-22T13:50:10.954Z</time></trkpt><trkpt lat="45.974980261095325" lon="12.117217860933835"><ele>428.2857142857143</ele><time>2026-03-22T13:50:12.954Z</time></trkpt><trkpt lat="45.97492198421265" lon="12.117269598589452"><ele>426.5714285714286</ele><time>2026-03-22T13:50:21.954Z</time></trkpt><trkpt lat="45.97486684852152" lon="12.117316329088387"><ele>424.8571428571429</ele><time>2026-03-22T13:50:40.953Z</time></trkpt><trkpt lat="45.97482120729538" lon="12.117414725478135"><ele>423.1428571428571</ele><time>2026-03-22T13:50:57.953Z</time></trkpt><trkpt lat="45.97476806863646" lon="12.11749021868606"><ele>421.42857142857144</ele><time>2026-03-22T13:51:01.953Z</time></trkpt><trkpt lat="45.97473429046872" lon="12.117577065534679"><ele>419.7142857142857</ele><time>2026-03-22T13:51:04.953Z</time></trkpt><trkpt lat="45.9747019041534" lon="12.117675063376524"><ele>418.0</ele><time>2026-03-22T13:51:09.953Z</time></trkpt><trkpt lat="45.974677699852855" lon="12.117765649994537"><ele>415.1428571428571</ele><time>2026-03-22T13:51:36.953Z</time></trkpt><trkpt lat="45.974658486472535" lon="12.117859735767002"><ele>412.2857142857143</ele><time>2026-03-22T13:51:46.952Z</time></trkpt><trkpt lat="45.97462404853455" lon="12.117939210732603"><ele>409.42857142857144</ele><time>2026-03-22T13:51:52.952Z</time></trkpt><trkpt lat="45.97464897983749" lon="12.118029034849691"><ele>406.57142857142856</ele><time>2026-03-22T13:52:07.952Z</time></trkpt><trkpt lat="45.974703906448745" lon="12.11808728277142"><ele>403.7142857142857</ele><time>2026-03-22T13:52:20.952Z</time></trkpt><trkpt lat="45.97476477603923" lon="12.118122275940875"><ele>400.85714285714283</ele><time>2026-03-22T13:52:42.952Z</time></trkpt><trkpt lat="45.97482786390837" lon="12.11809042248547"><ele>398.0</ele><time>2026-03-22T13:52:50.951Z</time></trkpt><trkpt lat="45.97489793419544" lon="12.118065027977993"><ele>397.99999999999994</ele><time>2026-03-22T13:52:59.951Z</time></trkpt><trkpt lat="45.974974653972524" lon="12.118083977273812"><ele>398.0</ele><time>2026-03-22T13:53:16.951Z</time></trkpt><trkpt lat="45.97501497602295" lon="12.118161225026508"><ele>398.0</ele><time>2026-03-22T13:54:05.951Z</time></trkpt><trkpt lat="45.9750064629942" lon="12.118257363651079"><ele>398.0</ele><time>2026-03-22T13:54:21.951Z</time></trkpt><trkpt lat="45.974953034713174" lon="12.118209224415423"><ele>398.0</ele><time>2026-03-22T13:54:30.951Z</time></trkpt><trkpt lat="45.974942303310115" lon="12.118119117695652"><ele>397.99999999999994</ele><time>2026-03-22T13:54:35.951Z</time></trkpt><trkpt lat="45.97488319699547" lon="12.118076258820238"><ele>398.0</ele><time>2026-03-22T13:54:42.951Z</time></trkpt><trkpt lat="45.9748113810039" lon="12.118097583469519"><ele>397.99999999999994</ele><time>2026-03-22T13:54:47.951Z</time></trkpt><trkpt lat="45.97474754250792" lon="12.118101578752608"><ele>398.0</ele><time>2026-03-22T13:54:53.95Z</time></trkpt><trkpt lat="45.974681119056" lon="12.118112817554106"><ele>398.0</ele><time>2026-03-22T13:55:04.951Z</time></trkpt><trkpt lat="45.974626917649076" lon="12.11805418945112"><ele>398.0</ele><time>2026-03-22T13:55:11.952Z</time></trkpt><trkpt lat="45.97463019675376" lon="12.11796031292768"><ele>398.0</ele><time>2026-03-22T13:55:17.952Z</time></trkpt><trkpt lat="45.97464445077132" lon="12.1178712016716"><ele>397.99999999999994</ele><time>2026-03-22T13:55:24.952Z</time></trkpt><trkpt lat="45.97468874730954" lon="12.117783642104436"><ele>398.0</ele><time>2026-03-22T13:55:34.954Z</time></trkpt><trkpt lat="45.97462716222007" lon="12.117841839629776"><ele>397.99999999999994</ele><time>2026-03-22T13:55:58.955Z</time></trkpt><trkpt lat="45.97460133255882" lon="12.117936874625666"><ele>398.0</ele><time>2026-03-22T13:56:02.955Z</time></trkpt><trkpt lat="45.974634175188896" lon="12.118023218532064"><ele>398.0</ele><time>2026-03-22T13:56:07.955Z</time></trkpt><trkpt lat="45.97471114870256" lon="12.118082775950663"><ele>398.0</ele><time>2026-03-22T13:56:12.955Z</time></trkpt><trkpt lat="45.97477891697074" lon="12.11807148176918"><ele>397.99999999999994</ele><time>2026-03-22T13:56:15.955Z</time></trkpt><trkpt lat="45.97486865655928" lon="12.118090984870719"><ele>398.0</ele><time>2026-03-22T13:56:41.954Z</time></trkpt><trkpt lat="45.97493585656394" lon="12.118076587047241"><ele>397.99999999999994</ele><time>2026-03-22T13:56:45.954Z</time></trkpt><trkpt lat="45.97500901043373" lon="12.118026057245556"><ele>398.0</ele><time>2026-03-22T13:56:48.954Z</time></trkpt><trkpt lat="45.97506725476435" lon="12.117972600076705"><ele>398.0</ele><time>2026-03-22T13:56:52.954Z</time></trkpt><trkpt lat="45.97512259209819" lon="12.117928529105704"><ele>398.0</ele><time>2026-03-22T13:56:57.954Z</time></trkpt><trkpt lat="45.97519422746077" lon="12.11800215913371"><ele>397.99999999999994</ele><time>2026-03-22T13:57:02.954Z</time></trkpt><trkpt lat="45.975272490175485" lon="12.118044682580882"><ele>398.0</ele><time>2026-03-22T13:57:05.954Z</time></trkpt><trkpt lat="45.97532328906282" lon="12.118104321613814"><ele>397.66666666666663</ele><time>2026-03-22T13:57:10.954Z</time></trkpt><trkpt lat="45.975296219080285" lon="12.118193715744926"><ele>397.3333333333333</ele><time>2026-03-22T13:57:13.954Z</time></trkpt><trkpt lat="45.975256855087416" lon="12.118278762080731"><ele>397.0</ele><time>2026-03-22T13:57:16.954Z</time></trkpt><trkpt lat="45.97523027796484" lon="12.118377500493443"><ele>396.66666666666663</ele><time>2026-03-22T13:57:18.954Z</time></trkpt><trkpt lat="45.97520899375215" lon="12.118497337380816"><ele>396.3333333333333</ele><time>2026-03-22T13:57:21.954Z</time></trkpt><trkpt lat="45.97520045558316" lon="12.118610982236506"><ele>396.0</ele><time>2026-03-22T13:57:28.954Z</time></trkpt><trkpt lat="45.975223867683326" lon="12.118709056295707"><ele>393.7142857142857</ele><time>2026-03-22T13:57:32.954Z</time></trkpt><trkpt lat="45.97524588464947" lon="12.118798240413847"><ele>391.4285714285714</ele><time>2026-03-22T13:57:36.954Z</time></trkpt><trkpt lat="45.97525329989259" lon="12.118897657016365"><ele>389.1428571428571</ele><time>2026-03-22T13:57:41.954Z</time></trkpt><trkpt lat="45.975211485017596" lon="12.118978106097702"><ele>386.8571428571429</ele><time>2026-03-22T13:57:46.955Z</time></trkpt><trkpt lat="45.97514004444215" lon="12.11897531945411"><ele>384.57142857142856</ele><time>2026-03-22T13:57:52.955Z</time></trkpt><trkpt lat="45.97520323791343" lon="12.118996492417939"><ele>382.2857142857143</ele><time>2026-03-22T14:02:05.955Z</time></trkpt><trkpt lat="45.97524193308761" lon="12.119097157213746"><ele>380.0</ele><time>2026-03-22T14:02:10.955Z</time></trkpt><trkpt lat="45.975292388044565" lon="12.119162252697322"><ele>378.2857142857143</ele><time>2026-03-22T14:02:13.955Z</time></trkpt><trkpt lat="45.97534623990395" lon="12.119220118933487"><ele>376.57142857142856</ele><time>2026-03-22T14:02:18.955Z</time></trkpt><trkpt lat="45.97537829194926" lon="12.119317654554111"><ele>374.8571428571429</ele><time>2026-03-22T14:02:22.955Z</time></trkpt><trkpt lat="45.97540687612089" lon="12.119402392915205"><ele>373.1428571428571</ele><time>2026-03-22T14:02:25.955Z</time></trkpt><trkpt lat="45.97540603389358" lon="12.11950144058171"><ele>371.4285714285714</ele><time>2026-03-22T14:02:31.955Z</time></trkpt><trkpt lat="45.975410262506685" lon="12.119611351458412"><ele>369.7142857142857</ele><time>2026-03-22T14:02:34.955Z</time></trkpt><trkpt lat="45.97541256977093" lon="12.119740340841552"><ele>368.0</ele><time>2026-03-22T14:02:37.955Z</time></trkpt><trkpt lat="45.97540432331138" lon="12.11983532309859"><ele>366.0</ele><time>2026-03-22T14:02:40.955Z</time></trkpt><trkpt lat="45.97537246957801" lon="12.11995841777485"><ele>364.0</ele><time>2026-03-22T14:02:44.955Z</time></trkpt><trkpt lat="45.97532956717949" lon="12.120047277938445"><ele>362.0</ele><time>2026-03-22T14:02:47.955Z</time></trkpt><trkpt lat="45.975281160111905" lon="12.12014895544054"><ele>360.0</ele><time>2026-03-22T14:02:49.955Z</time></trkpt><trkpt lat="45.97522240768137" lon="12.120226376246631"><ele>358.0</ele><time>2026-03-22T14:02:52.955Z</time></trkpt><trkpt lat="45.9752047416518" lon="12.12031511683865"><ele>356.0</ele><time>2026-03-22T14:02:57.954Z</time></trkpt><trkpt lat="45.97517889359496" lon="12.12040504859628"><ele>355.99999999999994</ele><time>2026-03-22T14:03:00.954Z</time></trkpt><trkpt lat="45.97514654286845" lon="12.120509106835529"><ele>356.0</ele><time>2026-03-22T14:03:03.954Z</time></trkpt><trkpt lat="45.9751227327" lon="12.120618139881834"><ele>356.0</ele><time>2026-03-22T14:03:06.954Z</time></trkpt><trkpt lat="45.97510928246831" lon="12.120722464754847"><ele>356.0</ele><time>2026-03-22T14:03:11.954Z</time></trkpt><trkpt lat="45.97509505787667" lon="12.12082277131307"><ele>356.0</ele><time>2026-03-22T14:03:17.954Z</time></trkpt><trkpt lat="45.97507507948667" lon="12.120921773596992"><ele>355.99999999999994</ele><time>2026-03-22T14:03:21.954Z</time></trkpt><trkpt lat="45.975043664611185" lon="12.121003093713355"><ele>356.0</ele><time>2026-03-22T14:03:24.954Z</time></trkpt><trkpt lat="45.97499884414922" lon="12.121090708363246"><ele>353.57142857142856</ele><time>2026-03-22T14:03:27.954Z</time></trkpt><trkpt lat="45.97495260753464" lon="12.121180026617099"><ele>351.1428571428571</ele><time>2026-03-22T14:03:32.954Z</time></trkpt><trkpt lat="45.97490259105573" lon="12.121259052037836"><ele>348.71428571428567</ele><time>2026-03-22T14:03:37.954Z</time></trkpt><trkpt lat="45.97486379793731" lon="12.121355748752256"><ele>346.2857142857143</ele><time>2026-03-22T14:04:12.955Z</time></trkpt><trkpt lat="45.974837253055924" lon="12.121441239448083"><ele>343.8571428571429</ele><time>2026-03-22T14:04:16.955Z</time></trkpt><trkpt lat="45.97480144586986" lon="12.121530746503868"><ele>341.4285714285714</ele><time>2026-03-22T14:04:22.955Z</time></trkpt><trkpt lat="45.974759443639854" lon="12.12162415894471"><ele>339.0</ele><time>2026-03-22T14:04:27.954Z</time></trkpt><trkpt lat="45.97474458292222" lon="12.121725563669193"><ele>337.57142857142856</ele><time>2026-03-22T14:04:33.954Z</time></trkpt><trkpt lat="45.974717094653684" lon="12.121807084307788"><ele>336.14285714285717</ele><time>2026-03-22T14:04:38.954Z</time></trkpt><trkpt lat="45.97472060534725" lon="12.121914030262651"><ele>334.7142857142857</ele><time>2026-03-22T14:04:43.954Z</time></trkpt><trkpt lat="45.97476940179584" lon="12.121974207405295"><ele>333.2857142857143</ele><time>2026-03-22T14:04:47.954Z</time></trkpt><trkpt lat="45.974833803118216" lon="12.122032498407476"><ele>331.8571428571429</ele><time>2026-03-22T14:04:51.954Z</time></trkpt><trkpt lat="45.97484785415985" lon="12.12212391836525"><ele>330.42857142857144</ele><time>2026-03-22T14:04:57.954Z</time></trkpt><trkpt lat="45.97485024598183" lon="12.12222298835649"><ele>329.0</ele><time>2026-03-22T14:05:09.954Z</time></trkpt><trkpt lat="45.97477954581748" lon="12.12227034382446"><ele>329.0</ele><time>2026-03-22T14:05:14.954Z</time></trkpt><trkpt lat="45.974703521018064" lon="12.122339141598372"><ele>329.0</ele><time>2026-03-22T14:05:17.954Z</time></trkpt><trkpt lat="45.97462584602824" lon="12.12239502942917"><ele>329.0</ele><time>2026-03-22T14:05:20.954Z</time></trkpt><trkpt lat="45.974576333398886" lon="12.122460253492342"><ele>329.0</ele><time>2026-03-22T14:05:23.954Z</time></trkpt><trkpt lat="45.974551321934676" lon="12.12255036374593"><ele>329.0</ele><time>2026-03-22T14:05:26.954Z</time></trkpt><trkpt lat="45.97453868903899" lon="12.122663647023812"><ele>329.0</ele><time>2026-03-22T14:05:31.954Z</time></trkpt><trkpt lat="45.974503722920296" lon="12.122762875414166"><ele>327.7142857142857</ele><time>2026-03-22T14:05:35.954Z</time></trkpt><trkpt lat="45.97447898033398" lon="12.12285718519313"><ele>326.42857142857144</ele><time>2026-03-22T14:05:40.953Z</time></trkpt><trkpt lat="45.97444446884056" lon="12.122960298293329"><ele>325.1428571428571</ele><time>2026-03-22T14:05:46.953Z</time></trkpt><trkpt lat="45.974416286226145" lon="12.123063404037334"><ele>323.8571428571429</ele><time>2026-03-22T14:05:49.953Z</time></trkpt><trkpt lat="45.974416851266376" lon="12.12318270262482"><ele>322.57142857142856</ele><time>2026-03-22T14:05:58.953Z</time></trkpt><trkpt lat="45.974446027433956" lon="12.123268255317184"><ele>321.2857142857143</ele><time>2026-03-22T14:06:11.954Z</time></trkpt><trkpt lat="45.974408251987185" lon="12.123343155645443"><ele>320.0</ele><time>2026-03-22T14:06:38.953Z</time></trkpt><trkpt lat="45.974383904913495" lon="12.123427036163179"><ele>317.5</ele><time>2026-03-22T14:06:43.953Z</time></trkpt><trkpt lat="45.9743899791461" lon="12.123520062130545"><ele>315.0</ele><time>2026-03-22T14:06:49.953Z</time></trkpt><trkpt lat="45.974404790277774" lon="12.123617554050654"><ele>312.5</ele><time>2026-03-22T14:06:54.953Z</time></trkpt><trkpt lat="45.97446102002691" lon="12.123721829198145"><ele>310.0</ele><time>2026-03-22T14:06:58.953Z</time></trkpt><trkpt lat="45.97452326577932" lon="12.12377918822487"><ele>307.5</ele><time>2026-03-22T14:07:00.953Z</time></trkpt><trkpt lat="45.97459430996773" lon="12.123836388711975"><ele>305.0</ele><time>2026-03-22T14:07:13.953Z</time></trkpt><trkpt lat="45.97461286942707" lon="12.12395882205542"><ele>301.83333333333337</ele><time>2026-03-22T14:07:17.953Z</time></trkpt><trkpt lat="45.9745752691074" lon="12.124083115406997"><ele>298.6666666666667</ele><time>2026-03-22T14:07:20.953Z</time></trkpt><trkpt lat="45.97455309447535" lon="12.12418169377945"><ele>295.5</ele><time>2026-03-22T14:07:23.953Z</time></trkpt><trkpt lat="45.97453351331386" lon="12.124273712382852"><ele>292.3333333333333</ele><time>2026-03-22T14:07:27.953Z</time></trkpt><trkpt lat="45.97447144836051" lon="12.124304382120565"><ele>289.16666666666663</ele><time>2026-03-22T14:07:31.953Z</time></trkpt><trkpt lat="45.97438219430996" lon="12.124307835789923"><ele>286.0</ele><time>2026-03-22T14:07:33.953Z</time></trkpt><trkpt lat="45.97430335011478" lon="12.124312015213768"><ele>286.0</ele><time>2026-03-22T14:07:35.953Z</time></trkpt><trkpt lat="45.97423105195976" lon="12.12431303386245"><ele>286.0</ele><time>2026-03-22T14:07:37.953Z</time></trkpt><trkpt lat="45.97415961593634" lon="12.124334571982931"><ele>286.0</ele><time>2026-03-22T14:08:20.954Z</time></trkpt><trkpt lat="45.97409592157123" lon="12.124370847686368"><ele>286.0</ele><time>2026-03-22T14:08:22.954Z</time></trkpt><trkpt lat="45.974009199610066" lon="12.124422277421257"><ele>286.0</ele><time>2026-03-22T14:08:24.954Z</time></trkpt><trkpt lat="45.97392292962538" lon="12.124493775495159"><ele>286.0</ele><time>2026-03-22T14:08:26.954Z</time></trkpt><trkpt lat="45.97382150922701" lon="12.124581033690554"><ele>285.71428571428567</ele><time>2026-03-22T14:08:28.954Z</time></trkpt><trkpt lat="45.97373920896484" lon="12.124567059229268"><ele>285.42857142857144</ele><time>2026-03-22T14:08:29.954Z</time></trkpt><trkpt lat="45.973677895973765" lon="12.12461681379355"><ele>285.1428571428571</ele><time>2026-03-22T14:08:30.954Z</time></trkpt><trkpt lat="45.973617349716015" lon="12.124658630027211"><ele>284.85714285714283</ele><time>2026-03-22T14:08:31.953Z</time></trkpt><trkpt lat="45.97355123934957" lon="12.124701777304644"><ele>284.57142857142856</ele><time>2026-03-22T14:08:32.953Z</time></trkpt><trkpt lat="45.9734872158301" lon="12.124745072193395"><ele>284.2857142857143</ele><time>2026-03-22T14:08:33.953Z</time></trkpt><trkpt lat="45.97343210181704" lon="12.124808179122"><ele>284.0</ele><time>2026-03-22T14:08:34.953Z</time></trkpt><trkpt lat="45.973367283722496" lon="12.124838835621233"><ele>283.85714285714283</ele><time>2026-03-22T14:08:35.953Z</time></trkpt><trkpt lat="45.973303399390744" lon="12.124889410624645"><ele>283.71428571428567</ele><time>2026-03-22T14:08:36.953Z</time></trkpt><trkpt lat="45.97323823508822" lon="12.124949351249727"><ele>283.57142857142856</ele><time>2026-03-22T14:08:37.953Z</time></trkpt><trkpt lat="45.97317746455868" lon="12.125011979725368"><ele>283.42857142857144</ele><time>2026-03-22T14:08:38.953Z</time></trkpt><trkpt lat="45.973109996753735" lon="12.125048651971209"><ele>283.28571428571433</ele><time>2026-03-22T14:08:39.953Z</time></trkpt><trkpt lat="45.97305407695656" lon="12.125109854459806"><ele>283.14285714285717</ele><time>2026-03-22T14:08:40.953Z</time></trkpt><trkpt lat="45.97300138933124" lon="12.125177461049795"><ele>283.0</ele><time>2026-03-22T14:08:41.953Z</time></trkpt><trkpt lat="45.97295345985218" lon="12.12525936427945"><ele>283.0</ele><time>2026-03-22T14:08:42.953Z</time></trkpt><trkpt lat="45.9729126044094" lon="12.125349675310737"><ele>283.0</ele><time>2026-03-22T14:08:43.953Z</time></trkpt><trkpt lat="45.97287550559271" lon="12.125458909788964"><ele>283.0</ele><time>2026-03-22T14:08:44.953Z</time></trkpt><trkpt lat="45.972839328829544" lon="12.125570337555459"><ele>283.0</ele><time>2026-03-22T14:08:45.953Z</time></trkpt><trkpt lat="45.972803720899066" lon="12.125679692533316"><ele>283.0</ele><time>2026-03-22T14:08:46.953Z</time></trkpt><trkpt lat="45.97277112324358" lon="12.125776285854855"><ele>283.0</ele><time>2026-03-22T14:08:47.953Z</time></trkpt><trkpt lat="45.97271153812664" lon="12.125908301293459"><ele>283.0</ele><time>2026-03-22T14:08:49.953Z</time></trkpt><trkpt lat="45.972644867589125" lon="12.126001593827892"><ele>283.0</ele><time>2026-03-22T14:08:51.953Z</time></trkpt><trkpt lat="45.97259247843984" lon="12.12605718129779"><ele>283.0</ele><time>2026-03-22T14:08:52.953Z</time></trkpt><trkpt lat="45.97253273392099" lon="12.126095474205307"><ele>283.0</ele><time>2026-03-22T14:08:53.953Z</time></trkpt><trkpt lat="45.97246352681402" lon="12.12612891476836"><ele>283.0</ele><time>2026-03-22T14:08:54.953Z</time></trkpt><trkpt lat="45.97239656002716" lon="12.126159089574426"><ele>283.0</ele><time>2026-03-22T14:08:55.953Z</time></trkpt><trkpt lat="45.97232057208062" lon="12.126161747870723"><ele>283.0</ele><time>2026-03-22T14:08:56.953Z</time></trkpt><trkpt lat="45.97224292534702" lon="12.12616330988656"><ele>281.66666666666663</ele><time>2026-03-22T14:08:57.953Z</time></trkpt><trkpt lat="45.972163704711555" lon="12.126162569158037"><ele>280.3333333333333</ele><time>2026-03-22T14:08:58.953Z</time></trkpt><trkpt lat="45.972075968437196" lon="12.126185309253005"><ele>279.0</ele><time>2026-03-22T14:08:59.953Z</time></trkpt><trkpt lat="45.971986153623455" lon="12.126183447829678"><ele>277.6666666666667</ele><time>2026-03-22T14:09:00.953Z</time></trkpt><trkpt lat="45.971890928096656" lon="12.126170879892802"><ele>276.33333333333337</ele><time>2026-03-22T14:09:01.953Z</time></trkpt><trkpt lat="45.97179962747258" lon="12.126177663409061"><ele>275.0</ele><time>2026-03-22T14:09:02.953Z</time></trkpt><trkpt lat="45.97170676195899" lon="12.12616367210687"><ele>273.6</ele><time>2026-03-22T14:09:03.953Z</time></trkpt><trkpt lat="45.97160573859543" lon="12.12619784576049"><ele>272.2</ele><time>2026-03-22T14:09:04.953Z</time></trkpt><trkpt lat="45.971519047125526" lon="12.126245712042811"><ele>270.8</ele><time>2026-03-22T14:09:05.953Z</time></trkpt><trkpt lat="45.97141713137258" lon="12.126293300335147"><ele>269.4</ele><time>2026-03-22T14:09:06.953Z</time></trkpt><trkpt lat="45.97132259305599" lon="12.126335168285086"><ele>268.0</ele><time>2026-03-22T14:09:07.953Z</time></trkpt><trkpt lat="45.971223307907266" lon="12.1263955934802"><ele>268.0</ele><time>2026-03-22T14:09:08.953Z</time></trkpt><trkpt lat="45.97112734062303" lon="12.126461329726832"><ele>268.0</ele><time>2026-03-22T14:09:09.953Z</time></trkpt><trkpt lat="45.97102923237874" lon="12.126503553168366"><ele>268.0</ele><time>2026-03-22T14:09:10.953Z</time></trkpt><trkpt lat="45.9709455267398" lon="12.126580691907957"><ele>268.0</ele><time>2026-03-22T14:09:11.953Z</time></trkpt><trkpt lat="45.97087079649866" lon="12.126653419966212"><ele>268.0</ele><time>2026-03-22T14:09:12.953Z</time></trkpt><trkpt lat="45.970785917689255" lon="12.12673181211979"><ele>266.4</ele><time>2026-03-22T14:09:13.953Z</time></trkpt><trkpt lat="45.970704099975485" lon="12.12680728424002"><ele>264.8</ele><time>2026-03-22T14:09:14.953Z</time></trkpt><trkpt lat="45.97061914973757" lon="12.126884013633562"><ele>263.2</ele><time>2026-03-22T14:09:15.953Z</time></trkpt><trkpt lat="45.97053683387931" lon="12.126987523398629"><ele>261.6</ele><time>2026-03-22T14:09:16.953Z</time></trkpt><trkpt lat="45.97045313353113" lon="12.127069043030685"><ele>260.0</ele><time>2026-03-22T14:09:17.953Z</time></trkpt><trkpt lat="45.97037129801533" lon="12.127157379063414"><ele>260.0</ele><time>2026-03-22T14:09:18.953Z</time></trkpt><trkpt lat="45.970294449575995" lon="12.127258217689942"><ele>260.0</ele><time>2026-03-22T14:09:19.953Z</time></trkpt><trkpt lat="45.97022338205166" lon="12.127370172826224"><ele>260.0</ele><time>2026-03-22T14:09:20.953Z</time></trkpt><trkpt lat="45.97015685158572" lon="12.127486050779694"><ele>260.0</ele><time>2026-03-22T14:09:21.953Z</time></trkpt><trkpt lat="45.9700781467191" lon="12.127594172350884"><ele>260.0</ele><time>2026-03-22T14:09:22.953Z</time></trkpt><trkpt lat="45.970007708528115" lon="12.127708361281725"><ele>259.2</ele><time>2026-03-22T14:09:23.953Z</time></trkpt><trkpt lat="45.96992974189542" lon="12.127825875016946"><ele>258.4</ele><time>2026-03-22T14:09:24.953Z</time></trkpt><trkpt lat="45.96985053166958" lon="12.127929692708856"><ele>257.6</ele><time>2026-03-22T14:09:25.953Z</time></trkpt><trkpt lat="45.96976697887082" lon="12.128016880701395"><ele>256.8</ele><time>2026-03-22T14:09:26.953Z</time></trkpt><trkpt lat="45.96967338023726" lon="12.128085670522397"><ele>256.0</ele><time>2026-03-22T14:09:27.953Z</time></trkpt><trkpt lat="45.96956905654127" lon="12.128133980787924"><ele>256.0</ele><time>2026-03-22T14:09:28.953Z</time></trkpt><trkpt lat="45.969461091533375" lon="12.12816016617539"><ele>256.0</ele><time>2026-03-22T14:09:29.953Z</time></trkpt><trkpt lat="45.9693580521767" lon="12.12819578824371"><ele>256.0</ele><time>2026-03-22T14:09:30.953Z</time></trkpt><trkpt lat="45.96925102340115" lon="12.128211321202613"><ele>256.0</ele><time>2026-03-22T14:09:31.953Z</time></trkpt><trkpt lat="45.96914696487993" lon="12.128258525028878"><ele>256.0</ele><time>2026-03-22T14:09:32.953Z</time></trkpt><trkpt lat="45.969043669714004" lon="12.128344170146493"><ele>254.4</ele><time>2026-03-22T14:09:33.953Z</time></trkpt><trkpt lat="45.96894090769599" lon="12.12838014703733"><ele>252.8</ele><time>2026-03-22T14:09:34.953Z</time></trkpt><trkpt lat="45.968837664736284" lon="12.128392514217387"><ele>251.20000000000002</ele><time>2026-03-22T14:09:35.953Z</time></trkpt><trkpt lat="45.96873652985384" lon="12.128368798808454"><ele>249.60000000000002</ele><time>2026-03-22T14:09:36.953Z</time></trkpt><trkpt lat="45.968644869436474" lon="12.12832826459379"><ele>248.0</ele><time>2026-03-22T14:09:37.953Z</time></trkpt><trkpt lat="45.96854793721943" lon="12.12828522831655"><ele>248.00000000000003</ele><time>2026-03-22T14:09:38.953Z</time></trkpt><trkpt lat="45.96845753074003" lon="12.128242621775758"><ele>248.0</ele><time>2026-03-22T14:09:39.953Z</time></trkpt><trkpt lat="45.96839692511413" lon="12.12819091468983"><ele>248.0</ele><time>2026-03-22T14:09:40.953Z</time></trkpt><trkpt lat="45.9683347054735" lon="12.128154323855767"><ele>248.0</ele><time>2026-03-22T14:09:41.953Z</time></trkpt><trkpt lat="45.96827597979836" lon="12.12811715333507"><ele>248.00000000000003</ele><time>2026-03-22T14:09:43.952Z</time></trkpt><trkpt lat="45.96821850026003" lon="12.128057357974921"><ele>248.0</ele><time>2026-03-22T14:09:54.952Z</time></trkpt><trkpt lat="45.96820406473753" lon="12.127923352944995"><ele>247.83333333333334</ele><time>2026-03-22T14:09:57.952Z</time></trkpt><trkpt lat="45.9681901458252" lon="12.127767144570301"><ele>247.66666666666669</ele><time>2026-03-22T14:09:59.952Z</time></trkpt><trkpt lat="45.968202844941516" lon="12.12762265044848"><ele>247.5</ele><time>2026-03-22T14:10:01.952Z</time></trkpt><trkpt lat="45.96821045408429" lon="12.127530191512008"><ele>247.33333333333331</ele><time>2026-03-22T14:10:03.952Z</time></trkpt><trkpt lat="45.96821181703946" lon="12.127435498473444"><ele>247.16666666666666</ele><time>2026-03-22T14:10:06.952Z</time></trkpt><trkpt lat="45.96821899757539" lon="12.12729476152412"><ele>247.0</ele><time>2026-03-22T14:10:08.952Z</time></trkpt><trkpt lat="45.968220276853756" lon="12.1271240577283"><ele>249.0</ele><time>2026-03-22T14:10:10.952Z</time></trkpt></trkseg></trk></gpx>